<?xml version='1.0' encoding='UTF-8'?><gpx version="1.1" creator="JPX - https://github.com/jenetics/jpx" xmlns="http://www.topografix.com/GPX/1/1"><trk><trkseg><trkpt lat="45.19871064176348" lon="11.687650836975628"><ele>7.999999999999999</ele><time>2026-04-03T12:09:14.857Z</time></trkpt><trkpt lat="45.19872649474314" lon="11.687759039683188"><ele>8.0</ele><time>2026-04-03T12:17:18.877Z</time></trkpt><trkpt lat="45.198645428787785" lon="11.687766034212178"><ele>8.0</ele><time>2026-04-03T12:18:51.878Z</time></trkpt><trkpt lat="45.198648738129165" lon="11.687848022966477"><ele>8.0</ele><time>2026-04-03T12:23:00.874Z</time></trkpt><trkpt lat="45.19865474273587" lon="11.687947480382729"><ele>7.999999999999999</ele><time>2026-04-03T12:23:05.874Z</time></trkpt><trkpt lat="45.19859393453272" lon="11.687898462971269"><ele>8.0</ele><time>2026-04-03T12:23:08.874Z</time></trkpt><trkpt lat="45.19860138128826" lon="11.687747573191542"><ele>7.999999999999999</ele><time>2026-04-03T12:23:27.874Z</time></trkpt><trkpt lat="45.19865131796905" lon="11.687682070081006"><ele>8.0</ele><time>2026-04-03T12:23:28.874Z</time></trkpt><trkpt lat="45.198716749370895" lon="11.687596400627084"><ele>8.0</ele><time>2026-04-03T12:23:29.874Z</time></trkpt><trkpt lat="45.198756335798336" lon="11.687485588503352"><ele>8.0</ele><time>2026-04-03T12:23:30.874Z</time></trkpt><trkpt lat="45.19880196524914" lon="11.687385570047487"><ele>7.999999999999999</ele><time>2026-04-03T12:23:31.874Z</time></trkpt><trkpt lat="45.19888710363662" lon="11.687305573134394"><ele>8.0</ele><time>2026-04-03T12:23:32.874Z</time></trkpt><trkpt lat="45.198983566032865" lon="11.68723570177966"><ele>8.0</ele><time>2026-04-03T12:23:33.874Z</time></trkpt><trkpt lat="45.199107660632635" lon="11.687209028928791"><ele>8.0</ele><time>2026-04-03T12:23:34.874Z</time></trkpt><trkpt lat="45.19920465653333" lon="11.687179246368997"><ele>8.0</ele><time>2026-04-03T12:23:35.874Z</time></trkpt><trkpt lat="45.19932374375365" lon="11.687168142149563"><ele>8.0</ele><time>2026-04-03T12:23:36.874Z</time></trkpt><trkpt lat="45.19945500730127" lon="11.687182990155287"><ele>8.0</ele><time>2026-04-03T12:23:37.874Z</time></trkpt><trkpt lat="45.19957058340058" lon="11.687233603123305"><ele>8.0</ele><time>2026-04-03T12:23:38.874Z</time></trkpt><trkpt lat="45.199682821803215" lon="11.687304710087602"><ele>8.0</ele><time>2026-04-03T12:23:39.874Z</time></trkpt><trkpt lat="45.199798566372614" lon="11.687361444592199"><ele>8.0</ele><time>2026-04-03T12:23:40.874Z</time></trkpt><trkpt lat="45.19992746134821" lon="11.68743392673622"><ele>8.5</ele><time>2026-04-03T12:23:41.874Z</time></trkpt><trkpt lat="45.200045967060724" lon="11.687483408345974"><ele>9.0</ele><time>2026-04-03T12:23:42.874Z</time></trkpt><trkpt lat="45.200167807677644" lon="11.68754162908896"><ele>9.5</ele><time>2026-04-03T12:23:43.874Z</time></trkpt><trkpt lat="45.200277373666964" lon="11.687598116369987"><ele>10.0</ele><time>2026-04-03T12:23:44.874Z</time></trkpt><trkpt lat="45.200390192779" lon="11.687660117024112"><ele>10.0</ele><time>2026-04-03T12:23:45.874Z</time></trkpt><trkpt lat="45.20048521227561" lon="11.687711890714311"><ele>10.0</ele><time>2026-04-03T12:23:46.874Z</time></trkpt><trkpt lat="45.20056885632266" lon="11.68775300714735"><ele>10.0</ele><time>2026-04-03T12:23:47.873Z</time></trkpt><trkpt lat="45.20064243528468" lon="11.687784626646854"><ele>10.0</ele><time>2026-04-03T12:23:48.873Z</time></trkpt><trkpt lat="45.20071299246986" lon="11.68782725434598"><ele>10.0</ele><time>2026-04-03T12:23:49.873Z</time></trkpt><trkpt lat="45.20077727486974" lon="11.687798883744133"><ele>10.0</ele><time>2026-04-03T12:23:50.873Z</time></trkpt><trkpt lat="45.20084020147717" lon="11.687792511810612"><ele>10.2</ele><time>2026-04-03T12:23:51.873Z</time></trkpt><trkpt lat="45.20091151382881" lon="11.687773646439886"><ele>10.4</ele><time>2026-04-03T12:23:52.873Z</time></trkpt><trkpt lat="45.200979680193214" lon="11.68770133940316"><ele>10.600000000000001</ele><time>2026-04-03T12:23:54.873Z</time></trkpt><trkpt lat="45.2011021373125" lon="11.687777266834066"><ele>10.8</ele><time>2026-04-03T12:23:57.873Z</time></trkpt><trkpt lat="45.20114490897688" lon="11.687853966546909"><ele>11.0</ele><time>2026-04-03T12:23:58.873Z</time></trkpt><trkpt lat="45.20121362636725" lon="11.687936053046256"><ele>10.5</ele><time>2026-04-03T12:23:59.873Z</time></trkpt><trkpt lat="45.201292819365854" lon="11.68802759796633"><ele>10.0</ele><time>2026-04-03T12:24:00.873Z</time></trkpt><trkpt lat="45.2013711050446" lon="11.688122276405744"><ele>9.5</ele><time>2026-04-03T12:24:01.873Z</time></trkpt><trkpt lat="45.20146369048902" lon="11.68823392695181"><ele>9.0</ele><time>2026-04-03T12:24:02.873Z</time></trkpt><trkpt lat="45.20156958929527" lon="11.688339911379485"><ele>9.0</ele><time>2026-04-03T12:24:03.873Z</time></trkpt><trkpt lat="45.20167432198862" lon="11.688430702682881"><ele>9.0</ele><time>2026-04-03T12:24:04.873Z</time></trkpt><trkpt lat="45.20179105409363" lon="11.688511066706585"><ele>9.0</ele><time>2026-04-03T12:24:05.873Z</time></trkpt><trkpt lat="45.20191983807127" lon="11.688573089846683"><ele>9.0</ele><time>2026-04-03T12:24:06.873Z</time></trkpt><trkpt lat="45.20203651944879" lon="11.688652096156513"><ele>8.8</ele><time>2026-04-03T12:24:07.873Z</time></trkpt><trkpt lat="45.20214128218972" lon="11.688706835456129"><ele>8.600000000000001</ele><time>2026-04-03T12:24:08.873Z</time></trkpt><trkpt lat="45.20223484782375" lon="11.688758930786241"><ele>8.4</ele><time>2026-04-03T12:24:09.873Z</time></trkpt><trkpt lat="45.202321222388356" lon="11.688800121259073"><ele>8.200000000000001</ele><time>2026-04-03T12:24:10.873Z</time></trkpt><trkpt lat="45.202395641487776" lon="11.688837463129376"><ele>8.0</ele><time>2026-04-03T12:24:11.873Z</time></trkpt><trkpt lat="45.20246157335259" lon="11.6888792631448"><ele>8.333333333333332</ele><time>2026-04-03T12:24:12.873Z</time></trkpt><trkpt lat="45.20252657015341" lon="11.688903228598338"><ele>8.666666666666666</ele><time>2026-04-03T12:24:13.873Z</time></trkpt><trkpt lat="45.20262761712866" lon="11.688927259901252"><ele>9.0</ele><time>2026-04-03T12:24:15.873Z</time></trkpt><trkpt lat="45.202699632188256" lon="11.688960032370808"><ele>9.333333333333334</ele><time>2026-04-03T12:24:16.873Z</time></trkpt><trkpt lat="45.20276514579762" lon="11.68899132826853"><ele>9.666666666666668</ele><time>2026-04-03T12:24:17.873Z</time></trkpt><trkpt lat="45.20284069325314" lon="11.689031516357462"><ele>10.0</ele><time>2026-04-03T12:24:18.873Z</time></trkpt><trkpt lat="45.202921247163474" lon="11.68907132603659"><ele>10.0</ele><time>2026-04-03T12:24:19.873Z</time></trkpt><trkpt lat="45.20300767662378" lon="11.689107275741675"><ele>10.0</ele><time>2026-04-03T12:24:20.873Z</time></trkpt><trkpt lat="45.20308259381659" lon="11.689147418354954"><ele>10.0</ele><time>2026-04-03T12:24:21.873Z</time></trkpt><trkpt lat="45.20315664084942" lon="11.689182176942284"><ele>10.0</ele><time>2026-04-03T12:24:22.873Z</time></trkpt><trkpt lat="45.20326328111892" lon="11.689229992433217"><ele>10.0</ele><time>2026-04-03T12:24:24.873Z</time></trkpt><trkpt lat="45.20332183879461" lon="11.689267242463862"><ele>10.0</ele><time>2026-04-03T12:24:26.873Z</time></trkpt><trkpt lat="45.203356224508234" lon="11.689163355152083"><ele>10.0</ele><time>2026-04-03T12:24:27.873Z</time></trkpt><trkpt lat="45.20337251173793" lon="11.689057479157064"><ele>10.0</ele><time>2026-04-03T12:24:28.873Z</time></trkpt><trkpt lat="45.20339295860633" lon="11.688962079186629"><ele>10.0</ele><time>2026-04-03T12:24:29.873Z</time></trkpt><trkpt lat="45.20342646922747" lon="11.688863249113343"><ele>10.0</ele><time>2026-04-03T12:24:30.873Z</time></trkpt><trkpt lat="45.20345368878902" lon="11.688773416599451"><ele>10.0</ele><time>2026-04-03T12:24:31.873Z</time></trkpt><trkpt lat="45.20348609934955" lon="11.68867211796397"><ele>10.0</ele><time>2026-04-03T12:24:32.873Z</time></trkpt><trkpt lat="45.20351313403841" lon="11.688583004402629"><ele>10.0</ele><time>2026-04-03T12:24:33.873Z</time></trkpt><trkpt lat="45.203542196934855" lon="11.688502062152294"><ele>10.0</ele><time>2026-04-03T12:24:34.873Z</time></trkpt><trkpt lat="45.203556176120856" lon="11.688409003525445"><ele>10.0</ele><time>2026-04-03T12:24:36.872Z</time></trkpt><trkpt lat="45.20357395569594" lon="11.688317840757595"><ele>10.0</ele><time>2026-04-03T12:24:41.872Z</time></trkpt><trkpt lat="45.20361820072727" lon="11.688159543810773"><ele>10.0</ele><time>2026-04-03T12:24:43.872Z</time></trkpt><trkpt lat="45.203645583070944" lon="11.688060040258238"><ele>10.0</ele><time>2026-04-03T12:24:44.872Z</time></trkpt><trkpt lat="45.2036952340611" lon="11.68795815846603"><ele>10.0</ele><time>2026-04-03T12:24:45.872Z</time></trkpt><trkpt lat="45.20372192548218" lon="11.687832629793167"><ele>10.0</ele><time>2026-04-03T12:24:46.872Z</time></trkpt><trkpt lat="45.203769227503344" lon="11.687707389854133"><ele>10.0</ele><time>2026-04-03T12:24:47.872Z</time></trkpt><trkpt lat="45.20381593401738" lon="11.687587474067968"><ele>10.0</ele><time>2026-04-03T12:24:48.872Z</time></trkpt><trkpt lat="45.203862773107936" lon="11.687456035552394"><ele>10.0</ele><time>2026-04-03T12:24:49.872Z</time></trkpt><trkpt lat="45.20391361913633" lon="11.687330337294714"><ele>10.0</ele><time>2026-04-03T12:24:50.872Z</time></trkpt><trkpt lat="45.20396424540576" lon="11.687196314825579"><ele>9.8</ele><time>2026-04-03T12:24:51.872Z</time></trkpt><trkpt lat="45.20401610172263" lon="11.68706318930536"><ele>9.6</ele><time>2026-04-03T12:24:52.872Z</time></trkpt><trkpt lat="45.20406467185438" lon="11.686926122959724"><ele>9.4</ele><time>2026-04-03T12:24:53.872Z</time></trkpt><trkpt lat="45.2041216649354" lon="11.68679547929032"><ele>9.2</ele><time>2026-04-03T12:24:54.872Z</time></trkpt><trkpt lat="45.20417472190407" lon="11.686670405429947"><ele>9.0</ele><time>2026-04-03T12:24:55.872Z</time></trkpt><trkpt lat="45.20423056263003" lon="11.686552806568214"><ele>8.666666666666666</ele><time>2026-04-03T12:24:56.872Z</time></trkpt><trkpt lat="45.20428011124485" lon="11.686446738409431"><ele>8.333333333333334</ele><time>2026-04-03T12:24:57.872Z</time></trkpt><trkpt lat="45.2043273127765" lon="11.686346255381979"><ele>8.0</ele><time>2026-04-03T12:24:58.872Z</time></trkpt><trkpt lat="45.20437034541382" lon="11.686260006133432"><ele>7.666666666666667</ele><time>2026-04-03T12:24:59.872Z</time></trkpt><trkpt lat="45.20440987192981" lon="11.686183090511959"><ele>7.333333333333334</ele><time>2026-04-03T12:25:00.872Z</time></trkpt><trkpt lat="45.204463779006474" lon="11.686064427969786"><ele>7.0</ele><time>2026-04-03T12:25:02.872Z</time></trkpt><trkpt lat="45.20449549354887" lon="11.68598393391861"><ele>7.0</ele><time>2026-04-03T12:25:31.872Z</time></trkpt><trkpt lat="45.20460990852982" lon="11.685904970263852"><ele>6.999999999999999</ele><time>2026-04-03T12:25:34.872Z</time></trkpt><trkpt lat="45.204685797229196" lon="11.685880923000536"><ele>6.999999999999999</ele><time>2026-04-03T12:25:35.872Z</time></trkpt><trkpt lat="45.204772744104794" lon="11.68584996782843"><ele>7.0</ele><time>2026-04-03T12:25:36.872Z</time></trkpt><trkpt lat="45.204865592459115" lon="11.685808177296742"><ele>7.0</ele><time>2026-04-03T12:25:37.872Z</time></trkpt><trkpt lat="45.20496746416078" lon="11.685752675999732"><ele>7.25</ele><time>2026-04-03T12:25:38.872Z</time></trkpt><trkpt lat="45.205068696660796" lon="11.685693465336458"><ele>7.5</ele><time>2026-04-03T12:25:39.872Z</time></trkpt><trkpt lat="45.20517979882089" lon="11.685624957987692"><ele>7.75</ele><time>2026-04-03T12:25:40.872Z</time></trkpt><trkpt lat="45.205297540545835" lon="11.685556001407289"><ele>8.0</ele><time>2026-04-03T12:25:41.872Z</time></trkpt><trkpt lat="45.20541769672729" lon="11.685485681074947"><ele>8.0</ele><time>2026-04-03T12:25:42.872Z</time></trkpt><trkpt lat="45.20553250829439" lon="11.685415182760165"><ele>8.0</ele><time>2026-04-03T12:25:43.872Z</time></trkpt><trkpt lat="45.20565342246935" lon="11.68533584342623"><ele>8.0</ele><time>2026-04-03T12:25:44.872Z</time></trkpt><trkpt lat="45.20577794605864" lon="11.685236063948109"><ele>8.0</ele><time>2026-04-03T12:25:45.871Z</time></trkpt><trkpt lat="45.2059045951295" lon="11.685146215992283"><ele>7.0</ele><time>2026-04-03T12:25:46.871Z</time></trkpt><trkpt lat="45.20602986161362" lon="11.685050085734687"><ele>6.0</ele><time>2026-04-03T12:25:47.871Z</time></trkpt><trkpt lat="45.2061541588033" lon="11.684938204303897"><ele>5.0</ele><time>2026-04-03T12:25:48.871Z</time></trkpt><trkpt lat="45.20626992553674" lon="11.684807709727167"><ele>4.0</ele><time>2026-04-03T12:25:49.871Z</time></trkpt><trkpt lat="45.206372232940176" lon="11.684667038577699"><ele>4.0</ele><time>2026-04-03T12:25:50.871Z</time></trkpt><trkpt lat="45.206463135771976" lon="11.684520224771973"><ele>4.0</ele><time>2026-04-03T12:25:51.871Z</time></trkpt><trkpt lat="45.2065487389299" lon="11.684365499486212"><ele>4.0</ele><time>2026-04-03T12:25:52.871Z</time></trkpt><trkpt lat="45.20663443417328" lon="11.684212988889263"><ele>4.0</ele><time>2026-04-03T12:25:53.871Z</time></trkpt><trkpt lat="45.206716839717124" lon="11.684059632059814"><ele>5.0</ele><time>2026-04-03T12:25:54.871Z</time></trkpt><trkpt lat="45.206795529555784" lon="11.683919857431588"><ele>6.0</ele><time>2026-04-03T12:25:55.871Z</time></trkpt><trkpt lat="45.20688105283355" lon="11.683797465752912"><ele>7.0</ele><time>2026-04-03T12:25:56.871Z</time></trkpt><trkpt lat="45.206958974688355" lon="11.683686752940748"><ele>8.0</ele><time>2026-04-03T12:25:57.871Z</time></trkpt><trkpt lat="45.20703098926278" lon="11.683582926092866"><ele>8.0</ele><time>2026-04-03T12:25:58.871Z</time></trkpt><trkpt lat="45.207109167018714" lon="11.683503452922988"><ele>8.0</ele><time>2026-04-03T12:25:59.871Z</time></trkpt><trkpt lat="45.20717898159346" lon="11.683413913709964"><ele>8.0</ele><time>2026-04-03T12:26:00.87Z</time></trkpt><trkpt lat="45.20724549377383" lon="11.683308144752493"><ele>8.0</ele><time>2026-04-03T12:26:01.87Z</time></trkpt><trkpt lat="45.207331330186385" lon="11.683229325393842"><ele>8.0</ele><time>2026-04-03T12:26:02.87Z</time></trkpt><trkpt lat="45.20742280197147" lon="11.683148964007358"><ele>7.75</ele><time>2026-04-03T12:26:03.87Z</time></trkpt><trkpt lat="45.20752449883558" lon="11.68306803091081"><ele>7.5</ele><time>2026-04-03T12:26:04.87Z</time></trkpt><trkpt lat="45.2076282325585" lon="11.682984504909914"><ele>7.25</ele><time>2026-04-03T12:26:05.87Z</time></trkpt><trkpt lat="45.20773717354312" lon="11.682912569007502"><ele>7.0</ele><time>2026-04-03T12:26:06.87Z</time></trkpt><trkpt lat="45.20783923770934" lon="11.682846572781798"><ele>7.0</ele><time>2026-04-03T12:26:07.87Z</time></trkpt><trkpt lat="45.207947096504355" lon="11.682789458549161"><ele>6.999999999999999</ele><time>2026-04-03T12:26:08.87Z</time></trkpt><trkpt lat="45.20804271475671" lon="11.6827213326352"><ele>6.999999999999999</ele><time>2026-04-03T12:26:09.87Z</time></trkpt><trkpt lat="45.208131937396125" lon="11.682649385285584"><ele>7.0</ele><time>2026-04-03T12:26:10.87Z</time></trkpt><trkpt lat="45.20822202269544" lon="11.682543034385786"><ele>7.0</ele><time>2026-04-03T12:26:11.87Z</time></trkpt><trkpt lat="45.20833024092533" lon="11.682425110098965"><ele>7.25</ele><time>2026-04-03T12:26:12.87Z</time></trkpt><trkpt lat="45.20843212829508" lon="11.68231000226886"><ele>7.5</ele><time>2026-04-03T12:26:13.87Z</time></trkpt><trkpt lat="45.20852757264336" lon="11.682176614258687"><ele>7.75</ele><time>2026-04-03T12:26:14.87Z</time></trkpt><trkpt lat="45.20863898592045" lon="11.682058962472865"><ele>8.0</ele><time>2026-04-03T12:26:15.87Z</time></trkpt><trkpt lat="45.20875866662308" lon="11.681939277550834"><ele>8.333333333333332</ele><time>2026-04-03T12:26:16.87Z</time></trkpt><trkpt lat="45.20888231395159" lon="11.681813050842871"><ele>8.666666666666666</ele><time>2026-04-03T12:26:17.87Z</time></trkpt><trkpt lat="45.2090053919434" lon="11.68167910167447"><ele>9.0</ele><time>2026-04-03T12:26:18.87Z</time></trkpt><trkpt lat="45.209129570213925" lon="11.681546260629373"><ele>9.0</ele><time>2026-04-03T12:26:19.87Z</time></trkpt><trkpt lat="45.209252381851826" lon="11.681418652610112"><ele>9.0</ele><time>2026-04-03T12:26:20.87Z</time></trkpt><trkpt lat="45.20937169558824" lon="11.681289980651487"><ele>9.0</ele><time>2026-04-03T12:26:21.87Z</time></trkpt><trkpt lat="45.209473509467806" lon="11.681158527862026"><ele>9.0</ele><time>2026-04-03T12:26:22.87Z</time></trkpt><trkpt lat="45.209564710920446" lon="11.681002116627283"><ele>8.25</ele><time>2026-04-03T12:26:23.87Z</time></trkpt><trkpt lat="45.209629945156145" lon="11.680844826326572"><ele>7.5</ele><time>2026-04-03T12:26:24.87Z</time></trkpt><trkpt lat="45.20968412383364" lon="11.680648252984964"><ele>6.75</ele><time>2026-04-03T12:26:25.87Z</time></trkpt><trkpt lat="45.20972958906576" lon="11.680467864061713"><ele>6.0</ele><time>2026-04-03T12:26:26.87Z</time></trkpt><trkpt lat="45.209781911818894" lon="11.680315770440222"><ele>6.5</ele><time>2026-04-03T12:26:27.87Z</time></trkpt><trkpt lat="45.209851253960544" lon="11.680187863292574"><ele>7.0</ele><time>2026-04-03T12:26:28.87Z</time></trkpt><trkpt lat="45.20993917547551" lon="11.680081387592534"><ele>7.5</ele><time>2026-04-03T12:26:29.87Z</time></trkpt><trkpt lat="45.21004056975589" lon="11.679990552975902"><ele>8.0</ele><time>2026-04-03T12:26:30.87Z</time></trkpt><trkpt lat="45.21014730978406" lon="11.679903702489534"><ele>8.0</ele><time>2026-04-03T12:26:31.87Z</time></trkpt><trkpt lat="45.210259549801364" lon="11.679819907792558"><ele>8.0</ele><time>2026-04-03T12:26:32.87Z</time></trkpt><trkpt lat="45.210368412317735" lon="11.67975174300194"><ele>8.0</ele><time>2026-04-03T12:26:33.87Z</time></trkpt><trkpt lat="45.210465144624635" lon="11.67968343238559"><ele>8.0</ele><time>2026-04-03T12:26:34.87Z</time></trkpt><trkpt lat="45.210548887587" lon="11.679626058193229"><ele>8.0</ele><time>2026-04-03T12:26:35.87Z</time></trkpt><trkpt lat="45.21061486645634" lon="11.67957552623029"><ele>8.200000000000001</ele><time>2026-04-03T12:26:36.87Z</time></trkpt><trkpt lat="45.21070879063959" lon="11.679507522538616"><ele>8.4</ele><time>2026-04-03T12:26:38.87Z</time></trkpt><trkpt lat="45.21078166562121" lon="11.679468028798617"><ele>8.600000000000001</ele><time>2026-04-03T12:26:59.869Z</time></trkpt><trkpt lat="45.21084985588512" lon="11.679306573679593"><ele>8.8</ele><time>2026-04-03T12:27:01.869Z</time></trkpt><trkpt lat="45.21087868183772" lon="11.679198589120995"><ele>9.0</ele><time>2026-04-03T12:27:02.869Z</time></trkpt><trkpt lat="45.2109141164493" lon="11.679087085748028"><ele>9.0</ele><time>2026-04-03T12:27:03.869Z</time></trkpt><trkpt lat="45.21094392963204" lon="11.678985381403773"><ele>9.0</ele><time>2026-04-03T12:27:04.869Z</time></trkpt><trkpt lat="45.21097047973564" lon="11.678890339854428"><ele>9.0</ele><time>2026-04-03T12:27:05.869Z</time></trkpt><trkpt lat="45.21099581161262" lon="11.678805043015661"><ele>9.0</ele><time>2026-04-03T12:27:06.869Z</time></trkpt><trkpt lat="45.21102082358869" lon="11.678718319383476"><ele>9.0</ele><time>2026-04-03T12:27:07.869Z</time></trkpt><trkpt lat="45.21106163618235" lon="11.67855217411083"><ele>9.0</ele><time>2026-04-03T12:27:09.869Z</time></trkpt><trkpt lat="45.2110991979571" lon="11.678389569991152"><ele>9.25</ele><time>2026-04-03T12:27:11.869Z</time></trkpt><trkpt lat="45.211141072448264" lon="11.678231473391874"><ele>9.5</ele><time>2026-04-03T12:27:13.869Z</time></trkpt><trkpt lat="45.2111707706726" lon="11.678118773187236"><ele>9.75</ele><time>2026-04-03T12:27:14.869Z</time></trkpt><trkpt lat="45.211217133582664" lon="11.677968145279712"><ele>10.0</ele><time>2026-04-03T12:27:15.869Z</time></trkpt><trkpt lat="45.21126951115131" lon="11.677789152676478"><ele>9.833333333333334</ele><time>2026-04-03T12:27:16.869Z</time></trkpt><trkpt lat="45.21131094092971" lon="11.677636509613157"><ele>9.666666666666668</ele><time>2026-04-03T12:27:17.869Z</time></trkpt><trkpt lat="45.21135708519357" lon="11.677526567214677"><ele>9.5</ele><time>2026-04-03T12:27:18.869Z</time></trkpt><trkpt lat="45.21140283745254" lon="11.677430485383649"><ele>9.333333333333334</ele><time>2026-04-03T12:27:19.869Z</time></trkpt><trkpt lat="45.21147581770766" lon="11.677416693609965"><ele>9.166666666666666</ele><time>2026-04-03T12:27:20.869Z</time></trkpt><trkpt lat="45.21154104545968" lon="11.677425673453737"><ele>9.0</ele><time>2026-04-03T12:27:21.869Z</time></trkpt><trkpt lat="45.211613526005806" lon="11.677473067690215"><ele>9.0</ele><time>2026-04-03T12:27:22.869Z</time></trkpt><trkpt lat="45.211692575454954" lon="11.677553923217069"><ele>9.0</ele><time>2026-04-03T12:27:23.869Z</time></trkpt><trkpt lat="45.21178094984436" lon="11.677644427659246"><ele>9.0</ele><time>2026-04-03T12:27:24.869Z</time></trkpt><trkpt lat="45.21187950971091" lon="11.677741968351345"><ele>9.0</ele><time>2026-04-03T12:27:25.869Z</time></trkpt><trkpt lat="45.21198816830625" lon="11.677851284453999"><ele>9.0</ele><time>2026-04-03T12:27:26.869Z</time></trkpt><trkpt lat="45.21210160681027" lon="11.677960899578144"><ele>9.0</ele><time>2026-04-03T12:27:27.869Z</time></trkpt><trkpt lat="45.212214793887355" lon="11.678063983889393"><ele>9.0</ele><time>2026-04-03T12:27:28.869Z</time></trkpt><trkpt lat="45.212333304891004" lon="11.67818028627552"><ele>9.0</ele><time>2026-04-03T12:27:29.869Z</time></trkpt><trkpt lat="45.21245245541147" lon="11.678295064624452"><ele>9.0</ele><time>2026-04-03T12:27:30.869Z</time></trkpt><trkpt lat="45.2125709712445" lon="11.678414115905792"><ele>9.0</ele><time>2026-04-03T12:27:31.869Z</time></trkpt><trkpt lat="45.21268317987654" lon="11.678528278120968"><ele>9.0</ele><time>2026-04-03T12:27:32.869Z</time></trkpt><trkpt lat="45.212793771613924" lon="11.678640155495875"><ele>9.0</ele><time>2026-04-03T12:27:33.869Z</time></trkpt><trkpt lat="45.212905252103255" lon="11.678755245084412"><ele>8.75</ele><time>2026-04-03T12:27:34.869Z</time></trkpt><trkpt lat="45.21301239485921" lon="11.678870059867284"><ele>8.5</ele><time>2026-04-03T12:27:35.869Z</time></trkpt><trkpt lat="45.213112165197735" lon="11.6789825605235"><ele>8.25</ele><time>2026-04-03T12:27:36.869Z</time></trkpt><trkpt lat="45.21320424761999" lon="11.679087900543017"><ele>8.0</ele><time>2026-04-03T12:27:37.869Z</time></trkpt><trkpt lat="45.21328526212931" lon="11.679179491222794"><ele>7.999999999999999</ele><time>2026-04-03T12:27:38.869Z</time></trkpt><trkpt lat="45.21335678433844" lon="11.679257095362898"><ele>8.0</ele><time>2026-04-03T12:27:39.869Z</time></trkpt><trkpt lat="45.213415077859516" lon="11.679317159250576"><ele>8.0</ele><time>2026-04-03T12:27:40.869Z</time></trkpt><trkpt lat="45.21346717975157" lon="11.679370906758978"><ele>8.0</ele><time>2026-04-03T12:27:41.869Z</time></trkpt><trkpt lat="45.21356193698117" lon="11.67944973239868"><ele>7.999999999999999</ele><time>2026-04-03T12:27:43.869Z</time></trkpt><trkpt lat="45.21363597090909" lon="11.679495341057422"><ele>8.0</ele><time>2026-04-03T12:27:45.869Z</time></trkpt><trkpt lat="45.21367713661636" lon="11.67933924441665"><ele>8.0</ele><time>2026-04-03T12:27:46.869Z</time></trkpt><trkpt lat="45.213664621417486" lon="11.679243228504973"><ele>8.0</ele><time>2026-04-03T12:27:47.869Z</time></trkpt><trkpt lat="45.21365199614492" lon="11.679151684180587"><ele>8.0</ele><time>2026-04-03T12:27:48.869Z</time></trkpt><trkpt lat="45.21371083770096" lon="11.678975727765081"><ele>8.0</ele><time>2026-04-03T12:27:50.869Z</time></trkpt><trkpt lat="45.21377034415544" lon="11.67886203441527"><ele>8.0</ele><time>2026-04-03T12:27:51.869Z</time></trkpt><trkpt lat="45.2138389143381" lon="11.678749179471557"><ele>8.0</ele><time>2026-04-03T12:27:52.869Z</time></trkpt><trkpt lat="45.21391149772166" lon="11.678625814796881"><ele>8.0</ele><time>2026-04-03T12:27:53.869Z</time></trkpt><trkpt lat="45.21398599400966" lon="11.67849012972169"><ele>8.0</ele><time>2026-04-03T12:27:54.869Z</time></trkpt><trkpt lat="45.214065853552086" lon="11.678347720729226"><ele>8.0</ele><time>2026-04-03T12:27:55.869Z</time></trkpt><trkpt lat="45.214142790197634" lon="11.678207566276445"><ele>8.0</ele><time>2026-04-03T12:27:56.868Z</time></trkpt><trkpt lat="45.21422275872254" lon="11.678060765223123"><ele>8.0</ele><time>2026-04-03T12:27:57.868Z</time></trkpt><trkpt lat="45.21430605198344" lon="11.677914267113254"><ele>8.0</ele><time>2026-04-03T12:27:58.868Z</time></trkpt><trkpt lat="45.214393484121786" lon="11.677767247211657"><ele>8.0</ele><time>2026-04-03T12:27:59.868Z</time></trkpt><trkpt lat="45.21448836944991" lon="11.6776138840378"><ele>8.0</ele><time>2026-04-03T12:28:00.868Z</time></trkpt><trkpt lat="45.214581598306" lon="11.677459196907243"><ele>8.0</ele><time>2026-04-03T12:28:01.868Z</time></trkpt><trkpt lat="45.21467517622505" lon="11.67729358607955"><ele>8.0</ele><time>2026-04-03T12:28:02.868Z</time></trkpt><trkpt lat="45.214767642061716" lon="11.677128364633894"><ele>8.0</ele><time>2026-04-03T12:28:03.868Z</time></trkpt><trkpt lat="45.21486674541583" lon="11.67696443030313"><ele>8.5</ele><time>2026-04-03T12:28:04.868Z</time></trkpt><trkpt lat="45.21496080905425" lon="11.676808523283425"><ele>9.0</ele><time>2026-04-03T12:28:05.869Z</time></trkpt><trkpt lat="45.215052060137864" lon="11.676652833651238"><ele>9.5</ele><time>2026-04-03T12:28:06.868Z</time></trkpt><trkpt lat="45.21513955924389" lon="11.676503571375024"><ele>10.0</ele><time>2026-04-03T12:28:07.868Z</time></trkpt><trkpt lat="45.21522301220187" lon="11.676368308079423"><ele>10.0</ele><time>2026-04-03T12:28:08.868Z</time></trkpt><trkpt lat="45.215287788650876" lon="11.676236763791918"><ele>10.0</ele><time>2026-04-03T12:28:09.868Z</time></trkpt><trkpt lat="45.2153540348698" lon="11.676120900189838"><ele>10.0</ele><time>2026-04-03T12:28:10.868Z</time></trkpt><trkpt lat="45.21541614255917" lon="11.676015610089586"><ele>10.0</ele><time>2026-04-03T12:28:11.868Z</time></trkpt><trkpt lat="45.21547471286668" lon="11.67592261670083"><ele>10.0</ele><time>2026-04-03T12:28:12.868Z</time></trkpt><trkpt lat="45.215527385906775" lon="11.675835524367834"><ele>10.0</ele><time>2026-04-03T12:28:13.868Z</time></trkpt><trkpt lat="45.215576462572955" lon="11.675746734262004"><ele>10.0</ele><time>2026-04-03T12:28:14.868Z</time></trkpt><trkpt lat="45.215625282493136" lon="11.675660611378829"><ele>10.0</ele><time>2026-04-03T12:28:15.868Z</time></trkpt><trkpt lat="45.21566510189884" lon="11.675569002099019"><ele>10.0</ele><time>2026-04-03T12:28:16.868Z</time></trkpt><trkpt lat="45.215703955900935" lon="11.675476594888371"><ele>10.0</ele><time>2026-04-03T12:28:17.868Z</time></trkpt><trkpt lat="45.215728740664964" lon="11.67538314994185"><ele>10.0</ele><time>2026-04-03T12:28:18.868Z</time></trkpt><trkpt lat="45.21574537930491" lon="11.675294937888117"><ele>10.0</ele><time>2026-04-03T12:28:19.868Z</time></trkpt><trkpt lat="45.215757655465936" lon="11.675207145986057"><ele>10.0</ele><time>2026-04-03T12:28:20.868Z</time></trkpt><trkpt lat="45.21577292362423" lon="11.675111948779307"><ele>10.0</ele><time>2026-04-03T12:28:21.868Z</time></trkpt><trkpt lat="45.21578570026413" lon="11.675013144035146"><ele>10.0</ele><time>2026-04-03T12:28:22.868Z</time></trkpt><trkpt lat="45.21579813769682" lon="11.674913042877694"><ele>10.0</ele><time>2026-04-03T12:28:23.868Z</time></trkpt><trkpt lat="45.2158125550719" lon="11.67481056144086"><ele>10.0</ele><time>2026-04-03T12:28:24.868Z</time></trkpt><trkpt lat="45.21582658298684" lon="11.6746994252963"><ele>10.0</ele><time>2026-04-03T12:28:25.868Z</time></trkpt><trkpt lat="45.21583123836128" lon="11.674582758481542"><ele>10.0</ele><time>2026-04-03T12:28:26.868Z</time></trkpt><trkpt lat="45.215831438893815" lon="11.674463162570353"><ele>10.0</ele><time>2026-04-03T12:28:27.868Z</time></trkpt><trkpt lat="45.215835992462196" lon="11.674341564047705"><ele>10.0</ele><time>2026-04-03T12:28:28.868Z</time></trkpt><trkpt lat="45.21584372719168" lon="11.67421702051025"><ele>10.0</ele><time>2026-04-03T12:28:29.868Z</time></trkpt><trkpt lat="45.21585738854574" lon="11.674090527467179"><ele>10.0</ele><time>2026-04-03T12:28:30.868Z</time></trkpt><trkpt lat="45.21589139257501" lon="11.673970439457536"><ele>10.0</ele><time>2026-04-03T12:28:31.868Z</time></trkpt><trkpt lat="45.215940063410486" lon="11.673859384863363"><ele>10.0</ele><time>2026-04-03T12:28:32.868Z</time></trkpt><trkpt lat="45.2159998035611" lon="11.673747898970763"><ele>10.0</ele><time>2026-04-03T12:28:33.868Z</time></trkpt><trkpt lat="45.216060874483446" lon="11.673645227859495"><ele>10.0</ele><time>2026-04-03T12:28:34.868Z</time></trkpt><trkpt lat="45.216114422076515" lon="11.673555736856894"><ele>10.0</ele><time>2026-04-03T12:28:35.868Z</time></trkpt><trkpt lat="45.21617582298821" lon="11.673463161251625"><ele>10.0</ele><time>2026-04-03T12:28:36.868Z</time></trkpt><trkpt lat="45.21623531939154" lon="11.673371082695192"><ele>10.0</ele><time>2026-04-03T12:28:37.868Z</time></trkpt><trkpt lat="45.21630153860167" lon="11.67326287155283"><ele>10.0</ele><time>2026-04-03T12:28:38.868Z</time></trkpt><trkpt lat="45.21637485556889" lon="11.673149621645042"><ele>10.0</ele><time>2026-04-03T12:28:39.868Z</time></trkpt><trkpt lat="45.21645682573151" lon="11.67303512362287"><ele>10.0</ele><time>2026-04-03T12:28:40.868Z</time></trkpt><trkpt lat="45.21656320167463" lon="11.672884745094548"><ele>10.0</ele><time>2026-04-03T12:28:41.868Z</time></trkpt><trkpt lat="45.21666707351712" lon="11.672749611973199"><ele>10.0</ele><time>2026-04-03T12:28:42.868Z</time></trkpt><trkpt lat="45.21677359905545" lon="11.672592037703467"><ele>10.0</ele><time>2026-04-03T12:28:43.868Z</time></trkpt><trkpt lat="45.21687330500554" lon="11.672421014952697"><ele>10.0</ele><time>2026-04-03T12:28:44.868Z</time></trkpt><trkpt lat="45.21698029535037" lon="11.67225862933959"><ele>10.0</ele><time>2026-04-03T12:28:45.868Z</time></trkpt><trkpt lat="45.21709102536543" lon="11.672097723720555"><ele>10.0</ele><time>2026-04-03T12:28:46.868Z</time></trkpt><trkpt lat="45.21719491304079" lon="11.67194690559103"><ele>10.0</ele><time>2026-04-03T12:28:47.868Z</time></trkpt><trkpt lat="45.21729123388785" lon="11.671807826149204"><ele>10.0</ele><time>2026-04-03T12:28:48.868Z</time></trkpt><trkpt lat="45.2173821983559" lon="11.6716765701419"><ele>9.5</ele><time>2026-04-03T12:28:49.868Z</time></trkpt><trkpt lat="45.21747507733116" lon="11.671546703799464"><ele>9.0</ele><time>2026-04-03T12:28:50.868Z</time></trkpt><trkpt lat="45.21755044746655" lon="11.671417907691827"><ele>8.5</ele><time>2026-04-03T12:28:51.868Z</time></trkpt><trkpt lat="45.21762604399274" lon="11.671303100570677"><ele>8.0</ele><time>2026-04-03T12:28:52.868Z</time></trkpt><trkpt lat="45.217692179956465" lon="11.671197619672057"><ele>7.999999999999999</ele><time>2026-04-03T12:28:53.868Z</time></trkpt><trkpt lat="45.217753557293484" lon="11.671109011145587"><ele>8.0</ele><time>2026-04-03T12:28:54.868Z</time></trkpt><trkpt lat="45.21780864716113" lon="11.67103337504884"><ele>8.0</ele><time>2026-04-03T12:28:55.868Z</time></trkpt><trkpt lat="45.217859157241215" lon="11.670961431913444"><ele>8.0</ele><time>2026-04-03T12:28:56.868Z</time></trkpt><trkpt lat="45.217910957728044" lon="11.670904210479273"><ele>7.999999999999999</ele><time>2026-04-03T12:28:57.868Z</time></trkpt><trkpt lat="45.21801147830073" lon="11.67086401569879"><ele>8.0</ele><time>2026-04-03T12:28:59.868Z</time></trkpt><trkpt lat="45.21807573290773" lon="11.67089258510685"><ele>8.0</ele><time>2026-04-03T12:29:00.868Z</time></trkpt><trkpt lat="45.21815263891747" lon="11.67092785058481"><ele>8.0</ele><time>2026-04-03T12:29:01.868Z</time></trkpt><trkpt lat="45.21819716138868" lon="11.671107909517593"><ele>8.0</ele><time>2026-04-03T12:29:02.867Z</time></trkpt><trkpt lat="45.21824520219736" lon="11.671252757905982"><ele>8.0</ele><time>2026-04-03T12:29:03.867Z</time></trkpt><trkpt lat="45.21828662710436" lon="11.67140165915459"><ele>8.0</ele><time>2026-04-03T12:29:04.867Z</time></trkpt><trkpt lat="45.21832465995691" lon="11.671558805404619"><ele>8.0</ele><time>2026-04-03T12:29:05.867Z</time></trkpt><trkpt lat="45.218352130066414" lon="11.671735534869562"><ele>8.0</ele><time>2026-04-03T12:29:06.867Z</time></trkpt><trkpt lat="45.21839155181239" lon="11.671924723382604"><ele>8.0</ele><time>2026-04-03T12:29:07.867Z</time></trkpt><trkpt lat="45.21843710524512" lon="11.672108022450102"><ele>8.0</ele><time>2026-04-03T12:29:08.867Z</time></trkpt><trkpt lat="45.21849356839051" lon="11.672282729129352"><ele>8.0</ele><time>2026-04-03T12:29:09.867Z</time></trkpt><trkpt lat="45.21856761224791" lon="11.672446934668182"><ele>8.0</ele><time>2026-04-03T12:29:10.867Z</time></trkpt><trkpt lat="45.218665645263385" lon="11.672588646605202"><ele>8.0</ele><time>2026-04-03T12:29:11.867Z</time></trkpt><trkpt lat="45.21877550924612" lon="11.67271272530831"><ele>8.0</ele><time>2026-04-03T12:29:12.867Z</time></trkpt><trkpt lat="45.218882265345634" lon="11.672835744260736"><ele>8.25</ele><time>2026-04-03T12:29:13.867Z</time></trkpt><trkpt lat="45.21899060932196" lon="11.672960575567238"><ele>8.5</ele><time>2026-04-03T12:29:14.867Z</time></trkpt><trkpt lat="45.21909634429965" lon="11.673077242791566"><ele>8.75</ele><time>2026-04-03T12:29:15.867Z</time></trkpt><trkpt lat="45.219184393831526" lon="11.673212906629747"><ele>9.0</ele><time>2026-04-03T12:29:16.867Z</time></trkpt><trkpt lat="45.21927576053201" lon="11.673329644725166"><ele>9.0</ele><time>2026-04-03T12:29:17.867Z</time></trkpt><trkpt lat="45.21936622301605" lon="11.673444862933135"><ele>9.0</ele><time>2026-04-03T12:29:18.867Z</time></trkpt><trkpt lat="45.21945357197016" lon="11.67355602882799"><ele>9.0</ele><time>2026-04-03T12:29:19.867Z</time></trkpt><trkpt lat="45.21954643223396" lon="11.673670961631693"><ele>9.0</ele><time>2026-04-03T12:29:20.867Z</time></trkpt><trkpt lat="45.21964380942219" lon="11.673788713456249"><ele>9.333333333333334</ele><time>2026-04-03T12:29:21.867Z</time></trkpt><trkpt lat="45.21974252482369" lon="11.673899660040753"><ele>9.666666666666668</ele><time>2026-04-03T12:29:22.867Z</time></trkpt><trkpt lat="45.21996665941615" lon="11.673793332766847"><ele>10.0</ele><time>2026-04-03T12:29:23.867Z</time></trkpt><trkpt lat="45.220076491761375" lon="11.673891659376206"><ele>10.25</ele><time>2026-04-03T12:29:24.867Z</time></trkpt><trkpt lat="45.220181100223236" lon="11.673999403805624"><ele>10.5</ele><time>2026-04-03T12:29:25.867Z</time></trkpt><trkpt lat="45.22026657404899" lon="11.674118834130084"><ele>10.75</ele><time>2026-04-03T12:29:26.867Z</time></trkpt><trkpt lat="45.220326361859854" lon="11.674254625673196"><ele>11.0</ele><time>2026-04-03T12:29:27.867Z</time></trkpt><trkpt lat="45.220411311237974" lon="11.674358476353564"><ele>11.0</ele><time>2026-04-03T12:29:28.867Z</time></trkpt><trkpt lat="45.22049862042756" lon="11.674437360951988"><ele>11.0</ele><time>2026-04-03T12:29:29.867Z</time></trkpt><trkpt lat="45.220579533855684" lon="11.674506521297781"><ele>11.0</ele><time>2026-04-03T12:29:30.867Z</time></trkpt><trkpt lat="45.22064924522544" lon="11.674562279132704"><ele>11.0</ele><time>2026-04-03T12:29:31.867Z</time></trkpt><trkpt lat="45.22071380415868" lon="11.674612596482762"><ele>11.0</ele><time>2026-04-03T12:29:32.867Z</time></trkpt><trkpt lat="45.22076152301011" lon="11.674673963747555"><ele>11.0</ele><time>2026-04-03T12:29:33.867Z</time></trkpt><trkpt lat="45.22080725831558" lon="11.674750065596577"><ele>11.0</ele><time>2026-04-03T12:29:34.867Z</time></trkpt><trkpt lat="45.220826307819664" lon="11.674869127788957"><ele>11.0</ele><time>2026-04-03T12:29:35.867Z</time></trkpt><trkpt lat="45.2209083321409" lon="11.674814541608056"><ele>11.0</ele><time>2026-04-03T12:29:36.867Z</time></trkpt><trkpt lat="45.2209757732804" lon="11.674688129911717"><ele>11.0</ele><time>2026-04-03T12:29:38.867Z</time></trkpt><trkpt lat="45.22098504775099" lon="11.674582734850935"><ele>11.0</ele><time>2026-04-03T12:29:39.867Z</time></trkpt><trkpt lat="45.22101112922635" lon="11.674473117427091"><ele>11.0</ele><time>2026-04-03T12:29:40.867Z</time></trkpt><trkpt lat="45.221060961756784" lon="11.674363238408729"><ele>11.0</ele><time>2026-04-03T12:29:41.867Z</time></trkpt><trkpt lat="45.22110928657004" lon="11.674237310599066"><ele>11.0</ele><time>2026-04-03T12:29:42.867Z</time></trkpt><trkpt lat="45.22114659507784" lon="11.674096729734671"><ele>11.0</ele><time>2026-04-03T12:29:43.867Z</time></trkpt><trkpt lat="45.221178533253685" lon="11.673944535772211"><ele>11.0</ele><time>2026-04-03T12:29:44.867Z</time></trkpt><trkpt lat="45.22120873624531" lon="11.673782126031568"><ele>11.0</ele><time>2026-04-03T12:29:45.867Z</time></trkpt><trkpt lat="45.221240599868906" lon="11.673619700641062"><ele>10.75</ele><time>2026-04-03T12:29:46.867Z</time></trkpt><trkpt lat="45.22127761422536" lon="11.67345319325144"><ele>10.5</ele><time>2026-04-03T12:29:47.867Z</time></trkpt><trkpt lat="45.22131373733814" lon="11.673288218992464"><ele>10.25</ele><time>2026-04-03T12:29:48.867Z</time></trkpt><trkpt lat="45.22135047877028" lon="11.673124071270307"><ele>10.0</ele><time>2026-04-03T12:29:49.867Z</time></trkpt><trkpt lat="45.22138476462413" lon="11.672965793753372"><ele>10.0</ele><time>2026-04-03T12:29:50.867Z</time></trkpt><trkpt lat="45.221420071991176" lon="11.67281818031565"><ele>10.0</ele><time>2026-04-03T12:29:51.867Z</time></trkpt><trkpt lat="45.2214563284153" lon="11.672676571146095"><ele>10.0</ele><time>2026-04-03T12:29:52.867Z</time></trkpt><trkpt lat="45.22149470360459" lon="11.672533891238114"><ele>10.0</ele><time>2026-04-03T12:29:53.867Z</time></trkpt><trkpt lat="45.22153666504545" lon="11.672386882458099"><ele>10.0</ele><time>2026-04-03T12:29:54.867Z</time></trkpt><trkpt lat="45.2215863675676" lon="11.672235826334406"><ele>10.0</ele><time>2026-04-03T12:29:55.867Z</time></trkpt><trkpt lat="45.22163132789849" lon="11.672076413413054"><ele>10.0</ele><time>2026-04-03T12:29:56.867Z</time></trkpt><trkpt lat="45.221677278227865" lon="11.671908844090346"><ele>10.0</ele><time>2026-04-03T12:29:57.867Z</time></trkpt><trkpt lat="45.22172677969795" lon="11.671733550113718"><ele>10.0</ele><time>2026-04-03T12:29:58.867Z</time></trkpt><trkpt lat="45.22177707289292" lon="11.671571518259755"><ele>10.0</ele><time>2026-04-03T12:29:59.866Z</time></trkpt><trkpt lat="45.221819445178554" lon="11.671409204813797"><ele>10.0</ele><time>2026-04-03T12:30:00.865Z</time></trkpt><trkpt lat="45.22184867372273" lon="11.671283072613905"><ele>10.0</ele><time>2026-04-03T12:30:01.865Z</time></trkpt><trkpt lat="45.22187253143008" lon="11.671187479609603"><ele>10.0</ele><time>2026-04-03T12:30:02.865Z</time></trkpt><trkpt lat="45.22188916399559" lon="11.671072329516846"><ele>10.0</ele><time>2026-04-03T12:30:04.866Z</time></trkpt><trkpt lat="45.22191045110003" lon="11.670975215813417"><ele>10.0</ele><time>2026-04-03T12:30:07.865Z</time></trkpt><trkpt lat="45.2219524161188" lon="11.670805096995979"><ele>10.0</ele><time>2026-04-03T12:30:09.866Z</time></trkpt><trkpt lat="45.221977051180666" lon="11.670713705312423"><ele>10.0</ele><time>2026-04-03T12:30:10.866Z</time></trkpt><trkpt lat="45.22200375505727" lon="11.670619389696624"><ele>10.0</ele><time>2026-04-03T12:30:11.866Z</time></trkpt><trkpt lat="45.22203148490011" lon="11.67052132867475"><ele>10.0</ele><time>2026-04-03T12:30:12.865Z</time></trkpt><trkpt lat="45.222057999280494" lon="11.670423134818865"><ele>10.0</ele><time>2026-04-03T12:30:13.865Z</time></trkpt><trkpt lat="45.22208651080324" lon="11.670318220892645"><ele>10.0</ele><time>2026-04-03T12:30:14.865Z</time></trkpt><trkpt lat="45.22212186438436" lon="11.670202057014505"><ele>10.0</ele><time>2026-04-03T12:30:15.865Z</time></trkpt><trkpt lat="45.222163707945164" lon="11.670075561834443"><ele>10.0</ele><time>2026-04-03T12:30:16.865Z</time></trkpt><trkpt lat="45.222208554011296" lon="11.66995084680199"><ele>10.0</ele><time>2026-04-03T12:30:17.865Z</time></trkpt><trkpt lat="45.22225436642375" lon="11.669829554941625"><ele>10.0</ele><time>2026-04-03T12:30:18.865Z</time></trkpt><trkpt lat="45.2223042417064" lon="11.669703790801632"><ele>10.0</ele><time>2026-04-03T12:30:19.865Z</time></trkpt><trkpt lat="45.22235432939302" lon="11.669581207187669"><ele>10.2</ele><time>2026-04-03T12:30:20.865Z</time></trkpt><trkpt lat="45.222409448747534" lon="11.669455348793111"><ele>10.4</ele><time>2026-04-03T12:30:21.865Z</time></trkpt><trkpt lat="45.22246980296146" lon="11.669330766372067"><ele>10.600000000000001</ele><time>2026-04-03T12:30:22.865Z</time></trkpt><trkpt lat="45.22253068160395" lon="11.66920360779152"><ele>10.8</ele><time>2026-04-03T12:30:23.865Z</time></trkpt><trkpt lat="45.222590756606614" lon="11.669070392480307"><ele>11.0</ele><time>2026-04-03T12:30:24.865Z</time></trkpt><trkpt lat="45.22264892164314" lon="11.668934259091921"><ele>11.0</ele><time>2026-04-03T12:30:25.865Z</time></trkpt><trkpt lat="45.22270630197457" lon="11.668790314096196"><ele>11.0</ele><time>2026-04-03T12:30:26.865Z</time></trkpt><trkpt lat="45.22277304494096" lon="11.668656374886227"><ele>11.0</ele><time>2026-04-03T12:30:27.865Z</time></trkpt><trkpt lat="45.22286217787717" lon="11.668536649427642"><ele>11.0</ele><time>2026-04-03T12:30:28.865Z</time></trkpt><trkpt lat="45.22292981756009" lon="11.668392379446605"><ele>10.75</ele><time>2026-04-03T12:30:29.865Z</time></trkpt><trkpt lat="45.22299545005892" lon="11.6682484153962"><ele>10.5</ele><time>2026-04-03T12:30:30.865Z</time></trkpt><trkpt lat="45.22305574269901" lon="11.668108502433371"><ele>10.25</ele><time>2026-04-03T12:30:31.865Z</time></trkpt><trkpt lat="45.22312833683864" lon="11.667977088214508"><ele>10.0</ele><time>2026-04-03T12:30:32.865Z</time></trkpt><trkpt lat="45.22319673166702" lon="11.66785405258364"><ele>9.8</ele><time>2026-04-03T12:30:33.865Z</time></trkpt><trkpt lat="45.22326539854611" lon="11.66773860102639"><ele>9.6</ele><time>2026-04-03T12:30:34.865Z</time></trkpt><trkpt lat="45.22333100319342" lon="11.667632126316642"><ele>9.4</ele><time>2026-04-03T12:30:35.865Z</time></trkpt><trkpt lat="45.223392655118815" lon="11.66753456272819"><ele>9.2</ele><time>2026-04-03T12:30:36.865Z</time></trkpt><trkpt lat="45.22345072191426" lon="11.667442117572023"><ele>9.0</ele><time>2026-04-03T12:30:37.865Z</time></trkpt><trkpt lat="45.22350385696024" lon="11.667358743049913"><ele>9.0</ele><time>2026-04-03T12:30:38.865Z</time></trkpt><trkpt lat="45.22354837313446" lon="11.667280885495883"><ele>9.0</ele><time>2026-04-03T12:30:39.865Z</time></trkpt><trkpt lat="45.22358990486179" lon="11.667200048599959"><ele>9.0</ele><time>2026-04-03T12:30:40.865Z</time></trkpt><trkpt lat="45.22363347260044" lon="11.667120522764133"><ele>9.0</ele><time>2026-04-03T12:30:41.865Z</time></trkpt><trkpt lat="45.2236775852785" lon="11.667039716864757"><ele>9.0</ele><time>2026-04-03T12:30:42.865Z</time></trkpt><trkpt lat="45.22372959491421" lon="11.666944252439976"><ele>9.0</ele><time>2026-04-03T12:30:43.865Z</time></trkpt><trkpt lat="45.22378763847528" lon="11.666833912086894"><ele>9.2</ele><time>2026-04-03T12:30:44.865Z</time></trkpt><trkpt lat="45.22384977831386" lon="11.666714799506744"><ele>9.4</ele><time>2026-04-03T12:30:45.865Z</time></trkpt><trkpt lat="45.22391344079146" lon="11.666591277548594"><ele>9.6</ele><time>2026-04-03T12:30:46.865Z</time></trkpt><trkpt lat="45.22397946304664" lon="11.66646584744613"><ele>9.8</ele><time>2026-04-03T12:30:47.865Z</time></trkpt><trkpt lat="45.224041352955446" lon="11.666337662745253"><ele>10.0</ele><time>2026-04-03T12:30:48.865Z</time></trkpt><trkpt lat="45.22408386056359" lon="11.666192293642888"><ele>10.5</ele><time>2026-04-03T12:30:49.865Z</time></trkpt><trkpt lat="45.224178067993876" lon="11.66606312342806"><ele>11.0</ele><time>2026-04-03T12:30:50.865Z</time></trkpt><trkpt lat="45.22426418156736" lon="11.665903655661557"><ele>11.5</ele><time>2026-04-03T12:30:51.865Z</time></trkpt><trkpt lat="45.2243566380714" lon="11.665759046273012"><ele>12.0</ele><time>2026-04-03T12:30:52.865Z</time></trkpt><trkpt lat="45.22445523399072" lon="11.665616443865078"><ele>12.0</ele><time>2026-04-03T12:30:53.865Z</time></trkpt><trkpt lat="45.22456380758288" lon="11.665480609548323"><ele>12.0</ele><time>2026-04-03T12:30:54.865Z</time></trkpt><trkpt lat="45.22467472272431" lon="11.665367377473551"><ele>12.0</ele><time>2026-04-03T12:30:55.865Z</time></trkpt><trkpt lat="45.22478206710203" lon="11.665270100213107"><ele>12.0</ele><time>2026-04-03T12:30:56.865Z</time></trkpt><trkpt lat="45.22488149365533" lon="11.665200493907632"><ele>11.6</ele><time>2026-04-03T12:30:57.865Z</time></trkpt><trkpt lat="45.2249710307521" lon="11.66514936307642"><ele>11.2</ele><time>2026-04-03T12:30:58.865Z</time></trkpt><trkpt lat="45.22506227180533" lon="11.66510846674849"><ele>10.8</ele><time>2026-04-03T12:30:59.865Z</time></trkpt><trkpt lat="45.2251570982269" lon="11.665083763335526"><ele>10.4</ele><time>2026-04-03T12:31:00.865Z</time></trkpt><trkpt lat="45.225257645817614" lon="11.665051895106878"><ele>10.0</ele><time>2026-04-03T12:31:01.865Z</time></trkpt><trkpt lat="45.22535922565749" lon="11.665026833283413"><ele>10.0</ele><time>2026-04-03T12:31:02.865Z</time></trkpt><trkpt lat="45.225465471320824" lon="11.66506048441536"><ele>10.0</ele><time>2026-04-03T12:31:03.864Z</time></trkpt><trkpt lat="45.22556285339132" lon="11.665082760841324"><ele>10.0</ele><time>2026-04-03T12:31:04.864Z</time></trkpt><trkpt lat="45.22566328070706" lon="11.665110708703205"><ele>10.0</ele><time>2026-04-03T12:31:05.864Z</time></trkpt><trkpt lat="45.22576215343108" lon="11.665138205982238"><ele>10.0</ele><time>2026-04-03T12:31:06.864Z</time></trkpt><trkpt lat="45.22586681838514" lon="11.665167314119236"><ele>10.25</ele><time>2026-04-03T12:31:07.864Z</time></trkpt><trkpt lat="45.2259665891954" lon="11.665195061159181"><ele>10.5</ele><time>2026-04-03T12:31:08.864Z</time></trkpt><trkpt lat="45.22609675608525" lon="11.665230086869245"><ele>10.75</ele><time>2026-04-03T12:31:09.864Z</time></trkpt><trkpt lat="45.22622686136715" lon="11.665264384549282"><ele>11.0</ele><time>2026-04-03T12:31:10.864Z</time></trkpt><trkpt lat="45.22634780135719" lon="11.665285138093465"><ele>11.0</ele><time>2026-04-03T12:31:11.864Z</time></trkpt><trkpt lat="45.22647948520472" lon="11.665288958549054"><ele>11.0</ele><time>2026-04-03T12:31:12.864Z</time></trkpt><trkpt lat="45.22661082690977" lon="11.665277250336334"><ele>11.0</ele><time>2026-04-03T12:31:13.864Z</time></trkpt><trkpt lat="45.2267408966577" lon="11.665250262304788"><ele>11.0</ele><time>2026-04-03T12:31:14.864Z</time></trkpt><trkpt lat="45.22684512775121" lon="11.665221584677624"><ele>11.0</ele><time>2026-04-03T12:31:15.864Z</time></trkpt><trkpt lat="45.22696270627741" lon="11.665176311891871"><ele>11.0</ele><time>2026-04-03T12:31:16.864Z</time></trkpt><trkpt lat="45.22706678974787" lon="11.66511700049231"><ele>11.0</ele><time>2026-04-03T12:31:17.864Z</time></trkpt><trkpt lat="45.22716221880756" lon="11.665056973621974"><ele>11.0</ele><time>2026-04-03T12:31:18.864Z</time></trkpt><trkpt lat="45.2272580467357" lon="11.664984394902884"><ele>11.0</ele><time>2026-04-03T12:31:19.864Z</time></trkpt><trkpt lat="45.22735714627479" lon="11.664896940292467"><ele>11.0</ele><time>2026-04-03T12:31:20.864Z</time></trkpt><trkpt lat="45.227453377202394" lon="11.664805411106988"><ele>11.0</ele><time>2026-04-03T12:31:21.864Z</time></trkpt><trkpt lat="45.22754699431592" lon="11.664696618567486"><ele>11.0</ele><time>2026-04-03T12:31:22.864Z</time></trkpt><trkpt lat="45.227626967894224" lon="11.664572011775993"><ele>11.0</ele><time>2026-04-03T12:31:23.864Z</time></trkpt><trkpt lat="45.227703434413364" lon="11.66445787860126"><ele>10.75</ele><time>2026-04-03T12:31:24.864Z</time></trkpt><trkpt lat="45.22778582390357" lon="11.664329093986469"><ele>10.5</ele><time>2026-04-03T12:31:25.864Z</time></trkpt><trkpt lat="45.22784856199285" lon="11.664181124590014"><ele>10.25</ele><time>2026-04-03T12:31:26.864Z</time></trkpt><trkpt lat="45.22791283113245" lon="11.664033724953065"><ele>10.0</ele><time>2026-04-03T12:31:27.864Z</time></trkpt><trkpt lat="45.227971935897884" lon="11.66388349404875"><ele>10.0</ele><time>2026-04-03T12:31:28.864Z</time></trkpt><trkpt lat="45.228031783592044" lon="11.663754382837322"><ele>10.0</ele><time>2026-04-03T12:31:29.864Z</time></trkpt><trkpt lat="45.22809815734687" lon="11.66361944140679"><ele>10.0</ele><time>2026-04-03T12:31:30.864Z</time></trkpt><trkpt lat="45.22814524695321" lon="11.66350094613812"><ele>10.0</ele><time>2026-04-03T12:31:31.864Z</time></trkpt><trkpt lat="45.228185713129115" lon="11.663386018271392"><ele>10.0</ele><time>2026-04-03T12:31:32.864Z</time></trkpt><trkpt lat="45.22822480122163" lon="11.663294688550163"><ele>10.0</ele><time>2026-04-03T12:31:33.864Z</time></trkpt><trkpt lat="45.22825794860398" lon="11.66321418326769"><ele>10.0</ele><time>2026-04-03T12:31:34.864Z</time></trkpt><trkpt lat="45.2283117890857" lon="11.66307530059805"><ele>10.0</ele><time>2026-04-03T12:31:36.864Z</time></trkpt><trkpt lat="45.22837234890477" lon="11.662955490176955"><ele>10.0</ele><time>2026-04-03T12:31:38.864Z</time></trkpt><trkpt lat="45.228454947649496" lon="11.66291242810837"><ele>10.0</ele><time>2026-04-03T12:31:39.864Z</time></trkpt><trkpt lat="45.22846933073012" lon="11.662812552567685"><ele>10.0</ele><time>2026-04-03T12:31:40.864Z</time></trkpt><trkpt lat="45.22850259892483" lon="11.662629293284793"><ele>10.0</ele><time>2026-04-03T12:31:42.864Z</time></trkpt><trkpt lat="45.22854791912673" lon="11.66252167203053"><ele>10.0</ele><time>2026-04-03T12:31:43.864Z</time></trkpt><trkpt lat="45.22859090889779" lon="11.662414722619225"><ele>10.0</ele><time>2026-04-03T12:31:44.864Z</time></trkpt><trkpt lat="45.228644047988304" lon="11.662297034553909"><ele>10.0</ele><time>2026-04-03T12:31:45.864Z</time></trkpt><trkpt lat="45.228699281622625" lon="11.662176727839933"><ele>10.0</ele><time>2026-04-03T12:31:46.864Z</time></trkpt><trkpt lat="45.22875258715523" lon="11.66206126969867"><ele>10.4</ele><time>2026-04-03T12:31:47.864Z</time></trkpt><trkpt lat="45.22880661303042" lon="11.661942977904207"><ele>10.8</ele><time>2026-04-03T12:31:48.864Z</time></trkpt><trkpt lat="45.2288593137689" lon="11.661819765245108"><ele>11.2</ele><time>2026-04-03T12:31:49.864Z</time></trkpt><trkpt lat="45.228913121083956" lon="11.66169418223723"><ele>11.6</ele><time>2026-04-03T12:31:50.864Z</time></trkpt><trkpt lat="45.228971447243886" lon="11.66155817358452"><ele>12.0</ele><time>2026-04-03T12:31:51.864Z</time></trkpt><trkpt lat="45.22903064140862" lon="11.661420151348377"><ele>12.25</ele><time>2026-04-03T12:31:52.864Z</time></trkpt><trkpt lat="45.229087054772954" lon="11.661281758442684"><ele>12.5</ele><time>2026-04-03T12:31:53.864Z</time></trkpt><trkpt lat="45.229142517871395" lon="11.661139508899934"><ele>12.75</ele><time>2026-04-03T12:31:54.864Z</time></trkpt><trkpt lat="45.22920491568969" lon="11.66099443977366"><ele>13.0</ele><time>2026-04-03T12:31:55.864Z</time></trkpt><trkpt lat="45.2292707122082" lon="11.660848689842796"><ele>13.0</ele><time>2026-04-03T12:31:56.864Z</time></trkpt><trkpt lat="45.22933527321851" lon="11.660718314848767"><ele>13.0</ele><time>2026-04-03T12:31:57.864Z</time></trkpt><trkpt lat="45.229387080326546" lon="11.660609074080897"><ele>13.0</ele><time>2026-04-03T12:31:58.864Z</time></trkpt><trkpt lat="45.229429807600745" lon="11.660525382244076"><ele>13.0</ele><time>2026-04-03T12:31:59.864Z</time></trkpt><trkpt lat="45.229471496244464" lon="11.660454937534222"><ele>13.0</ele><time>2026-04-03T12:32:00.864Z</time></trkpt><trkpt lat="45.2295397370642" lon="11.660312735438767"><ele>12.8</ele><time>2026-04-03T12:32:02.864Z</time></trkpt><trkpt lat="45.22963593321553" lon="11.660204098419207"><ele>12.600000000000001</ele><time>2026-04-03T12:32:04.864Z</time></trkpt><trkpt lat="45.22975422240646" lon="11.660122351328353"><ele>12.399999999999999</ele><time>2026-04-03T12:32:06.863Z</time></trkpt><trkpt lat="45.2298245843549" lon="11.660095484920237"><ele>12.2</ele><time>2026-04-03T12:32:07.863Z</time></trkpt><trkpt lat="45.22989745003139" lon="11.660078837355453"><ele>12.0</ele><time>2026-04-03T12:32:08.863Z</time></trkpt><trkpt lat="45.229971618023136" lon="11.6600736498075"><ele>12.2</ele><time>2026-04-03T12:32:09.863Z</time></trkpt><trkpt lat="45.23005099438119" lon="11.660092968128914"><ele>12.399999999999999</ele><time>2026-04-03T12:32:10.863Z</time></trkpt><trkpt lat="45.23014177674446" lon="11.66013261518552"><ele>12.600000000000001</ele><time>2026-04-03T12:32:11.863Z</time></trkpt><trkpt lat="45.23023530706252" lon="11.66019649263782"><ele>12.8</ele><time>2026-04-03T12:32:12.863Z</time></trkpt><trkpt lat="45.230327128708176" lon="11.660269492699591"><ele>13.0</ele><time>2026-04-03T12:32:13.863Z</time></trkpt><trkpt lat="45.230412403878" lon="11.660364318931906"><ele>13.0</ele><time>2026-04-03T12:32:14.862Z</time></trkpt><trkpt lat="45.23048834511152" lon="11.66048098741394"><ele>13.0</ele><time>2026-04-03T12:32:15.863Z</time></trkpt><trkpt lat="45.230542554886156" lon="11.660626180018888"><ele>13.0</ele><time>2026-04-03T12:32:16.863Z</time></trkpt><trkpt lat="45.23057390674656" lon="11.660788395878786"><ele>13.0</ele><time>2026-04-03T12:32:17.862Z</time></trkpt><trkpt lat="45.23059952212841" lon="11.660984609844416"><ele>12.75</ele><time>2026-04-03T12:32:18.863Z</time></trkpt><trkpt lat="45.23062338644083" lon="11.66117850969128"><ele>12.5</ele><time>2026-04-03T12:32:19.863Z</time></trkpt><trkpt lat="45.2306536266163" lon="11.661391011792112"><ele>12.25</ele><time>2026-04-03T12:32:20.863Z</time></trkpt><trkpt lat="45.23069640125238" lon="11.661594801172157"><ele>12.0</ele><time>2026-04-03T12:32:21.863Z</time></trkpt><trkpt lat="45.23076305194999" lon="11.661780300690546"><ele>12.25</ele><time>2026-04-03T12:32:22.863Z</time></trkpt><trkpt lat="45.230836551231256" lon="11.66197305550413"><ele>12.5</ele><time>2026-04-03T12:32:23.863Z</time></trkpt><trkpt lat="45.23089943745076" lon="11.66216009586519"><ele>12.75</ele><time>2026-04-03T12:32:24.863Z</time></trkpt><trkpt lat="45.23094989871065" lon="11.662355450661703"><ele>13.0</ele><time>2026-04-03T12:32:25.863Z</time></trkpt><trkpt lat="45.2310104733511" lon="11.66253960940156"><ele>13.0</ele><time>2026-04-03T12:32:26.863Z</time></trkpt><trkpt lat="45.23106953266409" lon="11.662721377836734"><ele>13.0</ele><time>2026-04-03T12:32:27.863Z</time></trkpt><trkpt lat="45.23112997287275" lon="11.662908587711012"><ele>13.0</ele><time>2026-04-03T12:32:28.863Z</time></trkpt><trkpt lat="45.23118846462629" lon="11.663089762360014"><ele>13.0</ele><time>2026-04-03T12:32:29.863Z</time></trkpt><trkpt lat="45.23124807796738" lon="11.663273843710769"><ele>13.0</ele><time>2026-04-03T12:32:30.863Z</time></trkpt><trkpt lat="45.231308910675246" lon="11.663461000136534"><ele>13.0</ele><time>2026-04-03T12:32:31.863Z</time></trkpt><trkpt lat="45.23137076663451" lon="11.663651304686006"><ele>13.0</ele><time>2026-04-03T12:32:32.863Z</time></trkpt><trkpt lat="45.23143222529487" lon="11.663840386959231"><ele>13.0</ele><time>2026-04-03T12:32:33.863Z</time></trkpt><trkpt lat="45.231494848011494" lon="11.664034630073242"><ele>13.75</ele><time>2026-04-03T12:32:34.863Z</time></trkpt><trkpt lat="45.231558464177816" lon="11.664226662468316"><ele>14.5</ele><time>2026-04-03T12:32:35.863Z</time></trkpt><trkpt lat="45.23161956069812" lon="11.664411089030681"><ele>15.25</ele><time>2026-04-03T12:32:36.862Z</time></trkpt><trkpt lat="45.23168183721182" lon="11.664596080129146"><ele>16.0</ele><time>2026-04-03T12:32:37.862Z</time></trkpt><trkpt lat="45.23174866647333" lon="11.66478423477719"><ele>16.0</ele><time>2026-04-03T12:32:38.862Z</time></trkpt><trkpt lat="45.2318267205889" lon="11.66495092699462"><ele>16.0</ele><time>2026-04-03T12:32:39.862Z</time></trkpt><trkpt lat="45.23190623101206" lon="11.665120729288885"><ele>16.0</ele><time>2026-04-03T12:32:40.862Z</time></trkpt><trkpt lat="45.231984536123576" lon="11.665287957522331"><ele>16.0</ele><time>2026-04-03T12:32:41.862Z</time></trkpt><trkpt lat="45.2320825252194" lon="11.665432262260452"><ele>15.75</ele><time>2026-04-03T12:32:42.862Z</time></trkpt><trkpt lat="45.23215463496444" lon="11.665598091266626"><ele>15.5</ele><time>2026-04-03T12:32:43.862Z</time></trkpt><trkpt lat="45.23222969564484" lon="11.665748303981799"><ele>15.25</ele><time>2026-04-03T12:32:44.862Z</time></trkpt><trkpt lat="45.23231166690602" lon="11.665892100421724"><ele>15.0</ele><time>2026-04-03T12:32:45.862Z</time></trkpt><trkpt lat="45.232380635979844" lon="11.666048986507542"><ele>14.75</ele><time>2026-04-03T12:32:46.862Z</time></trkpt><trkpt lat="45.23241996534218" lon="11.666237920726257"><ele>14.5</ele><time>2026-04-03T12:32:47.862Z</time></trkpt><trkpt lat="45.23249594797334" lon="11.666396249071799"><ele>14.25</ele><time>2026-04-03T12:32:48.862Z</time></trkpt><trkpt lat="45.23257028282867" lon="11.666550680418482"><ele>14.0</ele><time>2026-04-03T12:32:49.862Z</time></trkpt><trkpt lat="45.23264497161044" lon="11.66670219123159"><ele>14.0</ele><time>2026-04-03T12:32:50.862Z</time></trkpt><trkpt lat="45.23272038659843" lon="11.666855174998139"><ele>14.0</ele><time>2026-04-03T12:32:51.862Z</time></trkpt><trkpt lat="45.23280208031352" lon="11.667008569341153"><ele>14.0</ele><time>2026-04-03T12:32:52.862Z</time></trkpt><trkpt lat="45.23288375718349" lon="11.667163582063559"><ele>14.0</ele><time>2026-04-03T12:32:53.862Z</time></trkpt><trkpt lat="45.232966962577024" lon="11.667323012851606"><ele>14.0</ele><time>2026-04-03T12:32:54.862Z</time></trkpt><trkpt lat="45.233047994666755" lon="11.667480662436372"><ele>14.0</ele><time>2026-04-03T12:32:55.862Z</time></trkpt><trkpt lat="45.23313077847021" lon="11.667641510120584"><ele>14.0</ele><time>2026-04-03T12:32:56.862Z</time></trkpt><trkpt lat="45.23321398911745" lon="11.667803167587046"><ele>14.0</ele><time>2026-04-03T12:32:57.862Z</time></trkpt><trkpt lat="45.23329667157708" lon="11.66796656508861"><ele>14.0</ele><time>2026-04-03T12:32:58.862Z</time></trkpt><trkpt lat="45.23337764973948" lon="11.668134552939087"><ele>14.0</ele><time>2026-04-03T12:32:59.862Z</time></trkpt><trkpt lat="45.23345397474888" lon="11.668311785100869"><ele>14.0</ele><time>2026-04-03T12:33:00.862Z</time></trkpt><trkpt lat="45.23353145777693" lon="11.668490306892492"><ele>14.0</ele><time>2026-04-03T12:33:01.862Z</time></trkpt><trkpt lat="45.233610440262936" lon="11.668667949814763"><ele>13.75</ele><time>2026-04-03T12:33:02.862Z</time></trkpt><trkpt lat="45.23368658225401" lon="11.668843130334848"><ele>13.5</ele><time>2026-04-03T12:33:03.862Z</time></trkpt><trkpt lat="45.23376097983958" lon="11.669019477432355"><ele>13.25</ele><time>2026-04-03T12:33:04.862Z</time></trkpt><trkpt lat="45.23383469215367" lon="11.669189388534681"><ele>13.0</ele><time>2026-04-03T12:33:05.862Z</time></trkpt><trkpt lat="45.233907988853296" lon="11.669356604052478"><ele>13.5</ele><time>2026-04-03T12:33:06.862Z</time></trkpt><trkpt lat="45.233996828035906" lon="11.669515062001581"><ele>14.0</ele><time>2026-04-03T12:33:07.862Z</time></trkpt><trkpt lat="45.2340631444476" lon="11.66969753844862"><ele>14.5</ele><time>2026-04-03T12:33:08.862Z</time></trkpt><trkpt lat="45.23413396522948" lon="11.669879922867272"><ele>15.0</ele><time>2026-04-03T12:33:09.862Z</time></trkpt><trkpt lat="45.23420330891352" lon="11.670062041514788"><ele>15.0</ele><time>2026-04-03T12:33:10.862Z</time></trkpt><trkpt lat="45.23427257786659" lon="11.670242983036033"><ele>15.0</ele><time>2026-04-03T12:33:11.862Z</time></trkpt><trkpt lat="45.234348335915364" lon="11.670420366437316"><ele>15.0</ele><time>2026-04-03T12:33:12.862Z</time></trkpt><trkpt lat="45.234427553673946" lon="11.67059107119596"><ele>15.0</ele><time>2026-04-03T12:33:13.862Z</time></trkpt><trkpt lat="45.23449530864652" lon="11.670758933599943"><ele>14.6</ele><time>2026-04-03T12:33:14.862Z</time></trkpt><trkpt lat="45.23456527573951" lon="11.670905105814688"><ele>14.2</ele><time>2026-04-03T12:33:15.862Z</time></trkpt><trkpt lat="45.234627219889205" lon="11.671038778596596"><ele>13.8</ele><time>2026-04-03T12:33:16.862Z</time></trkpt><trkpt lat="45.23467606990039" lon="11.671161273239834"><ele>13.4</ele><time>2026-04-03T12:33:17.862Z</time></trkpt><trkpt lat="45.23471511464272" lon="11.671256125194958"><ele>13.0</ele><time>2026-04-03T12:33:18.862Z</time></trkpt><trkpt lat="45.23474673780552" lon="11.671336515756474"><ele>12.833333333333332</ele><time>2026-04-03T12:33:19.862Z</time></trkpt><trkpt lat="45.23479492697577" lon="11.671430160916247"><ele>12.666666666666666</ele><time>2026-04-03T12:33:21.862Z</time></trkpt><trkpt lat="45.234842862507136" lon="11.671521743349732"><ele>12.5</ele><time>2026-04-03T12:33:24.862Z</time></trkpt><trkpt lat="45.23487458548367" lon="11.671622309816524"><ele>12.333333333333332</ele><time>2026-04-03T12:33:35.862Z</time></trkpt><trkpt lat="45.234916472941514" lon="11.671700941046051"><ele>12.166666666666666</ele><time>2026-04-03T12:33:38.862Z</time></trkpt><trkpt lat="45.23498740596572" lon="11.67179294338855"><ele>12.0</ele><time>2026-04-03T12:33:56.861Z</time></trkpt><trkpt lat="45.23503418367374" lon="11.671853071089549"><ele>12.2</ele><time>2026-04-03T12:33:57.861Z</time></trkpt><trkpt lat="45.235116859380234" lon="11.671972087194426"><ele>12.399999999999999</ele><time>2026-04-03T12:33:59.861Z</time></trkpt><trkpt lat="45.235168348886646" lon="11.672051029388928"><ele>12.600000000000001</ele><time>2026-04-03T12:34:00.861Z</time></trkpt><trkpt lat="45.23522425626316" lon="11.672144051949397"><ele>12.8</ele><time>2026-04-03T12:34:01.861Z</time></trkpt><trkpt lat="45.235284515050374" lon="11.672246717681771"><ele>13.0</ele><time>2026-04-03T12:34:02.861Z</time></trkpt><trkpt lat="45.23533424251823" lon="11.672356010700565"><ele>13.0</ele><time>2026-04-03T12:34:03.861Z</time></trkpt><trkpt lat="45.2353826774907" lon="11.672478106665187"><ele>13.0</ele><time>2026-04-03T12:34:04.861Z</time></trkpt><trkpt lat="45.23542792830516" lon="11.672613317539943"><ele>13.0</ele><time>2026-04-03T12:34:05.861Z</time></trkpt><trkpt lat="45.235483594963405" lon="11.67275937453388"><ele>13.0</ele><time>2026-04-03T12:34:06.861Z</time></trkpt><trkpt lat="45.23554569477443" lon="11.672905750931493"><ele>13.0</ele><time>2026-04-03T12:34:07.861Z</time></trkpt><trkpt lat="45.23561512696514" lon="11.67306388624146"><ele>13.0</ele><time>2026-04-03T12:34:08.861Z</time></trkpt><trkpt lat="45.23566959139835" lon="11.673234935728681"><ele>13.0</ele><time>2026-04-03T12:34:09.861Z</time></trkpt><trkpt lat="45.235744942772854" lon="11.673385835743082"><ele>13.0</ele><time>2026-04-03T12:34:10.861Z</time></trkpt><trkpt lat="45.2358240436699" lon="11.673540790531295"><ele>13.0</ele><time>2026-04-03T12:34:11.86Z</time></trkpt><trkpt lat="45.23590261061185" lon="11.673698846382923"><ele>13.0</ele><time>2026-04-03T12:34:12.861Z</time></trkpt><trkpt lat="45.23598845365433" lon="11.673851601553858"><ele>13.0</ele><time>2026-04-03T12:34:13.861Z</time></trkpt><trkpt lat="45.23607551259666" lon="11.674002946921734"><ele>13.0</ele><time>2026-04-03T12:34:14.86Z</time></trkpt><trkpt lat="45.23616857286525" lon="11.674165774149964"><ele>13.0</ele><time>2026-04-03T12:34:15.86Z</time></trkpt><trkpt lat="45.236279851706705" lon="11.67433349867827"><ele>14.0</ele><time>2026-04-03T12:34:16.86Z</time></trkpt><trkpt lat="45.23638683890964" lon="11.674511638382377"><ele>15.0</ele><time>2026-04-03T12:34:17.861Z</time></trkpt><trkpt lat="45.236492857239995" lon="11.674700342193118"><ele>16.0</ele><time>2026-04-03T12:34:18.86Z</time></trkpt><trkpt lat="45.23660344264034" lon="11.674895601103549"><ele>16.0</ele><time>2026-04-03T12:34:19.86Z</time></trkpt><trkpt lat="45.23671094901913" lon="11.675090715060445"><ele>16.0</ele><time>2026-04-03T12:34:20.86Z</time></trkpt><trkpt lat="45.23681436600009" lon="11.675292238329181"><ele>16.0</ele><time>2026-04-03T12:34:21.86Z</time></trkpt><trkpt lat="45.23691623727374" lon="11.675501401244901"><ele>14.666666666666666</ele><time>2026-04-03T12:34:22.86Z</time></trkpt><trkpt lat="45.23700455040562" lon="11.675699428867098"><ele>13.333333333333332</ele><time>2026-04-03T12:34:23.86Z</time></trkpt><trkpt lat="45.23709286161621" lon="11.67589323767821"><ele>12.0</ele><time>2026-04-03T12:34:24.86Z</time></trkpt><trkpt lat="45.23717851926396" lon="11.676089855063111"><ele>11.666666666666666</ele><time>2026-04-03T12:34:25.86Z</time></trkpt><trkpt lat="45.237264675428634" lon="11.676288196714594"><ele>11.333333333333332</ele><time>2026-04-03T12:34:26.86Z</time></trkpt><trkpt lat="45.237350955698616" lon="11.676487952997599"><ele>11.0</ele><time>2026-04-03T12:34:27.86Z</time></trkpt><trkpt lat="45.23743948547515" lon="11.676685542575187"><ele>12.0</ele><time>2026-04-03T12:34:28.86Z</time></trkpt><trkpt lat="45.23752304417881" lon="11.676888829034661"><ele>13.0</ele><time>2026-04-03T12:34:29.86Z</time></trkpt><trkpt lat="45.23760899256797" lon="11.67709140996551"><ele>14.0</ele><time>2026-04-03T12:34:30.86Z</time></trkpt><trkpt lat="45.23769301968971" lon="11.67729598172018"><ele>14.0</ele><time>2026-04-03T12:34:31.86Z</time></trkpt><trkpt lat="45.23777473866239" lon="11.677503046258035"><ele>14.0</ele><time>2026-04-03T12:34:32.86Z</time></trkpt><trkpt lat="45.23785524877073" lon="11.677710254339345"><ele>14.0</ele><time>2026-04-03T12:34:33.86Z</time></trkpt><trkpt lat="45.237940118152196" lon="11.67791312495782"><ele>13.0</ele><time>2026-04-03T12:34:34.86Z</time></trkpt><trkpt lat="45.23801895747711" lon="11.678116819629464"><ele>12.0</ele><time>2026-04-03T12:34:35.86Z</time></trkpt><trkpt lat="45.238097278507645" lon="11.678320135995383"><ele>11.0</ele><time>2026-04-03T12:34:36.86Z</time></trkpt><trkpt lat="45.23817718407067" lon="11.678524742639702"><ele>12.333333333333332</ele><time>2026-04-03T12:34:37.86Z</time></trkpt><trkpt lat="45.23825756797991" lon="11.678733111875047"><ele>13.666666666666666</ele><time>2026-04-03T12:34:38.86Z</time></trkpt><trkpt lat="45.23833752660522" lon="11.678946247272204"><ele>15.0</ele><time>2026-04-03T12:34:39.86Z</time></trkpt><trkpt lat="45.23842012968425" lon="11.679160016799825"><ele>15.0</ele><time>2026-04-03T12:34:40.86Z</time></trkpt><trkpt lat="45.23848247978403" lon="11.679381423987415"><ele>15.0</ele><time>2026-04-03T12:34:41.86Z</time></trkpt><trkpt lat="45.23855821970556" lon="11.679589081372562"><ele>15.0</ele><time>2026-04-03T12:34:42.86Z</time></trkpt><trkpt lat="45.23863364348369" lon="11.67979080209554"><ele>14.0</ele><time>2026-04-03T12:34:43.86Z</time></trkpt><trkpt lat="45.23871606712831" lon="11.679988290802331"><ele>13.0</ele><time>2026-04-03T12:34:44.86Z</time></trkpt><trkpt lat="45.238810226798655" lon="11.68016848438189"><ele>12.0</ele><time>2026-04-03T12:34:45.86Z</time></trkpt><trkpt lat="45.23891517896626" lon="11.680338473001111"><ele>11.666666666666666</ele><time>2026-04-03T12:34:46.86Z</time></trkpt><trkpt lat="45.23903530971512" lon="11.680489842647798"><ele>11.333333333333332</ele><time>2026-04-03T12:34:47.86Z</time></trkpt><trkpt lat="45.239161295525875" lon="11.680633620433799"><ele>11.0</ele><time>2026-04-03T12:34:48.86Z</time></trkpt><trkpt lat="45.23928784671301" lon="11.680774598236534"><ele>11.0</ele><time>2026-04-03T12:34:49.86Z</time></trkpt><trkpt lat="45.23941261471007" lon="11.68091574868875"><ele>11.0</ele><time>2026-04-03T12:34:50.86Z</time></trkpt><trkpt lat="45.2395374756766" lon="11.681056919911896"><ele>11.0</ele><time>2026-04-03T12:34:51.86Z</time></trkpt><trkpt lat="45.23966235160594" lon="11.681197968842216"><ele>11.0</ele><time>2026-04-03T12:34:52.86Z</time></trkpt><trkpt lat="45.23978405941817" lon="11.68134258913662"><ele>11.0</ele><time>2026-04-03T12:34:53.86Z</time></trkpt><trkpt lat="45.23990820320979" lon="11.681474150647304"><ele>11.0</ele><time>2026-04-03T12:34:54.86Z</time></trkpt><trkpt lat="45.24003288086433" lon="11.681597096508177"><ele>11.0</ele><time>2026-04-03T12:34:55.86Z</time></trkpt><trkpt lat="45.24015598466226" lon="11.681725957800133"><ele>11.0</ele><time>2026-04-03T12:34:56.86Z</time></trkpt><trkpt lat="45.2402697062329" lon="11.681873427421099"><ele>11.0</ele><time>2026-04-03T12:34:57.86Z</time></trkpt><trkpt lat="45.240399414485495" lon="11.681996073524296"><ele>11.0</ele><time>2026-04-03T12:34:58.86Z</time></trkpt><trkpt lat="45.240539869748595" lon="11.68210042572288"><ele>11.0</ele><time>2026-04-03T12:34:59.86Z</time></trkpt><trkpt lat="45.24067500680752" lon="11.682173125868186"><ele>11.0</ele><time>2026-04-03T12:35:00.86Z</time></trkpt><trkpt lat="45.24081016860219" lon="11.682238895698612"><ele>11.0</ele><time>2026-04-03T12:35:01.86Z</time></trkpt><trkpt lat="45.24093568970228" lon="11.682298266251532"><ele>10.75</ele><time>2026-04-03T12:35:02.86Z</time></trkpt><trkpt lat="45.24105323966435" lon="11.68237565263364"><ele>10.5</ele><time>2026-04-03T12:35:03.86Z</time></trkpt><trkpt lat="45.24115922832972" lon="11.682483806219865"><ele>10.25</ele><time>2026-04-03T12:35:04.86Z</time></trkpt><trkpt lat="45.24125068019671" lon="11.682623460019574"><ele>10.0</ele><time>2026-04-03T12:35:05.86Z</time></trkpt><trkpt lat="45.24132808620699" lon="11.682788433109828"><ele>10.0</ele><time>2026-04-03T12:35:06.86Z</time></trkpt><trkpt lat="45.241393867948844" lon="11.682968546088059"><ele>10.0</ele><time>2026-04-03T12:35:07.86Z</time></trkpt><trkpt lat="45.24146243739013" lon="11.683144400730049"><ele>10.0</ele><time>2026-04-03T12:35:08.86Z</time></trkpt><trkpt lat="45.24153697342234" lon="11.683313679571047"><ele>10.0</ele><time>2026-04-03T12:35:09.86Z</time></trkpt><trkpt lat="45.241614892318225" lon="11.683473374147555"><ele>10.5</ele><time>2026-04-03T12:35:10.859Z</time></trkpt><trkpt lat="45.241690385547564" lon="11.683637355070017"><ele>11.0</ele><time>2026-04-03T12:35:11.859Z</time></trkpt><trkpt lat="45.24177417183121" lon="11.683796241802321"><ele>11.5</ele><time>2026-04-03T12:35:12.859Z</time></trkpt><trkpt lat="45.241858268545215" lon="11.683956595990825"><ele>12.0</ele><time>2026-04-03T12:35:13.859Z</time></trkpt><trkpt lat="45.24192039978671" lon="11.684138823275564"><ele>12.0</ele><time>2026-04-03T12:35:14.859Z</time></trkpt><trkpt lat="45.24200179988509" lon="11.684303800171591"><ele>12.0</ele><time>2026-04-03T12:35:15.859Z</time></trkpt><trkpt lat="45.24209100899663" lon="11.684457360380307"><ele>12.0</ele><time>2026-04-03T12:35:16.859Z</time></trkpt><trkpt lat="45.24218016440837" lon="11.68460286404452"><ele>12.0</ele><time>2026-04-03T12:35:17.859Z</time></trkpt><trkpt lat="45.242271429254544" lon="11.684745048427382"><ele>12.0</ele><time>2026-04-03T12:35:18.859Z</time></trkpt><trkpt lat="45.242363415236916" lon="11.684885089696857"><ele>12.0</ele><time>2026-04-03T12:35:19.859Z</time></trkpt><trkpt lat="45.24245742110347" lon="11.68502278752069"><ele>12.0</ele><time>2026-04-03T12:35:20.859Z</time></trkpt><trkpt lat="45.24255008906975" lon="11.685158326827198"><ele>12.0</ele><time>2026-04-03T12:35:21.859Z</time></trkpt><trkpt lat="45.24264332027795" lon="11.685295068790124"><ele>12.0</ele><time>2026-04-03T12:35:22.859Z</time></trkpt><trkpt lat="45.24273471494286" lon="11.68543088713813"><ele>12.0</ele><time>2026-04-03T12:35:23.859Z</time></trkpt><trkpt lat="45.24282895859069" lon="11.685572681466025"><ele>12.0</ele><time>2026-04-03T12:35:24.859Z</time></trkpt><trkpt lat="45.242921101044686" lon="11.685711085932926"><ele>12.0</ele><time>2026-04-03T12:35:25.859Z</time></trkpt><trkpt lat="45.243017132589536" lon="11.685855319133013"><ele>12.0</ele><time>2026-04-03T12:35:26.859Z</time></trkpt><trkpt lat="45.243110140783344" lon="11.685999974174745"><ele>12.0</ele><time>2026-04-03T12:35:27.859Z</time></trkpt><trkpt lat="45.24319875840043" lon="11.686145518385139"><ele>12.0</ele><time>2026-04-03T12:35:28.859Z</time></trkpt><trkpt lat="45.24327402363923" lon="11.686297780770671"><ele>12.0</ele><time>2026-04-03T12:35:29.859Z</time></trkpt><trkpt lat="45.24333853717817" lon="11.686459730443481"><ele>12.25</ele><time>2026-04-03T12:35:30.859Z</time></trkpt><trkpt lat="45.24340256366339" lon="11.68663640114128"><ele>12.5</ele><time>2026-04-03T12:35:31.859Z</time></trkpt><trkpt lat="45.243444059562265" lon="11.686814836165391"><ele>12.75</ele><time>2026-04-03T12:35:32.859Z</time></trkpt><trkpt lat="45.24348978610538" lon="11.68699846622893"><ele>13.0</ele><time>2026-04-03T12:35:33.859Z</time></trkpt><trkpt lat="45.24352159924292" lon="11.687183551716016"><ele>13.25</ele><time>2026-04-03T12:35:34.859Z</time></trkpt><trkpt lat="45.24355048567453" lon="11.687365305244251"><ele>13.5</ele><time>2026-04-03T12:35:35.859Z</time></trkpt><trkpt lat="45.24356694715251" lon="11.687531519044247"><ele>13.75</ele><time>2026-04-03T12:35:36.859Z</time></trkpt><trkpt lat="45.24357367197189" lon="11.687691615463056"><ele>14.0</ele><time>2026-04-03T12:35:37.859Z</time></trkpt><trkpt lat="45.24358146099655" lon="11.687844741287186"><ele>14.000000000000002</ele><time>2026-04-03T12:35:38.859Z</time></trkpt><trkpt lat="45.24360558649486" lon="11.687986097589727"><ele>14.0</ele><time>2026-04-03T12:35:39.859Z</time></trkpt><trkpt lat="45.2436135358245" lon="11.688118498144748"><ele>14.0</ele><time>2026-04-03T12:35:40.859Z</time></trkpt><trkpt lat="45.24362241837532" lon="11.688235829681723"><ele>14.0</ele><time>2026-04-03T12:35:41.859Z</time></trkpt><trkpt lat="45.2436277932355" lon="11.68834614291971"><ele>14.000000000000002</ele><time>2026-04-03T12:35:42.859Z</time></trkpt><trkpt lat="45.243623677262775" lon="11.688453237435871"><ele>14.0</ele><time>2026-04-03T12:35:43.859Z</time></trkpt><trkpt lat="45.24361240953826" lon="11.688558922676567"><ele>14.0</ele><time>2026-04-03T12:35:44.859Z</time></trkpt><trkpt lat="45.243590895258485" lon="11.688662435359474"><ele>13.999999999999998</ele><time>2026-04-03T12:35:45.859Z</time></trkpt><trkpt lat="45.243547006759606" lon="11.688766478694038"><ele>13.999999999999998</ele><time>2026-04-03T12:35:46.859Z</time></trkpt><trkpt lat="45.24349265466906" lon="11.68889844252454"><ele>14.0</ele><time>2026-04-03T12:35:47.859Z</time></trkpt><trkpt lat="45.243448956973786" lon="11.68905324534215"><ele>14.0</ele><time>2026-04-03T12:35:48.859Z</time></trkpt><trkpt lat="45.243396063359235" lon="11.689225663352314"><ele>14.0</ele><time>2026-04-03T12:35:49.859Z</time></trkpt><trkpt lat="45.24332015620512" lon="11.6893942188044"><ele>14.0</ele><time>2026-04-03T12:35:50.859Z</time></trkpt><trkpt lat="45.243261038403844" lon="11.689567375260385"><ele>14.0</ele><time>2026-04-03T12:35:51.859Z</time></trkpt><trkpt lat="45.24320746468763" lon="11.689735459370565"><ele>14.0</ele><time>2026-04-03T12:35:52.859Z</time></trkpt><trkpt lat="45.243158415074376" lon="11.689891574770288"><ele>14.0</ele><time>2026-04-03T12:35:53.859Z</time></trkpt><trkpt lat="45.24311070718256" lon="11.690034242338541"><ele>13.999999999999998</ele><time>2026-04-03T12:35:54.859Z</time></trkpt><trkpt lat="45.24306762429104" lon="11.690171501300496"><ele>13.999999999999998</ele><time>2026-04-03T12:35:55.859Z</time></trkpt><trkpt lat="45.242996336653206" lon="11.69027883423031"><ele>14.0</ele><time>2026-04-03T12:35:56.859Z</time></trkpt><trkpt lat="45.242922773612186" lon="11.690365781518683"><ele>14.0</ele><time>2026-04-03T12:35:57.859Z</time></trkpt><trkpt lat="45.242835347070226" lon="11.690428100770504"><ele>15.5</ele><time>2026-04-03T12:35:58.859Z</time></trkpt><trkpt lat="45.24272782444419" lon="11.690451857488505"><ele>17.0</ele><time>2026-04-03T12:35:59.859Z</time></trkpt><trkpt lat="45.242614983583124" lon="11.69048615399438"><ele>18.5</ele><time>2026-04-03T12:36:00.859Z</time></trkpt><trkpt lat="45.242493562681084" lon="11.69052079795324"><ele>20.0</ele><time>2026-04-03T12:36:01.859Z</time></trkpt><trkpt lat="45.24236147191182" lon="11.690554523589004"><ele>19.5</ele><time>2026-04-03T12:36:02.859Z</time></trkpt><trkpt lat="45.24222947114395" lon="11.690577268077817"><ele>19.0</ele><time>2026-04-03T12:36:03.859Z</time></trkpt><trkpt lat="45.24209923852919" lon="11.690602516760068"><ele>18.5</ele><time>2026-04-03T12:36:04.859Z</time></trkpt><trkpt lat="45.24197076228942" lon="11.690640366639887"><ele>18.0</ele><time>2026-04-03T12:36:05.859Z</time></trkpt><trkpt lat="45.24183913971078" lon="11.690708038646749"><ele>18.0</ele><time>2026-04-03T12:36:06.859Z</time></trkpt><trkpt lat="45.241722236145925" lon="11.690816326839954"><ele>18.0</ele><time>2026-04-03T12:36:07.859Z</time></trkpt><trkpt lat="45.24161040293023" lon="11.690944483374093"><ele>18.0</ele><time>2026-04-03T12:36:08.859Z</time></trkpt><trkpt lat="45.24149668611879" lon="11.691081317609223"><ele>18.0</ele><time>2026-04-03T12:36:09.859Z</time></trkpt><trkpt lat="45.24137238673971" lon="11.69122167442959"><ele>18.333333333333332</ele><time>2026-04-03T12:36:10.859Z</time></trkpt><trkpt lat="45.24125928705405" lon="11.69137227842895"><ele>18.666666666666664</ele><time>2026-04-03T12:36:11.859Z</time></trkpt><trkpt lat="45.24113367607462" lon="11.691514916527403"><ele>19.0</ele><time>2026-04-03T12:36:12.859Z</time></trkpt><trkpt lat="45.24100550972012" lon="11.691646504386862"><ele>19.0</ele><time>2026-04-03T12:36:13.859Z</time></trkpt><trkpt lat="45.24085775380533" lon="11.691741196361729"><ele>19.0</ele><time>2026-04-03T12:36:14.859Z</time></trkpt><trkpt lat="45.240702861893" lon="11.691808050539317"><ele>19.0</ele><time>2026-04-03T12:36:15.859Z</time></trkpt><trkpt lat="45.24055080901999" lon="11.691835375959041"><ele>17.666666666666664</ele><time>2026-04-03T12:36:16.859Z</time></trkpt><trkpt lat="45.2403877287745" lon="11.691879591268293"><ele>16.333333333333332</ele><time>2026-04-03T12:36:17.858Z</time></trkpt><trkpt lat="45.240231054838894" lon="11.691944460241325"><ele>15.0</ele><time>2026-04-03T12:36:18.858Z</time></trkpt><trkpt lat="45.240068167018656" lon="11.692015595786252"><ele>16.666666666666668</ele><time>2026-04-03T12:36:19.858Z</time></trkpt><trkpt lat="45.239922375081136" lon="11.692116755227504"><ele>18.333333333333336</ele><time>2026-04-03T12:36:20.858Z</time></trkpt><trkpt lat="45.23978553404841" lon="11.69224781866569"><ele>20.0</ele><time>2026-04-03T12:36:21.858Z</time></trkpt><trkpt lat="45.23965823675329" lon="11.692392928773682"><ele>20.0</ele><time>2026-04-03T12:36:22.857Z</time></trkpt><trkpt lat="45.239531186369305" lon="11.692537885363459"><ele>20.0</ele><time>2026-04-03T12:36:23.858Z</time></trkpt><trkpt lat="45.23939185968273" lon="11.692654809413417"><ele>20.0</ele><time>2026-04-03T12:36:24.857Z</time></trkpt><trkpt lat="45.23923870371862" lon="11.69272466921177"><ele>22.333333333333336</ele><time>2026-04-03T12:36:25.857Z</time></trkpt><trkpt lat="45.23908318343199" lon="11.692807931814205"><ele>24.666666666666668</ele><time>2026-04-03T12:36:26.857Z</time></trkpt><trkpt lat="45.238929739199115" lon="11.692881954148586"><ele>27.0</ele><time>2026-04-03T12:36:27.857Z</time></trkpt><trkpt lat="45.238782491769896" lon="11.692949470406381"><ele>27.0</ele><time>2026-04-03T12:36:28.857Z</time></trkpt><trkpt lat="45.23864182053711" lon="11.69301549184934"><ele>27.0</ele><time>2026-04-03T12:36:29.857Z</time></trkpt><trkpt lat="45.2385125842554" lon="11.69311224859265"><ele>27.0</ele><time>2026-04-03T12:36:30.858Z</time></trkpt><trkpt lat="45.23839427457801" lon="11.693241325852423"><ele>27.0</ele><time>2026-04-03T12:36:31.858Z</time></trkpt><trkpt lat="45.23827748733263" lon="11.693384910544419"><ele>27.0</ele><time>2026-04-03T12:36:32.858Z</time></trkpt><trkpt lat="45.238149594190894" lon="11.693521606643786"><ele>27.0</ele><time>2026-04-03T12:36:33.858Z</time></trkpt><trkpt lat="45.23801380329913" lon="11.69364001877661"><ele>27.0</ele><time>2026-04-03T12:36:34.858Z</time></trkpt><trkpt lat="45.23787823947742" lon="11.69375961470967"><ele>27.666666666666664</ele><time>2026-04-03T12:36:35.858Z</time></trkpt><trkpt lat="45.23773907502076" lon="11.69385791050925"><ele>28.333333333333332</ele><time>2026-04-03T12:36:36.858Z</time></trkpt><trkpt lat="45.23759740020517" lon="11.693954003571095"><ele>29.0</ele><time>2026-04-03T12:36:37.858Z</time></trkpt><trkpt lat="45.237467290355305" lon="11.694037864012785"><ele>29.0</ele><time>2026-04-03T12:36:38.858Z</time></trkpt><trkpt lat="45.23734732299406" lon="11.694113735912863"><ele>29.0</ele><time>2026-04-03T12:36:39.858Z</time></trkpt><trkpt lat="45.237245761176915" lon="11.694188627979592"><ele>29.0</ele><time>2026-04-03T12:36:40.858Z</time></trkpt><trkpt lat="45.23713699540652" lon="11.694214346484236"><ele>29.0</ele><time>2026-04-03T12:36:41.857Z</time></trkpt><trkpt lat="45.23702964500414" lon="11.694199499452367"><ele>27.5</ele><time>2026-04-03T12:36:42.857Z</time></trkpt><trkpt lat="45.23692452326142" lon="11.694143284415404"><ele>26.0</ele><time>2026-04-03T12:36:43.857Z</time></trkpt><trkpt lat="45.23683303286879" lon="11.694021611646589"><ele>24.5</ele><time>2026-04-03T12:36:44.857Z</time></trkpt><trkpt lat="45.23672173354908" lon="11.693941037514874"><ele>23.0</ele><time>2026-04-03T12:36:45.857Z</time></trkpt><trkpt lat="45.23658344421937" lon="11.693927010326277"><ele>21.333333333333336</ele><time>2026-04-03T12:36:46.857Z</time></trkpt><trkpt lat="45.236437142026986" lon="11.694011460189172"><ele>19.666666666666668</ele><time>2026-04-03T12:36:47.857Z</time></trkpt><trkpt lat="45.23631848192177" lon="11.694196528672979"><ele>18.0</ele><time>2026-04-03T12:36:48.857Z</time></trkpt><trkpt lat="45.23628934941965" lon="11.694421957496246"><ele>18.0</ele><time>2026-04-03T12:36:49.857Z</time></trkpt><trkpt lat="45.23629360768621" lon="11.694603871612399"><ele>18.0</ele><time>2026-04-03T12:36:50.857Z</time></trkpt><trkpt lat="45.236298761093714" lon="11.69471564759196"><ele>18.0</ele><time>2026-04-03T12:36:51.857Z</time></trkpt><trkpt lat="45.236307274568105" lon="11.694890545894731"><ele>18.0</ele><time>2026-04-03T12:36:52.857Z</time></trkpt><trkpt lat="45.236312797446736" lon="11.695085847512"><ele>18.0</ele><time>2026-04-03T12:36:53.857Z</time></trkpt><trkpt lat="45.23631450225404" lon="11.695282124292449"><ele>18.0</ele><time>2026-04-03T12:36:54.857Z</time></trkpt><trkpt lat="45.23630950467623" lon="11.695465380663451"><ele>18.0</ele><time>2026-04-03T12:36:55.857Z</time></trkpt><trkpt lat="45.23628106707197" lon="11.695659666115732"><ele>18.0</ele><time>2026-04-03T12:36:56.857Z</time></trkpt><trkpt lat="45.23624670683046" lon="11.695875076114186"><ele>17.333333333333332</ele><time>2026-04-03T12:36:57.857Z</time></trkpt><trkpt lat="45.23622389704034" lon="11.696099051542003"><ele>16.666666666666664</ele><time>2026-04-03T12:36:58.857Z</time></trkpt><trkpt lat="45.23623566607293" lon="11.696294619910388"><ele>16.0</ele><time>2026-04-03T12:36:59.857Z</time></trkpt><trkpt lat="45.23634374807417" lon="11.696455954729876"><ele>16.0</ele><time>2026-04-03T12:37:00.857Z</time></trkpt><trkpt lat="45.23643110638347" lon="11.696626981806775"><ele>16.0</ele><time>2026-04-03T12:37:01.857Z</time></trkpt><trkpt lat="45.236540847229605" lon="11.696795880261892"><ele>16.0</ele><time>2026-04-03T12:37:02.857Z</time></trkpt><trkpt lat="45.23663148201652" lon="11.696987692964477"><ele>17.666666666666664</ele><time>2026-04-03T12:37:03.857Z</time></trkpt><trkpt lat="45.23663405179515" lon="11.697271857730769"><ele>19.333333333333332</ele><time>2026-04-03T12:37:04.857Z</time></trkpt><trkpt lat="45.236727128464146" lon="11.69747865182114"><ele>21.0</ele><time>2026-04-03T12:37:05.857Z</time></trkpt><trkpt lat="45.236818877539484" lon="11.69768249632084"><ele>19.0</ele><time>2026-04-03T12:37:06.857Z</time></trkpt><trkpt lat="45.23691347495336" lon="11.697895213160411"><ele>17.0</ele><time>2026-04-03T12:37:07.857Z</time></trkpt><trkpt lat="45.237009081536335" lon="11.698112761976484"><ele>15.0</ele><time>2026-04-03T12:37:08.857Z</time></trkpt><trkpt lat="45.2371184904939" lon="11.698317822752935"><ele>15.0</ele><time>2026-04-03T12:37:09.857Z</time></trkpt><trkpt lat="45.23720961111912" lon="11.698537203227827"><ele>15.0</ele><time>2026-04-03T12:37:10.857Z</time></trkpt><trkpt lat="45.23729993583298" lon="11.698758887967292"><ele>15.0</ele><time>2026-04-03T12:37:11.857Z</time></trkpt><trkpt lat="45.23738778211079" lon="11.698977097264226"><ele>15.0</ele><time>2026-04-03T12:37:12.857Z</time></trkpt><trkpt lat="45.237480199347814" lon="11.6991907029694"><ele>15.0</ele><time>2026-04-03T12:37:13.857Z</time></trkpt><trkpt lat="45.23757326175618" lon="11.699397836196367"><ele>15.0</ele><time>2026-04-03T12:37:14.857Z</time></trkpt><trkpt lat="45.23766394575514" lon="11.699594662481873"><ele>15.0</ele><time>2026-04-03T12:37:15.857Z</time></trkpt><trkpt lat="45.23774301056347" lon="11.699774075030412"><ele>15.0</ele><time>2026-04-03T12:37:16.857Z</time></trkpt><trkpt lat="45.23781889671171" lon="11.699930317299247"><ele>15.0</ele><time>2026-04-03T12:37:17.857Z</time></trkpt><trkpt lat="45.23788017961456" lon="11.70006750813066"><ele>15.0</ele><time>2026-04-03T12:37:18.857Z</time></trkpt><trkpt lat="45.23793537806604" lon="11.700201942547457"><ele>14.0</ele><time>2026-04-03T12:37:19.857Z</time></trkpt><trkpt lat="45.237961931924254" lon="11.70035023722743"><ele>13.0</ele><time>2026-04-03T12:37:20.857Z</time></trkpt><trkpt lat="45.23797287116637" lon="11.700492663497595"><ele>12.0</ele><time>2026-04-03T12:37:21.857Z</time></trkpt><trkpt lat="45.237956660905695" lon="11.700667572879178"><ele>11.0</ele><time>2026-04-03T12:37:22.857Z</time></trkpt><trkpt lat="45.237932139156946" lon="11.700856067227424"><ele>11.0</ele><time>2026-04-03T12:37:23.857Z</time></trkpt><trkpt lat="45.23792179484727" lon="11.701042564748334"><ele>11.0</ele><time>2026-04-03T12:37:24.857Z</time></trkpt><trkpt lat="45.237915898693075" lon="11.701242666235213"><ele>11.0</ele><time>2026-04-03T12:37:25.857Z</time></trkpt><trkpt lat="45.237900270644786" lon="11.701452360821168"><ele>11.0</ele><time>2026-04-03T12:37:26.857Z</time></trkpt><trkpt lat="45.237873740438886" lon="11.701656892907637"><ele>10.75</ele><time>2026-04-03T12:37:27.857Z</time></trkpt><trkpt lat="45.237840730535765" lon="11.70186154498132"><ele>10.5</ele><time>2026-04-03T12:37:28.857Z</time></trkpt><trkpt lat="45.23779595670213" lon="11.702061615351036"><ele>10.25</ele><time>2026-04-03T12:37:29.857Z</time></trkpt><trkpt lat="45.23774116762956" lon="11.702254039715914"><ele>10.0</ele><time>2026-04-03T12:37:30.857Z</time></trkpt><trkpt lat="45.23767551379917" lon="11.702441141880698"><ele>10.5</ele><time>2026-04-03T12:37:31.857Z</time></trkpt><trkpt lat="45.23760274689686" lon="11.702622105246542"><ele>11.0</ele><time>2026-04-03T12:37:32.857Z</time></trkpt><trkpt lat="45.237530442567454" lon="11.702802720954754"><ele>11.5</ele><time>2026-04-03T12:37:33.857Z</time></trkpt><trkpt lat="45.23744529894116" lon="11.70296671518699"><ele>12.0</ele><time>2026-04-03T12:37:34.857Z</time></trkpt><trkpt lat="45.23737514517554" lon="11.70314435670137"><ele>12.0</ele><time>2026-04-03T12:37:35.857Z</time></trkpt><trkpt lat="45.23731027358253" lon="11.703312897660865"><ele>12.0</ele><time>2026-04-03T12:37:36.857Z</time></trkpt><trkpt lat="45.2372498862289" lon="11.703471254781906"><ele>12.0</ele><time>2026-04-03T12:37:37.857Z</time></trkpt><trkpt lat="45.237210958251836" lon="11.70361872235091"><ele>12.0</ele><time>2026-04-03T12:37:38.857Z</time></trkpt><trkpt lat="45.23716512136675" lon="11.703739420155284"><ele>11.833333333333334</ele><time>2026-04-03T12:37:39.857Z</time></trkpt><trkpt lat="45.23712135169352" lon="11.703824515303065"><ele>11.666666666666666</ele><time>2026-04-03T12:37:40.857Z</time></trkpt><trkpt lat="45.23708995097979" lon="11.70392216180558"><ele>11.5</ele><time>2026-04-03T12:37:42.857Z</time></trkpt><trkpt lat="45.23705677204543" lon="11.704011676257492"><ele>11.333333333333332</ele><time>2026-04-03T12:37:51.856Z</time></trkpt><trkpt lat="45.2370379638347" lon="11.704138056355156"><ele>11.166666666666666</ele><time>2026-04-03T12:37:53.856Z</time></trkpt><trkpt lat="45.237060210239655" lon="11.704314445229922"><ele>11.0</ele><time>2026-04-03T12:37:55.856Z</time></trkpt><trkpt lat="45.23710782549555" lon="11.704409939976353"><ele>11.200000000000001</ele><time>2026-04-03T12:37:56.856Z</time></trkpt><trkpt lat="45.23717822473212" lon="11.704495052793785"><ele>11.4</ele><time>2026-04-03T12:37:57.856Z</time></trkpt><trkpt lat="45.237240960444346" lon="11.704578136926308"><ele>11.6</ele><time>2026-04-03T12:37:58.856Z</time></trkpt><trkpt lat="45.23731438389776" lon="11.704648635641014"><ele>11.8</ele><time>2026-04-03T12:37:59.856Z</time></trkpt><trkpt lat="45.237390816060454" lon="11.704731429753313"><ele>12.0</ele><time>2026-04-03T12:38:00.856Z</time></trkpt><trkpt lat="45.23747308572834" lon="11.7048108233997"><ele>12.8</ele><time>2026-04-03T12:38:01.856Z</time></trkpt><trkpt lat="45.23755345153472" lon="11.704886378894964"><ele>13.6</ele><time>2026-04-03T12:38:02.856Z</time></trkpt><trkpt lat="45.23763065015215" lon="11.70495895677465"><ele>14.400000000000002</ele><time>2026-04-03T12:38:03.856Z</time></trkpt><trkpt lat="45.23770742365063" lon="11.705030982210983"><ele>15.200000000000001</ele><time>2026-04-03T12:38:04.856Z</time></trkpt><trkpt lat="45.23778165084553" lon="11.705098598988734"><ele>16.0</ele><time>2026-04-03T12:38:05.856Z</time></trkpt><trkpt lat="45.237853883019405" lon="11.705162407431112"><ele>15.999999999999998</ele><time>2026-04-03T12:38:06.856Z</time></trkpt><trkpt lat="45.23792221231586" lon="11.7052248732969"><ele>16.0</ele><time>2026-04-03T12:38:07.856Z</time></trkpt><trkpt lat="45.23798378351644" lon="11.705282160755523"><ele>16.0</ele><time>2026-04-03T12:38:08.856Z</time></trkpt><trkpt lat="45.23802946756408" lon="11.705344037670923"><ele>16.0</ele><time>2026-04-03T12:38:09.856Z</time></trkpt><trkpt lat="45.238053268737765" lon="11.705450159325967"><ele>15.999999999999998</ele><time>2026-04-03T12:38:11.856Z</time></trkpt><trkpt lat="45.23800794211198" lon="11.705584251633347"><ele>16.0</ele><time>2026-04-03T12:38:13.856Z</time></trkpt><trkpt lat="45.23796538596212" lon="11.705675862581781"><ele>16.6</ele><time>2026-04-03T12:38:14.856Z</time></trkpt><trkpt lat="45.23791852888363" lon="11.705779951337153"><ele>17.200000000000003</ele><time>2026-04-03T12:38:15.856Z</time></trkpt><trkpt lat="45.23788447574146" lon="11.70589511686079"><ele>17.799999999999997</ele><time>2026-04-03T12:38:16.856Z</time></trkpt><trkpt lat="45.237867374401354" lon="11.706023957635749"><ele>18.4</ele><time>2026-04-03T12:38:17.856Z</time></trkpt><trkpt lat="45.23786095328314" lon="11.706149071910158"><ele>19.0</ele><time>2026-04-03T12:38:18.856Z</time></trkpt><trkpt lat="45.23786870024138" lon="11.70629453039808"><ele>19.0</ele><time>2026-04-03T12:38:19.856Z</time></trkpt><trkpt lat="45.23788465682394" lon="11.706448298969951"><ele>19.0</ele><time>2026-04-03T12:38:20.856Z</time></trkpt><trkpt lat="45.2379130654647" lon="11.70660735491998"><ele>19.0</ele><time>2026-04-03T12:38:21.856Z</time></trkpt><trkpt lat="45.23796152181774" lon="11.706769610355224"><ele>19.0</ele><time>2026-04-03T12:38:22.856Z</time></trkpt><trkpt lat="45.238025842690156" lon="11.706913017293433"><ele>19.0</ele><time>2026-04-03T12:38:23.856Z</time></trkpt><trkpt lat="45.23810661528878" lon="11.707040233937601"><ele>19.0</ele><time>2026-04-03T12:38:24.856Z</time></trkpt><trkpt lat="45.238198526095765" lon="11.707158290237233"><ele>19.0</ele><time>2026-04-03T12:38:25.856Z</time></trkpt><trkpt lat="45.23828507802949" lon="11.707304094424519"><ele>19.0</ele><time>2026-04-03T12:38:26.855Z</time></trkpt><trkpt lat="45.238389466062415" lon="11.707449814338137"><ele>19.0</ele><time>2026-04-03T12:38:27.856Z</time></trkpt><trkpt lat="45.23850183023978" lon="11.707579983900034"><ele>19.0</ele><time>2026-04-03T12:38:28.856Z</time></trkpt><trkpt lat="45.23863501038502" lon="11.707679952920262"><ele>19.0</ele><time>2026-04-03T12:38:29.855Z</time></trkpt><trkpt lat="45.23876170200242" lon="11.707799381053707"><ele>19.0</ele><time>2026-04-03T12:38:30.855Z</time></trkpt><trkpt lat="45.23888565107992" lon="11.707915028534169"><ele>17.75</ele><time>2026-04-03T12:38:31.855Z</time></trkpt><trkpt lat="45.239010530924" lon="11.708011548200787"><ele>16.5</ele><time>2026-04-03T12:38:32.856Z</time></trkpt><trkpt lat="45.23912689120729" lon="11.70811966728119"><ele>15.25</ele><time>2026-04-03T12:38:33.856Z</time></trkpt><trkpt lat="45.23924668876009" lon="11.708237116252475"><ele>14.0</ele><time>2026-04-03T12:38:34.856Z</time></trkpt><trkpt lat="45.23935397206332" lon="11.708388716440455"><ele>11.666666666666668</ele><time>2026-04-03T12:38:35.855Z</time></trkpt><trkpt lat="45.239420617318906" lon="11.708578351989495"><ele>9.333333333333334</ele><time>2026-04-03T12:38:36.856Z</time></trkpt><trkpt lat="45.23949520400857" lon="11.708767718718503"><ele>7.0</ele><time>2026-04-03T12:38:37.856Z</time></trkpt><trkpt lat="45.23958806155409" lon="11.708949137026103"><ele>7.0</ele><time>2026-04-03T12:38:38.856Z</time></trkpt><trkpt lat="45.2397115522485" lon="11.709109691263505"><ele>7.0</ele><time>2026-04-03T12:38:39.856Z</time></trkpt><trkpt lat="45.23985625215943" lon="11.709241179132933"><ele>7.0</ele><time>2026-04-03T12:38:40.856Z</time></trkpt><trkpt lat="45.24001137305066" lon="11.709364978188164"><ele>7.666666666666667</ele><time>2026-04-03T12:38:41.856Z</time></trkpt><trkpt lat="45.24016246695642" lon="11.709484067301693"><ele>8.333333333333334</ele><time>2026-04-03T12:38:42.856Z</time></trkpt><trkpt lat="45.240312984793846" lon="11.709602129039226"><ele>9.0</ele><time>2026-04-03T12:38:43.856Z</time></trkpt><trkpt lat="45.24046794456215" lon="11.70972220989317"><ele>9.0</ele><time>2026-04-03T12:38:44.856Z</time></trkpt><trkpt lat="45.240619347227536" lon="11.709839534294277"><ele>9.0</ele><time>2026-04-03T12:38:45.855Z</time></trkpt><trkpt lat="45.24077193277215" lon="11.709957686409021"><ele>9.0</ele><time>2026-04-03T12:38:46.855Z</time></trkpt><trkpt lat="45.24092580036372" lon="11.710076629224465"><ele>8.666666666666666</ele><time>2026-04-03T12:38:47.855Z</time></trkpt><trkpt lat="45.24108060120395" lon="11.710196293460642"><ele>8.333333333333332</ele><time>2026-04-03T12:38:48.855Z</time></trkpt><trkpt lat="45.241236075905526" lon="11.710316478603701"><ele>8.0</ele><time>2026-04-03T12:38:49.855Z</time></trkpt><trkpt lat="45.241392460266624" lon="11.710437713939857"><ele>9.0</ele><time>2026-04-03T12:38:50.855Z</time></trkpt><trkpt lat="45.24155032389217" lon="11.710560522075014"><ele>10.0</ele><time>2026-04-03T12:38:51.855Z</time></trkpt><trkpt lat="45.241711948820594" lon="11.710665463011521"><ele>11.0</ele><time>2026-04-03T12:38:52.855Z</time></trkpt><trkpt lat="45.241864728451766" lon="11.710786006632118"><ele>11.0</ele><time>2026-04-03T12:38:53.855Z</time></trkpt><trkpt lat="45.24201698216343" lon="11.71091227043133"><ele>11.0</ele><time>2026-04-03T12:38:54.855Z</time></trkpt><trkpt lat="45.24216797403993" lon="11.711036093183733"><ele>11.0</ele><time>2026-04-03T12:38:55.855Z</time></trkpt><trkpt lat="45.24231989462301" lon="11.71115622694456"><ele>10.333333333333332</ele><time>2026-04-03T12:38:56.855Z</time></trkpt><trkpt lat="45.242467722072675" lon="11.711265558453706"><ele>9.666666666666666</ele><time>2026-04-03T12:38:57.855Z</time></trkpt><trkpt lat="45.24260847843217" lon="11.711363085345107"><ele>9.0</ele><time>2026-04-03T12:38:58.855Z</time></trkpt><trkpt lat="45.242752058824" lon="11.711434490745788"><ele>9.0</ele><time>2026-04-03T12:38:59.855Z</time></trkpt><trkpt lat="45.24290282265736" lon="11.711482594087704"><ele>9.0</ele><time>2026-04-03T12:39:00.855Z</time></trkpt><trkpt lat="45.243063939716954" lon="11.711513089411275"><ele>9.0</ele><time>2026-04-03T12:39:01.855Z</time></trkpt><trkpt lat="45.2432240288255" lon="11.71153916501689"><ele>9.0</ele><time>2026-04-03T12:39:02.855Z</time></trkpt><trkpt lat="45.24338175947165" lon="11.711550442799226"><ele>9.0</ele><time>2026-04-03T12:39:03.855Z</time></trkpt><trkpt lat="45.24353653866686" lon="11.711555408387365"><ele>9.0</ele><time>2026-04-03T12:39:04.855Z</time></trkpt><trkpt lat="45.24369521530623" lon="11.711569675184434"><ele>9.0</ele><time>2026-04-03T12:39:05.855Z</time></trkpt><trkpt lat="45.24385578650837" lon="11.711591403737055"><ele>9.0</ele><time>2026-04-03T12:39:06.855Z</time></trkpt><trkpt lat="45.2440181109573" lon="11.711609279335544"><ele>9.0</ele><time>2026-04-03T12:39:07.855Z</time></trkpt><trkpt lat="45.244180801370646" lon="11.71162751690263"><ele>9.0</ele><time>2026-04-03T12:39:08.855Z</time></trkpt><trkpt lat="45.24434935279892" lon="11.71164558879825"><ele>9.0</ele><time>2026-04-03T12:39:09.855Z</time></trkpt><trkpt lat="45.2445147978825" lon="11.711658734566045"><ele>9.0</ele><time>2026-04-03T12:39:10.855Z</time></trkpt><trkpt lat="45.244680751630746" lon="11.7116720443373"><ele>8.666666666666666</ele><time>2026-04-03T12:39:11.855Z</time></trkpt><trkpt lat="45.244854911833414" lon="11.711685403270707"><ele>8.333333333333332</ele><time>2026-04-03T12:39:12.855Z</time></trkpt><trkpt lat="45.24503388622832" lon="11.711704295646847"><ele>8.0</ele><time>2026-04-03T12:39:13.855Z</time></trkpt><trkpt lat="45.24521412845527" lon="11.711715681606162"><ele>8.0</ele><time>2026-04-03T12:39:14.855Z</time></trkpt><trkpt lat="45.24539211229598" lon="11.711748863971533"><ele>8.0</ele><time>2026-04-03T12:39:15.855Z</time></trkpt><trkpt lat="45.24556633642296" lon="11.711804651293393"><ele>8.0</ele><time>2026-04-03T12:39:16.855Z</time></trkpt><trkpt lat="45.245736787126376" lon="11.711882541230493"><ele>7.333333333333333</ele><time>2026-04-03T12:39:17.855Z</time></trkpt><trkpt lat="45.245903557163565" lon="11.711975108639145"><ele>6.666666666666666</ele><time>2026-04-03T12:39:18.855Z</time></trkpt><trkpt lat="45.24606826030029" lon="11.712070638419533"><ele>6.0</ele><time>2026-04-03T12:39:19.855Z</time></trkpt><trkpt lat="45.24623205246759" lon="11.712166461913755"><ele>6.0</ele><time>2026-04-03T12:39:20.855Z</time></trkpt><trkpt lat="45.24639451287723" lon="11.712265690894409"><ele>6.0</ele><time>2026-04-03T12:39:21.855Z</time></trkpt><trkpt lat="45.24655153432247" lon="11.712359160834835"><ele>6.0</ele><time>2026-04-03T12:39:22.855Z</time></trkpt><trkpt lat="45.24670396374793" lon="11.712453320454504"><ele>5.75</ele><time>2026-04-03T12:39:23.855Z</time></trkpt><trkpt lat="45.24685113153377" lon="11.712540456818008"><ele>5.5</ele><time>2026-04-03T12:39:24.855Z</time></trkpt><trkpt lat="45.24698364526368" lon="11.712629967952404"><ele>5.25</ele><time>2026-04-03T12:39:25.855Z</time></trkpt><trkpt lat="45.24709891065656" lon="11.712745921211685"><ele>5.0</ele><time>2026-04-03T12:39:26.855Z</time></trkpt><trkpt lat="45.247196592333225" lon="11.712884478691072"><ele>5.0</ele><time>2026-04-03T12:39:27.855Z</time></trkpt><trkpt lat="45.247282823044706" lon="11.713051536428177"><ele>5.0</ele><time>2026-04-03T12:39:28.855Z</time></trkpt><trkpt lat="45.2473647411632" lon="11.713232359038916"><ele>5.0</ele><time>2026-04-03T12:39:29.855Z</time></trkpt><trkpt lat="45.247442058129586" lon="11.713422418561484"><ele>4.0</ele><time>2026-04-03T12:39:30.855Z</time></trkpt><trkpt lat="45.24751484979552" lon="11.713616256945935"><ele>3.0</ele><time>2026-04-03T12:39:31.855Z</time></trkpt><trkpt lat="45.247591513580694" lon="11.713811237914326"><ele>2.0</ele><time>2026-04-03T12:39:32.855Z</time></trkpt><trkpt lat="45.247666706624955" lon="11.714015283881247"><ele>2.0</ele><time>2026-04-03T12:39:33.855Z</time></trkpt><trkpt lat="45.24774503214391" lon="11.714218291127915"><ele>2.0</ele><time>2026-04-03T12:39:34.855Z</time></trkpt><trkpt lat="45.24782400476957" lon="11.714425061371395"><ele>2.0</ele><time>2026-04-03T12:39:35.855Z</time></trkpt><trkpt lat="45.24790468853151" lon="11.714637917025817"><ele>1.3333333333333333</ele><time>2026-04-03T12:39:36.855Z</time></trkpt><trkpt lat="45.247985990724345" lon="11.714855547247776"><ele>0.6666666666666666</ele><time>2026-04-03T12:39:37.855Z</time></trkpt><trkpt lat="45.248069531786605" lon="11.715075743687704"><ele>0.0</ele><time>2026-04-03T12:39:38.855Z</time></trkpt><trkpt lat="45.24814993526492" lon="11.715293478359682"><ele>1.3333333333333333</ele><time>2026-04-03T12:39:39.855Z</time></trkpt><trkpt lat="45.248229522472194" lon="11.71550678607404"><ele>2.6666666666666665</ele><time>2026-04-03T12:39:40.855Z</time></trkpt><trkpt lat="45.24830725123557" lon="11.715715816748801"><ele>4.0</ele><time>2026-04-03T12:39:41.855Z</time></trkpt><trkpt lat="45.24838339919218" lon="11.715924437509814"><ele>3.0</ele><time>2026-04-03T12:39:42.855Z</time></trkpt><trkpt lat="45.248461260972576" lon="11.716132478784804"><ele>2.0</ele><time>2026-04-03T12:39:43.855Z</time></trkpt><trkpt lat="45.24853831746662" lon="11.716336686287264"><ele>1.0</ele><time>2026-04-03T12:39:44.855Z</time></trkpt><trkpt lat="45.248611975945295" lon="11.716539433532226"><ele>1.0</ele><time>2026-04-03T12:39:45.855Z</time></trkpt><trkpt lat="45.24868333613995" lon="11.716736952696731"><ele>1.0</ele><time>2026-04-03T12:39:46.855Z</time></trkpt><trkpt lat="45.248744296311955" lon="11.71692315663439"><ele>1.0</ele><time>2026-04-03T12:39:47.855Z</time></trkpt><trkpt lat="45.248802794004064" lon="11.717089910290197"><ele>1.0</ele><time>2026-04-03T12:39:48.855Z</time></trkpt><trkpt lat="45.24885486026881" lon="11.717236674752625"><ele>0.75</ele><time>2026-04-03T12:39:49.855Z</time></trkpt><trkpt lat="45.24890535846807" lon="11.717377879237848"><ele>0.5</ele><time>2026-04-03T12:39:50.855Z</time></trkpt><trkpt lat="45.24896304263407" lon="11.717528160599244"><ele>0.25</ele><time>2026-04-03T12:39:51.855Z</time></trkpt><trkpt lat="45.24902920134298" lon="11.717698818456432"><ele>0.0</ele><time>2026-04-03T12:39:52.855Z</time></trkpt><trkpt lat="45.24909824873214" lon="11.717887678550483"><ele>0.6666666666666666</ele><time>2026-04-03T12:39:53.855Z</time></trkpt><trkpt lat="45.24917580262996" lon="11.718083386932214"><ele>1.3333333333333333</ele><time>2026-04-03T12:39:54.854Z</time></trkpt><trkpt lat="45.249263044047176" lon="11.718293462355438"><ele>2.0</ele><time>2026-04-03T12:39:55.854Z</time></trkpt><trkpt lat="45.24935667440493" lon="11.718510468473227"><ele>2.333333333333333</ele><time>2026-04-03T12:39:56.854Z</time></trkpt><trkpt lat="45.24945073311553" lon="11.718731464509622"><ele>2.6666666666666665</ele><time>2026-04-03T12:39:57.854Z</time></trkpt><trkpt lat="45.249526055009866" lon="11.718962218947079"><ele>3.0</ele><time>2026-04-03T12:39:58.854Z</time></trkpt><trkpt lat="45.249611806375725" lon="11.719189310506092"><ele>2.6666666666666665</ele><time>2026-04-03T12:39:59.854Z</time></trkpt><trkpt lat="45.24969641451407" lon="11.71941395602791"><ele>2.333333333333333</ele><time>2026-04-03T12:40:00.854Z</time></trkpt><trkpt lat="45.2497757428157" lon="11.719627495316905"><ele>2.0</ele><time>2026-04-03T12:40:01.854Z</time></trkpt><trkpt lat="45.249847574823534" lon="11.719826254045019"><ele>2.6666666666666665</ele><time>2026-04-03T12:40:02.854Z</time></trkpt><trkpt lat="45.249912678485764" lon="11.720027381172358"><ele>3.333333333333333</ele><time>2026-04-03T12:40:03.854Z</time></trkpt><trkpt lat="45.24996580973725" lon="11.720245723080621"><ele>4.0</ele><time>2026-04-03T12:40:04.854Z</time></trkpt><trkpt lat="45.249988715256805" lon="11.720482467938373"><ele>4.0</ele><time>2026-04-03T12:40:05.854Z</time></trkpt><trkpt lat="45.249984650872605" lon="11.720723469341348"><ele>4.0</ele><time>2026-04-03T12:40:06.854Z</time></trkpt><trkpt lat="45.24995509628133" lon="11.720962126704373"><ele>4.0</ele><time>2026-04-03T12:40:07.854Z</time></trkpt><trkpt lat="45.24990461197755" lon="11.72119761766809"><ele>4.0</ele><time>2026-04-03T12:40:08.854Z</time></trkpt><trkpt lat="45.249843823061234" lon="11.721427349483696"><ele>4.0</ele><time>2026-04-03T12:40:09.854Z</time></trkpt><trkpt lat="45.24977943768101" lon="11.721659924470817"><ele>4.0</ele><time>2026-04-03T12:40:10.854Z</time></trkpt><trkpt lat="45.24970962414939" lon="11.721908557813046"><ele>4.666666666666666</ele><time>2026-04-03T12:40:11.854Z</time></trkpt><trkpt lat="45.24963560253902" lon="11.722170767725645"><ele>5.333333333333333</ele><time>2026-04-03T12:40:12.854Z</time></trkpt><trkpt lat="45.249559092386306" lon="11.722445624152787"><ele>6.0</ele><time>2026-04-03T12:40:13.854Z</time></trkpt><trkpt lat="45.24947317005397" lon="11.722736229819242"><ele>6.0</ele><time>2026-04-03T12:40:14.854Z</time></trkpt><trkpt lat="45.24938752761394" lon="11.723041718162994"><ele>6.0</ele><time>2026-04-03T12:40:15.854Z</time></trkpt><trkpt lat="45.249299441763945" lon="11.723331479587268"><ele>6.666666666666666</ele><time>2026-04-03T12:40:16.854Z</time></trkpt><trkpt lat="45.24920025421869" lon="11.723608191557203"><ele>7.333333333333333</ele><time>2026-04-03T12:40:17.854Z</time></trkpt><trkpt lat="45.249105489635305" lon="11.72388231797862"><ele>8.0</ele><time>2026-04-03T12:40:18.854Z</time></trkpt><trkpt lat="45.24900234130024" lon="11.724149902920804"><ele>7.0</ele><time>2026-04-03T12:40:19.854Z</time></trkpt><trkpt lat="45.24893884554934" lon="11.724447175091672"><ele>6.0</ele><time>2026-04-03T12:40:20.854Z</time></trkpt><trkpt lat="45.248901795190754" lon="11.724753404193699"><ele>5.0</ele><time>2026-04-03T12:40:21.854Z</time></trkpt><trkpt lat="45.248835259566015" lon="11.725053100794153"><ele>5.333333333333334</ele><time>2026-04-03T12:40:22.854Z</time></trkpt><trkpt lat="45.24873884998204" lon="11.72533405572615"><ele>5.666666666666667</ele><time>2026-04-03T12:40:23.854Z</time></trkpt><trkpt lat="45.248654566863586" lon="11.725624751444121"><ele>6.0</ele><time>2026-04-03T12:40:24.854Z</time></trkpt><trkpt lat="45.24860500986293" lon="11.725932717980012"><ele>6.0</ele><time>2026-04-03T12:40:25.854Z</time></trkpt><trkpt lat="45.24852606656722" lon="11.72622407424697"><ele>6.0</ele><time>2026-04-03T12:40:26.854Z</time></trkpt><trkpt lat="45.2484499632843" lon="11.726513126063384"><ele>6.0</ele><time>2026-04-03T12:40:27.854Z</time></trkpt><trkpt lat="45.24836999303499" lon="11.726804180859274"><ele>6.0</ele><time>2026-04-03T12:40:28.854Z</time></trkpt><trkpt lat="45.24829048246145" lon="11.727093265045848"><ele>6.0</ele><time>2026-04-03T12:40:29.853Z</time></trkpt><trkpt lat="45.24820881432885" lon="11.727382622156057"><ele>6.0</ele><time>2026-04-03T12:40:30.853Z</time></trkpt><trkpt lat="45.24811438155351" lon="11.727664618716178"><ele>6.0</ele><time>2026-04-03T12:40:31.853Z</time></trkpt><trkpt lat="45.24803501778904" lon="11.727953263362648"><ele>6.0</ele><time>2026-04-03T12:40:32.853Z</time></trkpt><trkpt lat="45.2479659661447" lon="11.728248732370735"><ele>6.0</ele><time>2026-04-03T12:40:33.853Z</time></trkpt><trkpt lat="45.24792634808619" lon="11.728555286429597"><ele>6.0</ele><time>2026-04-03T12:40:34.853Z</time></trkpt><trkpt lat="45.24785621782725" lon="11.728847310214858"><ele>6.0</ele><time>2026-04-03T12:40:35.853Z</time></trkpt><trkpt lat="45.24778195313788" lon="11.729130903629482"><ele>6.0</ele><time>2026-04-03T12:40:36.853Z</time></trkpt><trkpt lat="45.247701741379" lon="11.729409257230913"><ele>6.0</ele><time>2026-04-03T12:40:37.853Z</time></trkpt><trkpt lat="45.247624473227006" lon="11.729680120810272"><ele>6.0</ele><time>2026-04-03T12:40:38.853Z</time></trkpt><trkpt lat="45.24753307078302" lon="11.729946877274955"><ele>6.0</ele><time>2026-04-03T12:40:39.853Z</time></trkpt><trkpt lat="45.247457022563204" lon="11.73021818388165"><ele>6.333333333333334</ele><time>2026-04-03T12:40:40.853Z</time></trkpt><trkpt lat="45.24738574477485" lon="11.730492157616945"><ele>6.666666666666667</ele><time>2026-04-03T12:40:41.853Z</time></trkpt><trkpt lat="45.247315743189425" lon="11.730761539553503"><ele>7.0</ele><time>2026-04-03T12:40:42.853Z</time></trkpt><trkpt lat="45.247244883498304" lon="11.731032146091911"><ele>7.333333333333334</ele><time>2026-04-03T12:40:43.853Z</time></trkpt><trkpt lat="45.24716558109004" lon="11.731292326792456"><ele>7.666666666666666</ele><time>2026-04-03T12:40:44.853Z</time></trkpt><trkpt lat="45.247067301933434" lon="11.731535036172456"><ele>8.0</ele><time>2026-04-03T12:40:45.853Z</time></trkpt><trkpt lat="45.246981138473764" lon="11.731786914085202"><ele>7.666666666666666</ele><time>2026-04-03T12:40:46.853Z</time></trkpt><trkpt lat="45.24689533548397" lon="11.732032394842376"><ele>7.333333333333334</ele><time>2026-04-03T12:40:47.853Z</time></trkpt><trkpt lat="45.24679265024231" lon="11.732262959833198"><ele>7.0</ele><time>2026-04-03T12:40:48.853Z</time></trkpt><trkpt lat="45.246674993874784" lon="11.732480006082989"><ele>6.666666666666667</ele><time>2026-04-03T12:40:49.852Z</time></trkpt><trkpt lat="45.24660974736146" lon="11.732731904031626"><ele>6.333333333333334</ele><time>2026-04-03T12:40:50.852Z</time></trkpt><trkpt lat="45.24653129970605" lon="11.732949679855322"><ele>6.0</ele><time>2026-04-03T12:40:51.852Z</time></trkpt><trkpt lat="45.24646441512636" lon="11.733163713844453"><ele>6.0</ele><time>2026-04-03T12:40:52.852Z</time></trkpt><trkpt lat="45.24639934517681" lon="11.733364770225975"><ele>6.0</ele><time>2026-04-03T12:40:53.852Z</time></trkpt><trkpt lat="45.24632353033417" lon="11.733541343258617"><ele>6.0</ele><time>2026-04-03T12:40:54.852Z</time></trkpt><trkpt lat="45.24628764411009" lon="11.733723554310481"><ele>6.0</ele><time>2026-04-03T12:40:55.852Z</time></trkpt><trkpt lat="45.24624511326682" lon="11.73386039019086"><ele>5.8</ele><time>2026-04-03T12:40:56.852Z</time></trkpt><trkpt lat="45.246209950222344" lon="11.733959358447517"><ele>5.6</ele><time>2026-04-03T12:40:57.852Z</time></trkpt><trkpt lat="45.24613266993617" lon="11.73407650353124"><ele>5.4</ele><time>2026-04-03T12:40:59.852Z</time></trkpt><trkpt lat="45.24602948213184" lon="11.73419362796912"><ele>5.2</ele><time>2026-04-03T12:41:01.852Z</time></trkpt><trkpt lat="45.2459943395789" lon="11.734297613912618"><ele>5.0</ele><time>2026-04-03T12:41:02.852Z</time></trkpt><trkpt lat="45.24598603024957" lon="11.7344258598308"><ele>5.0</ele><time>2026-04-03T12:41:03.852Z</time></trkpt><trkpt lat="45.24598159580015" lon="11.734584617004268"><ele>5.0</ele><time>2026-04-03T12:41:04.852Z</time></trkpt><trkpt lat="45.245940216168144" lon="11.734746330712028"><ele>5.0</ele><time>2026-04-03T12:41:05.852Z</time></trkpt><trkpt lat="45.245892485524365" lon="11.734908685896716"><ele>5.0</ele><time>2026-04-03T12:41:06.852Z</time></trkpt><trkpt lat="45.24584021152173" lon="11.735086495458848"><ele>5.0</ele><time>2026-04-03T12:41:07.852Z</time></trkpt><trkpt lat="45.24578516058339" lon="11.735271263811612"><ele>5.0</ele><time>2026-04-03T12:41:08.852Z</time></trkpt><trkpt lat="45.24572964822322" lon="11.735456845815591"><ele>5.0</ele><time>2026-04-03T12:41:09.852Z</time></trkpt><trkpt lat="45.24567438102607" lon="11.735641608014854"><ele>5.0</ele><time>2026-04-03T12:41:10.852Z</time></trkpt><trkpt lat="45.24561813247518" lon="11.735829651315793"><ele>5.0</ele><time>2026-04-03T12:41:11.852Z</time></trkpt><trkpt lat="45.245575599007104" lon="11.73602539135786"><ele>5.0</ele><time>2026-04-03T12:41:12.852Z</time></trkpt><trkpt lat="45.24550967518479" lon="11.736215108984497"><ele>5.0</ele><time>2026-04-03T12:41:13.852Z</time></trkpt><trkpt lat="45.24545290962445" lon="11.736407572982733"><ele>5.0</ele><time>2026-04-03T12:41:14.852Z</time></trkpt><trkpt lat="45.24539629783801" lon="11.736600486942102"><ele>5.0</ele><time>2026-04-03T12:41:15.852Z</time></trkpt><trkpt lat="45.24533601707518" lon="11.736797178366537"><ele>5.0</ele><time>2026-04-03T12:41:16.852Z</time></trkpt><trkpt lat="45.245278508431056" lon="11.736993238228854"><ele>5.0</ele><time>2026-04-03T12:41:17.852Z</time></trkpt><trkpt lat="45.24521616433885" lon="11.737196650278642"><ele>5.666666666666667</ele><time>2026-04-03T12:41:18.852Z</time></trkpt><trkpt lat="45.2451546365516" lon="11.737402191798036"><ele>6.333333333333334</ele><time>2026-04-03T12:41:19.852Z</time></trkpt><trkpt lat="45.245091613441666" lon="11.737606719969342"><ele>7.0</ele><time>2026-04-03T12:41:20.852Z</time></trkpt><trkpt lat="45.24502835239863" lon="11.737813081069321"><ele>7.333333333333334</ele><time>2026-04-03T12:41:21.852Z</time></trkpt><trkpt lat="45.2449633187539" lon="11.73802259402819"><ele>7.666666666666666</ele><time>2026-04-03T12:41:22.852Z</time></trkpt><trkpt lat="45.24489827303468" lon="11.738231499393473"><ele>8.0</ele><time>2026-04-03T12:41:23.852Z</time></trkpt><trkpt lat="45.24483056032164" lon="11.738442197681506"><ele>7.666666666666666</ele><time>2026-04-03T12:41:24.852Z</time></trkpt><trkpt lat="45.24476471250835" lon="11.738653107371528"><ele>7.333333333333334</ele><time>2026-04-03T12:41:25.852Z</time></trkpt><trkpt lat="45.24470300940554" lon="11.73886688894419"><ele>7.0</ele><time>2026-04-03T12:41:26.852Z</time></trkpt><trkpt lat="45.24463953922089" lon="11.739078425478379"><ele>7.0</ele><time>2026-04-03T12:41:27.852Z</time></trkpt><trkpt lat="45.244576853164666" lon="11.73929238094337"><ele>7.0</ele><time>2026-04-03T12:41:28.852Z</time></trkpt><trkpt lat="45.244499083556825" lon="11.739500486389744"><ele>7.0</ele><time>2026-04-03T12:41:29.852Z</time></trkpt><trkpt lat="45.24445070831601" lon="11.739723097851332"><ele>7.333333333333334</ele><time>2026-04-03T12:41:30.852Z</time></trkpt><trkpt lat="45.244385707114105" lon="11.73993099382526"><ele>7.666666666666666</ele><time>2026-04-03T12:41:31.852Z</time></trkpt><trkpt lat="45.2443228907081" lon="11.740143297905849"><ele>8.0</ele><time>2026-04-03T12:41:32.852Z</time></trkpt><trkpt lat="45.24426040040832" lon="11.740350631844645"><ele>8.333333333333332</ele><time>2026-04-03T12:41:33.852Z</time></trkpt><trkpt lat="45.244198285927816" lon="11.740557429916587"><ele>8.666666666666666</ele><time>2026-04-03T12:41:34.852Z</time></trkpt><trkpt lat="45.244137582283145" lon="11.740771212246768"><ele>9.0</ele><time>2026-04-03T12:41:35.852Z</time></trkpt><trkpt lat="45.24407644610312" lon="11.740984122237933"><ele>8.0</ele><time>2026-04-03T12:41:36.852Z</time></trkpt><trkpt lat="45.24401605979122" lon="11.741200386291613"><ele>7.0</ele><time>2026-04-03T12:41:37.852Z</time></trkpt><trkpt lat="45.24395477026424" lon="11.741420175463936"><ele>6.0</ele><time>2026-04-03T12:41:38.852Z</time></trkpt><trkpt lat="45.2438746312604" lon="11.741633111874346"><ele>6.0</ele><time>2026-04-03T12:41:39.852Z</time></trkpt><trkpt lat="45.24380899167635" lon="11.7418575040767"><ele>6.0</ele><time>2026-04-03T12:41:40.852Z</time></trkpt><trkpt lat="45.243741894742406" lon="11.742086878328358"><ele>6.0</ele><time>2026-04-03T12:41:41.852Z</time></trkpt><trkpt lat="45.24367565933095" lon="11.742313307378272"><ele>6.0</ele><time>2026-04-03T12:41:42.852Z</time></trkpt><trkpt lat="45.24361051965583" lon="11.742535990612181"><ele>6.0</ele><time>2026-04-03T12:41:43.852Z</time></trkpt><trkpt lat="45.24354649864037" lon="11.742754849661074"><ele>6.0</ele><time>2026-04-03T12:41:44.852Z</time></trkpt><trkpt lat="45.24348367838685" lon="11.742970278837056"><ele>6.666666666666666</ele><time>2026-04-03T12:41:45.852Z</time></trkpt><trkpt lat="45.243420419616385" lon="11.743187253670648"><ele>7.333333333333333</ele><time>2026-04-03T12:41:46.852Z</time></trkpt><trkpt lat="45.2433577039589" lon="11.743401223939593"><ele>8.0</ele><time>2026-04-03T12:41:47.852Z</time></trkpt><trkpt lat="45.24329783323759" lon="11.743603853715467"><ele>8.0</ele><time>2026-04-03T12:41:48.852Z</time></trkpt><trkpt lat="45.24324161451069" lon="11.743794122823699"><ele>8.0</ele><time>2026-04-03T12:41:49.852Z</time></trkpt><trkpt lat="45.243188123953544" lon="11.743974948000593"><ele>8.0</ele><time>2026-04-03T12:41:50.852Z</time></trkpt><trkpt lat="45.24313939941734" lon="11.744139179227151"><ele>8.0</ele><time>2026-04-03T12:41:51.852Z</time></trkpt><trkpt lat="45.243111348061646" lon="11.744292358673679"><ele>7.999999999999999</ele><time>2026-04-03T12:41:52.852Z</time></trkpt><trkpt lat="45.243058023458666" lon="11.74442221517574"><ele>8.0</ele><time>2026-04-03T12:41:53.852Z</time></trkpt><trkpt lat="45.243020949169455" lon="11.744542419045281"><ele>8.0</ele><time>2026-04-03T12:41:54.852Z</time></trkpt><trkpt lat="45.24299140815217" lon="11.744648044994685"><ele>8.0</ele><time>2026-04-03T12:41:55.852Z</time></trkpt><trkpt lat="45.242958681977235" lon="11.744776234489423"><ele>7.999999999999999</ele><time>2026-04-03T12:41:57.851Z</time></trkpt><trkpt lat="45.24293210427997" lon="11.744862833652"><ele>8.0</ele><time>2026-04-03T12:41:59.851Z</time></trkpt><trkpt lat="45.24290839259632" lon="11.74495430354364"><ele>8.0</ele><time>2026-04-03T12:42:00.851Z</time></trkpt><trkpt lat="45.2428905113077" lon="11.745073870160663"><ele>8.0</ele><time>2026-04-03T12:42:01.851Z</time></trkpt><trkpt lat="45.242852934023404" lon="11.745213487003955"><ele>8.0</ele><time>2026-04-03T12:42:02.851Z</time></trkpt><trkpt lat="45.242805575507106" lon="11.745369112851968"><ele>8.0</ele><time>2026-04-03T12:42:03.851Z</time></trkpt><trkpt lat="45.242757936881425" lon="11.745521623903782"><ele>8.0</ele><time>2026-04-03T12:42:04.851Z</time></trkpt><trkpt lat="45.24270433977928" lon="11.745677900128614"><ele>8.200000000000001</ele><time>2026-04-03T12:42:05.851Z</time></trkpt><trkpt lat="45.242652547747745" lon="11.745829746690834"><ele>8.4</ele><time>2026-04-03T12:42:06.851Z</time></trkpt><trkpt lat="45.24261336062365" lon="11.745979591245401"><ele>8.600000000000001</ele><time>2026-04-03T12:42:07.851Z</time></trkpt><trkpt lat="45.24257332571858" lon="11.746126976575557"><ele>8.8</ele><time>2026-04-03T12:42:08.851Z</time></trkpt><trkpt lat="45.242535937820435" lon="11.746251459354403"><ele>9.0</ele><time>2026-04-03T12:42:09.851Z</time></trkpt><trkpt lat="45.24250901234301" lon="11.7463528949264"><ele>9.0</ele><time>2026-04-03T12:42:10.851Z</time></trkpt><trkpt lat="45.24248913744116" lon="11.74649657582813"><ele>9.0</ele><time>2026-04-03T12:42:12.851Z</time></trkpt><trkpt lat="45.242462701081195" lon="11.746589369162423"><ele>9.0</ele><time>2026-04-03T12:42:14.851Z</time></trkpt><trkpt lat="45.24240618447147" lon="11.746656796436133"><ele>9.0</ele><time>2026-04-03T12:42:16.851Z</time></trkpt><trkpt lat="45.24229476927551" lon="11.746640558639353"><ele>9.0</ele><time>2026-04-03T12:42:18.851Z</time></trkpt><trkpt lat="45.24222957076146" lon="11.746604356141198"><ele>9.0</ele><time>2026-04-03T12:42:19.851Z</time></trkpt><trkpt lat="45.24215849129388" lon="11.746565493971838"><ele>9.0</ele><time>2026-04-03T12:42:20.851Z</time></trkpt><trkpt lat="45.24207228228879" lon="11.74649168100364"><ele>9.0</ele><time>2026-04-03T12:42:21.851Z</time></trkpt><trkpt lat="45.2419600166531" lon="11.746438533474588"><ele>9.0</ele><time>2026-04-03T12:42:22.851Z</time></trkpt><trkpt lat="45.24185132342566" lon="11.74639590769248"><ele>9.0</ele><time>2026-04-03T12:42:23.851Z</time></trkpt><trkpt lat="45.241732091792194" lon="11.746349348768547"><ele>9.0</ele><time>2026-04-03T12:42:24.851Z</time></trkpt><trkpt lat="45.24160521352354" lon="11.74630118350547"><ele>9.0</ele><time>2026-04-03T12:42:25.851Z</time></trkpt><trkpt lat="45.241470208156024" lon="11.746250131921881"><ele>9.0</ele><time>2026-04-03T12:42:26.851Z</time></trkpt><trkpt lat="45.2413309152716" lon="11.746197797326245"><ele>9.0</ele><time>2026-04-03T12:42:27.851Z</time></trkpt><trkpt lat="45.2412005699521" lon="11.746148824471874"><ele>9.0</ele><time>2026-04-03T12:42:28.851Z</time></trkpt><trkpt lat="45.2410827739536" lon="11.746103073381748"><ele>9.0</ele><time>2026-04-03T12:42:29.851Z</time></trkpt><trkpt lat="45.240976570492634" lon="11.746057992954622"><ele>9.0</ele><time>2026-04-03T12:42:30.851Z</time></trkpt><trkpt lat="45.24087432694274" lon="11.74601758605641"><ele>9.0</ele><time>2026-04-03T12:42:31.851Z</time></trkpt><trkpt lat="45.24078119881234" lon="11.745989841389061"><ele>9.0</ele><time>2026-04-03T12:42:32.851Z</time></trkpt><trkpt lat="45.240687261200456" lon="11.745987298378623"><ele>9.2</ele><time>2026-04-03T12:42:33.851Z</time></trkpt><trkpt lat="45.24059618199311" lon="11.746032796922602"><ele>9.4</ele><time>2026-04-03T12:42:34.851Z</time></trkpt><trkpt lat="45.24053768914443" lon="11.746159603726941"><ele>9.6</ele><time>2026-04-03T12:42:35.851Z</time></trkpt><trkpt lat="45.24048324018848" lon="11.746280565076598"><ele>9.8</ele><time>2026-04-03T12:42:36.851Z</time></trkpt><trkpt lat="45.240423046003734" lon="11.746414250255748"><ele>10.0</ele><time>2026-04-03T12:42:37.851Z</time></trkpt><trkpt lat="45.24036182585836" lon="11.74657151941891"><ele>10.0</ele><time>2026-04-03T12:42:38.851Z</time></trkpt><trkpt lat="45.24029829994728" lon="11.746740621314382"><ele>10.0</ele><time>2026-04-03T12:42:39.851Z</time></trkpt><trkpt lat="45.240230329875864" lon="11.746909103377547"><ele>10.0</ele><time>2026-04-03T12:42:40.851Z</time></trkpt><trkpt lat="45.240172729268096" lon="11.747083394261422"><ele>10.0</ele><time>2026-04-03T12:42:41.851Z</time></trkpt><trkpt lat="45.24010149596973" lon="11.747252571488175"><ele>10.25</ele><time>2026-04-03T12:42:42.851Z</time></trkpt><trkpt lat="45.24003223435733" lon="11.747416257958177"><ele>10.5</ele><time>2026-04-03T12:42:43.851Z</time></trkpt><trkpt lat="45.23996178962805" lon="11.747579720016391"><ele>10.75</ele><time>2026-04-03T12:42:44.851Z</time></trkpt><trkpt lat="45.23991372165039" lon="11.747743165427643"><ele>11.0</ele><time>2026-04-03T12:42:45.851Z</time></trkpt><trkpt lat="45.23985879324359" lon="11.747882337124501"><ele>11.333333333333332</ele><time>2026-04-03T12:42:46.851Z</time></trkpt><trkpt lat="45.239817205287274" lon="11.74801471671113"><ele>11.666666666666666</ele><time>2026-04-03T12:42:47.851Z</time></trkpt><trkpt lat="45.239774504637104" lon="11.748129641052829"><ele>12.0</ele><time>2026-04-03T12:42:48.851Z</time></trkpt><trkpt lat="45.23973607840997" lon="11.748239852990313"><ele>12.333333333333332</ele><time>2026-04-03T12:42:49.851Z</time></trkpt><trkpt lat="45.23969306649687" lon="11.748342387574997"><ele>12.666666666666666</ele><time>2026-04-03T12:42:50.851Z</time></trkpt><trkpt lat="45.23965073051349" lon="11.748445230925865"><ele>13.0</ele><time>2026-04-03T12:42:51.851Z</time></trkpt><trkpt lat="45.2396065201347" lon="11.74854570275109"><ele>13.166666666666666</ele><time>2026-04-03T12:42:52.851Z</time></trkpt><trkpt lat="45.239563667261436" lon="11.748646598893467"><ele>13.333333333333332</ele><time>2026-04-03T12:42:53.851Z</time></trkpt><trkpt lat="45.239521383056285" lon="11.748745912434208"><ele>13.5</ele><time>2026-04-03T12:42:54.851Z</time></trkpt><trkpt lat="45.23948089329641" lon="11.748841473354998"><ele>13.666666666666668</ele><time>2026-04-03T12:42:55.85Z</time></trkpt><trkpt lat="45.239438742525714" lon="11.74894124134145"><ele>13.833333333333334</ele><time>2026-04-03T12:42:56.85Z</time></trkpt><trkpt lat="45.239393197306164" lon="11.749049043742279"><ele>14.0</ele><time>2026-04-03T12:42:57.85Z</time></trkpt><trkpt lat="45.23934575971196" lon="11.749161325217027"><ele>14.000000000000002</ele><time>2026-04-03T12:42:58.85Z</time></trkpt><trkpt lat="45.23930067087625" lon="11.749267085756006"><ele>14.0</ele><time>2026-04-03T12:42:59.85Z</time></trkpt><trkpt lat="45.239260010753725" lon="11.749368137417592"><ele>14.0</ele><time>2026-04-03T12:43:00.85Z</time></trkpt><trkpt lat="45.23922246909697" lon="11.749459986783013"><ele>14.0</ele><time>2026-04-03T12:43:01.85Z</time></trkpt><trkpt lat="45.239189436042956" lon="11.749541144621436"><ele>14.000000000000002</ele><time>2026-04-03T12:43:02.85Z</time></trkpt><trkpt lat="45.239145560340106" lon="11.749645913206502"><ele>14.0</ele><time>2026-04-03T12:43:04.85Z</time></trkpt><trkpt lat="45.23914212610453" lon="11.749746804108495"><ele>14.0</ele><time>2026-04-03T12:43:07.85Z</time></trkpt><trkpt lat="45.239038085049806" lon="11.749792097366557"><ele>13.999999999999998</ele><time>2026-04-03T12:43:09.85Z</time></trkpt><trkpt lat="45.23894257992648" lon="11.749779575674744"><ele>13.999999999999998</ele><time>2026-04-03T12:43:10.85Z</time></trkpt><trkpt lat="45.23891975749244" lon="11.749934747057026"><ele>14.0</ele><time>2026-04-03T12:43:11.85Z</time></trkpt><trkpt lat="45.23890785651521" lon="11.750048677724713"><ele>14.0</ele><time>2026-04-03T12:43:12.85Z</time></trkpt><trkpt lat="45.23885915360566" lon="11.750174333675876"><ele>13.799999999999999</ele><time>2026-04-03T12:43:13.85Z</time></trkpt><trkpt lat="45.23882287786434" lon="11.750300265265116"><ele>13.599999999999998</ele><time>2026-04-03T12:43:14.85Z</time></trkpt><trkpt lat="45.238791428921914" lon="11.750426983943768"><ele>13.4</ele><time>2026-04-03T12:43:15.85Z</time></trkpt><trkpt lat="45.238755787105" lon="11.750555974540026"><ele>13.2</ele><time>2026-04-03T12:43:16.85Z</time></trkpt><trkpt lat="45.23871860866756" lon="11.750690526189587"><ele>13.0</ele><time>2026-04-03T12:43:17.85Z</time></trkpt><trkpt lat="45.2386799994748" lon="11.75082917544813"><ele>13.0</ele><time>2026-04-03T12:43:18.85Z</time></trkpt><trkpt lat="45.23863862724224" lon="11.750977983567799"><ele>13.0</ele><time>2026-04-03T12:43:19.85Z</time></trkpt><trkpt lat="45.23859859714096" lon="11.751121964280708"><ele>13.0</ele><time>2026-04-03T12:43:20.85Z</time></trkpt><trkpt lat="45.238557448934806" lon="11.751269966597773"><ele>13.0</ele><time>2026-04-03T12:43:21.85Z</time></trkpt><trkpt lat="45.23851722464867" lon="11.75141458082663"><ele>13.0</ele><time>2026-04-03T12:43:22.85Z</time></trkpt><trkpt lat="45.238479967369145" lon="11.751548324973156"><ele>13.0</ele><time>2026-04-03T12:43:23.85Z</time></trkpt><trkpt lat="45.238443184723195" lon="11.751678856602457"><ele>13.0</ele><time>2026-04-03T12:43:24.85Z</time></trkpt><trkpt lat="45.238405031053276" lon="11.751814649457396"><ele>13.0</ele><time>2026-04-03T12:43:25.85Z</time></trkpt><trkpt lat="45.238366421442635" lon="11.751953430561333"><ele>13.0</ele><time>2026-04-03T12:43:26.85Z</time></trkpt><trkpt lat="45.23832453421398" lon="11.752103666790314"><ele>13.0</ele><time>2026-04-03T12:43:27.85Z</time></trkpt><trkpt lat="45.2382824430237" lon="11.752254634566658"><ele>13.0</ele><time>2026-04-03T12:43:28.85Z</time></trkpt><trkpt lat="45.238238322316704" lon="11.75241288142623"><ele>13.0</ele><time>2026-04-03T12:43:29.85Z</time></trkpt><trkpt lat="45.23819703972043" lon="11.75256094884869"><ele>13.0</ele><time>2026-04-03T12:43:30.85Z</time></trkpt><trkpt lat="45.23815655634345" lon="11.752706150043258"><ele>13.0</ele><time>2026-04-03T12:43:31.85Z</time></trkpt><trkpt lat="45.238115824356115" lon="11.752852251213781"><ele>12.600000000000001</ele><time>2026-04-03T12:43:32.85Z</time></trkpt><trkpt lat="45.23807431975542" lon="11.752999396323355"><ele>12.200000000000001</ele><time>2026-04-03T12:43:33.85Z</time></trkpt><trkpt lat="45.238034206591465" lon="11.753142223877973"><ele>11.8</ele><time>2026-04-03T12:43:34.85Z</time></trkpt><trkpt lat="45.2380436210622" lon="11.753307760582867"><ele>11.4</ele><time>2026-04-03T12:43:35.85Z</time></trkpt><trkpt lat="45.23802495324569" lon="11.753446908820143"><ele>11.0</ele><time>2026-04-03T12:43:36.85Z</time></trkpt><trkpt lat="45.2380285165867" lon="11.753600492273112"><ele>11.0</ele><time>2026-04-03T12:43:37.85Z</time></trkpt><trkpt lat="45.238038061728304" lon="11.753774421524502"><ele>11.0</ele><time>2026-04-03T12:43:38.85Z</time></trkpt><trkpt lat="45.23802803752123" lon="11.753937577163585"><ele>11.0</ele><time>2026-04-03T12:43:39.85Z</time></trkpt><trkpt lat="45.237801866394555" lon="11.753975722349491"><ele>11.0</ele><time>2026-04-03T12:43:40.85Z</time></trkpt><trkpt lat="45.2377626821971" lon="11.754115974178706"><ele>11.0</ele><time>2026-04-03T12:43:41.85Z</time></trkpt><trkpt lat="45.23772495830302" lon="11.754254543514293"><ele>11.0</ele><time>2026-04-03T12:43:42.85Z</time></trkpt><trkpt lat="45.23767690796876" lon="11.754429198345973"><ele>11.0</ele><time>2026-04-03T12:43:43.85Z</time></trkpt><trkpt lat="45.23774278080978" lon="11.754661208688638"><ele>11.0</ele><time>2026-04-03T12:43:44.85Z</time></trkpt><trkpt lat="45.23767631094598" lon="11.754778830661571"><ele>11.0</ele><time>2026-04-03T12:43:45.85Z</time></trkpt><trkpt lat="45.23762584221269" lon="11.754922352576338"><ele>11.0</ele><time>2026-04-03T12:43:46.85Z</time></trkpt><trkpt lat="45.2375916452185" lon="11.755075362379422"><ele>11.0</ele><time>2026-04-03T12:43:47.85Z</time></trkpt><trkpt lat="45.23755276488782" lon="11.755246297433974"><ele>10.75</ele><time>2026-04-03T12:43:48.85Z</time></trkpt><trkpt lat="45.23756522211067" lon="11.755410605729006"><ele>10.5</ele><time>2026-04-03T12:43:49.85Z</time></trkpt><trkpt lat="45.237427267337125" lon="11.755538510989197"><ele>10.25</ele><time>2026-04-03T12:43:50.85Z</time></trkpt><trkpt lat="45.23740074634589" lon="11.755721798165176"><ele>10.0</ele><time>2026-04-03T12:43:51.85Z</time></trkpt><trkpt lat="45.23738078385801" lon="11.755893921482754"><ele>10.5</ele><time>2026-04-03T12:43:52.85Z</time></trkpt><trkpt lat="45.23736636550492" lon="11.756058822133577"><ele>11.0</ele><time>2026-04-03T12:43:53.85Z</time></trkpt><trkpt lat="45.237727727630805" lon="11.756340430641236"><ele>11.5</ele><time>2026-04-03T12:43:54.85Z</time></trkpt><trkpt lat="45.23729281253401" lon="11.75646611503904"><ele>12.0</ele><time>2026-04-03T12:43:55.85Z</time></trkpt><trkpt lat="45.23726506085301" lon="11.756658162120663"><ele>12.0</ele><time>2026-04-03T12:43:56.85Z</time></trkpt><trkpt lat="45.2372136213504" lon="11.756852377158639"><ele>12.0</ele><time>2026-04-03T12:43:57.85Z</time></trkpt><trkpt lat="45.237195048956764" lon="11.757054187063536"><ele>12.0</ele><time>2026-04-03T12:43:58.85Z</time></trkpt><trkpt lat="45.2371984456723" lon="11.757262886660492"><ele>12.0</ele><time>2026-04-03T12:43:59.85Z</time></trkpt><trkpt lat="45.237197564641214" lon="11.757472949314378"><ele>10.666666666666666</ele><time>2026-04-03T12:44:00.85Z</time></trkpt><trkpt lat="45.23721026452487" lon="11.757689303165172"><ele>9.333333333333332</ele><time>2026-04-03T12:44:01.85Z</time></trkpt><trkpt lat="45.2372339717243" lon="11.757909552302019"><ele>8.0</ele><time>2026-04-03T12:44:02.85Z</time></trkpt><trkpt lat="45.237263258726216" lon="11.758111272401674"><ele>8.0</ele><time>2026-04-03T12:44:03.849Z</time></trkpt><trkpt lat="45.23729543961353" lon="11.75829068444946"><ele>8.0</ele><time>2026-04-03T12:44:04.849Z</time></trkpt><trkpt lat="45.23731526516738" lon="11.758455274890922"><ele>8.0</ele><time>2026-04-03T12:44:05.849Z</time></trkpt><trkpt lat="45.23734030353096" lon="11.758606257857581"><ele>8.0</ele><time>2026-04-03T12:44:06.849Z</time></trkpt><trkpt lat="45.23736764854634" lon="11.758742271915029"><ele>7.999999999999999</ele><time>2026-04-03T12:44:07.849Z</time></trkpt><trkpt lat="45.237392247611375" lon="11.758854559228855"><ele>8.0</ele><time>2026-04-03T12:44:08.849Z</time></trkpt><trkpt lat="45.23742013947825" lon="11.75895435396978"><ele>8.0</ele><time>2026-04-03T12:44:09.849Z</time></trkpt><trkpt lat="45.23745129246578" lon="11.759093163824943"><ele>8.0</ele><time>2026-04-03T12:44:11.849Z</time></trkpt><trkpt lat="45.23744747085362" lon="11.759238595318665"><ele>7.999999999999999</ele><time>2026-04-03T12:44:15.849Z</time></trkpt><trkpt lat="45.23743503610474" lon="11.75932643176411"><ele>8.0</ele><time>2026-04-03T12:44:16.849Z</time></trkpt><trkpt lat="45.237456447925105" lon="11.759509361442769"><ele>7.999999999999999</ele><time>2026-04-03T12:44:18.849Z</time></trkpt><trkpt lat="45.23749837867176" lon="11.759581034120592"><ele>8.0</ele><time>2026-04-03T12:44:19.849Z</time></trkpt><trkpt lat="45.237570312805786" lon="11.759614256474778"><ele>8.0</ele><time>2026-04-03T12:44:20.849Z</time></trkpt><trkpt lat="45.23765406875735" lon="11.759604196253797"><ele>8.0</ele><time>2026-04-03T12:44:21.849Z</time></trkpt><trkpt lat="45.23774108342699" lon="11.75955878570834"><ele>7.999999999999999</ele><time>2026-04-03T12:44:22.849Z</time></trkpt><trkpt lat="45.237839773838616" lon="11.759513253279668"><ele>8.0</ele><time>2026-04-03T12:44:23.849Z</time></trkpt><trkpt lat="45.2379445732823" lon="11.759491287683485"><ele>8.0</ele><time>2026-04-03T12:44:24.849Z</time></trkpt><trkpt lat="45.23806102660361" lon="11.759487938210391"><ele>8.0</ele><time>2026-04-03T12:44:25.849Z</time></trkpt><trkpt lat="45.238176264404366" lon="11.759497969666867"><ele>8.0</ele><time>2026-04-03T12:44:26.849Z</time></trkpt><trkpt lat="45.23829525866663" lon="11.759519344758873"><ele>8.0</ele><time>2026-04-03T12:44:27.849Z</time></trkpt><trkpt lat="45.2384136001482" lon="11.759543358454362"><ele>8.200000000000001</ele><time>2026-04-03T12:44:28.849Z</time></trkpt><trkpt lat="45.23852476619711" lon="11.759571414329253"><ele>8.4</ele><time>2026-04-03T12:44:29.849Z</time></trkpt><trkpt lat="45.238627688653125" lon="11.759605704419407"><ele>8.600000000000001</ele><time>2026-04-03T12:44:30.849Z</time></trkpt><trkpt lat="45.23873478693252" lon="11.75963356557695"><ele>8.8</ele><time>2026-04-03T12:44:31.849Z</time></trkpt><trkpt lat="45.238838492137134" lon="11.759655994889368"><ele>9.0</ele><time>2026-04-03T12:44:32.849Z</time></trkpt><trkpt lat="45.23894686613757" lon="11.759682356503497"><ele>9.25</ele><time>2026-04-03T12:44:33.849Z</time></trkpt><trkpt lat="45.239059254245085" lon="11.759713916179326"><ele>9.5</ele><time>2026-04-03T12:44:34.849Z</time></trkpt><trkpt lat="45.23917460710489" lon="11.759735941591357"><ele>9.75</ele><time>2026-04-03T12:44:35.849Z</time></trkpt><trkpt lat="45.23928315761944" lon="11.75976432789588"><ele>10.0</ele><time>2026-04-03T12:44:36.849Z</time></trkpt><trkpt lat="45.23939535183482" lon="11.759793215589363"><ele>10.0</ele><time>2026-04-03T12:44:37.849Z</time></trkpt><trkpt lat="45.239508247470056" lon="11.759824579759668"><ele>10.0</ele><time>2026-04-03T12:44:38.849Z</time></trkpt><trkpt lat="45.23962278473029" lon="11.759847394563414"><ele>10.0</ele><time>2026-04-03T12:44:39.849Z</time></trkpt><trkpt lat="45.239744350273874" lon="11.759886571993517"><ele>10.0</ele><time>2026-04-03T12:44:40.849Z</time></trkpt><trkpt lat="45.23986524741919" lon="11.759920517376848"><ele>11.0</ele><time>2026-04-03T12:44:41.849Z</time></trkpt><trkpt lat="45.23998724069084" lon="11.759949124021"><ele>12.0</ele><time>2026-04-03T12:44:42.849Z</time></trkpt><trkpt lat="45.24011301666949" lon="11.759976306364539"><ele>13.0</ele><time>2026-04-03T12:44:43.849Z</time></trkpt><trkpt lat="45.24024069782546" lon="11.760004620415305"><ele>14.0</ele><time>2026-04-03T12:44:44.848Z</time></trkpt><trkpt lat="45.24037261919676" lon="11.760045182770197"><ele>14.0</ele><time>2026-04-03T12:44:45.848Z</time></trkpt><trkpt lat="45.24051111140971" lon="11.76008117056539"><ele>14.0</ele><time>2026-04-03T12:44:46.849Z</time></trkpt><trkpt lat="45.24064377533765" lon="11.760113803929254"><ele>14.0</ele><time>2026-04-03T12:44:47.848Z</time></trkpt><trkpt lat="45.24078032340982" lon="11.76014167564477"><ele>14.0</ele><time>2026-04-03T12:44:48.848Z</time></trkpt><trkpt lat="45.2409205870309" lon="11.760162586649864"><ele>14.0</ele><time>2026-04-03T12:44:49.848Z</time></trkpt><trkpt lat="45.241062264840046" lon="11.760182579439546"><ele>14.0</ele><time>2026-04-03T12:44:50.848Z</time></trkpt><trkpt lat="45.24119422674914" lon="11.760180026211605"><ele>14.0</ele><time>2026-04-03T12:44:51.848Z</time></trkpt><trkpt lat="45.24132935447114" lon="11.760166524784744"><ele>14.0</ele><time>2026-04-03T12:44:52.848Z</time></trkpt><trkpt lat="45.241470042453265" lon="11.760134406846468"><ele>14.0</ele><time>2026-04-03T12:44:53.848Z</time></trkpt><trkpt lat="45.24160815570577" lon="11.760093424454636"><ele>14.0</ele><time>2026-04-03T12:44:54.848Z</time></trkpt><trkpt lat="45.24174049466701" lon="11.76006288942785"><ele>14.0</ele><time>2026-04-03T12:44:55.848Z</time></trkpt><trkpt lat="45.24186794270116" lon="11.760015951630896"><ele>14.0</ele><time>2026-04-03T12:44:56.848Z</time></trkpt><trkpt lat="45.241985459524635" lon="11.759960037503292"><ele>14.0</ele><time>2026-04-03T12:44:57.848Z</time></trkpt><trkpt lat="45.242100564004396" lon="11.75989843734431"><ele>14.0</ele><time>2026-04-03T12:44:58.848Z</time></trkpt><trkpt lat="45.24221601764345" lon="11.7598168437835"><ele>14.0</ele><time>2026-04-03T12:44:59.848Z</time></trkpt><trkpt lat="45.24233224533789" lon="11.759737065716411"><ele>14.0</ele><time>2026-04-03T12:45:00.848Z</time></trkpt><trkpt lat="45.24244700075235" lon="11.759662507997282"><ele>12.75</ele><time>2026-04-03T12:45:01.848Z</time></trkpt><trkpt lat="45.242560816910874" lon="11.759588927406602"><ele>11.5</ele><time>2026-04-03T12:45:02.848Z</time></trkpt><trkpt lat="45.242666511209386" lon="11.759523742243836"><ele>10.25</ele><time>2026-04-03T12:45:03.848Z</time></trkpt><trkpt lat="45.24276610862473" lon="11.759460029477468"><ele>9.0</ele><time>2026-04-03T12:45:04.848Z</time></trkpt><trkpt lat="45.24287341712545" lon="11.759398191466193"><ele>9.0</ele><time>2026-04-03T12:45:05.848Z</time></trkpt><trkpt lat="45.24298478555278" lon="11.759345815451365"><ele>9.0</ele><time>2026-04-03T12:45:06.848Z</time></trkpt><trkpt lat="45.243103465278956" lon="11.759307861355175"><ele>9.0</ele><time>2026-04-03T12:45:07.848Z</time></trkpt><trkpt lat="45.243222802052706" lon="11.759269467564598"><ele>9.0</ele><time>2026-04-03T12:45:08.848Z</time></trkpt><trkpt lat="45.243344743035735" lon="11.759243817980789"><ele>9.0</ele><time>2026-04-03T12:45:09.848Z</time></trkpt><trkpt lat="45.243470092227405" lon="11.759216213837746"><ele>9.0</ele><time>2026-04-03T12:45:10.848Z</time></trkpt><trkpt lat="45.24360407220258" lon="11.759185754297677"><ele>9.0</ele><time>2026-04-03T12:45:11.848Z</time></trkpt><trkpt lat="45.24374217911592" lon="11.759169163119612"><ele>9.0</ele><time>2026-04-03T12:45:12.848Z</time></trkpt><trkpt lat="45.24387518973162" lon="11.759151236857107"><ele>9.0</ele><time>2026-04-03T12:45:13.848Z</time></trkpt><trkpt lat="45.24400852513237" lon="11.759130735777196"><ele>9.0</ele><time>2026-04-03T12:45:14.848Z</time></trkpt><trkpt lat="45.24414026831237" lon="11.75911451973961"><ele>9.0</ele><time>2026-04-03T12:45:15.848Z</time></trkpt><trkpt lat="45.24427716863484" lon="11.759093590609343"><ele>9.0</ele><time>2026-04-03T12:45:16.848Z</time></trkpt><trkpt lat="45.244413766562786" lon="11.759074333040891"><ele>9.0</ele><time>2026-04-03T12:45:17.848Z</time></trkpt><trkpt lat="45.24454831364726" lon="11.759052316970084"><ele>9.0</ele><time>2026-04-03T12:45:18.848Z</time></trkpt><trkpt lat="45.244676081509645" lon="11.759028269155491"><ele>9.0</ele><time>2026-04-03T12:45:19.848Z</time></trkpt><trkpt lat="45.24480286974615" lon="11.759006661850973"><ele>9.0</ele><time>2026-04-03T12:45:20.848Z</time></trkpt><trkpt lat="45.24492747697358" lon="11.758993005032892"><ele>8.5</ele><time>2026-04-03T12:45:21.848Z</time></trkpt><trkpt lat="45.24505007168155" lon="11.758979853402764"><ele>8.0</ele><time>2026-04-03T12:45:22.848Z</time></trkpt><trkpt lat="45.24517626015145" lon="11.758965621944357"><ele>7.5</ele><time>2026-04-03T12:45:23.848Z</time></trkpt><trkpt lat="45.24529563629206" lon="11.758958822834215"><ele>7.0</ele><time>2026-04-03T12:45:24.848Z</time></trkpt><trkpt lat="45.245412824042" lon="11.758945718866565"><ele>7.0</ele><time>2026-04-03T12:45:25.848Z</time></trkpt><trkpt lat="45.24552701112709" lon="11.758932876238218"><ele>6.999999999999999</ele><time>2026-04-03T12:45:26.848Z</time></trkpt><trkpt lat="45.24563431509228" lon="11.758919766617655"><ele>6.999999999999999</ele><time>2026-04-03T12:45:27.848Z</time></trkpt><trkpt lat="45.24573632338561" lon="11.75890542074595"><ele>7.0</ele><time>2026-04-03T12:45:28.848Z</time></trkpt><trkpt lat="45.24582964504255" lon="11.758895437661497"><ele>7.0</ele><time>2026-04-03T12:45:29.848Z</time></trkpt><trkpt lat="45.24590934740302" lon="11.758880058967074"><ele>7.000000000000001</ele><time>2026-04-03T12:45:30.848Z</time></trkpt><trkpt lat="45.24598400312403" lon="11.75886924845926"><ele>7.0</ele><time>2026-04-03T12:45:31.848Z</time></trkpt><trkpt lat="45.24606041819613" lon="11.758856080067002"><ele>7.0</ele><time>2026-04-03T12:45:32.848Z</time></trkpt><trkpt lat="45.24614037693983" lon="11.758852376306244"><ele>7.0</ele><time>2026-04-03T12:45:33.848Z</time></trkpt><trkpt lat="45.24620948235743" lon="11.758842239126889"><ele>7.000000000000001</ele><time>2026-04-03T12:45:34.848Z</time></trkpt><trkpt lat="45.24631370370817" lon="11.758828406392578"><ele>7.0</ele><time>2026-04-03T12:45:36.848Z</time></trkpt><trkpt lat="45.24638187211677" lon="11.75881947679026"><ele>7.000000000000001</ele><time>2026-04-03T12:45:38.848Z</time></trkpt><trkpt lat="45.2464479046052" lon="11.758817150845033"><ele>7.0</ele><time>2026-04-03T12:45:40.848Z</time></trkpt><trkpt lat="45.2465692598197" lon="11.75880403594521"><ele>7.0</ele><time>2026-04-03T12:45:42.848Z</time></trkpt><trkpt lat="45.24664304786703" lon="11.75874322732268"><ele>7.0</ele><time>2026-04-03T12:45:43.848Z</time></trkpt><trkpt lat="45.24670754153116" lon="11.758723481839095"><ele>7.000000000000001</ele><time>2026-04-03T12:45:44.848Z</time></trkpt><trkpt lat="45.24677095019655" lon="11.758712021855494"><ele>7.0</ele><time>2026-04-03T12:45:45.848Z</time></trkpt><trkpt lat="45.246871796107655" lon="11.75869782697565"><ele>7.3999999999999995</ele><time>2026-04-03T12:45:47.848Z</time></trkpt><trkpt lat="45.24693846614873" lon="11.758692652759525"><ele>7.799999999999999</ele><time>2026-04-03T12:45:49.848Z</time></trkpt><trkpt lat="45.24698828636223" lon="11.758752811540871"><ele>8.2</ele><time>2026-04-03T12:46:26.847Z</time></trkpt><trkpt lat="45.24707813698423" lon="11.758743052502991"><ele>8.6</ele><time>2026-04-03T12:46:28.847Z</time></trkpt><trkpt lat="45.24708948516715" lon="11.75851935319366"><ele>9.0</ele><time>2026-04-03T12:46:29.847Z</time></trkpt><trkpt lat="45.24707534986128" lon="11.758386332432504"><ele>9.0</ele><time>2026-04-03T12:46:30.847Z</time></trkpt><trkpt lat="45.24705744414009" lon="11.758259428588874"><ele>9.0</ele><time>2026-04-03T12:46:31.847Z</time></trkpt><trkpt lat="45.24704036099881" lon="11.758116623101987"><ele>9.0</ele><time>2026-04-03T12:46:32.847Z</time></trkpt><trkpt lat="45.24702819699767" lon="11.757970759365017"><ele>9.0</ele><time>2026-04-03T12:46:33.847Z</time></trkpt><trkpt lat="45.24701175061079" lon="11.757811684379673"><ele>9.0</ele><time>2026-04-03T12:46:34.847Z</time></trkpt><trkpt lat="45.246994489302665" lon="11.757644212316798"><ele>9.0</ele><time>2026-04-03T12:46:35.847Z</time></trkpt><trkpt lat="45.246973062804805" lon="11.757462188747773"><ele>9.0</ele><time>2026-04-03T12:46:36.847Z</time></trkpt><trkpt lat="45.24694756772456" lon="11.757275341056419"><ele>9.0</ele><time>2026-04-03T12:46:37.847Z</time></trkpt><trkpt lat="45.246920857686646" lon="11.75709034424727"><ele>9.0</ele><time>2026-04-03T12:46:38.847Z</time></trkpt><trkpt lat="45.24689415254881" lon="11.756899082288681"><ele>8.666666666666666</ele><time>2026-04-03T12:46:39.847Z</time></trkpt><trkpt lat="45.24686480983217" lon="11.756697471622848"><ele>8.333333333333332</ele><time>2026-04-03T12:46:40.847Z</time></trkpt><trkpt lat="45.246832445372384" lon="11.756487848387383"><ele>8.0</ele><time>2026-04-03T12:46:41.847Z</time></trkpt><trkpt lat="45.24680067399467" lon="11.75626950504281"><ele>8.0</ele><time>2026-04-03T12:46:42.847Z</time></trkpt><trkpt lat="45.246762797977844" lon="11.756046760857089"><ele>8.0</ele><time>2026-04-03T12:46:43.847Z</time></trkpt><trkpt lat="45.24671392030936" lon="11.755822032193652"><ele>8.0</ele><time>2026-04-03T12:46:44.847Z</time></trkpt><trkpt lat="45.2466502625503" lon="11.75560284830381"><ele>7.666666666666666</ele><time>2026-04-03T12:46:45.847Z</time></trkpt><trkpt lat="45.24658558774736" lon="11.755383354319308"><ele>7.333333333333334</ele><time>2026-04-03T12:46:46.846Z</time></trkpt><trkpt lat="45.24651948865917" lon="11.755170266331126"><ele>7.0</ele><time>2026-04-03T12:46:47.846Z</time></trkpt><trkpt lat="45.24645636838092" lon="11.754969620030817"><ele>8.0</ele><time>2026-04-03T12:46:48.846Z</time></trkpt><trkpt lat="45.24639775135537" lon="11.754782849945093"><ele>9.0</ele><time>2026-04-03T12:46:49.847Z</time></trkpt><trkpt lat="45.24634308370786" lon="11.754609667602042"><ele>10.0</ele><time>2026-04-03T12:46:50.846Z</time></trkpt><trkpt lat="45.246291059204616" lon="11.754447752555663"><ele>11.0</ele><time>2026-04-03T12:46:51.846Z</time></trkpt><trkpt lat="45.24624149229014" lon="11.754297040794604"><ele>11.0</ele><time>2026-04-03T12:46:52.846Z</time></trkpt><trkpt lat="45.24619374290986" lon="11.754149788778976"><ele>11.0</ele><time>2026-04-03T12:46:53.846Z</time></trkpt><trkpt lat="45.24614558081878" lon="11.754008447011609"><ele>11.0</ele><time>2026-04-03T12:46:54.846Z</time></trkpt><trkpt lat="45.24610180763699" lon="11.753856327194843"><ele>11.0</ele><time>2026-04-03T12:46:55.847Z</time></trkpt><trkpt lat="45.246059967668835" lon="11.75371368977317"><ele>11.0</ele><time>2026-04-03T12:46:56.846Z</time></trkpt><trkpt lat="45.246041092061866" lon="11.753577447910036"><ele>11.200000000000001</ele><time>2026-04-03T12:46:57.846Z</time></trkpt><trkpt lat="45.24601358243476" lon="11.753465937177628"><ele>11.4</ele><time>2026-04-03T12:46:58.846Z</time></trkpt><trkpt lat="45.24599050183881" lon="11.753372379253173"><ele>11.6</ele><time>2026-04-03T12:46:59.846Z</time></trkpt><trkpt lat="45.245970188855125" lon="11.753276623755044"><ele>11.8</ele><time>2026-04-03T12:47:01.846Z</time></trkpt><trkpt lat="45.24611063498898" lon="11.753179810968911"><ele>12.0</ele><time>2026-04-03T12:47:08.846Z</time></trkpt><trkpt lat="45.246191072920205" lon="11.75318953309835"><ele>12.0</ele><time>2026-04-03T12:47:09.846Z</time></trkpt><trkpt lat="45.24628328953959" lon="11.753198205979173"><ele>12.0</ele><time>2026-04-03T12:47:10.845Z</time></trkpt><trkpt lat="45.24637994710491" lon="11.75321219955143"><ele>12.0</ele><time>2026-04-03T12:47:11.845Z</time></trkpt><trkpt lat="45.24648981354666" lon="11.753240696222433"><ele>12.0</ele><time>2026-04-03T12:47:12.845Z</time></trkpt><trkpt lat="45.246607926873494" lon="11.753292553872207"><ele>12.0</ele><time>2026-04-03T12:47:13.845Z</time></trkpt><trkpt lat="45.24672772029374" lon="11.753335708966183"><ele>11.75</ele><time>2026-04-03T12:47:14.845Z</time></trkpt><trkpt lat="45.246853732164894" lon="11.753410448581985"><ele>11.5</ele><time>2026-04-03T12:47:15.845Z</time></trkpt><trkpt lat="45.2469782534874" lon="11.753488896928433"><ele>11.25</ele><time>2026-04-03T12:47:16.845Z</time></trkpt><trkpt lat="45.24710920895432" lon="11.75357358476199"><ele>11.0</ele><time>2026-04-03T12:47:17.845Z</time></trkpt><trkpt lat="45.24723704628445" lon="11.753688852465581"><ele>10.75</ele><time>2026-04-03T12:47:18.845Z</time></trkpt><trkpt lat="45.247368081951635" lon="11.753776396233947"><ele>10.5</ele><time>2026-04-03T12:47:19.845Z</time></trkpt><trkpt lat="45.24750749044411" lon="11.753869749060476"><ele>10.25</ele><time>2026-04-03T12:47:20.845Z</time></trkpt><trkpt lat="45.247636951159336" lon="11.753962810202497"><ele>10.0</ele><time>2026-04-03T12:47:21.845Z</time></trkpt><trkpt lat="45.24776452994333" lon="11.754037531015703"><ele>10.0</ele><time>2026-04-03T12:47:22.845Z</time></trkpt><trkpt lat="45.24789864226511" lon="11.754079995288892"><ele>10.0</ele><time>2026-04-03T12:47:23.845Z</time></trkpt><trkpt lat="45.24804184856132" lon="11.75410347085669"><ele>10.0</ele><time>2026-04-03T12:47:24.845Z</time></trkpt><trkpt lat="45.248194737292586" lon="11.75412809002861"><ele>10.0</ele><time>2026-04-03T12:47:25.845Z</time></trkpt><trkpt lat="45.248353169300124" lon="11.754169308310733"><ele>9.666666666666668</ele><time>2026-04-03T12:47:26.845Z</time></trkpt><trkpt lat="45.24851273893923" lon="11.754226079664507"><ele>9.333333333333334</ele><time>2026-04-03T12:47:27.845Z</time></trkpt><trkpt lat="45.24866881841265" lon="11.754292856577704"><ele>9.0</ele><time>2026-04-03T12:47:28.845Z</time></trkpt><trkpt lat="45.248815953225694" lon="11.754369107688959"><ele>9.0</ele><time>2026-04-03T12:47:29.845Z</time></trkpt><trkpt lat="45.24895115808346" lon="11.754444667769882"><ele>9.0</ele><time>2026-04-03T12:47:30.845Z</time></trkpt><trkpt lat="45.24907976542852" lon="11.754508349897598"><ele>9.0</ele><time>2026-04-03T12:47:31.845Z</time></trkpt><trkpt lat="45.249202319201316" lon="11.754571229642703"><ele>9.0</ele><time>2026-04-03T12:47:32.846Z</time></trkpt><trkpt lat="45.24931359355973" lon="11.75462903609948"><ele>9.0</ele><time>2026-04-03T12:47:33.846Z</time></trkpt><trkpt lat="45.24940592094589" lon="11.754685251727443"><ele>9.0</ele><time>2026-04-03T12:47:34.846Z</time></trkpt><trkpt lat="45.24947524854849" lon="11.754722930449928"><ele>9.0</ele><time>2026-04-03T12:47:35.847Z</time></trkpt><trkpt lat="45.24954997035494" lon="11.754741761773998"><ele>9.0</ele><time>2026-04-03T12:47:37.847Z</time></trkpt><trkpt lat="45.24960676372193" lon="11.754557032485936"><ele>9.0</ele><time>2026-04-03T12:47:57.85Z</time></trkpt><trkpt lat="45.24964094854837" lon="11.754468097193909"><ele>9.2</ele><time>2026-04-03T12:47:58.85Z</time></trkpt><trkpt lat="45.24967878781783" lon="11.754366592325827"><ele>9.4</ele><time>2026-04-03T12:47:59.85Z</time></trkpt><trkpt lat="45.249725016675725" lon="11.754268160362871"><ele>9.6</ele><time>2026-04-03T12:48:00.85Z</time></trkpt><trkpt lat="45.24977824319256" lon="11.754147301869624"><ele>9.8</ele><time>2026-04-03T12:48:01.85Z</time></trkpt><trkpt lat="45.24983191540022" lon="11.75400174124956"><ele>10.0</ele><time>2026-04-03T12:48:02.85Z</time></trkpt><trkpt lat="45.249891707790205" lon="11.753849262570002"><ele>10.0</ele><time>2026-04-03T12:48:03.85Z</time></trkpt><trkpt lat="45.24994937476532" lon="11.753692207718643"><ele>10.0</ele><time>2026-04-03T12:48:04.85Z</time></trkpt><trkpt lat="45.25000544631175" lon="11.753537741633794"><ele>10.0</ele><time>2026-04-03T12:48:05.85Z</time></trkpt><trkpt lat="45.250058616974364" lon="11.753383257412523"><ele>10.0</ele><time>2026-04-03T12:48:06.85Z</time></trkpt><trkpt lat="45.25011078286354" lon="11.753229241189766"><ele>10.0</ele><time>2026-04-03T12:48:07.85Z</time></trkpt><trkpt lat="45.2501601577318" lon="11.75308166660072"><ele>10.0</ele><time>2026-04-03T12:48:08.85Z</time></trkpt><trkpt lat="45.250209019623455" lon="11.752945124071767"><ele>10.0</ele><time>2026-04-03T12:48:09.851Z</time></trkpt><trkpt lat="45.25025538056232" lon="11.75281269662094"><ele>10.0</ele><time>2026-04-03T12:48:10.851Z</time></trkpt><trkpt lat="45.25029982752768" lon="11.752674392775434"><ele>10.0</ele><time>2026-04-03T12:48:11.851Z</time></trkpt><trkpt lat="45.250344825555715" lon="11.752533891748854"><ele>9.4</ele><time>2026-04-03T12:48:12.851Z</time></trkpt><trkpt lat="45.25038875424618" lon="11.752392266778209"><ele>8.8</ele><time>2026-04-03T12:48:13.851Z</time></trkpt><trkpt lat="45.250438596057734" lon="11.752253936190453"><ele>8.2</ele><time>2026-04-03T12:48:14.851Z</time></trkpt><trkpt lat="45.2504852241983" lon="11.75211432637321"><ele>7.6</ele><time>2026-04-03T12:48:15.851Z</time></trkpt><trkpt lat="45.25053155204056" lon="11.751981347524566"><ele>7.0</ele><time>2026-04-03T12:48:16.851Z</time></trkpt><trkpt lat="45.250575937732044" lon="11.751855651603407"><ele>6.833333333333334</ele><time>2026-04-03T12:48:17.851Z</time></trkpt><trkpt lat="45.25061793297639" lon="11.751738200501842"><ele>6.666666666666667</ele><time>2026-04-03T12:48:18.851Z</time></trkpt><trkpt lat="45.250655357665735" lon="11.75162898270593"><ele>6.5</ele><time>2026-04-03T12:48:19.851Z</time></trkpt><trkpt lat="45.250690730050145" lon="11.751528735415512"><ele>6.333333333333334</ele><time>2026-04-03T12:48:20.851Z</time></trkpt><trkpt lat="45.25072288765699" lon="11.75143513861907"><ele>6.166666666666667</ele><time>2026-04-03T12:48:21.851Z</time></trkpt><trkpt lat="45.25075272887017" lon="11.75134816954156"><ele>6.0</ele><time>2026-04-03T12:48:22.851Z</time></trkpt><trkpt lat="45.25078080923059" lon="11.751262493957864"><ele>6.666666666666667</ele><time>2026-04-03T12:48:23.851Z</time></trkpt><trkpt lat="45.250808504646955" lon="11.75118187779301"><ele>7.333333333333334</ele><time>2026-04-03T12:48:24.851Z</time></trkpt><trkpt lat="45.25086057245836" lon="11.751032394833743"><ele>8.0</ele><time>2026-04-03T12:48:26.851Z</time></trkpt><trkpt lat="45.250906359138376" lon="11.750882254822077"><ele>8.666666666666668</ele><time>2026-04-03T12:48:28.851Z</time></trkpt><trkpt lat="45.25092858534202" lon="11.75079526887524"><ele>9.333333333333334</ele><time>2026-04-03T12:48:29.851Z</time></trkpt><trkpt lat="45.25095279760223" lon="11.750705621674543"><ele>10.0</ele><time>2026-04-03T12:48:30.851Z</time></trkpt><trkpt lat="45.25097738167202" lon="11.75061852458954"><ele>10.333333333333334</ele><time>2026-04-03T12:48:31.851Z</time></trkpt><trkpt lat="45.25100362607491" lon="11.750528412472862"><ele>10.666666666666668</ele><time>2026-04-03T12:48:32.851Z</time></trkpt><trkpt lat="45.25103172145913" lon="11.750437666901618"><ele>11.0</ele><time>2026-04-03T12:48:33.851Z</time></trkpt><trkpt lat="45.25105751069513" lon="11.750349932825463"><ele>11.333333333333334</ele><time>2026-04-03T12:48:34.851Z</time></trkpt><trkpt lat="45.25109850967302" lon="11.75021734422467"><ele>11.666666666666666</ele><time>2026-04-03T12:48:36.851Z</time></trkpt><trkpt lat="45.25112671148763" lon="11.750106476762305"><ele>12.0</ele><time>2026-04-03T12:48:38.851Z</time></trkpt><trkpt lat="45.25115081388997" lon="11.750004949257242"><ele>13.2</ele><time>2026-04-03T12:48:40.851Z</time></trkpt><trkpt lat="45.25126268639268" lon="11.750019833396244"><ele>14.399999999999999</ele><time>2026-04-03T12:48:41.851Z</time></trkpt><trkpt lat="45.25135969343156" lon="11.74998943846245"><ele>15.600000000000001</ele><time>2026-04-03T12:48:43.851Z</time></trkpt><trkpt lat="45.251472948049106" lon="11.749972187411823"><ele>16.8</ele><time>2026-04-03T12:48:45.851Z</time></trkpt><trkpt lat="45.25159002099354" lon="11.74997889613013"><ele>18.0</ele><time>2026-04-03T12:48:47.851Z</time></trkpt><trkpt lat="45.25169538634405" lon="11.7499657494614"><ele>18.6</ele><time>2026-04-03T12:48:49.85Z</time></trkpt><trkpt lat="45.251804097061694" lon="11.749955074070868"><ele>19.200000000000003</ele><time>2026-04-03T12:48:51.85Z</time></trkpt><trkpt lat="45.2519229835125" lon="11.74994716318454"><ele>19.8</ele><time>2026-04-03T12:48:53.85Z</time></trkpt><trkpt lat="45.252041580036746" lon="11.749957935281413"><ele>20.400000000000002</ele><time>2026-04-03T12:48:55.85Z</time></trkpt><trkpt lat="45.25211046525537" lon="11.74997168501652"><ele>21.0</ele><time>2026-04-03T12:48:56.85Z</time></trkpt><trkpt lat="45.252180108001546" lon="11.749987221802193"><ele>21.0</ele><time>2026-04-03T12:48:57.85Z</time></trkpt><trkpt lat="45.252257181683625" lon="11.749985120451564"><ele>21.0</ele><time>2026-04-03T12:48:58.85Z</time></trkpt><trkpt lat="45.25233674213767" lon="11.750009017861036"><ele>21.0</ele><time>2026-04-03T12:48:59.85Z</time></trkpt><trkpt lat="45.252416158628314" lon="11.750071889890593"><ele>21.0</ele><time>2026-04-03T12:49:00.85Z</time></trkpt><trkpt lat="45.25251134714899" lon="11.75011874147774"><ele>21.0</ele><time>2026-04-03T12:49:01.85Z</time></trkpt><trkpt lat="45.25260646553028" lon="11.750164820649156"><ele>20.0</ele><time>2026-04-03T12:49:02.85Z</time></trkpt><trkpt lat="45.252708742251315" lon="11.750215564482593"><ele>19.0</ele><time>2026-04-03T12:49:03.85Z</time></trkpt><trkpt lat="45.252820858116216" lon="11.750270951992166"><ele>18.0</ele><time>2026-04-03T12:49:04.849Z</time></trkpt><trkpt lat="45.25293623000108" lon="11.750320682564071"><ele>17.0</ele><time>2026-04-03T12:49:05.849Z</time></trkpt><trkpt lat="45.25305433073902" lon="11.750355565066696"><ele>18.5</ele><time>2026-04-03T12:49:06.849Z</time></trkpt><trkpt lat="45.25317878656862" lon="11.750385419056492"><ele>20.0</ele><time>2026-04-03T12:49:07.849Z</time></trkpt><trkpt lat="45.25330371117975" lon="11.750408004379848"><ele>21.5</ele><time>2026-04-03T12:49:08.849Z</time></trkpt><trkpt lat="45.25342243954669" lon="11.750422058962856"><ele>23.0</ele><time>2026-04-03T12:49:09.849Z</time></trkpt><trkpt lat="45.25354291497372" lon="11.750437923428825"><ele>23.0</ele><time>2026-04-03T12:49:10.849Z</time></trkpt><trkpt lat="45.25366664453378" lon="11.750455340968584"><ele>23.0</ele><time>2026-04-03T12:49:11.849Z</time></trkpt><trkpt lat="45.25379279056151" lon="11.750473099807794"><ele>23.0</ele><time>2026-04-03T12:49:12.849Z</time></trkpt><trkpt lat="45.25392123742219" lon="11.750491201417285"><ele>23.0</ele><time>2026-04-03T12:49:13.849Z</time></trkpt><trkpt lat="45.25405216912683" lon="11.75051052794751"><ele>22.0</ele><time>2026-04-03T12:49:14.849Z</time></trkpt><trkpt lat="45.25418021115775" lon="11.75053246418786"><ele>21.0</ele><time>2026-04-03T12:49:15.849Z</time></trkpt><trkpt lat="45.25430768079784" lon="11.750549472210155"><ele>20.0</ele><time>2026-04-03T12:49:16.849Z</time></trkpt><trkpt lat="45.25443903680596" lon="11.750561134610344"><ele>19.0</ele><time>2026-04-03T12:49:17.849Z</time></trkpt><trkpt lat="45.25456995387205" lon="11.750572152502205"><ele>19.0</ele><time>2026-04-03T12:49:18.849Z</time></trkpt><trkpt lat="45.254701580089396" lon="11.75057720059158"><ele>19.0</ele><time>2026-04-03T12:49:19.849Z</time></trkpt><trkpt lat="45.254834112921245" lon="11.75057816612142"><ele>19.0</ele><time>2026-04-03T12:49:20.849Z</time></trkpt><trkpt lat="45.25496509324354" lon="11.750573975307296"><ele>19.0</ele><time>2026-04-03T12:49:21.849Z</time></trkpt><trkpt lat="45.25509086204832" lon="11.750564514960468"><ele>17.5</ele><time>2026-04-03T12:49:22.849Z</time></trkpt><trkpt lat="45.25521374165867" lon="11.75055164687171"><ele>16.0</ele><time>2026-04-03T12:49:23.849Z</time></trkpt><trkpt lat="45.255336180487944" lon="11.750519411069584"><ele>14.5</ele><time>2026-04-03T12:49:24.849Z</time></trkpt><trkpt lat="45.25545756965146" lon="11.75051480577492"><ele>13.0</ele><time>2026-04-03T12:49:25.849Z</time></trkpt><trkpt lat="45.25557880085459" lon="11.750521018611577"><ele>12.499999999999998</ele><time>2026-04-03T12:49:26.849Z</time></trkpt><trkpt lat="45.255684923733654" lon="11.750535943174748"><ele>12.0</ele><time>2026-04-03T12:49:27.849Z</time></trkpt><trkpt lat="45.25577609648965" lon="11.750553934987868"><ele>11.5</ele><time>2026-04-03T12:49:28.849Z</time></trkpt><trkpt lat="45.255849861779204" lon="11.750570050647443"><ele>11.0</ele><time>2026-04-03T12:49:29.849Z</time></trkpt><trkpt lat="45.255913260322586" lon="11.750585990306107"><ele>10.5</ele><time>2026-04-03T12:49:30.849Z</time></trkpt><trkpt lat="45.25600363527564" lon="11.750599570685672"><ele>10.0</ele><time>2026-04-03T12:49:32.849Z</time></trkpt><trkpt lat="45.25609427220014" lon="11.750599559861667"><ele>10.0</ele><time>2026-04-03T12:49:34.849Z</time></trkpt><trkpt lat="45.25615974827078" lon="11.750594129104702"><ele>10.0</ele><time>2026-04-03T12:49:35.849Z</time></trkpt><trkpt lat="45.25624005813143" lon="11.750588995319877"><ele>10.0</ele><time>2026-04-03T12:49:36.849Z</time></trkpt><trkpt lat="45.25633508374858" lon="11.750559780161831"><ele>10.0</ele><time>2026-04-03T12:49:37.849Z</time></trkpt><trkpt lat="45.25644034101657" lon="11.750508120399049"><ele>10.0</ele><time>2026-04-03T12:49:38.849Z</time></trkpt><trkpt lat="45.25655408639532" lon="11.750412771904047"><ele>9.5</ele><time>2026-04-03T12:49:39.849Z</time></trkpt><trkpt lat="45.25667088587822" lon="11.750317066365806"><ele>9.0</ele><time>2026-04-03T12:49:40.849Z</time></trkpt><trkpt lat="45.25680012105056" lon="11.750226618656892"><ele>8.5</ele><time>2026-04-03T12:49:41.849Z</time></trkpt><trkpt lat="45.25693279532078" lon="11.750150098842488"><ele>8.0</ele><time>2026-04-03T12:49:42.849Z</time></trkpt><trkpt lat="45.25707987439257" lon="11.75012369872056"><ele>9.0</ele><time>2026-04-03T12:49:43.849Z</time></trkpt><trkpt lat="45.25723196487101" lon="11.750133272318614"><ele>10.0</ele><time>2026-04-03T12:49:44.849Z</time></trkpt><trkpt lat="45.25737672210183" lon="11.750152255013857"><ele>11.0</ele><time>2026-04-03T12:49:45.849Z</time></trkpt><trkpt lat="45.25752046057319" lon="11.750156799750945"><ele>12.0</ele><time>2026-04-03T12:49:46.849Z</time></trkpt><trkpt lat="45.257671327981555" lon="11.750138846842582"><ele>12.0</ele><time>2026-04-03T12:49:47.849Z</time></trkpt><trkpt lat="45.25782258449154" lon="11.75009077072461"><ele>12.0</ele><time>2026-04-03T12:49:48.849Z</time></trkpt><trkpt lat="45.25796749798255" lon="11.750019082716022"><ele>12.0</ele><time>2026-04-03T12:49:49.849Z</time></trkpt><trkpt lat="45.258115171259234" lon="11.749940480283426"><ele>11.333333333333334</ele><time>2026-04-03T12:49:50.849Z</time></trkpt><trkpt lat="45.25826424775079" lon="11.749865052729936"><ele>10.666666666666668</ele><time>2026-04-03T12:49:51.849Z</time></trkpt><trkpt lat="45.25841624339961" lon="11.74982827351885"><ele>10.0</ele><time>2026-04-03T12:49:52.849Z</time></trkpt><trkpt lat="45.258562251774805" lon="11.749806734799336"><ele>10.0</ele><time>2026-04-03T12:49:53.849Z</time></trkpt><trkpt lat="45.258706025378245" lon="11.749790716840582"><ele>10.0</ele><time>2026-04-03T12:49:54.849Z</time></trkpt><trkpt lat="45.258847224375785" lon="11.749781440863623"><ele>10.0</ele><time>2026-04-03T12:49:55.849Z</time></trkpt><trkpt lat="45.25897873583914" lon="11.749783459754372"><ele>10.0</ele><time>2026-04-03T12:49:56.849Z</time></trkpt><trkpt lat="45.25910008332881" lon="11.749795654519582"><ele>9.6</ele><time>2026-04-03T12:49:57.849Z</time></trkpt><trkpt lat="45.259209020493124" lon="11.749805276613843"><ele>9.2</ele><time>2026-04-03T12:49:58.849Z</time></trkpt><trkpt lat="45.2593085282522" lon="11.749814602589765"><ele>8.8</ele><time>2026-04-03T12:49:59.849Z</time></trkpt><trkpt lat="45.259402240141824" lon="11.749810495004656"><ele>8.4</ele><time>2026-04-03T12:50:00.849Z</time></trkpt><trkpt lat="45.259498204971926" lon="11.74978171906472"><ele>8.0</ele><time>2026-04-03T12:50:01.849Z</time></trkpt><trkpt lat="45.25960233953399" lon="11.749721026675669"><ele>8.0</ele><time>2026-04-03T12:50:02.849Z</time></trkpt><trkpt lat="45.25974316093932" lon="11.749621712151338"><ele>8.0</ele><time>2026-04-03T12:50:03.849Z</time></trkpt><trkpt lat="45.259911226093216" lon="11.749470362312499"><ele>8.0</ele><time>2026-04-03T12:50:04.849Z</time></trkpt><trkpt lat="45.260114831116525" lon="11.74933121445446"><ele>8.666666666666666</ele><time>2026-04-03T12:50:05.849Z</time></trkpt><trkpt lat="45.260306123615635" lon="11.749208798855719"><ele>9.333333333333334</ele><time>2026-04-03T12:50:06.849Z</time></trkpt><trkpt lat="45.2604893394469" lon="11.749093500020377"><ele>10.0</ele><time>2026-04-03T12:50:07.849Z</time></trkpt><trkpt lat="45.26065586679193" lon="11.748997285720357"><ele>10.0</ele><time>2026-04-03T12:50:08.849Z</time></trkpt><trkpt lat="45.26080593513041" lon="11.748919928140026"><ele>10.0</ele><time>2026-04-03T12:50:09.848Z</time></trkpt><trkpt lat="45.26095071283702" lon="11.748858909172073"><ele>10.0</ele><time>2026-04-03T12:50:10.848Z</time></trkpt><trkpt lat="45.26111205739636" lon="11.74882475213661"><ele>10.0</ele><time>2026-04-03T12:50:11.848Z</time></trkpt><trkpt lat="45.26128255420194" lon="11.748826676976233"><ele>10.0</ele><time>2026-04-03T12:50:12.848Z</time></trkpt><trkpt lat="45.26145942035184" lon="11.748842827589034"><ele>10.0</ele><time>2026-04-03T12:50:13.848Z</time></trkpt><trkpt lat="45.261640200320684" lon="11.748868259603949"><ele>9.0</ele><time>2026-04-03T12:50:14.848Z</time></trkpt><trkpt lat="45.26181549036203" lon="11.748884363610815"><ele>8.0</ele><time>2026-04-03T12:50:15.848Z</time></trkpt><trkpt lat="45.26199321022744" lon="11.74891833020425"><ele>7.0</ele><time>2026-04-03T12:50:16.848Z</time></trkpt><trkpt lat="45.26217157636033" lon="11.748966155711583"><ele>6.666666666666667</ele><time>2026-04-03T12:50:17.848Z</time></trkpt><trkpt lat="45.26235165560606" lon="11.749002995623542"><ele>6.333333333333334</ele><time>2026-04-03T12:50:18.848Z</time></trkpt><trkpt lat="45.26253480839527" lon="11.749052318407632"><ele>6.0</ele><time>2026-04-03T12:50:19.848Z</time></trkpt><trkpt lat="45.262731947359484" lon="11.749076763942366"><ele>6.0</ele><time>2026-04-03T12:50:20.848Z</time></trkpt><trkpt lat="45.26292422307694" lon="11.749102549969276"><ele>6.0</ele><time>2026-04-03T12:50:21.848Z</time></trkpt><trkpt lat="45.26308968706956" lon="11.749123665608098"><ele>6.0</ele><time>2026-04-03T12:50:22.848Z</time></trkpt><trkpt lat="45.263235960597335" lon="11.7497926810598"><ele>5.666666666666667</ele><time>2026-04-03T12:50:23.848Z</time></trkpt><trkpt lat="45.263356294040285" lon="11.749942740936278"><ele>5.333333333333334</ele><time>2026-04-03T12:50:24.848Z</time></trkpt><trkpt lat="45.263443707848786" lon="11.750062313689744"><ele>5.0</ele><time>2026-04-03T12:50:25.848Z</time></trkpt><trkpt lat="45.26357696987549" lon="11.748778438016958"><ele>5.0</ele><time>2026-04-03T12:50:26.848Z</time></trkpt><trkpt lat="45.263660700649275" lon="11.748574901871251"><ele>5.0</ele><time>2026-04-03T12:50:27.848Z</time></trkpt><trkpt lat="45.2637338733411" lon="11.748350494911547"><ele>5.0</ele><time>2026-04-03T12:50:28.848Z</time></trkpt><trkpt lat="45.26380012276559" lon="11.748116366791027"><ele>5.333333333333334</ele><time>2026-04-03T12:50:29.848Z</time></trkpt><trkpt lat="45.26388451452348" lon="11.747884543496173"><ele>5.666666666666667</ele><time>2026-04-03T12:50:30.848Z</time></trkpt><trkpt lat="45.26395740435799" lon="11.747670183221699"><ele>6.0</ele><time>2026-04-03T12:50:31.848Z</time></trkpt><trkpt lat="45.264029671048505" lon="11.747472054821538"><ele>6.25</ele><time>2026-04-03T12:50:32.848Z</time></trkpt><trkpt lat="45.2641015278939" lon="11.747282341113971"><ele>6.5</ele><time>2026-04-03T12:50:33.848Z</time></trkpt><trkpt lat="45.26418257906542" lon="11.747113803726865"><ele>6.75</ele><time>2026-04-03T12:50:34.848Z</time></trkpt><trkpt lat="45.26426126280896" lon="11.7469702507529"><ele>7.0</ele><time>2026-04-03T12:50:35.848Z</time></trkpt><trkpt lat="45.26433974248475" lon="11.746848264199"><ele>7.8</ele><time>2026-04-03T12:50:36.848Z</time></trkpt><trkpt lat="45.264420619673125" lon="11.746743504267304"><ele>8.6</ele><time>2026-04-03T12:50:37.848Z</time></trkpt><trkpt lat="45.26449821178035" lon="11.746661743553867"><ele>9.4</ele><time>2026-04-03T12:50:38.848Z</time></trkpt><trkpt lat="45.26456252073103" lon="11.746602211507389"><ele>10.200000000000001</ele><time>2026-04-03T12:50:39.848Z</time></trkpt><trkpt lat="45.2646218469126" lon="11.746540520665816"><ele>11.0</ele><time>2026-04-03T12:50:40.848Z</time></trkpt><trkpt lat="45.26471199769262" lon="11.74641655852996"><ele>11.0</ele><time>2026-04-03T12:50:42.848Z</time></trkpt><trkpt lat="45.26475646844485" lon="11.746335128920588"><ele>11.0</ele><time>2026-04-03T12:50:43.848Z</time></trkpt><trkpt lat="45.264798182037815" lon="11.746241283383275"><ele>11.0</ele><time>2026-04-03T12:50:44.848Z</time></trkpt><trkpt lat="45.26484073146961" lon="11.746141578613624"><ele>11.0</ele><time>2026-04-03T12:50:45.848Z</time></trkpt><trkpt lat="45.26487261133731" lon="11.746036547076104"><ele>11.0</ele><time>2026-04-03T12:50:46.848Z</time></trkpt><trkpt lat="45.26490209956543" lon="11.745934855838295"><ele>11.0</ele><time>2026-04-03T12:50:47.848Z</time></trkpt><trkpt lat="45.26492758125125" lon="11.745833070238861"><ele>10.8</ele><time>2026-04-03T12:50:48.848Z</time></trkpt><trkpt lat="45.2649554143309" lon="11.745686954828258"><ele>10.600000000000001</ele><time>2026-04-03T12:50:50.848Z</time></trkpt><trkpt lat="45.26497865805147" lon="11.745554516983336"><ele>10.4</ele><time>2026-04-03T12:50:52.848Z</time></trkpt><trkpt lat="45.26499935212293" lon="11.74544125177215"><ele>10.2</ele><time>2026-04-03T12:50:54.848Z</time></trkpt><trkpt lat="45.26502763066898" lon="11.745342850609209"><ele>10.0</ele><time>2026-04-03T12:50:56.848Z</time></trkpt><trkpt lat="45.2650406393701" lon="11.745210162072748"><ele>10.0</ele><time>2026-04-03T12:50:59.848Z</time></trkpt><trkpt lat="45.265077372425296" lon="11.74507814675097"><ele>10.0</ele><time>2026-04-03T12:51:01.848Z</time></trkpt><trkpt lat="45.26512547516701" lon="11.745016932805953"><ele>10.0</ele><time>2026-04-03T12:51:02.848Z</time></trkpt><trkpt lat="45.26523088117436" lon="11.745015647525518"><ele>10.0</ele><time>2026-04-03T12:51:04.848Z</time></trkpt><trkpt lat="45.26529658874666" lon="11.745049494909779"><ele>10.0</ele><time>2026-04-03T12:51:05.848Z</time></trkpt><trkpt lat="45.26536760354553" lon="11.74509548994957"><ele>10.0</ele><time>2026-04-03T12:51:06.848Z</time></trkpt><trkpt lat="45.26545847341695" lon="11.745148692299404"><ele>8.75</ele><time>2026-04-03T12:51:07.848Z</time></trkpt><trkpt lat="45.26556927718068" lon="11.74521327458298"><ele>7.5</ele><time>2026-04-03T12:51:08.848Z</time></trkpt><trkpt lat="45.26569484174641" lon="11.74526883920654"><ele>6.25</ele><time>2026-04-03T12:51:09.847Z</time></trkpt><trkpt lat="45.26581540170305" lon="11.745328937060565"><ele>5.0</ele><time>2026-04-03T12:51:10.847Z</time></trkpt><trkpt lat="45.265953893942886" lon="11.745417897034377"><ele>3.666666666666667</ele><time>2026-04-03T12:51:11.847Z</time></trkpt><trkpt lat="45.2661123267632" lon="11.745500738965678"><ele>2.3333333333333335</ele><time>2026-04-03T12:51:12.847Z</time></trkpt><trkpt lat="45.26627512579768" lon="11.74556428694593"><ele>1.0</ele><time>2026-04-03T12:51:13.847Z</time></trkpt><trkpt lat="45.26643370769448" lon="11.745660671908983"><ele>2.0</ele><time>2026-04-03T12:51:14.847Z</time></trkpt><trkpt lat="45.266594460751655" lon="11.745759417710879"><ele>3.0</ele><time>2026-04-03T12:51:15.847Z</time></trkpt><trkpt lat="45.26675189345476" lon="11.745851089425916"><ele>4.0</ele><time>2026-04-03T12:51:16.847Z</time></trkpt><trkpt lat="45.26691159746762" lon="11.745946005557828"><ele>4.0</ele><time>2026-04-03T12:51:17.847Z</time></trkpt><trkpt lat="45.267062256316855" lon="11.746036435219487"><ele>4.0</ele><time>2026-04-03T12:51:18.847Z</time></trkpt><trkpt lat="45.26721856805765" lon="11.74612415026221"><ele>4.0</ele><time>2026-04-03T12:51:19.847Z</time></trkpt><trkpt lat="45.26737527960374" lon="11.746203922414768"><ele>4.333333333333333</ele><time>2026-04-03T12:51:20.847Z</time></trkpt><trkpt lat="45.26753400356388" lon="11.74629311147909"><ele>4.666666666666667</ele><time>2026-04-03T12:51:21.847Z</time></trkpt><trkpt lat="45.26768163127044" lon="11.746383797054564"><ele>5.0</ele><time>2026-04-03T12:51:22.847Z</time></trkpt><trkpt lat="45.267833330414604" lon="11.746463193309982"><ele>5.0</ele><time>2026-04-03T12:51:23.847Z</time></trkpt><trkpt lat="45.267970847581736" lon="11.746547336221681"><ele>5.0</ele><time>2026-04-03T12:51:24.847Z</time></trkpt><trkpt lat="45.26809832392598" lon="11.746622929352288"><ele>5.0</ele><time>2026-04-03T12:51:25.847Z</time></trkpt><trkpt lat="45.268210239065745" lon="11.746693350506373"><ele>5.0</ele><time>2026-04-03T12:51:26.847Z</time></trkpt><trkpt lat="45.26830895863578" lon="11.74675130317225"><ele>5.166666666666667</ele><time>2026-04-03T12:51:27.847Z</time></trkpt><trkpt lat="45.26838940424506" lon="11.746799409967787"><ele>5.333333333333334</ele><time>2026-04-03T12:51:28.847Z</time></trkpt><trkpt lat="45.26845962238712" lon="11.746836397659417"><ele>5.5</ele><time>2026-04-03T12:51:29.847Z</time></trkpt><trkpt lat="45.268557150237754" lon="11.746904084092778"><ele>5.666666666666667</ele><time>2026-04-03T12:51:31.847Z</time></trkpt><trkpt lat="45.2686434008095" lon="11.746979389246562"><ele>5.833333333333333</ele><time>2026-04-03T12:51:33.847Z</time></trkpt><trkpt lat="45.26869218870965" lon="11.747043797929773"><ele>6.0</ele><time>2026-04-03T12:51:34.847Z</time></trkpt><trkpt lat="45.268802012348765" lon="11.747014242000793"><ele>6.199999999999999</ele><time>2026-04-03T12:51:35.847Z</time></trkpt><trkpt lat="45.26889936536101" lon="11.747021304688458"><ele>6.3999999999999995</ele><time>2026-04-03T12:51:36.847Z</time></trkpt><trkpt lat="45.268998412530834" lon="11.747024415655451"><ele>6.6</ele><time>2026-04-03T12:51:37.847Z</time></trkpt><trkpt lat="45.26909960072378" lon="11.747035677679973"><ele>6.8</ele><time>2026-04-03T12:51:38.847Z</time></trkpt><trkpt lat="45.269190813996055" lon="11.747039260428648"><ele>7.0</ele><time>2026-04-03T12:51:39.847Z</time></trkpt><trkpt lat="45.26928054569454" lon="11.747061547785568"><ele>7.0</ele><time>2026-04-03T12:51:40.847Z</time></trkpt><trkpt lat="45.26937671027559" lon="11.747103920198306"><ele>7.0</ele><time>2026-04-03T12:51:41.847Z</time></trkpt><trkpt lat="45.26944900195808" lon="11.74701390922271"><ele>7.0</ele><time>2026-04-03T12:51:42.847Z</time></trkpt><trkpt lat="45.269559676900045" lon="11.747196092175834"><ele>7.0</ele><time>2026-04-03T12:51:43.847Z</time></trkpt><trkpt lat="45.26964478441667" lon="11.747226213987867"><ele>7.000000000000001</ele><time>2026-04-03T12:51:44.847Z</time></trkpt><trkpt lat="45.26972124665507" lon="11.747242440525662"><ele>7.0</ele><time>2026-04-03T12:51:45.847Z</time></trkpt><trkpt lat="45.26981800824613" lon="11.74727989938194"><ele>7.0</ele><time>2026-04-03T12:51:47.847Z</time></trkpt><trkpt lat="45.26988582593644" lon="11.747308853602231"><ele>7.0</ele><time>2026-04-03T12:51:49.847Z</time></trkpt><trkpt lat="45.26995572696438" lon="11.747330418992277"><ele>7.000000000000001</ele><time>2026-04-03T12:51:51.847Z</time></trkpt><trkpt lat="45.27002464929436" lon="11.747351814130775"><ele>7.0</ele><time>2026-04-03T12:51:53.847Z</time></trkpt><trkpt lat="45.27009734091673" lon="11.747375840738389"><ele>7.333333333333334</ele><time>2026-04-03T12:51:55.847Z</time></trkpt><trkpt lat="45.270185029093106" lon="11.747407862490137"><ele>7.666666666666667</ele><time>2026-04-03T12:51:57.847Z</time></trkpt><trkpt lat="45.270263878881984" lon="11.747438102883534"><ele>8.0</ele><time>2026-04-03T12:51:59.847Z</time></trkpt><trkpt lat="45.27033862451657" lon="11.747465346423104"><ele>8.333333333333334</ele><time>2026-04-03T12:52:02.846Z</time></trkpt><trkpt lat="45.27033470004953" lon="11.74732117472596"><ele>8.666666666666666</ele><time>2026-04-03T12:52:05.846Z</time></trkpt><trkpt lat="45.270313324739156" lon="11.747427545855519"><ele>9.0</ele><time>2026-04-03T12:52:38.846Z</time></trkpt><trkpt lat="45.27022588797599" lon="11.747435508770929"><ele>9.0</ele><time>2026-04-03T12:52:40.846Z</time></trkpt><trkpt lat="45.27015790894092" lon="11.747358120943064"><ele>9.0</ele><time>2026-04-03T12:52:41.846Z</time></trkpt><trkpt lat="45.270080573782714" lon="11.747332426874804"><ele>9.0</ele><time>2026-04-03T12:52:42.846Z</time></trkpt><trkpt lat="45.27000342036577" lon="11.747306793318657"><ele>9.0</ele><time>2026-04-03T12:52:43.846Z</time></trkpt><trkpt lat="45.26993383190927" lon="11.747306169110656"><ele>9.0</ele><time>2026-04-03T12:52:44.846Z</time></trkpt><trkpt lat="45.269842946598935" lon="11.747253477318226"><ele>9.0</ele><time>2026-04-03T12:52:46.846Z</time></trkpt><trkpt lat="45.2697952723557" lon="11.747169191044353"><ele>9.0</ele><time>2026-04-03T12:52:49.846Z</time></trkpt><trkpt lat="45.26984090445467" lon="11.74704784964613"><ele>9.0</ele><time>2026-04-03T12:52:51.846Z</time></trkpt><trkpt lat="45.269903569753474" lon="11.746938876258017"><ele>9.0</ele><time>2026-04-03T12:52:53.846Z</time></trkpt><trkpt lat="45.26994214726432" lon="11.746815045229589"><ele>9.0</ele><time>2026-04-03T12:52:55.846Z</time></trkpt><trkpt lat="45.26996161756824" lon="11.746718507436576"><ele>9.0</ele><time>2026-04-03T12:52:57.846Z</time></trkpt><trkpt lat="45.26996366719626" lon="11.74662114696992"><ele>9.0</ele><time>2026-04-03T12:53:00.846Z</time></trkpt><trkpt lat="45.269948300053926" lon="11.74649702229651"><ele>10.4</ele><time>2026-04-03T12:53:22.845Z</time></trkpt><trkpt lat="45.269979212330135" lon="11.746369118661109"><ele>11.8</ele><time>2026-04-03T12:53:24.845Z</time></trkpt><trkpt lat="45.270034294297005" lon="11.746255215301058"><ele>13.200000000000001</ele><time>2026-04-03T12:53:26.845Z</time></trkpt><trkpt lat="45.27009536825481" lon="11.746129362039477"><ele>14.600000000000001</ele><time>2026-04-03T12:53:28.845Z</time></trkpt><trkpt lat="45.270179192324115" lon="11.74601711009673"><ele>16.0</ele><time>2026-04-03T12:53:30.845Z</time></trkpt><trkpt lat="45.270273535428" lon="11.745916239645116"><ele>16.0</ele><time>2026-04-03T12:53:32.845Z</time></trkpt><trkpt lat="45.27037454891486" lon="11.745821112109505"><ele>16.0</ele><time>2026-04-03T12:53:34.845Z</time></trkpt><trkpt lat="45.27048500532542" lon="11.745743240619538"><ele>16.0</ele><time>2026-04-03T12:53:36.845Z</time></trkpt><trkpt lat="45.270597985846045" lon="11.74566031540302"><ele>16.0</ele><time>2026-04-03T12:53:38.845Z</time></trkpt><trkpt lat="45.270651596324825" lon="11.745612425575807"><ele>16.0</ele><time>2026-04-03T12:53:39.845Z</time></trkpt><trkpt lat="45.270767234510274" lon="11.745529550174902"><ele>17.142857142857142</ele><time>2026-04-03T12:53:41.845Z</time></trkpt><trkpt lat="45.27082270149422" lon="11.74546182005911"><ele>18.285714285714285</ele><time>2026-04-03T12:53:42.845Z</time></trkpt><trkpt lat="45.27089391543738" lon="11.745430726539665"><ele>19.428571428571427</ele><time>2026-04-03T12:53:43.845Z</time></trkpt><trkpt lat="45.27095464253705" lon="11.745378231132866"><ele>20.57142857142857</ele><time>2026-04-03T12:53:44.845Z</time></trkpt><trkpt lat="45.27101358748251" lon="11.745331634475916"><ele>21.714285714285715</ele><time>2026-04-03T12:53:45.845Z</time></trkpt><trkpt lat="45.271077200590305" lon="11.745288472562892"><ele>22.857142857142854</ele><time>2026-04-03T12:53:46.845Z</time></trkpt><trkpt lat="45.2711411902546" lon="11.745245614761048"><ele>24.0</ele><time>2026-04-03T12:53:47.845Z</time></trkpt><trkpt lat="45.271201189915224" lon="11.74520126894825"><ele>23.999999999999996</ele><time>2026-04-03T12:53:48.845Z</time></trkpt><trkpt lat="45.271263805517755" lon="11.745158781159137"><ele>24.0</ele><time>2026-04-03T12:53:49.845Z</time></trkpt><trkpt lat="45.27132332313973" lon="11.745114243268999"><ele>24.0</ele><time>2026-04-03T12:53:50.845Z</time></trkpt><trkpt lat="45.27138348904347" lon="11.74506602237819"><ele>24.0</ele><time>2026-04-03T12:53:51.845Z</time></trkpt><trkpt lat="45.271440200875354" lon="11.745021423051234"><ele>24.0</ele><time>2026-04-03T12:53:52.845Z</time></trkpt><trkpt lat="45.271496949204305" lon="11.74497933847513"><ele>23.999999999999996</ele><time>2026-04-03T12:53:53.845Z</time></trkpt><trkpt lat="45.27155305857682" lon="11.744926446282381"><ele>24.0</ele><time>2026-04-03T12:53:54.845Z</time></trkpt><trkpt lat="45.271651523915516" lon="11.744863706147202"><ele>26.799999999999997</ele><time>2026-04-03T12:53:56.845Z</time></trkpt><trkpt lat="45.27174995954498" lon="11.74478669780288"><ele>29.599999999999998</ele><time>2026-04-03T12:53:58.845Z</time></trkpt><trkpt lat="45.27184389933138" lon="11.744715562878367"><ele>32.4</ele><time>2026-04-03T12:54:00.845Z</time></trkpt><trkpt lat="45.27193754385796" lon="11.744635760411624"><ele>35.199999999999996</ele><time>2026-04-03T12:54:02.845Z</time></trkpt><trkpt lat="45.27203445848047" lon="11.74454916159845"><ele>38.0</ele><time>2026-04-03T12:54:04.844Z</time></trkpt><trkpt lat="45.272126139583406" lon="11.744475740588403"><ele>38.0</ele><time>2026-04-03T12:54:06.844Z</time></trkpt><trkpt lat="45.27222534124134" lon="11.744399834434573"><ele>38.0</ele><time>2026-04-03T12:54:08.844Z</time></trkpt><trkpt lat="45.27233005549582" lon="11.744330150183108"><ele>38.0</ele><time>2026-04-03T12:54:10.844Z</time></trkpt><trkpt lat="45.272387900843526" lon="11.744294401960657"><ele>38.0</ele><time>2026-04-03T12:54:11.844Z</time></trkpt><trkpt lat="45.27249872302258" lon="11.74421081445167"><ele>38.0</ele><time>2026-04-03T12:54:13.844Z</time></trkpt><trkpt lat="45.27260361150906" lon="11.744127203395236"><ele>39.599999999999994</ele><time>2026-04-03T12:54:15.844Z</time></trkpt><trkpt lat="45.27270725802944" lon="11.744040616582984"><ele>41.199999999999996</ele><time>2026-04-03T12:54:17.844Z</time></trkpt><trkpt lat="45.27280622334398" lon="11.743938782193009"><ele>42.8</ele><time>2026-04-03T12:54:19.844Z</time></trkpt><trkpt lat="45.27290753380006" lon="11.743833194911895"><ele>44.4</ele><time>2026-04-03T12:54:21.844Z</time></trkpt><trkpt lat="45.272955280159884" lon="11.743774041385876"><ele>46.0</ele><time>2026-04-03T12:54:22.844Z</time></trkpt><trkpt lat="45.27299615414756" lon="11.743704381358167"><ele>46.0</ele><time>2026-04-03T12:54:23.844Z</time></trkpt><trkpt lat="45.27308621750915" lon="11.743589478308888"><ele>46.0</ele><time>2026-04-03T12:54:25.844Z</time></trkpt><trkpt lat="45.273136467184834" lon="11.743526576118349"><ele>46.0</ele><time>2026-04-03T12:54:26.844Z</time></trkpt><trkpt lat="45.27318619102612" lon="11.743464355320436"><ele>46.0</ele><time>2026-04-03T12:54:27.844Z</time></trkpt><trkpt lat="45.27328169919603" lon="11.743364259544654"><ele>46.0</ele><time>2026-04-03T12:54:29.844Z</time></trkpt><trkpt lat="45.27335050591328" lon="11.743258342036112"><ele>46.599999999999994</ele><time>2026-04-03T12:54:31.844Z</time></trkpt><trkpt lat="45.273419636695344" lon="11.743145248181486"><ele>47.2</ele><time>2026-04-03T12:54:33.844Z</time></trkpt><trkpt lat="45.27349259988152" lon="11.743029225687717"><ele>47.8</ele><time>2026-04-03T12:54:35.844Z</time></trkpt><trkpt lat="45.27354416858297" lon="11.742895084342607"><ele>48.400000000000006</ele><time>2026-04-03T12:54:37.844Z</time></trkpt><trkpt lat="45.27355283447438" lon="11.74277522322567"><ele>49.0</ele><time>2026-04-03T12:54:39.844Z</time></trkpt><trkpt lat="45.27349552439349" lon="11.742707300904916"><ele>49.33333333333333</ele><time>2026-04-03T12:55:02.844Z</time></trkpt><trkpt lat="45.27344159992168" lon="11.74262722834286"><ele>49.666666666666664</ele><time>2026-04-03T12:55:04.844Z</time></trkpt><trkpt lat="45.27340608762242" lon="11.742532021871579"><ele>50.0</ele><time>2026-04-03T12:55:06.844Z</time></trkpt><trkpt lat="45.27339352267028" lon="11.742402970366635"><ele>50.33333333333333</ele><time>2026-04-03T12:55:08.843Z</time></trkpt><trkpt lat="45.27338975016056" lon="11.742256415751424"><ele>50.666666666666664</ele><time>2026-04-03T12:55:10.844Z</time></trkpt><trkpt lat="45.27338776885395" lon="11.742120203912195"><ele>51.0</ele><time>2026-04-03T12:55:12.843Z</time></trkpt><trkpt lat="45.27335494041709" lon="11.741995628612036"><ele>52.599999999999994</ele><time>2026-04-03T12:55:14.843Z</time></trkpt><trkpt lat="45.273302793904534" lon="11.74187090648086"><ele>54.2</ele><time>2026-04-03T12:55:16.843Z</time></trkpt><trkpt lat="45.27323239680868" lon="11.7417376200075"><ele>55.800000000000004</ele><time>2026-04-03T12:55:18.843Z</time></trkpt><trkpt lat="45.273162497369306" lon="11.74161626690737"><ele>57.400000000000006</ele><time>2026-04-03T12:55:20.843Z</time></trkpt><trkpt lat="45.27310388170021" lon="11.741484707444517"><ele>59.0</ele><time>2026-04-03T12:55:22.843Z</time></trkpt><trkpt lat="45.27303417974149" lon="11.741370109802467"><ele>58.0</ele><time>2026-04-03T12:55:24.843Z</time></trkpt><trkpt lat="45.27295059714124" lon="11.741276780794038"><ele>57.00000000000001</ele><time>2026-04-03T12:55:26.843Z</time></trkpt><trkpt lat="45.27285578451389" lon="11.741149304423528"><ele>56.00000000000001</ele><time>2026-04-03T12:55:28.843Z</time></trkpt><trkpt lat="45.27280892398793" lon="11.741088809018253"><ele>55.0</ele><time>2026-04-03T12:55:29.843Z</time></trkpt><trkpt lat="45.272725951086635" lon="11.740969773741075"><ele>54.0</ele><time>2026-04-03T12:55:31.843Z</time></trkpt><trkpt lat="45.27262207168285" lon="11.740864127875307"><ele>54.0</ele><time>2026-04-03T12:55:33.843Z</time></trkpt><trkpt lat="45.27256465609097" lon="11.740807134435183"><ele>54.00000000000001</ele><time>2026-04-03T12:55:34.843Z</time></trkpt><trkpt lat="45.272512575261864" lon="11.740749899888987"><ele>54.00000000000001</ele><time>2026-04-03T12:55:35.843Z</time></trkpt><trkpt lat="45.27243017030421" lon="11.740640329613903"><ele>54.0</ele><time>2026-04-03T12:55:37.843Z</time></trkpt><trkpt lat="45.27234221438309" lon="11.740541072686367"><ele>54.0</ele><time>2026-04-03T12:55:39.843Z</time></trkpt><trkpt lat="45.27227528969093" lon="11.740445332898545"><ele>52.6</ele><time>2026-04-03T12:55:41.843Z</time></trkpt><trkpt lat="45.27221799418332" lon="11.740316760854085"><ele>51.2</ele><time>2026-04-03T12:55:43.843Z</time></trkpt><trkpt lat="45.27219409355928" lon="11.740228205860594"><ele>49.800000000000004</ele><time>2026-04-03T12:55:44.843Z</time></trkpt><trkpt lat="45.272146216529435" lon="11.740099585254448"><ele>48.400000000000006</ele><time>2026-04-03T12:55:46.843Z</time></trkpt><trkpt lat="45.27209346427866" lon="11.739950441557387"><ele>47.0</ele><time>2026-04-03T12:55:48.843Z</time></trkpt><trkpt lat="45.27206133696217" lon="11.73983429745933"><ele>47.0</ele><time>2026-04-03T12:55:50.843Z</time></trkpt><trkpt lat="45.272017020535" lon="11.739680566311458"><ele>47.0</ele><time>2026-04-03T12:55:52.843Z</time></trkpt><trkpt lat="45.27196792395068" lon="11.739527429400129"><ele>47.0</ele><time>2026-04-03T12:55:54.843Z</time></trkpt><trkpt lat="45.27192106584202" lon="11.739384516345885"><ele>47.0</ele><time>2026-04-03T12:55:56.843Z</time></trkpt><trkpt lat="45.271866979084024" lon="11.739224069212666"><ele>49.5</ele><time>2026-04-03T12:55:58.843Z</time></trkpt><trkpt lat="45.27182381752643" lon="11.739080594508525"><ele>52.0</ele><time>2026-04-03T12:56:00.843Z</time></trkpt><trkpt lat="45.271784861975384" lon="11.73892779276776"><ele>54.5</ele><time>2026-04-03T12:56:02.843Z</time></trkpt><trkpt lat="45.271770354544834" lon="11.738764183503728"><ele>57.0</ele><time>2026-04-03T12:56:04.843Z</time></trkpt><trkpt lat="45.27173397978214" lon="11.738616889353974"><ele>58.6</ele><time>2026-04-03T12:56:06.843Z</time></trkpt><trkpt lat="45.27170700035507" lon="11.738474847033725"><ele>60.2</ele><time>2026-04-03T12:56:08.843Z</time></trkpt><trkpt lat="45.271662338508264" lon="11.738327749539263"><ele>61.8</ele><time>2026-04-03T12:56:10.843Z</time></trkpt><trkpt lat="45.27162994389126" lon="11.73815980470581"><ele>63.4</ele><time>2026-04-03T12:56:12.843Z</time></trkpt><trkpt lat="45.271612350271376" lon="11.738005285638286"><ele>65.0</ele><time>2026-04-03T12:56:14.842Z</time></trkpt><trkpt lat="45.271601493000055" lon="11.737915269956456"><ele>65.0</ele><time>2026-04-03T12:56:15.842Z</time></trkpt><trkpt lat="45.271581833905536" lon="11.73775135435756"><ele>65.0</ele><time>2026-04-03T12:56:17.842Z</time></trkpt><trkpt lat="45.27156681059174" lon="11.737662362526947"><ele>65.0</ele><time>2026-04-03T12:56:18.842Z</time></trkpt><trkpt lat="45.27155184269989" lon="11.737575141662688"><ele>65.0</ele><time>2026-04-03T12:56:19.842Z</time></trkpt><trkpt lat="45.27152751168768" lon="11.73740716966334"><ele>65.0</ele><time>2026-04-03T12:56:21.842Z</time></trkpt><trkpt lat="45.27150615906742" lon="11.737243937582999"><ele>67.2</ele><time>2026-04-03T12:56:23.842Z</time></trkpt><trkpt lat="45.27148199342803" lon="11.737095471692946"><ele>69.4</ele><time>2026-04-03T12:56:25.842Z</time></trkpt><trkpt lat="45.27145075542027" lon="11.736942027570825"><ele>71.6</ele><time>2026-04-03T12:56:27.842Z</time></trkpt><trkpt lat="45.27143118563815" lon="11.73679366163118"><ele>73.8</ele><time>2026-04-03T12:56:29.842Z</time></trkpt><trkpt lat="45.27139821968772" lon="11.736647520594788"><ele>76.0</ele><time>2026-04-03T12:56:31.842Z</time></trkpt><trkpt lat="45.2713865852857" lon="11.736501998880835"><ele>72.0</ele><time>2026-04-03T12:56:33.842Z</time></trkpt><trkpt lat="45.2713773826427" lon="11.736379122053838"><ele>68.0</ele><time>2026-04-03T12:56:35.842Z</time></trkpt><trkpt lat="45.27135013037769" lon="11.73623893653446"><ele>63.99999999999999</ele><time>2026-04-03T12:56:37.842Z</time></trkpt><trkpt lat="45.2713535851456" lon="11.736101579293663"><ele>60.0</ele><time>2026-04-03T12:56:39.842Z</time></trkpt><trkpt lat="45.27133783685114" lon="11.735947678308436"><ele>56.0</ele><time>2026-04-03T12:56:41.842Z</time></trkpt><trkpt lat="45.271346144994695" lon="11.735805751074672"><ele>56.0</ele><time>2026-04-03T12:56:43.842Z</time></trkpt><trkpt lat="45.2713419979159" lon="11.735677757811578"><ele>55.99999999999999</ele><time>2026-04-03T12:56:45.842Z</time></trkpt><trkpt lat="45.27135593618061" lon="11.73552907928894"><ele>55.99999999999999</ele><time>2026-04-03T12:56:47.842Z</time></trkpt><trkpt lat="45.271389517017354" lon="11.735369634558888"><ele>56.0</ele><time>2026-04-03T12:56:49.842Z</time></trkpt><trkpt lat="45.271414359233" lon="11.735286702542723"><ele>56.0</ele><time>2026-04-03T12:56:50.842Z</time></trkpt><trkpt lat="45.27147680607794" lon="11.735151584733067"><ele>60.8</ele><time>2026-04-03T12:56:52.842Z</time></trkpt><trkpt lat="45.27151905695926" lon="11.73507001509628"><ele>65.6</ele><time>2026-04-03T12:56:53.842Z</time></trkpt><trkpt lat="45.271592877723194" lon="11.734944341671778"><ele>70.4</ele><time>2026-04-03T12:56:55.842Z</time></trkpt><trkpt lat="45.2716625709292" lon="11.734810477878106"><ele>75.2</ele><time>2026-04-03T12:56:57.842Z</time></trkpt><trkpt lat="45.27174039385884" lon="11.734701390411292"><ele>80.0</ele><time>2026-04-03T12:56:59.842Z</time></trkpt><trkpt lat="45.271814261184254" lon="11.734578301643266"><ele>80.0</ele><time>2026-04-03T12:57:01.842Z</time></trkpt><trkpt lat="45.27183267339209" lon="11.73448762630397"><ele>80.0</ele><time>2026-04-03T12:57:02.842Z</time></trkpt><trkpt lat="45.271834053433906" lon="11.734380987545249"><ele>80.0</ele><time>2026-04-03T12:57:03.842Z</time></trkpt><trkpt lat="45.271825258842554" lon="11.734277079943528"><ele>80.0</ele><time>2026-04-03T12:57:04.842Z</time></trkpt><trkpt lat="45.2717794315787" lon="11.734106355372841"><ele>80.0</ele><time>2026-04-03T12:57:06.842Z</time></trkpt><trkpt lat="45.27176602992025" lon="11.734015458973202"><ele>80.0</ele><time>2026-04-03T12:57:07.842Z</time></trkpt><trkpt lat="45.27177642450539" lon="11.733851795231002"><ele>78.8</ele><time>2026-04-03T12:57:09.842Z</time></trkpt><trkpt lat="45.27182847319797" lon="11.733716831151073"><ele>77.6</ele><time>2026-04-03T12:57:11.842Z</time></trkpt><trkpt lat="45.27189625433518" lon="11.733584016750243"><ele>76.4</ele><time>2026-04-03T12:57:13.841Z</time></trkpt><trkpt lat="45.27196280461994" lon="11.73346068982525"><ele>75.2</ele><time>2026-04-03T12:57:15.841Z</time></trkpt><trkpt lat="45.27202676627749" lon="11.733335630841482"><ele>74.0</ele><time>2026-04-03T12:57:17.841Z</time></trkpt><trkpt lat="45.272064586106936" lon="11.733262995055632"><ele>73.2</ele><time>2026-04-03T12:57:18.841Z</time></trkpt><trkpt lat="45.27214837886717" lon="11.733135993277122"><ele>72.4</ele><time>2026-04-03T12:57:20.841Z</time></trkpt><trkpt lat="45.272225804668786" lon="11.733034830615022"><ele>71.6</ele><time>2026-04-03T12:57:22.841Z</time></trkpt><trkpt lat="45.27230565980147" lon="11.732947347818197"><ele>70.8</ele><time>2026-04-03T12:57:24.841Z</time></trkpt><trkpt lat="45.27237526929493" lon="11.732844245902616"><ele>70.0</ele><time>2026-04-03T12:57:26.841Z</time></trkpt><trkpt lat="45.27242142691616" lon="11.732777492187578"><ele>70.5</ele><time>2026-04-03T12:57:27.841Z</time></trkpt><trkpt lat="45.27247176945233" lon="11.732702566213003"><ele>71.0</ele><time>2026-04-03T12:57:28.841Z</time></trkpt><trkpt lat="45.2725176260489" lon="11.732625821060278"><ele>71.5</ele><time>2026-04-03T12:57:29.841Z</time></trkpt><trkpt lat="45.27256144348119" lon="11.73256123460624"><ele>72.0</ele><time>2026-04-03T12:57:30.841Z</time></trkpt><trkpt lat="45.272628026986595" lon="11.732491667742893"><ele>72.5</ele><time>2026-04-03T12:57:32.841Z</time></trkpt><trkpt lat="45.272706612369866" lon="11.732466615213937"><ele>73.0</ele><time>2026-04-03T12:57:56.84Z</time></trkpt><trkpt lat="45.27277274331129" lon="11.732613516548348"><ele>73.0</ele><time>2026-04-03T12:57:58.84Z</time></trkpt><trkpt lat="45.27283571434699" lon="11.732686802219863"><ele>73.0</ele><time>2026-04-03T12:57:59.84Z</time></trkpt><trkpt lat="45.27288944115721" lon="11.73274520396105"><ele>73.0</ele><time>2026-04-03T12:58:00.84Z</time></trkpt><trkpt lat="45.2729607069836" lon="11.732781190637464"><ele>73.0</ele><time>2026-04-03T12:58:01.84Z</time></trkpt><trkpt lat="45.27309164866668" lon="11.732834685989754"><ele>73.0</ele><time>2026-04-03T12:58:03.84Z</time></trkpt><trkpt lat="45.273164042689295" lon="11.732863924555883"><ele>73.0</ele><time>2026-04-03T12:58:04.84Z</time></trkpt><trkpt lat="45.27324439957423" lon="11.732916816584694"><ele>75.0</ele><time>2026-04-03T12:58:05.84Z</time></trkpt><trkpt lat="45.27333049207588" lon="11.732994942773182"><ele>77.0</ele><time>2026-04-03T12:58:06.84Z</time></trkpt><trkpt lat="45.27340921891352" lon="11.733080865127466"><ele>79.0</ele><time>2026-04-03T12:58:07.84Z</time></trkpt><trkpt lat="45.273496974542255" lon="11.733176064340562"><ele>81.0</ele><time>2026-04-03T12:58:08.84Z</time></trkpt><trkpt lat="45.27357749359361" lon="11.733264382267963"><ele>83.0</ele><time>2026-04-03T12:58:09.84Z</time></trkpt><trkpt lat="45.27366803518006" lon="11.733360744651993"><ele>83.0</ele><time>2026-04-03T12:58:10.84Z</time></trkpt><trkpt lat="45.27375614239341" lon="11.733450410553226"><ele>83.0</ele><time>2026-04-03T12:58:11.84Z</time></trkpt><trkpt lat="45.27385488369848" lon="11.733555417624224"><ele>83.0</ele><time>2026-04-03T12:58:12.84Z</time></trkpt><trkpt lat="45.273950669766435" lon="11.733664941424234"><ele>83.0</ele><time>2026-04-03T12:58:13.84Z</time></trkpt><trkpt lat="45.27404094063916" lon="11.733786297739895"><ele>82.0</ele><time>2026-04-03T12:58:14.84Z</time></trkpt><trkpt lat="45.27412539614723" lon="11.733900346070863"><ele>81.0</ele><time>2026-04-03T12:58:15.84Z</time></trkpt><trkpt lat="45.274214525146085" lon="11.7340149172428"><ele>80.0</ele><time>2026-04-03T12:58:16.84Z</time></trkpt><trkpt lat="45.274308006689466" lon="11.734122872129495"><ele>79.0</ele><time>2026-04-03T12:58:17.84Z</time></trkpt><trkpt lat="45.274399440653355" lon="11.73423005652516"><ele>79.0</ele><time>2026-04-03T12:58:18.84Z</time></trkpt><trkpt lat="45.27448486330201" lon="11.734343751650227"><ele>79.0</ele><time>2026-04-03T12:58:19.84Z</time></trkpt><trkpt lat="45.27456594869761" lon="11.734453300348578"><ele>79.0</ele><time>2026-04-03T12:58:20.84Z</time></trkpt><trkpt lat="45.27463485669242" lon="11.734588518792838"><ele>79.0</ele><time>2026-04-03T12:58:21.84Z</time></trkpt><trkpt lat="45.27470778745087" lon="11.734709449827763"><ele>76.60000000000001</ele><time>2026-04-03T12:58:22.84Z</time></trkpt><trkpt lat="45.27477324325347" lon="11.734828581457363"><ele>74.2</ele><time>2026-04-03T12:58:23.84Z</time></trkpt><trkpt lat="45.27483546544545" lon="11.73494449956848"><ele>71.80000000000001</ele><time>2026-04-03T12:58:24.84Z</time></trkpt><trkpt lat="45.274916513111464" lon="11.735033946817909"><ele>69.4</ele><time>2026-04-03T12:58:25.84Z</time></trkpt><trkpt lat="45.27499239245536" lon="11.735113150294442"><ele>67.0</ele><time>2026-04-03T12:58:26.84Z</time></trkpt><trkpt lat="45.2750864534341" lon="11.735197154448958"><ele>67.5</ele><time>2026-04-03T12:58:27.84Z</time></trkpt><trkpt lat="45.27519937677698" lon="11.735253659697253"><ele>68.0</ele><time>2026-04-03T12:58:28.84Z</time></trkpt><trkpt lat="45.27530195800361" lon="11.735333514265209"><ele>68.5</ele><time>2026-04-03T12:58:29.84Z</time></trkpt><trkpt lat="45.27540549565662" lon="11.735418870473179"><ele>69.0</ele><time>2026-04-03T12:58:30.84Z</time></trkpt><trkpt lat="45.27552252231275" lon="11.735536622591164"><ele>61.666666666666664</ele><time>2026-04-03T12:58:31.84Z</time></trkpt><trkpt lat="45.27563594914513" lon="11.73566381810657"><ele>54.33333333333333</ele><time>2026-04-03T12:58:32.84Z</time></trkpt><trkpt lat="45.27576324747021" lon="11.735798429969861"><ele>47.0</ele><time>2026-04-03T12:58:33.84Z</time></trkpt><trkpt lat="45.27589065959908" lon="11.735943942683761"><ele>42.666666666666664</ele><time>2026-04-03T12:58:34.84Z</time></trkpt><trkpt lat="45.27601553079982" lon="11.736095246427716"><ele>38.333333333333336</ele><time>2026-04-03T12:58:35.84Z</time></trkpt><trkpt lat="45.27614908545247" lon="11.736250561066113"><ele>34.0</ele><time>2026-04-03T12:58:36.84Z</time></trkpt><trkpt lat="45.2762937416786" lon="11.736400265048678"><ele>34.0</ele><time>2026-04-03T12:58:37.84Z</time></trkpt><trkpt lat="45.27641829621597" lon="11.736571999397311"><ele>34.0</ele><time>2026-04-03T12:58:38.84Z</time></trkpt><trkpt lat="45.27656041410245" lon="11.736710814002995"><ele>34.0</ele><time>2026-04-03T12:58:39.84Z</time></trkpt><trkpt lat="45.276693131828935" lon="11.736867072460644"><ele>30.666666666666668</ele><time>2026-04-03T12:58:40.84Z</time></trkpt><trkpt lat="45.27683089454399" lon="11.737010543913406"><ele>27.333333333333336</ele><time>2026-04-03T12:58:41.84Z</time></trkpt><trkpt lat="45.27697289708371" lon="11.737136963390535"><ele>24.0</ele><time>2026-04-03T12:58:42.84Z</time></trkpt><trkpt lat="45.27711253611843" lon="11.737247939687544"><ele>24.0</ele><time>2026-04-03T12:58:43.84Z</time></trkpt><trkpt lat="45.27724884695767" lon="11.737345926057"><ele>24.0</ele><time>2026-04-03T12:58:44.84Z</time></trkpt><trkpt lat="45.27737468988405" lon="11.73742677123615"><ele>24.0</ele><time>2026-04-03T12:58:45.84Z</time></trkpt><trkpt lat="45.277510561713044" lon="11.737481865177351"><ele>24.0</ele><time>2026-04-03T12:58:46.84Z</time></trkpt><trkpt lat="45.27765510546983" lon="11.737515327523678"><ele>24.5</ele><time>2026-04-03T12:58:47.84Z</time></trkpt><trkpt lat="45.27779794062676" lon="11.737543692354933"><ele>25.0</ele><time>2026-04-03T12:58:48.84Z</time></trkpt><trkpt lat="45.277943949259615" lon="11.73756076525143"><ele>25.5</ele><time>2026-04-03T12:58:49.84Z</time></trkpt><trkpt lat="45.278092067474034" lon="11.737579886254261"><ele>26.0</ele><time>2026-04-03T12:58:50.84Z</time></trkpt><trkpt lat="45.278234683518725" lon="11.737610008281608"><ele>27.0</ele><time>2026-04-03T12:58:51.84Z</time></trkpt><trkpt lat="45.278376765836455" lon="11.737657909249782"><ele>28.0</ele><time>2026-04-03T12:58:52.84Z</time></trkpt><trkpt lat="45.278512102271584" lon="11.73770556472363"><ele>29.0</ele><time>2026-04-03T12:58:53.84Z</time></trkpt><trkpt lat="45.27864383236213" lon="11.737757696889478"><ele>30.0</ele><time>2026-04-03T12:58:54.84Z</time></trkpt><trkpt lat="45.27876843126931" lon="11.73783414580798"><ele>29.0</ele><time>2026-04-03T12:58:55.84Z</time></trkpt><trkpt lat="45.27889165193494" lon="11.737930596282425"><ele>28.0</ele><time>2026-04-03T12:58:56.84Z</time></trkpt><trkpt lat="45.279008400291595" lon="11.738054102661954"><ele>27.0</ele><time>2026-04-03T12:58:57.84Z</time></trkpt><trkpt lat="45.27912225714011" lon="11.738176127486796"><ele>26.0</ele><time>2026-04-03T12:58:58.84Z</time></trkpt><trkpt lat="45.27923901111824" lon="11.7383032742072"><ele>26.0</ele><time>2026-04-03T12:58:59.84Z</time></trkpt><trkpt lat="45.279353084469584" lon="11.73843337899988"><ele>26.0</ele><time>2026-04-03T12:59:00.84Z</time></trkpt><trkpt lat="45.27945433809707" lon="11.738538426092529"><ele>26.0</ele><time>2026-04-03T12:59:01.84Z</time></trkpt><trkpt lat="45.279550635321655" lon="11.738630719106833"><ele>26.0</ele><time>2026-04-03T12:59:02.84Z</time></trkpt><trkpt lat="45.279647380847656" lon="11.738701680778975"><ele>25.25</ele><time>2026-04-03T12:59:03.84Z</time></trkpt><trkpt lat="45.2797505745846" lon="11.738771938451247"><ele>24.5</ele><time>2026-04-03T12:59:04.84Z</time></trkpt><trkpt lat="45.27986186204067" lon="11.738855321344166"><ele>23.75</ele><time>2026-04-03T12:59:05.84Z</time></trkpt><trkpt lat="45.2799791079156" lon="11.7389575973575"><ele>23.0</ele><time>2026-04-03T12:59:06.84Z</time></trkpt><trkpt lat="45.28009519092177" lon="11.739066998412946"><ele>23.0</ele><time>2026-04-03T12:59:07.84Z</time></trkpt><trkpt lat="45.28020418091444" lon="11.739167455223363"><ele>23.0</ele><time>2026-04-03T12:59:08.84Z</time></trkpt><trkpt lat="45.28030461720542" lon="11.73926798331985"><ele>23.0</ele><time>2026-04-03T12:59:09.839Z</time></trkpt><trkpt lat="45.28039089611287" lon="11.739370568673138"><ele>23.0</ele><time>2026-04-03T12:59:10.839Z</time></trkpt><trkpt lat="45.28047273945344" lon="11.739459237460496"><ele>23.4</ele><time>2026-04-03T12:59:11.839Z</time></trkpt><trkpt lat="45.28052407235133" lon="11.739512234817655"><ele>23.799999999999997</ele><time>2026-04-03T12:59:12.839Z</time></trkpt><trkpt lat="45.28058347482863" lon="11.739579901504403"><ele>24.2</ele><time>2026-04-03T12:59:14.839Z</time></trkpt><trkpt lat="45.28061666260407" lon="11.739676901818985"><ele>24.6</ele><time>2026-04-03T12:59:17.839Z</time></trkpt><trkpt lat="45.28069052011381" lon="11.73984760286938"><ele>25.0</ele><time>2026-04-03T12:59:19.839Z</time></trkpt><trkpt lat="45.280763779029044" lon="11.739940064813675"><ele>25.0</ele><time>2026-04-03T12:59:20.838Z</time></trkpt><trkpt lat="45.280847985933136" lon="11.740022632301905"><ele>25.0</ele><time>2026-04-03T12:59:21.838Z</time></trkpt><trkpt lat="45.28094926173922" lon="11.740077367920524"><ele>25.0</ele><time>2026-04-03T12:59:22.839Z</time></trkpt><trkpt lat="45.28106476206432" lon="11.740078706364383"><ele>25.0</ele><time>2026-04-03T12:59:23.839Z</time></trkpt><trkpt lat="45.28115703724942" lon="11.740015364493138"><ele>25.0</ele><time>2026-04-03T12:59:24.839Z</time></trkpt><trkpt lat="45.28126989501239" lon="11.739967744459241"><ele>25.0</ele><time>2026-04-03T12:59:25.839Z</time></trkpt><trkpt lat="45.28137219106132" lon="11.739929728172012"><ele>25.0</ele><time>2026-04-03T12:59:26.838Z</time></trkpt><trkpt lat="45.28146900783195" lon="11.739871378297382"><ele>25.0</ele><time>2026-04-03T12:59:27.838Z</time></trkpt><trkpt lat="45.28157488841591" lon="11.739786634486174"><ele>25.0</ele><time>2026-04-03T12:59:28.838Z</time></trkpt><trkpt lat="45.281697514733565" lon="11.739682137509929"><ele>22.666666666666668</ele><time>2026-04-03T12:59:29.839Z</time></trkpt><trkpt lat="45.28181527236017" lon="11.739567969308657"><ele>20.333333333333336</ele><time>2026-04-03T12:59:30.839Z</time></trkpt><trkpt lat="45.28194976988292" lon="11.739455893889936"><ele>18.0</ele><time>2026-04-03T12:59:31.839Z</time></trkpt><trkpt lat="45.28208211017639" lon="11.739341806994828"><ele>19.0</ele><time>2026-04-03T12:59:32.838Z</time></trkpt><trkpt lat="45.28222739269577" lon="11.739241116201239"><ele>20.0</ele><time>2026-04-03T12:59:33.838Z</time></trkpt><trkpt lat="45.28238259195977" lon="11.7391424759257"><ele>21.0</ele><time>2026-04-03T12:59:34.838Z</time></trkpt><trkpt lat="45.28254100402394" lon="11.739043756499942"><ele>21.0</ele><time>2026-04-03T12:59:35.838Z</time></trkpt><trkpt lat="45.28269338325662" lon="11.73894437253917"><ele>21.0</ele><time>2026-04-03T12:59:36.838Z</time></trkpt><trkpt lat="45.28284591534974" lon="11.73886049367557"><ele>21.0</ele><time>2026-04-03T12:59:37.838Z</time></trkpt><trkpt lat="45.282994353005066" lon="11.738788409751303"><ele>19.666666666666668</ele><time>2026-04-03T12:59:38.838Z</time></trkpt><trkpt lat="45.28314701075233" lon="11.73872161088069"><ele>18.333333333333336</ele><time>2026-04-03T12:59:39.838Z</time></trkpt><trkpt lat="45.28330250962545" lon="11.738659721696788"><ele>17.0</ele><time>2026-04-03T12:59:40.838Z</time></trkpt><trkpt lat="45.28345425121281" lon="11.738602295757838"><ele>20.5</ele><time>2026-04-03T12:59:41.838Z</time></trkpt><trkpt lat="45.28359401246308" lon="11.73855028915194"><ele>24.0</ele><time>2026-04-03T12:59:42.838Z</time></trkpt><trkpt lat="45.28372366524364" lon="11.738505657683142"><ele>27.5</ele><time>2026-04-03T12:59:43.838Z</time></trkpt><trkpt lat="45.28383923922627" lon="11.738447578147403"><ele>31.0</ele><time>2026-04-03T12:59:44.838Z</time></trkpt><trkpt lat="45.283957735015015" lon="11.738407705498021"><ele>31.0</ele><time>2026-04-03T12:59:45.838Z</time></trkpt><trkpt lat="45.284070219284345" lon="11.738325579705196"><ele>31.0</ele><time>2026-04-03T12:59:46.838Z</time></trkpt><trkpt lat="45.28417570535217" lon="11.73823510931169"><ele>31.0</ele><time>2026-04-03T12:59:47.838Z</time></trkpt><trkpt lat="45.28429622072308" lon="11.738124892285704"><ele>31.0</ele><time>2026-04-03T12:59:48.838Z</time></trkpt><trkpt lat="45.28438272310254" lon="11.738022495954654"><ele>31.0</ele><time>2026-04-03T12:59:49.838Z</time></trkpt><trkpt lat="45.28446732964852" lon="11.737907307804784"><ele>31.0</ele><time>2026-04-03T12:59:50.838Z</time></trkpt><trkpt lat="45.28454276788763" lon="11.737762806584712"><ele>31.0</ele><time>2026-04-03T12:59:51.838Z</time></trkpt><trkpt lat="45.284593074597524" lon="11.737576551197524"><ele>31.0</ele><time>2026-04-03T12:59:52.838Z</time></trkpt><trkpt lat="45.284613815388276" lon="11.737366108276165"><ele>31.75</ele><time>2026-04-03T12:59:53.838Z</time></trkpt><trkpt lat="45.28460893007224" lon="11.737155002226478"><ele>32.5</ele><time>2026-04-03T12:59:54.838Z</time></trkpt><trkpt lat="45.28458650383996" lon="11.736948836671147"><ele>33.25</ele><time>2026-04-03T12:59:55.838Z</time></trkpt><trkpt lat="45.28455580894703" lon="11.736748675338116"><ele>34.0</ele><time>2026-04-03T12:59:56.838Z</time></trkpt><trkpt lat="45.28450747015624" lon="11.736555186367896"><ele>32.25</ele><time>2026-04-03T12:59:57.837Z</time></trkpt><trkpt lat="45.28445118710601" lon="11.736364863101587"><ele>30.5</ele><time>2026-04-03T12:59:58.837Z</time></trkpt><trkpt lat="45.28440227496781" lon="11.736172123975221"><ele>28.75</ele><time>2026-04-03T12:59:59.837Z</time></trkpt><trkpt lat="45.28437234185662" lon="11.735966368585911"><ele>27.0</ele><time>2026-04-03T13:00:00.837Z</time></trkpt><trkpt lat="45.28437005998751" lon="11.735757451555752"><ele>25.0</ele><time>2026-04-03T13:00:01.837Z</time></trkpt><trkpt lat="45.28438884438686" lon="11.735545193808377"><ele>23.0</ele><time>2026-04-03T13:00:02.837Z</time></trkpt><trkpt lat="45.284424495544904" lon="11.735336862242189"><ele>21.0</ele><time>2026-04-03T13:00:03.837Z</time></trkpt><trkpt lat="45.28447953615293" lon="11.735137016652772"><ele>21.0</ele><time>2026-04-03T13:00:04.837Z</time></trkpt><trkpt lat="45.2845350619147" lon="11.734935307931556"><ele>21.0</ele><time>2026-04-03T13:00:05.837Z</time></trkpt><trkpt lat="45.28459087036589" lon="11.734734679797416"><ele>21.0</ele><time>2026-04-03T13:00:06.837Z</time></trkpt><trkpt lat="45.2846507889277" lon="11.734546615436228"><ele>21.0</ele><time>2026-04-03T13:00:07.837Z</time></trkpt><trkpt lat="45.284716126383394" lon="11.734383937374758"><ele>19.25</ele><time>2026-04-03T13:00:08.837Z</time></trkpt><trkpt lat="45.28478711323171" lon="11.734231785657144"><ele>17.5</ele><time>2026-04-03T13:00:09.837Z</time></trkpt><trkpt lat="45.284869249540805" lon="11.734112158598414"><ele>15.75</ele><time>2026-04-03T13:00:10.837Z</time></trkpt><trkpt lat="45.28497715140187" lon="11.734043568377333"><ele>14.0</ele><time>2026-04-03T13:00:11.837Z</time></trkpt><trkpt lat="45.28508841191835" lon="11.733945303580397"><ele>14.0</ele><time>2026-04-03T13:00:12.837Z</time></trkpt><trkpt lat="45.28521182467302" lon="11.733868690639467"><ele>14.0</ele><time>2026-04-03T13:00:13.837Z</time></trkpt><trkpt lat="45.285345628435834" lon="11.733813309340404"><ele>14.0</ele><time>2026-04-03T13:00:14.837Z</time></trkpt><trkpt lat="45.285487067214355" lon="11.733783186067493"><ele>14.0</ele><time>2026-04-03T13:00:15.837Z</time></trkpt><trkpt lat="45.28563576161791" lon="11.733776993166655"><ele>14.0</ele><time>2026-04-03T13:00:16.837Z</time></trkpt><trkpt lat="45.285786165453146" lon="11.733780440689426"><ele>14.0</ele><time>2026-04-03T13:00:17.837Z</time></trkpt><trkpt lat="45.28593655949072" lon="11.733788334098065"><ele>14.0</ele><time>2026-04-03T13:00:18.837Z</time></trkpt><trkpt lat="45.286088614948824" lon="11.733792196422268"><ele>14.0</ele><time>2026-04-03T13:00:19.837Z</time></trkpt><trkpt lat="45.28623389822961" lon="11.733799957653538"><ele>14.0</ele><time>2026-04-03T13:00:20.837Z</time></trkpt><trkpt lat="45.286391685201636" lon="11.733801050361805"><ele>14.0</ele><time>2026-04-03T13:00:21.837Z</time></trkpt><trkpt lat="45.2865506410295" lon="11.733801074166808"><ele>13.75</ele><time>2026-04-03T13:00:22.837Z</time></trkpt><trkpt lat="45.28669978070932" lon="11.733803701088311"><ele>13.5</ele><time>2026-04-03T13:00:23.837Z</time></trkpt><trkpt lat="45.28684790598526" lon="11.733805940280758"><ele>13.25</ele><time>2026-04-03T13:00:24.837Z</time></trkpt><trkpt lat="45.2869987022983" lon="11.733815154876005"><ele>13.0</ele><time>2026-04-03T13:00:25.837Z</time></trkpt><trkpt lat="45.28713851483595" lon="11.73382355554703"><ele>13.0</ele><time>2026-04-03T13:00:26.837Z</time></trkpt><trkpt lat="45.28726921411993" lon="11.73382902844728"><ele>13.0</ele><time>2026-04-03T13:00:27.837Z</time></trkpt><trkpt lat="45.28738810467324" lon="11.733836971289483"><ele>13.0</ele><time>2026-04-03T13:00:28.837Z</time></trkpt><trkpt lat="45.28749639925114" lon="11.733843305374615"><ele>13.0</ele><time>2026-04-03T13:00:29.837Z</time></trkpt><trkpt lat="45.287588068790605" lon="11.733850934732112"><ele>12.999999999999998</ele><time>2026-04-03T13:00:30.837Z</time></trkpt><trkpt lat="45.28767017798775" lon="11.733859109287277"><ele>13.0</ele><time>2026-04-03T13:00:31.837Z</time></trkpt><trkpt lat="45.28774557902802" lon="11.733860426941874"><ele>13.0</ele><time>2026-04-03T13:00:32.837Z</time></trkpt><trkpt lat="45.28782221971012" lon="11.733868332567326"><ele>13.0</ele><time>2026-04-03T13:00:33.837Z</time></trkpt><trkpt lat="45.28789610152798" lon="11.733880761232005"><ele>12.999999999999998</ele><time>2026-04-03T13:00:34.837Z</time></trkpt><trkpt lat="45.28796360482058" lon="11.733894470700337"><ele>13.0</ele><time>2026-04-03T13:00:35.837Z</time></trkpt><trkpt lat="45.288060978228685" lon="11.73390845158527"><ele>13.600000000000001</ele><time>2026-04-03T13:00:37.837Z</time></trkpt><trkpt lat="45.28811624721845" lon="11.733791607157567"><ele>14.200000000000001</ele><time>2026-04-03T13:00:41.837Z</time></trkpt><trkpt lat="45.28810416635515" lon="11.733684164515203"><ele>14.8</ele><time>2026-04-03T13:00:47.837Z</time></trkpt><trkpt lat="45.28807926933864" lon="11.733502682903211"><ele>15.4</ele><time>2026-04-03T13:00:49.837Z</time></trkpt><trkpt lat="45.288067590236516" lon="11.733392279324121"><ele>16.0</ele><time>2026-04-03T13:00:50.837Z</time></trkpt><trkpt lat="45.28804558306293" lon="11.733266038731081"><ele>16.0</ele><time>2026-04-03T13:00:51.837Z</time></trkpt><trkpt lat="45.28802769112429" lon="11.733137192338306"><ele>16.0</ele><time>2026-04-03T13:00:52.837Z</time></trkpt><trkpt lat="45.28800803942278" lon="11.732992330627338"><ele>16.0</ele><time>2026-04-03T13:00:53.837Z</time></trkpt><trkpt lat="45.28799176153978" lon="11.732851011029965"><ele>16.0</ele><time>2026-04-03T13:00:54.837Z</time></trkpt><trkpt lat="45.28798130532735" lon="11.732729821059447"><ele>16.0</ele><time>2026-04-03T13:00:55.837Z</time></trkpt><trkpt lat="45.287970553035805" lon="11.732628467205652"><ele>15.999999999999998</ele><time>2026-04-03T13:00:56.837Z</time></trkpt><trkpt lat="45.287967307415194" lon="11.732533349510573"><ele>16.0</ele><time>2026-04-03T13:00:57.837Z</time></trkpt><trkpt lat="45.28797057874507" lon="11.732439408268174"><ele>16.0</ele><time>2026-04-03T13:00:58.837Z</time></trkpt><trkpt lat="45.28797033130103" lon="11.73234390262369"><ele>16.0</ele><time>2026-04-03T13:00:59.837Z</time></trkpt><trkpt lat="45.28798040728406" lon="11.73217689864933"><ele>15.999999999999998</ele><time>2026-04-03T13:01:01.837Z</time></trkpt><trkpt lat="45.28798560825141" lon="11.732083609929974"><ele>16.0</ele><time>2026-04-03T13:01:03.837Z</time></trkpt><trkpt lat="45.287986642849134" lon="11.73198201053854"><ele>15.999999999999998</ele><time>2026-04-03T13:01:06.837Z</time></trkpt><trkpt lat="45.28797934732132" lon="11.732107658066802"><ele>16.0</ele><time>2026-04-03T13:01:21.836Z</time></trkpt><trkpt lat="45.28798446911565" lon="11.732210870163135"><ele>16.0</ele><time>2026-04-03T13:01:22.836Z</time></trkpt><trkpt lat="45.28797640613807" lon="11.732324167223604"><ele>16.0</ele><time>2026-04-03T13:01:23.836Z</time></trkpt><trkpt lat="45.28796720711352" lon="11.732436018437793"><ele>15.999999999999998</ele><time>2026-04-03T13:01:24.836Z</time></trkpt><trkpt lat="45.28796845603438" lon="11.732576699869044"><ele>16.0</ele><time>2026-04-03T13:01:25.837Z</time></trkpt><trkpt lat="45.28794112334908" lon="11.732734490964942"><ele>16.0</ele><time>2026-04-03T13:01:26.836Z</time></trkpt><trkpt lat="45.287957327556576" lon="11.73290363178699"><ele>16.0</ele><time>2026-04-03T13:01:27.836Z</time></trkpt><trkpt lat="45.287979252011226" lon="11.733077361296285"><ele>16.0</ele><time>2026-04-03T13:01:28.837Z</time></trkpt><trkpt lat="45.28799879722947" lon="11.733234322635408"><ele>16.0</ele><time>2026-04-03T13:01:29.836Z</time></trkpt><trkpt lat="45.288018596595684" lon="11.733380439884805"><ele>15.999999999999998</ele><time>2026-04-03T13:01:30.836Z</time></trkpt><trkpt lat="45.28804126323056" lon="11.733516472959206"><ele>16.0</ele><time>2026-04-03T13:01:31.836Z</time></trkpt><trkpt lat="45.28805979520715" lon="11.73362668807839"><ele>16.0</ele><time>2026-04-03T13:01:32.836Z</time></trkpt><trkpt lat="45.288069500078606" lon="11.73371925230098"><ele>16.0</ele><time>2026-04-03T13:01:33.836Z</time></trkpt><trkpt lat="45.28807528599415" lon="11.733823429995526"><ele>15.999999999999998</ele><time>2026-04-03T13:01:35.836Z</time></trkpt><trkpt lat="45.2880719033927" lon="11.733930184977995"><ele>16.0</ele><time>2026-04-03T13:01:56.836Z</time></trkpt><trkpt lat="45.28825221358551" lon="11.733975174192052"><ele>16.0</ele><time>2026-04-03T13:01:58.836Z</time></trkpt><trkpt lat="45.28831550689528" lon="11.733984688886759"><ele>16.0</ele><time>2026-04-03T13:01:59.836Z</time></trkpt><trkpt lat="45.28840763094367" lon="11.734008018006266"><ele>16.0</ele><time>2026-04-03T13:02:01.836Z</time></trkpt><trkpt lat="45.288450776284385" lon="11.733873444721047"><ele>16.0</ele><time>2026-04-03T13:02:04.836Z</time></trkpt><trkpt lat="45.28842955849555" lon="11.733688279197164"><ele>16.0</ele><time>2026-04-03T13:02:06.836Z</time></trkpt><trkpt lat="45.28842433124085" lon="11.733592229214516"><ele>17.200000000000003</ele><time>2026-04-03T13:02:07.836Z</time></trkpt><trkpt lat="45.288414137121336" lon="11.733500975632722"><ele>18.400000000000002</ele><time>2026-04-03T13:02:08.836Z</time></trkpt><trkpt lat="45.28838780981156" lon="11.733323489744219"><ele>19.6</ele><time>2026-04-03T13:02:10.836Z</time></trkpt><trkpt lat="45.28837073447786" lon="11.733148898466313"><ele>20.8</ele><time>2026-04-03T13:02:12.835Z</time></trkpt><trkpt lat="45.28836617260231" lon="11.733049136214296"><ele>22.0</ele><time>2026-04-03T13:02:13.835Z</time></trkpt><trkpt lat="45.2883764921666" lon="11.73294293587754"><ele>22.0</ele><time>2026-04-03T13:02:14.835Z</time></trkpt><trkpt lat="45.288389642785724" lon="11.73284263530342"><ele>22.0</ele><time>2026-04-03T13:02:15.835Z</time></trkpt><trkpt lat="45.28841361967435" lon="11.73274950147158"><ele>22.0</ele><time>2026-04-03T13:02:16.835Z</time></trkpt><trkpt lat="45.288445595479935" lon="11.732664294645511"><ele>22.0</ele><time>2026-04-03T13:02:17.835Z</time></trkpt><trkpt lat="45.28848481417394" lon="11.732584047964146"><ele>22.0</ele><time>2026-04-03T13:02:18.835Z</time></trkpt><trkpt lat="45.28853879579984" lon="11.732504532230386"><ele>22.0</ele><time>2026-04-03T13:02:19.835Z</time></trkpt><trkpt lat="45.288602442145574" lon="11.732407839037313"><ele>22.0</ele><time>2026-04-03T13:02:20.835Z</time></trkpt><trkpt lat="45.28865334444956" lon="11.732311241227611"><ele>22.6</ele><time>2026-04-03T13:02:21.835Z</time></trkpt><trkpt lat="45.28869293484281" lon="11.73218069604917"><ele>23.200000000000003</ele><time>2026-04-03T13:02:22.835Z</time></trkpt><trkpt lat="45.28873692347342" lon="11.732067802269876"><ele>23.8</ele><time>2026-04-03T13:02:23.835Z</time></trkpt><trkpt lat="45.28876543973462" lon="11.73196161105661"><ele>24.4</ele><time>2026-04-03T13:02:24.835Z</time></trkpt><trkpt lat="45.288782608205196" lon="11.731858804718799"><ele>25.0</ele><time>2026-04-03T13:02:25.835Z</time></trkpt><trkpt lat="45.28884873577797" lon="11.731711815924594"><ele>25.714285714285715</ele><time>2026-04-03T13:02:27.835Z</time></trkpt><trkpt lat="45.28891065032155" lon="11.731655180268497"><ele>26.42857142857143</ele><time>2026-04-03T13:02:28.835Z</time></trkpt><trkpt lat="45.28897324131027" lon="11.731624847795633"><ele>27.142857142857146</ele><time>2026-04-03T13:02:29.835Z</time></trkpt><trkpt lat="45.28904481389002" lon="11.731599980549708"><ele>27.857142857142858</ele><time>2026-04-03T13:02:30.835Z</time></trkpt><trkpt lat="45.28911231483019" lon="11.731584505730373"><ele>28.57142857142857</ele><time>2026-04-03T13:02:31.835Z</time></trkpt><trkpt lat="45.28918278569421" lon="11.731570276742028"><ele>29.28571428571429</ele><time>2026-04-03T13:02:32.835Z</time></trkpt><trkpt lat="45.289247306492896" lon="11.731559030097825"><ele>30.0</ele><time>2026-04-03T13:02:33.835Z</time></trkpt><trkpt lat="45.28931815239578" lon="11.73156994801756"><ele>32.666666666666664</ele><time>2026-04-03T13:02:34.835Z</time></trkpt><trkpt lat="45.28940933016648" lon="11.731496994820203"><ele>35.333333333333336</ele><time>2026-04-03T13:02:36.835Z</time></trkpt><trkpt lat="45.289453686978476" lon="11.731366400251973"><ele>38.0</ele><time>2026-04-03T13:02:38.835Z</time></trkpt><trkpt lat="45.289445940080924" lon="11.731276329237994"><ele>40.66666666666667</ele><time>2026-04-03T13:02:39.835Z</time></trkpt><trkpt lat="45.28943513631585" lon="11.731178853603517"><ele>43.333333333333336</ele><time>2026-04-03T13:02:40.835Z</time></trkpt><trkpt lat="45.289431092705016" lon="11.731075774220288"><ele>46.0</ele><time>2026-04-03T13:02:41.835Z</time></trkpt><trkpt lat="45.28942659690338" lon="11.730970985238605"><ele>46.5</ele><time>2026-04-03T13:02:42.835Z</time></trkpt><trkpt lat="45.28942158348758" lon="11.730868080818311"><ele>47.0</ele><time>2026-04-03T13:02:43.835Z</time></trkpt><trkpt lat="45.28941832503245" lon="11.73076017860018"><ele>47.5</ele><time>2026-04-03T13:02:44.835Z</time></trkpt><trkpt lat="45.28941512588618" lon="11.730652150509451"><ele>48.0</ele><time>2026-04-03T13:02:45.835Z</time></trkpt><trkpt lat="45.28941668368975" lon="11.730541610298397"><ele>48.49999999999999</ele><time>2026-04-03T13:02:46.835Z</time></trkpt><trkpt lat="45.28941828632109" lon="11.730425752788582"><ele>49.0</ele><time>2026-04-03T13:02:47.835Z</time></trkpt><trkpt lat="45.28941040311896" lon="11.73030944675872"><ele>49.33333333333333</ele><time>2026-04-03T13:02:48.835Z</time></trkpt><trkpt lat="45.289392079078056" lon="11.730200301608555"><ele>49.666666666666664</ele><time>2026-04-03T13:02:49.835Z</time></trkpt><trkpt lat="45.28937138021222" lon="11.730089493202534"><ele>50.0</ele><time>2026-04-03T13:02:50.835Z</time></trkpt><trkpt lat="45.28934593383237" lon="11.729984582514582"><ele>50.33333333333333</ele><time>2026-04-03T13:02:51.835Z</time></trkpt><trkpt lat="45.28932563240833" lon="11.729879795464667"><ele>50.666666666666664</ele><time>2026-04-03T13:02:52.835Z</time></trkpt><trkpt lat="45.28931513871844" lon="11.729758566948274"><ele>51.0</ele><time>2026-04-03T13:02:53.835Z</time></trkpt><trkpt lat="45.289310210405255" lon="11.729639088609058"><ele>51.0</ele><time>2026-04-03T13:02:54.835Z</time></trkpt><trkpt lat="45.28930868221787" lon="11.729518082983377"><ele>51.0</ele><time>2026-04-03T13:02:55.835Z</time></trkpt><trkpt lat="45.28930883161221" lon="11.72939185232472"><ele>51.0</ele><time>2026-04-03T13:02:56.835Z</time></trkpt><trkpt lat="45.28931006913665" lon="11.729268413256424"><ele>51.0</ele><time>2026-04-03T13:02:57.835Z</time></trkpt><trkpt lat="45.28931033270645" lon="11.72914886771858"><ele>51.0</ele><time>2026-04-03T13:02:58.835Z</time></trkpt><trkpt lat="45.28931228168875" lon="11.729032563781251"><ele>51.0</ele><time>2026-04-03T13:02:59.835Z</time></trkpt><trkpt lat="45.28931237813265" lon="11.728918901983754"><ele>51.666666666666664</ele><time>2026-04-03T13:03:00.835Z</time></trkpt><trkpt lat="45.28931266097911" lon="11.72880724160238"><ele>52.33333333333333</ele><time>2026-04-03T13:03:01.835Z</time></trkpt><trkpt lat="45.28931783183501" lon="11.728695078129116"><ele>53.0</ele><time>2026-04-03T13:03:02.835Z</time></trkpt><trkpt lat="45.28932063383982" lon="11.728590390101566"><ele>53.666666666666664</ele><time>2026-04-03T13:03:03.835Z</time></trkpt><trkpt lat="45.289327572062334" lon="11.728481273366947"><ele>54.33333333333333</ele><time>2026-04-03T13:03:04.835Z</time></trkpt><trkpt lat="45.2893472958743" lon="11.728374781363716"><ele>55.0</ele><time>2026-04-03T13:03:05.835Z</time></trkpt><trkpt lat="45.28937235754992" lon="11.728269873158322"><ele>55.99999999999999</ele><time>2026-04-03T13:03:06.835Z</time></trkpt><trkpt lat="45.28939244021613" lon="11.728163649168893"><ele>57.0</ele><time>2026-04-03T13:03:07.835Z</time></trkpt><trkpt lat="45.28941165944915" lon="11.728054394049154"><ele>58.0</ele><time>2026-04-03T13:03:08.835Z</time></trkpt><trkpt lat="45.289430295645225" lon="11.727943094654604"><ele>59.0</ele><time>2026-04-03T13:03:09.835Z</time></trkpt><trkpt lat="45.28944808021429" lon="11.727830018795418"><ele>59.99999999999999</ele><time>2026-04-03T13:03:10.835Z</time></trkpt><trkpt lat="45.28946556041469" lon="11.72772067880774"><ele>61.0</ele><time>2026-04-03T13:03:11.835Z</time></trkpt><trkpt lat="45.28948238213927" lon="11.727615125618536"><ele>61.99999999999999</ele><time>2026-04-03T13:03:12.835Z</time></trkpt><trkpt lat="45.28949794434976" lon="11.727506504998562"><ele>63.0</ele><time>2026-04-03T13:03:13.835Z</time></trkpt><trkpt lat="45.289510110257865" lon="11.72739471141007"><ele>64.0</ele><time>2026-04-03T13:03:14.835Z</time></trkpt><trkpt lat="45.28952169715602" lon="11.72729190747991"><ele>65.0</ele><time>2026-04-03T13:03:15.835Z</time></trkpt><trkpt lat="45.28953423025004" lon="11.727201272719933"><ele>66.0</ele><time>2026-04-03T13:03:16.835Z</time></trkpt><trkpt lat="45.2895416068042" lon="11.727037863666643"><ele>67.0</ele><time>2026-04-03T13:03:18.835Z</time></trkpt><trkpt lat="45.28957746317081" lon="11.72690989828263"><ele>68.2</ele><time>2026-04-03T13:03:20.835Z</time></trkpt><trkpt lat="45.28950223464977" lon="11.726772721504034"><ele>69.4</ele><time>2026-04-03T13:03:22.835Z</time></trkpt><trkpt lat="45.289474833701355" lon="11.7266479106262"><ele>70.6</ele><time>2026-04-03T13:03:26.834Z</time></trkpt><trkpt lat="45.289462328754624" lon="11.726538490809835"><ele>71.8</ele><time>2026-04-03T13:03:28.834Z</time></trkpt><trkpt lat="45.28943759260264" lon="11.726400018450233"><ele>73.0</ele><time>2026-04-03T13:03:30.834Z</time></trkpt><trkpt lat="45.28942620178337" lon="11.726270036484081"><ele>73.0</ele><time>2026-04-03T13:03:32.834Z</time></trkpt><trkpt lat="45.289412702006274" lon="11.726148378870041"><ele>73.0</ele><time>2026-04-03T13:03:34.834Z</time></trkpt><trkpt lat="45.28939573876963" lon="11.7260300150734"><ele>73.0</ele><time>2026-04-03T13:03:36.834Z</time></trkpt><trkpt lat="45.289350816703895" lon="11.725907983666508"><ele>73.0</ele><time>2026-04-03T13:03:38.834Z</time></trkpt><trkpt lat="45.28930653864201" lon="11.725780355686048"><ele>73.0</ele><time>2026-04-03T13:03:40.834Z</time></trkpt><trkpt lat="45.289256933047" lon="11.72566124858479"><ele>75.0</ele><time>2026-04-03T13:03:42.833Z</time></trkpt><trkpt lat="45.28921414875923" lon="11.72553361685134"><ele>77.0</ele><time>2026-04-03T13:03:44.834Z</time></trkpt><trkpt lat="45.289177835325596" lon="11.72540956597476"><ele>79.0</ele><time>2026-04-03T13:03:46.834Z</time></trkpt><trkpt lat="45.28913757864909" lon="11.725292306230186"><ele>81.0</ele><time>2026-04-03T13:03:48.833Z</time></trkpt><trkpt lat="45.28910536890481" lon="11.72517986656244"><ele>83.0</ele><time>2026-04-03T13:03:50.833Z</time></trkpt><trkpt lat="45.289064824559894" lon="11.725079311089933"><ele>84.71428571428571</ele><time>2026-04-03T13:03:52.833Z</time></trkpt><trkpt lat="45.28902693731963" lon="11.724996754972937"><ele>86.42857142857143</ele><time>2026-04-03T13:03:54.833Z</time></trkpt><trkpt lat="45.288992834390086" lon="11.724907056393285"><ele>88.14285714285714</ele><time>2026-04-03T13:03:56.833Z</time></trkpt><trkpt lat="45.28897403669608" lon="11.724811044473462"><ele>89.85714285714286</ele><time>2026-04-03T13:03:58.833Z</time></trkpt><trkpt lat="45.288954442975786" lon="11.724713619040404"><ele>91.57142857142858</ele><time>2026-04-03T13:04:00.833Z</time></trkpt><trkpt lat="45.28893105123479" lon="11.724623379549433"><ele>93.28571428571429</ele><time>2026-04-03T13:04:02.833Z</time></trkpt><trkpt lat="45.28890873794827" lon="11.724535046181282"><ele>95.0</ele><time>2026-04-03T13:04:04.832Z</time></trkpt><trkpt lat="45.28888052015426" lon="11.724451594365322"><ele>92.14285714285714</ele><time>2026-04-03T13:04:06.832Z</time></trkpt><trkpt lat="45.28885680144928" lon="11.72435203444594"><ele>89.28571428571429</ele><time>2026-04-03T13:04:08.832Z</time></trkpt><trkpt lat="45.28884214015338" lon="11.724251654616005"><ele>86.42857142857142</ele><time>2026-04-03T13:04:10.832Z</time></trkpt><trkpt lat="45.28885039351356" lon="11.72415321891035"><ele>83.57142857142857</ele><time>2026-04-03T13:04:12.832Z</time></trkpt><trkpt lat="45.28884509082455" lon="11.724055321444474"><ele>80.71428571428571</ele><time>2026-04-03T13:04:14.832Z</time></trkpt><trkpt lat="45.28884674878422" lon="11.723959605100324"><ele>77.85714285714285</ele><time>2026-04-03T13:04:16.832Z</time></trkpt><trkpt lat="45.28884860549539" lon="11.723831830831731"><ele>75.0</ele><time>2026-04-03T13:04:18.832Z</time></trkpt><trkpt lat="45.2888533046924" lon="11.723707027048643"><ele>75.0</ele><time>2026-04-03T13:04:20.832Z</time></trkpt><trkpt lat="45.288861554735924" lon="11.72356609343501"><ele>75.0</ele><time>2026-04-03T13:04:22.832Z</time></trkpt><trkpt lat="45.28887187843833" lon="11.723437941847903"><ele>75.0</ele><time>2026-04-03T13:04:24.832Z</time></trkpt><trkpt lat="45.28888002260385" lon="11.72330569766542"><ele>75.0</ele><time>2026-04-03T13:04:26.832Z</time></trkpt><trkpt lat="45.28888124636763" lon="11.72316587167956"><ele>75.0</ele><time>2026-04-03T13:04:28.832Z</time></trkpt><trkpt lat="45.28885905680404" lon="11.723030709420119"><ele>75.5</ele><time>2026-04-03T13:04:30.832Z</time></trkpt><trkpt lat="45.288825035150644" lon="11.722894494887324"><ele>76.0</ele><time>2026-04-03T13:04:32.832Z</time></trkpt><trkpt lat="45.28879187389119" lon="11.72275806863684"><ele>76.5</ele><time>2026-04-03T13:04:34.832Z</time></trkpt><trkpt lat="45.288752447569195" lon="11.722639720616177"><ele>77.0</ele><time>2026-04-03T13:04:36.832Z</time></trkpt><trkpt lat="45.28871464173491" lon="11.722548458710024"><ele>77.5</ele><time>2026-04-03T13:04:38.832Z</time></trkpt><trkpt lat="45.28868512149915" lon="11.722455553521344"><ele>78.0</ele><time>2026-04-03T13:04:40.832Z</time></trkpt><trkpt lat="45.28863095624496" lon="11.722349243869884"><ele>79.8</ele><time>2026-04-03T13:04:42.832Z</time></trkpt><trkpt lat="45.28857449269209" lon="11.722218494314259"><ele>81.6</ele><time>2026-04-03T13:04:44.832Z</time></trkpt><trkpt lat="45.2885278187102" lon="11.722091355879927"><ele>83.39999999999999</ele><time>2026-04-03T13:04:46.832Z</time></trkpt><trkpt lat="45.28848369820233" lon="11.721963156731286"><ele>85.19999999999999</ele><time>2026-04-03T13:04:48.832Z</time></trkpt><trkpt lat="45.28842979139109" lon="11.721828057261328"><ele>87.0</ele><time>2026-04-03T13:04:50.832Z</time></trkpt><trkpt lat="45.28838154497224" lon="11.72169053837152"><ele>88.16666666666667</ele><time>2026-04-03T13:04:52.831Z</time></trkpt><trkpt lat="45.28833313244799" lon="11.721556985956264"><ele>89.33333333333333</ele><time>2026-04-03T13:04:55.831Z</time></trkpt><trkpt lat="45.28829189295563" lon="11.721462947182264"><ele>90.5</ele><time>2026-04-03T13:04:58.831Z</time></trkpt><trkpt lat="45.28824285484794" lon="11.721352108369201"><ele>91.66666666666666</ele><time>2026-04-03T13:06:56.829Z</time></trkpt><trkpt lat="45.28819578858994" lon="11.721262186353034"><ele>92.83333333333333</ele><time>2026-04-03T13:06:58.829Z</time></trkpt><trkpt lat="45.28815635639337" lon="11.721172845938762"><ele>94.0</ele><time>2026-04-03T13:07:00.829Z</time></trkpt><trkpt lat="45.28811965061452" lon="11.721084745931508"><ele>91.5</ele><time>2026-04-03T13:07:02.829Z</time></trkpt><trkpt lat="45.28807310682678" lon="11.720996236980385"><ele>89.0</ele><time>2026-04-03T13:07:04.829Z</time></trkpt><trkpt lat="45.288041856785476" lon="11.720912547749474"><ele>86.5</ele><time>2026-04-03T13:07:07.829Z</time></trkpt><trkpt lat="45.28799221844868" lon="11.72079358479104"><ele>84.0</ele><time>2026-04-03T13:07:44.827Z</time></trkpt><trkpt lat="45.28796249429586" lon="11.720707979381274"><ele>81.5</ele><time>2026-04-03T13:07:46.828Z</time></trkpt><trkpt lat="45.28792255846435" lon="11.72059943864812"><ele>79.0</ele><time>2026-04-03T13:07:49.828Z</time></trkpt><trkpt lat="45.28790142686092" lon="11.720507580389592"><ele>79.0</ele><time>2026-04-03T13:07:52.828Z</time></trkpt><trkpt lat="45.28788347933591" lon="11.720419909580903"><ele>79.0</ele><time>2026-04-03T13:08:30.828Z</time></trkpt><trkpt lat="45.28789443638652" lon="11.720298720077508"><ele>79.0</ele><time>2026-04-03T13:08:33.827Z</time></trkpt><trkpt lat="45.28790020251867" lon="11.720181932722769"><ele>79.0</ele><time>2026-04-03T13:08:36.827Z</time></trkpt><trkpt lat="45.287878273317354" lon="11.72008942094763"><ele>79.0</ele><time>2026-04-03T13:08:39.827Z</time></trkpt><trkpt lat="45.28784307733936" lon="11.719966797013958"><ele>79.0</ele><time>2026-04-03T13:08:42.827Z</time></trkpt><trkpt lat="45.287798972424575" lon="11.719897434605564"><ele>81.5</ele><time>2026-04-03T13:08:44.827Z</time></trkpt><trkpt lat="45.287753253087644" lon="11.719816480124294"><ele>84.0</ele><time>2026-04-03T13:08:46.827Z</time></trkpt><trkpt lat="45.28772872147286" lon="11.719714270962683"><ele>86.5</ele><time>2026-04-03T13:08:48.827Z</time></trkpt><trkpt lat="45.28772572631401" lon="11.71959136870201"><ele>89.0</ele><time>2026-04-03T13:08:50.827Z</time></trkpt><trkpt lat="45.28773371879251" lon="11.71945354232334"><ele>91.5</ele><time>2026-04-03T13:08:52.827Z</time></trkpt><trkpt lat="45.28772935573917" lon="11.719356156505405"><ele>94.0</ele><time>2026-04-03T13:08:54.827Z</time></trkpt><trkpt lat="45.28772446676245" lon="11.719234444800314"><ele>96.80000000000001</ele><time>2026-04-03T13:08:56.827Z</time></trkpt><trkpt lat="45.28769643983997" lon="11.71912024345195"><ele>99.60000000000001</ele><time>2026-04-03T13:08:58.827Z</time></trkpt><trkpt lat="45.28764763982425" lon="11.719016742630048"><ele>102.4</ele><time>2026-04-03T13:09:00.827Z</time></trkpt><trkpt lat="45.287604225192524" lon="11.718898228858803"><ele>105.2</ele><time>2026-04-03T13:09:02.827Z</time></trkpt><trkpt lat="45.28754987841953" lon="11.718783632753006"><ele>108.0</ele><time>2026-04-03T13:09:04.827Z</time></trkpt><trkpt lat="45.28748565575268" lon="11.718656835420367"><ele>108.0</ele><time>2026-04-03T13:09:06.827Z</time></trkpt><trkpt lat="45.28742678648211" lon="11.718574494558707"><ele>108.0</ele><time>2026-04-03T13:09:08.827Z</time></trkpt><trkpt lat="45.28736899011314" lon="11.718474636732697"><ele>108.0</ele><time>2026-04-03T13:09:10.827Z</time></trkpt><trkpt lat="45.287318029221424" lon="11.718368060460989"><ele>108.0</ele><time>2026-04-03T13:09:12.827Z</time></trkpt><trkpt lat="45.28728969006832" lon="11.718276829879638"><ele>108.0</ele><time>2026-04-03T13:09:14.827Z</time></trkpt><trkpt lat="45.287249071958556" lon="11.718197503656542"><ele>108.0</ele><time>2026-04-03T13:09:16.827Z</time></trkpt><trkpt lat="45.28723070640981" lon="11.718082683813122"><ele>108.16666666666667</ele><time>2026-04-03T13:09:19.827Z</time></trkpt><trkpt lat="45.28720778972046" lon="11.71798777763048"><ele>108.33333333333334</ele><time>2026-04-03T13:09:21.827Z</time></trkpt><trkpt lat="45.28719478432489" lon="11.717882222241697"><ele>108.5</ele><time>2026-04-03T13:09:23.827Z</time></trkpt><trkpt lat="45.28718707780967" lon="11.717762538212014"><ele>108.66666666666667</ele><time>2026-04-03T13:09:25.827Z</time></trkpt><trkpt lat="45.28718017831713" lon="11.717647905887073"><ele>108.83333333333334</ele><time>2026-04-03T13:09:27.827Z</time></trkpt><trkpt lat="45.28719838820147" lon="11.717522435675537"><ele>109.0</ele><time>2026-04-03T13:09:29.827Z</time></trkpt><trkpt lat="45.28722180696457" lon="11.717394957529384"><ele>109.00000000000001</ele><time>2026-04-03T13:09:32.827Z</time></trkpt><trkpt lat="45.28723463158873" lon="11.717257530555887"><ele>109.0</ele><time>2026-04-03T13:09:34.827Z</time></trkpt><trkpt lat="45.287253831795155" lon="11.71712134594867"><ele>109.0</ele><time>2026-04-03T13:09:36.827Z</time></trkpt><trkpt lat="45.28727021025128" lon="11.71700705048074"><ele>109.0</ele><time>2026-04-03T13:09:38.827Z</time></trkpt><trkpt lat="45.28726125894869" lon="11.716897494967219"><ele>109.00000000000001</ele><time>2026-04-03T13:09:40.827Z</time></trkpt><trkpt lat="45.287215459119395" lon="11.71681860401829"><ele>109.0</ele><time>2026-04-03T13:09:42.827Z</time></trkpt><trkpt lat="45.28710776699098" lon="11.716756192639561"><ele>112.4</ele><time>2026-04-03T13:09:44.826Z</time></trkpt><trkpt lat="45.28703330277647" lon="11.716768727782872"><ele>115.80000000000001</ele><time>2026-04-03T13:09:46.826Z</time></trkpt><trkpt lat="45.28692517171492" lon="11.716764169387954"><ele>119.19999999999999</ele><time>2026-04-03T13:09:48.826Z</time></trkpt><trkpt lat="45.28681646371224" lon="11.716705837320566"><ele>122.6</ele><time>2026-04-03T13:09:50.825Z</time></trkpt><trkpt lat="45.286740250580316" lon="11.716637123953896"><ele>126.0</ele><time>2026-04-03T13:09:52.826Z</time></trkpt><trkpt lat="45.28666925994611" lon="11.716532488619631"><ele>126.0</ele><time>2026-04-03T13:09:54.826Z</time></trkpt><trkpt lat="45.286605473757945" lon="11.71643699662652"><ele>126.0</ele><time>2026-04-03T13:09:56.825Z</time></trkpt><trkpt lat="45.28654331007682" lon="11.716334729851576"><ele>126.0</ele><time>2026-04-03T13:09:58.825Z</time></trkpt><trkpt lat="45.286521121715396" lon="11.716214304129881"><ele>126.0</ele><time>2026-04-03T13:10:00.825Z</time></trkpt><trkpt lat="45.28654116918044" lon="11.716089802438221"><ele>126.0</ele><time>2026-04-03T13:10:02.825Z</time></trkpt><trkpt lat="45.286559197800734" lon="11.715971259831923"><ele>129.0</ele><time>2026-04-03T13:10:04.825Z</time></trkpt><trkpt lat="45.28658836503459" lon="11.715856192180249"><ele>132.0</ele><time>2026-04-03T13:10:06.825Z</time></trkpt><trkpt lat="45.286592524058385" lon="11.715747392402507"><ele>135.0</ele><time>2026-04-03T13:10:08.825Z</time></trkpt><trkpt lat="45.28660862318358" lon="11.715623407733066"><ele>138.0</ele><time>2026-04-03T13:10:10.825Z</time></trkpt><trkpt lat="45.28661844253215" lon="11.715516262682135"><ele>141.0</ele><time>2026-04-03T13:10:12.825Z</time></trkpt><trkpt lat="45.28661326696361" lon="11.715396971263885"><ele>144.0</ele><time>2026-04-03T13:10:15.825Z</time></trkpt><trkpt lat="45.28659363360926" lon="11.715309686339356"><ele>144.33333333333334</ele><time>2026-04-03T13:10:17.825Z</time></trkpt><trkpt lat="45.28659503593729" lon="11.715174383985564"><ele>144.66666666666666</ele><time>2026-04-03T13:10:19.825Z</time></trkpt><trkpt lat="45.286605025255916" lon="11.71507384222348"><ele>145.0</ele><time>2026-04-03T13:10:21.825Z</time></trkpt><trkpt lat="45.28656264944561" lon="11.714972146410245"><ele>145.33333333333331</ele><time>2026-04-03T13:10:23.825Z</time></trkpt><trkpt lat="45.28650251042605" lon="11.714901617924312"><ele>145.66666666666666</ele><time>2026-04-03T13:10:25.825Z</time></trkpt><trkpt lat="45.286443552090965" lon="11.714835800849471"><ele>146.0</ele><time>2026-04-03T13:10:27.825Z</time></trkpt><trkpt lat="45.28636087719639" lon="11.714801804183432"><ele>146.0</ele><time>2026-04-03T13:10:29.825Z</time></trkpt><trkpt lat="45.28629399644229" lon="11.71475911739383"><ele>146.0</ele><time>2026-04-03T13:10:31.825Z</time></trkpt><trkpt lat="45.28624427166595" lon="11.714696573372743"><ele>146.0</ele><time>2026-04-03T13:12:13.823Z</time></trkpt><trkpt lat="45.28616092493319" lon="11.714692323859394"><ele>146.0</ele><time>2026-04-03T13:12:16.823Z</time></trkpt><trkpt lat="45.286090461662496" lon="11.714693387149124"><ele>146.0</ele><time>2026-04-03T13:12:18.823Z</time></trkpt><trkpt lat="45.286028357157015" lon="11.714676180453559"><ele>146.0</ele><time>2026-04-03T13:12:20.823Z</time></trkpt><trkpt lat="45.28596087209832" lon="11.714651077618155"><ele>146.0</ele><time>2026-04-03T13:12:22.823Z</time></trkpt><trkpt lat="45.28589565308338" lon="11.714616459464837"><ele>146.0</ele><time>2026-04-03T13:12:24.823Z</time></trkpt><trkpt lat="45.285835622382784" lon="11.714522205695992"><ele>146.0</ele><time>2026-04-03T13:12:27.823Z</time></trkpt><trkpt lat="45.28581059775483" lon="11.714436480242746"><ele>146.0</ele><time>2026-04-03T13:12:29.823Z</time></trkpt><trkpt lat="45.285773827671576" lon="11.714312283007287"><ele>146.0</ele><time>2026-04-03T13:12:32.823Z</time></trkpt><trkpt lat="45.28576469307207" lon="11.714222950842666"><ele>146.0</ele><time>2026-04-03T13:12:34.823Z</time></trkpt><trkpt lat="45.285746265798515" lon="11.714101949852795"><ele>146.0</ele><time>2026-04-03T13:12:36.823Z</time></trkpt><trkpt lat="45.2856904998364" lon="11.71398822057811"><ele>146.33333333333331</ele><time>2026-04-03T13:12:38.823Z</time></trkpt><trkpt lat="45.28565479314953" lon="11.713869715192315"><ele>146.66666666666666</ele><time>2026-04-03T13:12:40.823Z</time></trkpt><trkpt lat="45.285615040228436" lon="11.713785412029623"><ele>147.0</ele><time>2026-04-03T13:12:42.823Z</time></trkpt><trkpt lat="45.28559711560305" lon="11.713682904462658"><ele>147.33333333333334</ele><time>2026-04-03T13:12:44.823Z</time></trkpt><trkpt lat="45.28555439954529" lon="11.713580543643989"><ele>147.66666666666669</ele><time>2026-04-03T13:12:46.823Z</time></trkpt><trkpt lat="45.28550860606726" lon="11.71350839547434"><ele>148.0</ele><time>2026-04-03T13:12:48.823Z</time></trkpt><trkpt lat="45.28546475832714" lon="11.71339633509997"><ele>148.0</ele><time>2026-04-03T13:12:50.823Z</time></trkpt><trkpt lat="45.28541632795925" lon="11.713335617999105"><ele>148.0</ele><time>2026-04-03T13:12:52.823Z</time></trkpt><trkpt lat="45.28533191055856" lon="11.713265582647024"><ele>148.0</ele><time>2026-04-03T13:12:54.823Z</time></trkpt><trkpt lat="45.285251149908945" lon="11.713206525161086"><ele>148.0</ele><time>2026-04-03T13:12:56.823Z</time></trkpt><trkpt lat="45.28517709178127" lon="11.713131489765138"><ele>148.0</ele><time>2026-04-03T13:12:58.823Z</time></trkpt><trkpt lat="45.285115827132074" lon="11.713044510178891"><ele>148.0</ele><time>2026-04-03T13:13:00.823Z</time></trkpt><trkpt lat="45.28507915191708" lon="11.712956789651809"><ele>148.0</ele><time>2026-04-03T13:13:02.823Z</time></trkpt><trkpt lat="45.285045061136394" lon="11.712855619044905"><ele>148.0</ele><time>2026-04-03T13:13:04.823Z</time></trkpt><trkpt lat="45.28504108753594" lon="11.71275853928565"><ele>148.0</ele><time>2026-04-03T13:13:06.823Z</time></trkpt><trkpt lat="45.28503794636315" lon="11.712668714984334"><ele>148.0</ele><time>2026-04-03T13:13:08.823Z</time></trkpt><trkpt lat="45.28502642946683" lon="11.712558480989273"><ele>148.0</ele><time>2026-04-03T13:13:10.823Z</time></trkpt><trkpt lat="45.28503641877423" lon="11.71243360419455"><ele>148.0</ele><time>2026-04-03T13:13:12.823Z</time></trkpt><trkpt lat="45.28500889086669" lon="11.712297173411471"><ele>150.66666666666669</ele><time>2026-04-03T13:13:14.823Z</time></trkpt><trkpt lat="45.28499332353212" lon="11.71218481061921"><ele>153.33333333333334</ele><time>2026-04-03T13:13:16.823Z</time></trkpt><trkpt lat="45.284980677462805" lon="11.712071611584392"><ele>156.0</ele><time>2026-04-03T13:13:18.823Z</time></trkpt><trkpt lat="45.28494953923694" lon="11.711975690137107"><ele>158.66666666666666</ele><time>2026-04-03T13:13:20.823Z</time></trkpt><trkpt lat="45.284953134127655" lon="11.711870752083723"><ele>161.33333333333331</ele><time>2026-04-03T13:13:22.822Z</time></trkpt><trkpt lat="45.28498127595624" lon="11.711765573288078"><ele>164.0</ele><time>2026-04-03T13:13:24.822Z</time></trkpt><trkpt lat="45.284990402537275" lon="11.711667370767794"><ele>161.25</ele><time>2026-04-03T13:13:26.822Z</time></trkpt><trkpt lat="45.28495657488306" lon="11.711558656837969"><ele>158.5</ele><time>2026-04-03T13:13:28.822Z</time></trkpt><trkpt lat="45.284852849041336" lon="11.711440817014275"><ele>155.75</ele><time>2026-04-03T13:13:30.822Z</time></trkpt><trkpt lat="45.28477494140756" lon="11.711307258267762"><ele>153.0</ele><time>2026-04-03T13:13:32.822Z</time></trkpt><trkpt lat="45.284713563507985" lon="11.71115711235655"><ele>155.25</ele><time>2026-04-03T13:13:34.822Z</time></trkpt><trkpt lat="45.28466808426392" lon="11.71100481784137"><ele>157.5</ele><time>2026-04-03T13:13:36.822Z</time></trkpt><trkpt lat="45.28464810561446" lon="11.710831694782204"><ele>159.75</ele><time>2026-04-03T13:13:38.822Z</time></trkpt><trkpt lat="45.28461300848433" lon="11.710669568369172"><ele>162.0</ele><time>2026-04-03T13:13:40.822Z</time></trkpt><trkpt lat="45.28461417871245" lon="11.710498402756455"><ele>162.0</ele><time>2026-04-03T13:13:42.822Z</time></trkpt><trkpt lat="45.284619313086694" lon="11.710404937475976"><ele>162.0</ele><time>2026-04-03T13:13:43.822Z</time></trkpt><trkpt lat="45.28462025970068" lon="11.710311657608157"><ele>162.0</ele><time>2026-04-03T13:13:44.822Z</time></trkpt><trkpt lat="45.28459894212701" lon="11.71022542189092"><ele>162.0</ele><time>2026-04-03T13:13:45.822Z</time></trkpt><trkpt lat="45.28455723057345" lon="11.710069197929156"><ele>162.0</ele><time>2026-04-03T13:13:47.822Z</time></trkpt><trkpt lat="45.284550164877665" lon="11.709902886148788"><ele>162.0</ele><time>2026-04-03T13:13:49.822Z</time></trkpt><trkpt lat="45.284550357058066" lon="11.709746619264331"><ele>163.0</ele><time>2026-04-03T13:13:51.822Z</time></trkpt><trkpt lat="45.28457000892438" lon="11.709627554630865"><ele>164.0</ele><time>2026-04-03T13:13:53.822Z</time></trkpt><trkpt lat="45.284571942438035" lon="11.709528584953349"><ele>165.0</ele><time>2026-04-03T13:13:55.822Z</time></trkpt><trkpt lat="45.284584335737215" lon="11.70942880984076"><ele>166.0</ele><time>2026-04-03T13:13:57.822Z</time></trkpt><trkpt lat="45.28460162284853" lon="11.709330052836231"><ele>167.0</ele><time>2026-04-03T13:14:00.822Z</time></trkpt><trkpt lat="45.28461018643457" lon="11.709215656647718"><ele>168.0</ele><time>2026-04-03T13:14:03.821Z</time></trkpt><trkpt lat="45.284646208892546" lon="11.709115188927736"><ele>168.66666666666666</ele><time>2026-04-03T13:14:05.821Z</time></trkpt><trkpt lat="45.28469762979513" lon="11.709033907527756"><ele>169.33333333333334</ele><time>2026-04-03T13:14:07.821Z</time></trkpt><trkpt lat="45.284764221628734" lon="11.708930671594436"><ele>170.0</ele><time>2026-04-03T13:14:09.821Z</time></trkpt><trkpt lat="45.28482324148887" lon="11.708845043734787"><ele>170.66666666666669</ele><time>2026-04-03T13:14:11.821Z</time></trkpt><trkpt lat="45.284892951831175" lon="11.708768252671119"><ele>171.33333333333334</ele><time>2026-04-03T13:14:13.821Z</time></trkpt><trkpt lat="45.284979471486544" lon="11.708702083405425"><ele>172.0</ele><time>2026-04-03T13:14:15.821Z</time></trkpt><trkpt lat="45.28507542674318" lon="11.708618010121983"><ele>174.6</ele><time>2026-04-03T13:14:17.821Z</time></trkpt><trkpt lat="45.28516805711183" lon="11.708522321046008"><ele>177.2</ele><time>2026-04-03T13:14:19.821Z</time></trkpt><trkpt lat="45.28524072497071" lon="11.708399424083975"><ele>179.8</ele><time>2026-04-03T13:14:21.821Z</time></trkpt><trkpt lat="45.28531186713222" lon="11.708290940045174"><ele>182.4</ele><time>2026-04-03T13:14:23.821Z</time></trkpt><trkpt lat="45.28537615186526" lon="11.70820879623086"><ele>185.0</ele><time>2026-04-03T13:14:25.821Z</time></trkpt><trkpt lat="45.285432701327906" lon="11.708125622848788"><ele>185.0</ele><time>2026-04-03T13:14:27.821Z</time></trkpt><trkpt lat="45.28546011271363" lon="11.70802332747907"><ele>185.0</ele><time>2026-04-03T13:14:29.821Z</time></trkpt><trkpt lat="45.285416523557714" lon="11.707938034354978"><ele>185.0</ele><time>2026-04-03T13:14:31.821Z</time></trkpt><trkpt lat="45.2852998214431" lon="11.707916095951509"><ele>185.0</ele><time>2026-04-03T13:14:33.821Z</time></trkpt><trkpt lat="45.28518531365593" lon="11.707921746335273"><ele>185.0</ele><time>2026-04-03T13:14:35.821Z</time></trkpt><trkpt lat="45.28508568107577" lon="11.707911722965818"><ele>185.0</ele><time>2026-04-03T13:14:37.821Z</time></trkpt><trkpt lat="45.285022100779074" lon="11.707927089360469"><ele>185.0</ele><time>2026-04-03T13:14:38.821Z</time></trkpt><trkpt lat="45.28489989142271" lon="11.707973371130908"><ele>185.0</ele><time>2026-04-03T13:14:40.821Z</time></trkpt><trkpt lat="45.28479448206906" lon="11.707966113557063"><ele>185.0</ele><time>2026-04-03T13:14:42.821Z</time></trkpt><trkpt lat="45.28471390710791" lon="11.707953522351305"><ele>185.0</ele><time>2026-04-03T13:14:44.821Z</time></trkpt><trkpt lat="45.284619384305905" lon="11.707959250421208"><ele>184.0</ele><time>2026-04-03T13:14:46.821Z</time></trkpt><trkpt lat="45.284538023448036" lon="11.707923975699625"><ele>183.0</ele><time>2026-04-03T13:14:48.821Z</time></trkpt><trkpt lat="45.28448168329051" lon="11.70785254944918"><ele>182.0</ele><time>2026-04-03T13:14:50.821Z</time></trkpt><trkpt lat="45.28439758339353" lon="11.70776240548106"><ele>181.0</ele><time>2026-04-03T13:14:52.821Z</time></trkpt><trkpt lat="45.28433158866299" lon="11.707671367700723"><ele>180.0</ele><time>2026-04-03T13:14:54.821Z</time></trkpt><trkpt lat="45.28427185027892" lon="11.707570444100751"><ele>182.0</ele><time>2026-04-03T13:14:56.821Z</time></trkpt><trkpt lat="45.284220066056875" lon="11.707481140405413"><ele>184.0</ele><time>2026-04-03T13:14:58.821Z</time></trkpt><trkpt lat="45.284181507209695" lon="11.707388153983475"><ele>186.0</ele><time>2026-04-03T13:15:00.821Z</time></trkpt><trkpt lat="45.284145776819244" lon="11.707262153547546"><ele>188.0</ele><time>2026-04-03T13:15:02.821Z</time></trkpt><trkpt lat="45.28411398612065" lon="11.707133913754417"><ele>190.0</ele><time>2026-04-03T13:15:04.821Z</time></trkpt><trkpt lat="45.28407645608641" lon="11.707026044401081"><ele>192.0</ele><time>2026-04-03T13:15:06.821Z</time></trkpt><trkpt lat="45.28402032490962" lon="11.706916351011634"><ele>194.33333333333334</ele><time>2026-04-03T13:15:08.821Z</time></trkpt><trkpt lat="45.28399396407186" lon="11.706775501171487"><ele>196.66666666666669</ele><time>2026-04-03T13:15:10.821Z</time></trkpt><trkpt lat="45.284001163855606" lon="11.706658979940386"><ele>199.0</ele><time>2026-04-03T13:15:12.821Z</time></trkpt><trkpt lat="45.284021166363665" lon="11.706551389279138"><ele>201.33333333333334</ele><time>2026-04-03T13:15:14.821Z</time></trkpt><trkpt lat="45.28404520634652" lon="11.706447899747802"><ele>203.66666666666669</ele><time>2026-04-03T13:15:16.821Z</time></trkpt><trkpt lat="45.2840879117261" lon="11.706350543793416"><ele>206.0</ele><time>2026-04-03T13:15:18.821Z</time></trkpt><trkpt lat="45.28414976656433" lon="11.706272972500038"><ele>206.0</ele><time>2026-04-03T13:15:20.821Z</time></trkpt><trkpt lat="45.28419241488437" lon="11.706145623254697"><ele>206.0</ele><time>2026-04-03T13:15:22.82Z</time></trkpt><trkpt lat="45.284244215992494" lon="11.706057886509562"><ele>206.0</ele><time>2026-04-03T13:15:24.82Z</time></trkpt><trkpt lat="45.28426282369067" lon="11.705947279937526"><ele>206.0</ele><time>2026-04-03T13:15:26.82Z</time></trkpt><trkpt lat="45.28420546340324" lon="11.705839446364443"><ele>206.0</ele><time>2026-04-03T13:15:28.82Z</time></trkpt><trkpt lat="45.2841124932812" lon="11.70581399946095"><ele>207.60000000000002</ele><time>2026-04-03T13:15:30.82Z</time></trkpt><trkpt lat="45.284014898860775" lon="11.705819693644461"><ele>209.2</ele><time>2026-04-03T13:15:32.82Z</time></trkpt><trkpt lat="45.28389693721186" lon="11.705788875294958"><ele>210.79999999999998</ele><time>2026-04-03T13:15:34.82Z</time></trkpt><trkpt lat="45.28383881006252" lon="11.705734426663458"><ele>212.39999999999998</ele><time>2026-04-03T13:15:35.82Z</time></trkpt><trkpt lat="45.28375364743751" lon="11.705617726035703"><ele>214.0</ele><time>2026-04-03T13:15:37.82Z</time></trkpt><trkpt lat="45.283698204170506" lon="11.705509531483019"><ele>214.0</ele><time>2026-04-03T13:15:39.82Z</time></trkpt><trkpt lat="45.283621282923974" lon="11.705432055651695"><ele>213.99999999999997</ele><time>2026-04-03T13:15:41.82Z</time></trkpt><trkpt lat="45.28354545398533" lon="11.705345281161447"><ele>213.99999999999997</ele><time>2026-04-03T13:15:43.82Z</time></trkpt><trkpt lat="45.28345242089496" lon="11.705284330898055"><ele>214.0</ele><time>2026-04-03T13:15:45.82Z</time></trkpt><trkpt lat="45.28336800879299" lon="11.705278826420528"><ele>214.0</ele><time>2026-04-03T13:15:47.82Z</time></trkpt><trkpt lat="45.28327046732153" lon="11.705341522753002"><ele>213.99999999999997</ele><time>2026-04-03T13:15:49.82Z</time></trkpt><trkpt lat="45.28319239768471" lon="11.705437541195176"><ele>214.0</ele><time>2026-04-03T13:15:51.82Z</time></trkpt><trkpt lat="45.283127251877886" lon="11.705475277717655"><ele>214.0</ele><time>2026-04-03T13:15:53.82Z</time></trkpt><trkpt lat="45.28305033614752" lon="11.705489625100693"><ele>214.0</ele><time>2026-04-03T13:16:06.819Z</time></trkpt><trkpt lat="45.28298276819169" lon="11.705454910450591"><ele>213.99999999999997</ele><time>2026-04-03T13:16:20.819Z</time></trkpt><trkpt lat="45.28300480552713" lon="11.705337731644047"><ele>214.0</ele><time>2026-04-03T13:16:23.819Z</time></trkpt><trkpt lat="45.28302595469544" lon="11.705246978912113"><ele>214.85714285714286</ele><time>2026-04-03T13:16:33.819Z</time></trkpt><trkpt lat="45.283061589726906" lon="11.705155069203633"><ele>215.71428571428572</ele><time>2026-04-03T13:16:35.819Z</time></trkpt><trkpt lat="45.283104818515596" lon="11.705058450512926"><ele>216.57142857142856</ele><time>2026-04-03T13:16:37.819Z</time></trkpt><trkpt lat="45.283128496390844" lon="11.704960222536295"><ele>217.42857142857144</ele><time>2026-04-03T13:16:39.819Z</time></trkpt><trkpt lat="45.283156116645124" lon="11.704877006573437"><ele>218.28571428571428</ele><time>2026-04-03T13:16:41.819Z</time></trkpt><trkpt lat="45.28318764185598" lon="11.704780226051398"><ele>219.14285714285714</ele><time>2026-04-03T13:16:43.819Z</time></trkpt><trkpt lat="45.283235163097274" lon="11.704686698042705"><ele>220.0</ele><time>2026-04-03T13:16:46.819Z</time></trkpt><trkpt lat="45.28329741018189" lon="11.70463473439226"><ele>220.99999999999997</ele><time>2026-04-03T13:16:48.819Z</time></trkpt><trkpt lat="45.28336511776538" lon="11.704605574380155"><ele>222.0</ele><time>2026-04-03T13:16:51.818Z</time></trkpt><trkpt lat="45.28345140780569" lon="11.70459118799685"><ele>223.0</ele><time>2026-04-03T13:25:22.833Z</time></trkpt><trkpt lat="45.283514139227194" lon="11.704572940073497"><ele>224.0</ele><time>2026-04-03T13:25:23.833Z</time></trkpt><trkpt lat="45.28357657005665" lon="11.704559612431106"><ele>224.99999999999997</ele><time>2026-04-03T13:25:24.833Z</time></trkpt><trkpt lat="45.28369568096404" lon="11.704523420226964"><ele>226.0</ele><time>2026-04-03T13:25:26.833Z</time></trkpt><trkpt lat="45.2837709443835" lon="11.704525674157727"><ele>225.99999999999997</ele><time>2026-04-03T13:25:27.833Z</time></trkpt><trkpt lat="45.28384369734381" lon="11.704505295670424"><ele>226.0</ele><time>2026-04-03T13:25:28.833Z</time></trkpt><trkpt lat="45.28395493433007" lon="11.704450696006711"><ele>226.0</ele><time>2026-04-03T13:25:30.833Z</time></trkpt><trkpt lat="45.28401873877996" lon="11.704433854668745"><ele>226.0</ele><time>2026-04-03T13:25:31.833Z</time></trkpt><trkpt lat="45.28413243865954" lon="11.704410053428639"><ele>225.99999999999997</ele><time>2026-04-03T13:25:33.833Z</time></trkpt><trkpt lat="45.28419810659112" lon="11.7044068979113"><ele>226.0</ele><time>2026-04-03T13:25:34.833Z</time></trkpt><trkpt lat="45.284261374827004" lon="11.704401900960734"><ele>229.0</ele><time>2026-04-03T13:25:35.833Z</time></trkpt><trkpt lat="45.28438576264724" lon="11.704387003782706"><ele>232.00000000000003</ele><time>2026-04-03T13:25:37.833Z</time></trkpt><trkpt lat="45.28450257559755" lon="11.704319607269122"><ele>235.00000000000003</ele><time>2026-04-03T13:25:39.833Z</time></trkpt><trkpt lat="45.28452855973436" lon="11.704214819493082"><ele>238.0</ele><time>2026-04-03T13:25:40.833Z</time></trkpt><trkpt lat="45.28457716968475" lon="11.704150981243757"><ele>241.0</ele><time>2026-04-03T13:25:41.833Z</time></trkpt><trkpt lat="45.28462586201983" lon="11.704082004656154"><ele>241.0</ele><time>2026-04-03T13:25:42.833Z</time></trkpt><trkpt lat="45.28467335223236" lon="11.704019980527566"><ele>241.00000000000003</ele><time>2026-04-03T13:25:43.833Z</time></trkpt><trkpt lat="45.2847757383735" lon="11.70392237056956"><ele>241.00000000000003</ele><time>2026-04-03T13:25:45.833Z</time></trkpt><trkpt lat="45.28487333764885" lon="11.703844318769125"><ele>241.0</ele><time>2026-04-03T13:25:47.833Z</time></trkpt><trkpt lat="45.284952317416106" lon="11.70375493106326"><ele>241.0</ele><time>2026-04-03T13:25:49.833Z</time></trkpt><trkpt lat="45.285044994133074" lon="11.703674956577975"><ele>242.33333333333331</ele><time>2026-04-03T13:25:51.833Z</time></trkpt><trkpt lat="45.28515242955137" lon="11.703622309855483"><ele>243.66666666666666</ele><time>2026-04-03T13:25:53.833Z</time></trkpt><trkpt lat="45.28521539094962" lon="11.703602171447653"><ele>245.0</ele><time>2026-04-03T13:25:54.833Z</time></trkpt><trkpt lat="45.285277481810766" lon="11.703637675659092"><ele>246.33333333333331</ele><time>2026-04-03T13:25:55.833Z</time></trkpt><trkpt lat="45.285343820859914" lon="11.703617174118914"><ele>247.66666666666666</ele><time>2026-04-03T13:25:56.833Z</time></trkpt><trkpt lat="45.28541309795249" lon="11.703631653115053"><ele>249.0</ele><time>2026-04-03T13:25:57.833Z</time></trkpt><trkpt lat="45.285481961282734" lon="11.703634822634463"><ele>249.0</ele><time>2026-04-03T13:25:58.833Z</time></trkpt><trkpt lat="45.28555934140725" lon="11.703625793185832"><ele>249.0</ele><time>2026-04-03T13:25:59.833Z</time></trkpt><trkpt lat="45.2856359078712" lon="11.703650702409355"><ele>249.0</ele><time>2026-04-03T13:26:00.833Z</time></trkpt><trkpt lat="45.28571356609728" lon="11.703652475539362"><ele>249.0</ele><time>2026-04-03T13:26:01.833Z</time></trkpt><trkpt lat="45.28578855580998" lon="11.703632116201907"><ele>249.0</ele><time>2026-04-03T13:26:02.833Z</time></trkpt><trkpt lat="45.28586144600365" lon="11.703636502486308"><ele>249.0</ele><time>2026-04-03T13:26:03.833Z</time></trkpt><trkpt lat="45.28593524794083" lon="11.703661172355218"><ele>249.0</ele><time>2026-04-03T13:26:04.833Z</time></trkpt><trkpt lat="45.28600457426824" lon="11.703666407018273"><ele>248.99999999999997</ele><time>2026-04-03T13:26:05.833Z</time></trkpt><trkpt lat="45.28607258940904" lon="11.703671542677714"><ele>249.0</ele><time>2026-04-03T13:26:06.833Z</time></trkpt><trkpt lat="45.28613432006823" lon="11.70365281597022"><ele>249.0</ele><time>2026-04-03T13:26:07.833Z</time></trkpt><trkpt lat="45.28620373047723" lon="11.703660017916603"><ele>248.99999999999997</ele><time>2026-04-03T13:26:08.833Z</time></trkpt><trkpt lat="45.28627393022507" lon="11.703659966928171"><ele>249.0</ele><time>2026-04-03T13:26:09.833Z</time></trkpt><trkpt lat="45.28634016637833" lon="11.703675204774282"><ele>249.0</ele><time>2026-04-03T13:26:10.833Z</time></trkpt><trkpt lat="45.28642591683228" lon="11.70361108958952"><ele>247.5</ele><time>2026-04-03T13:26:12.833Z</time></trkpt><trkpt lat="45.286482214263756" lon="11.703569651673098"><ele>246.0</ele><time>2026-04-03T13:26:14.833Z</time></trkpt><trkpt lat="45.28656355313198" lon="11.7035149555314"><ele>244.5</ele><time>2026-04-03T13:26:17.833Z</time></trkpt><trkpt lat="45.2866313465164" lon="11.70346927331046"><ele>243.0</ele><time>2026-04-03T13:26:20.833Z</time></trkpt><trkpt lat="45.28669714037329" lon="11.703375230144598"><ele>241.5</ele><time>2026-04-03T13:26:23.833Z</time></trkpt><trkpt lat="45.2867712774949" lon="11.703265956330043"><ele>240.0</ele><time>2026-04-03T13:26:25.833Z</time></trkpt><trkpt lat="45.28683164700921" lon="11.70316274837567"><ele>240.0</ele><time>2026-04-03T13:26:27.833Z</time></trkpt><trkpt lat="45.28689293585332" lon="11.703048777295244"><ele>240.0</ele><time>2026-04-03T13:26:29.833Z</time></trkpt><trkpt lat="45.28694870041991" lon="11.702927715837912"><ele>240.0</ele><time>2026-04-03T13:26:31.833Z</time></trkpt><trkpt lat="45.28703160909201" lon="11.702833793217492"><ele>240.0</ele><time>2026-04-03T13:26:33.833Z</time></trkpt><trkpt lat="45.28709201343126" lon="11.702717404157788"><ele>240.0</ele><time>2026-04-03T13:26:35.833Z</time></trkpt><trkpt lat="45.287142270711044" lon="11.702600189547987"><ele>239.5</ele><time>2026-04-03T13:26:37.833Z</time></trkpt><trkpt lat="45.287198230653324" lon="11.702522562014856"><ele>239.0</ele><time>2026-04-03T13:26:39.833Z</time></trkpt><trkpt lat="45.28724614821554" lon="11.702459327052319"><ele>238.5</ele><time>2026-04-03T13:26:41.833Z</time></trkpt><trkpt lat="45.28729372795763" lon="11.702354771107952"><ele>238.0</ele><time>2026-04-03T13:26:43.832Z</time></trkpt><trkpt lat="45.287346974305144" lon="11.702244639505093"><ele>237.5</ele><time>2026-04-03T13:26:45.833Z</time></trkpt><trkpt lat="45.28738517153955" lon="11.702125093818344"><ele>237.0</ele><time>2026-04-03T13:26:47.833Z</time></trkpt><trkpt lat="45.287425530976556" lon="11.702019070913593"><ele>238.66666666666666</ele><time>2026-04-03T13:26:49.833Z</time></trkpt><trkpt lat="45.287462661305526" lon="11.701914340223155"><ele>240.33333333333331</ele><time>2026-04-03T13:26:51.833Z</time></trkpt><trkpt lat="45.28749435209233" lon="11.701801917394882"><ele>242.0</ele><time>2026-04-03T13:26:53.833Z</time></trkpt><trkpt lat="45.28750499747789" lon="11.701675409579167"><ele>243.66666666666666</ele><time>2026-04-03T13:26:55.833Z</time></trkpt><trkpt lat="45.28751740533669" lon="11.701565666711955"><ele>245.33333333333331</ele><time>2026-04-03T13:26:57.833Z</time></trkpt><trkpt lat="45.287532629146476" lon="11.701450916197084"><ele>247.0</ele><time>2026-04-03T13:26:59.833Z</time></trkpt><trkpt lat="45.28753087722048" lon="11.70133259091673"><ele>246.99999999999997</ele><time>2026-04-03T13:27:01.833Z</time></trkpt><trkpt lat="45.28753015832126" lon="11.701214428599162"><ele>247.0</ele><time>2026-04-03T13:27:03.833Z</time></trkpt><trkpt lat="45.287524447673455" lon="11.701105839304732"><ele>247.0</ele><time>2026-04-03T13:27:05.833Z</time></trkpt><trkpt lat="45.28753649160385" lon="11.700978655443523"><ele>247.0</ele><time>2026-04-03T13:27:07.833Z</time></trkpt><trkpt lat="45.28753741289601" lon="11.70086268504817"><ele>246.99999999999997</ele><time>2026-04-03T13:27:09.833Z</time></trkpt><trkpt lat="45.287531509751965" lon="11.700746027705767"><ele>247.0</ele><time>2026-04-03T13:27:11.833Z</time></trkpt><trkpt lat="45.28753205211734" lon="11.700629629044313"><ele>247.66666666666666</ele><time>2026-04-03T13:27:13.833Z</time></trkpt><trkpt lat="45.28752621042801" lon="11.700513276310245"><ele>248.33333333333331</ele><time>2026-04-03T13:27:15.833Z</time></trkpt><trkpt lat="45.287531202044036" lon="11.700399050667206"><ele>249.0</ele><time>2026-04-03T13:27:17.833Z</time></trkpt><trkpt lat="45.287534935048846" lon="11.700281689915451"><ele>249.66666666666669</ele><time>2026-04-03T13:27:19.833Z</time></trkpt><trkpt lat="45.28755087456358" lon="11.700155947161988"><ele>250.33333333333334</ele><time>2026-04-03T13:27:21.833Z</time></trkpt><trkpt lat="45.287581943443186" lon="11.700043573978968"><ele>251.0</ele><time>2026-04-03T13:27:23.833Z</time></trkpt><trkpt lat="45.28762686515044" lon="11.699939707575536"><ele>251.16666666666669</ele><time>2026-04-03T13:27:25.833Z</time></trkpt><trkpt lat="45.28768061769345" lon="11.699839470164536"><ele>251.33333333333334</ele><time>2026-04-03T13:27:27.833Z</time></trkpt><trkpt lat="45.287748638906805" lon="11.699758605672642"><ele>251.5</ele><time>2026-04-03T13:27:29.833Z</time></trkpt><trkpt lat="45.287814245550614" lon="11.699699582413295"><ele>251.66666666666669</ele><time>2026-04-03T13:27:31.833Z</time></trkpt><trkpt lat="45.28789024988995" lon="11.699654022607753"><ele>251.83333333333334</ele><time>2026-04-03T13:27:33.833Z</time></trkpt><trkpt lat="45.28796903337402" lon="11.699624910539846"><ele>252.0</ele><time>2026-04-03T13:27:35.833Z</time></trkpt><trkpt lat="45.28805405460177" lon="11.6995865998542"><ele>254.5</ele><time>2026-04-03T13:27:37.833Z</time></trkpt><trkpt lat="45.28814071883622" lon="11.69956840170296"><ele>257.0</ele><time>2026-04-03T13:27:39.833Z</time></trkpt><trkpt lat="45.28823425084054" lon="11.699545667695949"><ele>259.5</ele><time>2026-04-03T13:27:41.833Z</time></trkpt><trkpt lat="45.28831558359678" lon="11.69949026054191"><ele>262.0</ele><time>2026-04-03T13:27:43.833Z</time></trkpt><trkpt lat="45.28838396037059" lon="11.699419966730044"><ele>264.5</ele><time>2026-04-03T13:27:45.833Z</time></trkpt><trkpt lat="45.28843573355442" lon="11.699326246073788"><ele>267.0</ele><time>2026-04-03T13:27:47.833Z</time></trkpt><trkpt lat="45.28847479810847" lon="11.699212123957853"><ele>267.0</ele><time>2026-04-03T13:27:49.833Z</time></trkpt><trkpt lat="45.28851409471853" lon="11.69910278092463"><ele>267.0</ele><time>2026-04-03T13:27:51.833Z</time></trkpt><trkpt lat="45.28854410367632" lon="11.698995222210966"><ele>267.0</ele><time>2026-04-03T13:27:53.833Z</time></trkpt><trkpt lat="45.288567032239776" lon="11.698878730273602"><ele>267.0</ele><time>2026-04-03T13:27:55.832Z</time></trkpt><trkpt lat="45.28860119691082" lon="11.69875234853971"><ele>267.0</ele><time>2026-04-03T13:27:57.832Z</time></trkpt><trkpt lat="45.288631501885035" lon="11.698637421486652"><ele>267.0</ele><time>2026-04-03T13:27:59.832Z</time></trkpt><trkpt lat="45.28866452597458" lon="11.698511718080526"><ele>265.8</ele><time>2026-04-03T13:28:01.832Z</time></trkpt><trkpt lat="45.28871894694378" lon="11.698385898528848"><ele>264.6</ele><time>2026-04-03T13:28:03.832Z</time></trkpt><trkpt lat="45.2887716684916" lon="11.698288776178043"><ele>263.40000000000003</ele><time>2026-04-03T13:28:05.832Z</time></trkpt><trkpt lat="45.28880845601539" lon="11.698185164375625"><ele>262.2</ele><time>2026-04-03T13:28:07.832Z</time></trkpt><trkpt lat="45.28883127663811" lon="11.698061911010793"><ele>261.0</ele><time>2026-04-03T13:28:09.832Z</time></trkpt><trkpt lat="45.28884738325686" lon="11.697927150909443"><ele>261.0</ele><time>2026-04-03T13:28:11.832Z</time></trkpt><trkpt lat="45.28885626730868" lon="11.6977898904542"><ele>261.0</ele><time>2026-04-03T13:28:13.832Z</time></trkpt><trkpt lat="45.28884787279077" lon="11.697663606766334"><ele>261.0</ele><time>2026-04-03T13:28:15.832Z</time></trkpt><trkpt lat="45.288850839470356" lon="11.697526098562234"><ele>261.0</ele><time>2026-04-03T13:28:17.832Z</time></trkpt><trkpt lat="45.28884288789166" lon="11.69738863836551"><ele>261.0</ele><time>2026-04-03T13:28:19.832Z</time></trkpt><trkpt lat="45.288826195464125" lon="11.697263247689914"><ele>261.0</ele><time>2026-04-03T13:28:21.832Z</time></trkpt><trkpt lat="45.28878479974755" lon="11.697128196411917"><ele>261.0</ele><time>2026-04-03T13:28:23.832Z</time></trkpt><trkpt lat="45.288730479399526" lon="11.696998017055478"><ele>261.0</ele><time>2026-04-03T13:28:25.832Z</time></trkpt><trkpt lat="45.28868811699551" lon="11.696868656845561"><ele>261.0</ele><time>2026-04-03T13:28:27.832Z</time></trkpt><trkpt lat="45.288660506866776" lon="11.69673088674899"><ele>261.0</ele><time>2026-04-03T13:28:29.832Z</time></trkpt><trkpt lat="45.28864668077049" lon="11.69658477293299"><ele>261.40000000000003</ele><time>2026-04-03T13:28:31.832Z</time></trkpt><trkpt lat="45.28864567132087" lon="11.696427650193629"><ele>261.8</ele><time>2026-04-03T13:28:33.832Z</time></trkpt><trkpt lat="45.28867625617056" lon="11.696283452040664"><ele>262.20000000000005</ele><time>2026-04-03T13:28:35.832Z</time></trkpt><trkpt lat="45.288724226059905" lon="11.696139224773333"><ele>262.6</ele><time>2026-04-03T13:28:37.832Z</time></trkpt><trkpt lat="45.288769496206115" lon="11.696011361288425"><ele>263.0</ele><time>2026-04-03T13:28:39.832Z</time></trkpt><trkpt lat="45.288824647577215" lon="11.695885307659202"><ele>263.0</ele><time>2026-04-03T13:28:41.832Z</time></trkpt><trkpt lat="45.288883922454566" lon="11.695757082167836"><ele>263.0</ele><time>2026-04-03T13:28:43.831Z</time></trkpt><trkpt lat="45.2889365974153" lon="11.695634948818643"><ele>263.0</ele><time>2026-04-03T13:28:45.832Z</time></trkpt><trkpt lat="45.288982845796596" lon="11.695517231625209"><ele>263.0</ele><time>2026-04-03T13:28:47.831Z</time></trkpt><trkpt lat="45.28904453788456" lon="11.695401927320411"><ele>263.0</ele><time>2026-04-03T13:28:49.831Z</time></trkpt><trkpt lat="45.28911667298314" lon="11.695306450637203"><ele>267.0</ele><time>2026-04-03T13:28:51.831Z</time></trkpt><trkpt lat="45.28919350443421" lon="11.695202518797524"><ele>271.0</ele><time>2026-04-03T13:28:53.832Z</time></trkpt><trkpt lat="45.289257983395096" lon="11.695113619212353"><ele>275.0</ele><time>2026-04-03T13:28:55.83Z</time></trkpt><trkpt lat="45.28930536041102" lon="11.694995560404191"><ele>279.0</ele><time>2026-04-03T13:28:57.83Z</time></trkpt><trkpt lat="45.28931250121306" lon="11.694854353641219"><ele>283.0</ele><time>2026-04-03T13:28:59.83Z</time></trkpt><trkpt lat="45.28926553089169" lon="11.694721141100986"><ele>283.0</ele><time>2026-04-03T13:29:01.83Z</time></trkpt><trkpt lat="45.28921254829832" lon="11.694607013010195"><ele>283.0</ele><time>2026-04-03T13:29:03.83Z</time></trkpt><trkpt lat="45.28917862841016" lon="11.694491971071638"><ele>283.0</ele><time>2026-04-03T13:29:05.83Z</time></trkpt><trkpt lat="45.289176529954375" lon="11.694357123085682"><ele>283.0</ele><time>2026-04-03T13:29:07.83Z</time></trkpt><trkpt lat="45.28920349072619" lon="11.694253806224543"><ele>283.0</ele><time>2026-04-03T13:29:09.83Z</time></trkpt><trkpt lat="45.28921670980177" lon="11.694142216714113"><ele>283.0</ele><time>2026-04-03T13:29:11.83Z</time></trkpt><trkpt lat="45.28921630704021" lon="11.694010869617022"><ele>283.3333333333333</ele><time>2026-04-03T13:29:13.83Z</time></trkpt><trkpt lat="45.28921247377026" lon="11.693890764764474"><ele>283.66666666666663</ele><time>2026-04-03T13:29:15.83Z</time></trkpt><trkpt lat="45.28920355695376" lon="11.693772326364552"><ele>284.0</ele><time>2026-04-03T13:29:17.83Z</time></trkpt><trkpt lat="45.289187557545205" lon="11.693651829416138"><ele>284.3333333333333</ele><time>2026-04-03T13:29:19.83Z</time></trkpt><trkpt lat="45.28916253656473" lon="11.69353964927881"><ele>284.6666666666667</ele><time>2026-04-03T13:29:21.83Z</time></trkpt><trkpt lat="45.28912849933683" lon="11.693438733411462"><ele>285.0</ele><time>2026-04-03T13:29:23.83Z</time></trkpt><trkpt lat="45.28907762157811" lon="11.69332564184101"><ele>285.6</ele><time>2026-04-03T13:29:25.83Z</time></trkpt><trkpt lat="45.28902886554002" lon="11.69321601757657"><ele>286.2</ele><time>2026-04-03T13:29:27.83Z</time></trkpt><trkpt lat="45.28897737996345" lon="11.69310405363411"><ele>286.8</ele><time>2026-04-03T13:29:29.83Z</time></trkpt><trkpt lat="45.28892049985989" lon="11.692988769173505"><ele>287.4</ele><time>2026-04-03T13:29:31.83Z</time></trkpt><trkpt lat="45.28886482411889" lon="11.692872543449173"><ele>288.0</ele><time>2026-04-03T13:29:33.83Z</time></trkpt><trkpt lat="45.28881367943393" lon="11.692771599268196"><ele>288.0</ele><time>2026-04-03T13:29:35.83Z</time></trkpt><trkpt lat="45.288762203873574" lon="11.69267548192888"><ele>288.0</ele><time>2026-04-03T13:29:37.83Z</time></trkpt><trkpt lat="45.28869918918948" lon="11.692604473666533"><ele>288.0</ele><time>2026-04-03T13:29:39.83Z</time></trkpt><trkpt lat="45.28861950457979" lon="11.692542675494485"><ele>288.0</ele><time>2026-04-03T13:29:41.83Z</time></trkpt><trkpt lat="45.28855150034493" lon="11.692490648767656"><ele>288.0</ele><time>2026-04-03T13:29:43.83Z</time></trkpt><trkpt lat="45.2885026068439" lon="11.692427563088295"><ele>288.0</ele><time>2026-04-03T13:29:45.83Z</time></trkpt><trkpt lat="45.28845538708212" lon="11.692310129607758"><ele>288.0</ele><time>2026-04-03T13:29:48.83Z</time></trkpt><trkpt lat="45.28842975805487" lon="11.692211202071258"><ele>288.0</ele><time>2026-04-03T13:29:50.83Z</time></trkpt><trkpt lat="45.288389908462904" lon="11.692090824919534"><ele>288.0</ele><time>2026-04-03T13:29:52.83Z</time></trkpt><trkpt lat="45.28835905376154" lon="11.69196909824317"><ele>288.0</ele><time>2026-04-03T13:29:54.83Z</time></trkpt><trkpt lat="45.28831753061781" lon="11.691852035625255"><ele>288.0</ele><time>2026-04-03T13:29:56.83Z</time></trkpt><trkpt lat="45.288281818995245" lon="11.691732913568073"><ele>288.0</ele><time>2026-04-03T13:29:58.83Z</time></trkpt><trkpt lat="45.288246351071685" lon="11.691613960530784"><ele>288.4</ele><time>2026-04-03T13:30:00.83Z</time></trkpt><trkpt lat="45.288199156022124" lon="11.691494689092908"><ele>288.8</ele><time>2026-04-03T13:30:02.83Z</time></trkpt><trkpt lat="45.28816870990334" lon="11.691371218700198"><ele>289.2</ele><time>2026-04-03T13:30:04.83Z</time></trkpt><trkpt lat="45.28813566602544" lon="11.691249684297079"><ele>289.6</ele><time>2026-04-03T13:30:06.83Z</time></trkpt><trkpt lat="45.28808969243306" lon="11.691111349356394"><ele>290.0</ele><time>2026-04-03T13:30:08.83Z</time></trkpt><trkpt lat="45.28805365062984" lon="11.69098190629969"><ele>286.8</ele><time>2026-04-03T13:30:10.83Z</time></trkpt><trkpt lat="45.28801760068397" lon="11.690853060752955"><ele>283.6</ele><time>2026-04-03T13:30:12.83Z</time></trkpt><trkpt lat="45.287984342650695" lon="11.690715665809922"><ele>280.4</ele><time>2026-04-03T13:30:14.83Z</time></trkpt><trkpt lat="45.28794951059398" lon="11.690568180492892"><ele>277.2</ele><time>2026-04-03T13:30:16.83Z</time></trkpt><trkpt lat="45.28792190274044" lon="11.6904236003522"><ele>274.0</ele><time>2026-04-03T13:30:18.83Z</time></trkpt><trkpt lat="45.28788996649959" lon="11.690290553912405"><ele>274.59999999999997</ele><time>2026-04-03T13:30:20.83Z</time></trkpt><trkpt lat="45.28786354962503" lon="11.690162578402754"><ele>275.2</ele><time>2026-04-03T13:30:22.83Z</time></trkpt><trkpt lat="45.28784023029536" lon="11.690030857726251"><ele>275.79999999999995</ele><time>2026-04-03T13:30:24.83Z</time></trkpt><trkpt lat="45.28781325183223" lon="11.689888758645413"><ele>276.4</ele><time>2026-04-03T13:30:26.83Z</time></trkpt><trkpt lat="45.287783605012756" lon="11.689757072963747"><ele>277.0</ele><time>2026-04-03T13:30:28.83Z</time></trkpt><trkpt lat="45.287755728791716" lon="11.689623811821903"><ele>277.0</ele><time>2026-04-03T13:30:30.83Z</time></trkpt><trkpt lat="45.287729671790295" lon="11.689493185547137"><ele>277.0</ele><time>2026-04-03T13:30:32.83Z</time></trkpt><trkpt lat="45.28770193087036" lon="11.689359274374366"><ele>277.0</ele><time>2026-04-03T13:30:34.83Z</time></trkpt><trkpt lat="45.28767607291883" lon="11.689228977216384"><ele>277.0</ele><time>2026-04-03T13:30:36.83Z</time></trkpt><trkpt lat="45.28764955982893" lon="11.689101999838298"><ele>277.0</ele><time>2026-04-03T13:30:38.83Z</time></trkpt><trkpt lat="45.28762759076047" lon="11.688969253834633"><ele>276.4</ele><time>2026-04-03T13:30:40.83Z</time></trkpt><trkpt lat="45.28760206840995" lon="11.68883164961316"><ele>275.79999999999995</ele><time>2026-04-03T13:30:42.83Z</time></trkpt><trkpt lat="45.28757632093755" lon="11.688693367263067"><ele>275.2</ele><time>2026-04-03T13:30:44.829Z</time></trkpt><trkpt lat="45.28755443056511" lon="11.688556498540077"><ele>274.59999999999997</ele><time>2026-04-03T13:30:46.829Z</time></trkpt><trkpt lat="45.28752823965288" lon="11.688408630637685"><ele>274.0</ele><time>2026-04-03T13:30:48.83Z</time></trkpt><trkpt lat="45.287500082733025" lon="11.688268999198439"><ele>272.75</ele><time>2026-04-03T13:30:50.83Z</time></trkpt><trkpt lat="45.28747516760271" lon="11.688116135731304"><ele>271.5</ele><time>2026-04-03T13:30:52.829Z</time></trkpt><trkpt lat="45.28745064490164" lon="11.687950944171043"><ele>270.25</ele><time>2026-04-03T13:30:54.829Z</time></trkpt><trkpt lat="45.287423607739" lon="11.687789212017236"><ele>269.0</ele><time>2026-04-03T13:30:56.829Z</time></trkpt><trkpt lat="45.28740301022015" lon="11.687624330742421"><ele>267.2</ele><time>2026-04-03T13:30:58.829Z</time></trkpt><trkpt lat="45.287396953842546" lon="11.687457412981576"><ele>265.4</ele><time>2026-04-03T13:31:00.83Z</time></trkpt><trkpt lat="45.28739110164211" lon="11.687307656925535"><ele>263.6</ele><time>2026-04-03T13:31:02.83Z</time></trkpt><trkpt lat="45.287382794950204" lon="11.68715097599445"><ele>261.8</ele><time>2026-04-03T13:31:04.83Z</time></trkpt><trkpt lat="45.28738043512803" lon="11.686997862686146"><ele>260.0</ele><time>2026-04-03T13:31:06.83Z</time></trkpt><trkpt lat="45.2873691895734" lon="11.686847898456184"><ele>258.8</ele><time>2026-04-03T13:31:08.83Z</time></trkpt><trkpt lat="45.287350368727616" lon="11.686704698239355"><ele>257.6</ele><time>2026-04-03T13:31:10.83Z</time></trkpt><trkpt lat="45.287334604386274" lon="11.686559642796842"><ele>256.4</ele><time>2026-04-03T13:31:12.83Z</time></trkpt><trkpt lat="45.28731329528075" lon="11.686416744557656"><ele>255.2</ele><time>2026-04-03T13:31:14.83Z</time></trkpt><trkpt lat="45.28729445494896" lon="11.686273678928215"><ele>254.0</ele><time>2026-04-03T13:31:16.83Z</time></trkpt><trkpt lat="45.287291189228895" lon="11.686142093116956"><ele>253.79999999999998</ele><time>2026-04-03T13:31:18.83Z</time></trkpt><trkpt lat="45.28726013060768" lon="11.686008283592418"><ele>253.59999999999997</ele><time>2026-04-03T13:31:20.83Z</time></trkpt><trkpt lat="45.287212117532775" lon="11.68588138644078"><ele>253.4</ele><time>2026-04-03T13:31:22.83Z</time></trkpt><trkpt lat="45.28710914746806" lon="11.685816161153161"><ele>253.2</ele><time>2026-04-03T13:31:24.83Z</time></trkpt><trkpt lat="45.28704552102441" lon="11.685732264843935"><ele>253.0</ele><time>2026-04-03T13:31:26.83Z</time></trkpt><trkpt lat="45.28696276082364" lon="11.685639314755697"><ele>253.0</ele><time>2026-04-03T13:31:28.83Z</time></trkpt><trkpt lat="45.286886544564304" lon="11.685545078360121"><ele>253.0</ele><time>2026-04-03T13:31:30.83Z</time></trkpt><trkpt lat="45.28679178838758" lon="11.6854678871204"><ele>253.0</ele><time>2026-04-03T13:31:32.83Z</time></trkpt><trkpt lat="45.28672367500305" lon="11.685369889667891"><ele>253.0</ele><time>2026-04-03T13:31:34.83Z</time></trkpt><trkpt lat="45.28663197895082" lon="11.68529962893854"><ele>253.0</ele><time>2026-04-03T13:31:36.83Z</time></trkpt><trkpt lat="45.2865539564637" lon="11.685214451035185"><ele>254.0</ele><time>2026-04-03T13:31:38.83Z</time></trkpt><trkpt lat="45.28647408514559" lon="11.685146184772814"><ele>255.0</ele><time>2026-04-03T13:31:40.83Z</time></trkpt><trkpt lat="45.28640292983832" lon="11.685077965135383"><ele>256.0</ele><time>2026-04-03T13:31:42.83Z</time></trkpt><trkpt lat="45.28632397872378" lon="11.685007496297153"><ele>257.0</ele><time>2026-04-03T13:31:44.83Z</time></trkpt><trkpt lat="45.28623222346308" lon="11.68494637519674"><ele>258.0</ele><time>2026-04-03T13:31:46.83Z</time></trkpt><trkpt lat="45.286142227108456" lon="11.684895228685363"><ele>258.0</ele><time>2026-04-03T13:31:48.83Z</time></trkpt><trkpt lat="45.28604946160712" lon="11.684851412519802"><ele>258.0</ele><time>2026-04-03T13:31:50.83Z</time></trkpt><trkpt lat="45.285962953893645" lon="11.684842318463367"><ele>258.0</ele><time>2026-04-03T13:31:52.83Z</time></trkpt><trkpt lat="45.285884999898826" lon="11.68487350780194"><ele>258.0</ele><time>2026-04-03T13:31:54.83Z</time></trkpt><trkpt lat="45.28581707813536" lon="11.684967442163257"><ele>258.0</ele><time>2026-04-03T13:31:56.83Z</time></trkpt><trkpt lat="45.28576447485069" lon="11.685083498254798"><ele>258.0</ele><time>2026-04-03T13:31:58.829Z</time></trkpt><trkpt lat="45.285743814970715" lon="11.685226722223655"><ele>258.0</ele><time>2026-04-03T13:32:00.829Z</time></trkpt><trkpt lat="45.285766430352055" lon="11.685364606970557"><ele>258.0</ele><time>2026-04-03T13:32:02.829Z</time></trkpt><trkpt lat="45.285808884767725" lon="11.685488561660494"><ele>258.0</ele><time>2026-04-03T13:32:04.829Z</time></trkpt><trkpt lat="45.285831117516764" lon="11.685607513330664"><ele>258.0</ele><time>2026-04-03T13:32:06.829Z</time></trkpt><trkpt lat="45.285815556663316" lon="11.685722635221186"><ele>256.4</ele><time>2026-04-03T13:32:08.829Z</time></trkpt><trkpt lat="45.28575523160073" lon="11.685812692657242"><ele>254.8</ele><time>2026-04-03T13:32:10.829Z</time></trkpt><trkpt lat="45.2856511523507" lon="11.68584750232636"><ele>253.2</ele><time>2026-04-03T13:32:12.829Z</time></trkpt><trkpt lat="45.28556021114461" lon="11.685853576882998"><ele>251.6</ele><time>2026-04-03T13:32:14.829Z</time></trkpt><trkpt lat="45.28545730624971" lon="11.685864063522725"><ele>250.0</ele><time>2026-04-03T13:32:16.829Z</time></trkpt><trkpt lat="45.28535845758167" lon="11.685852666118521"><ele>249.8</ele><time>2026-04-03T13:32:18.829Z</time></trkpt><trkpt lat="45.285265967638836" lon="11.685824977691915"><ele>249.6</ele><time>2026-04-03T13:32:20.829Z</time></trkpt><trkpt lat="45.285178497961105" lon="11.685788006794223"><ele>249.39999999999998</ele><time>2026-04-03T13:32:22.829Z</time></trkpt><trkpt lat="45.28509609894907" lon="11.685740724695647"><ele>249.2</ele><time>2026-04-03T13:32:24.829Z</time></trkpt><trkpt lat="45.28501092255853" lon="11.685699967043337"><ele>249.0</ele><time>2026-04-03T13:32:26.829Z</time></trkpt><trkpt lat="45.28493344525015" lon="11.685637317939966"><ele>249.0</ele><time>2026-04-03T13:32:28.829Z</time></trkpt><trkpt lat="45.28485494663411" lon="11.68555151974751"><ele>248.99999999999997</ele><time>2026-04-03T13:32:30.829Z</time></trkpt><trkpt lat="45.28476544274436" lon="11.685479837238915"><ele>248.99999999999997</ele><time>2026-04-03T13:32:32.829Z</time></trkpt><trkpt lat="45.284664506140366" lon="11.68543755382507"><ele>249.0</ele><time>2026-04-03T13:32:34.829Z</time></trkpt><trkpt lat="45.2845576577389" lon="11.68541322479851"><ele>249.0</ele><time>2026-04-03T13:32:36.829Z</time></trkpt><trkpt lat="45.28446037132763" lon="11.68537869556913"><ele>249.6</ele><time>2026-04-03T13:32:38.829Z</time></trkpt><trkpt lat="45.28436911301234" lon="11.685336314917784"><ele>250.2</ele><time>2026-04-03T13:32:40.829Z</time></trkpt><trkpt lat="45.2842799007227" lon="11.685287100030735"><ele>250.79999999999998</ele><time>2026-04-03T13:32:42.829Z</time></trkpt><trkpt lat="45.28419528366613" lon="11.685239910716247"><ele>251.39999999999998</ele><time>2026-04-03T13:32:44.829Z</time></trkpt><trkpt lat="45.28410796977769" lon="11.685196299311073"><ele>252.0</ele><time>2026-04-03T13:32:46.829Z</time></trkpt><trkpt lat="45.28402614552539" lon="11.68513777068137"><ele>252.0</ele><time>2026-04-03T13:32:48.829Z</time></trkpt><trkpt lat="45.283933994912005" lon="11.685083624751412"><ele>252.0</ele><time>2026-04-03T13:32:50.829Z</time></trkpt><trkpt lat="45.283840637173284" lon="11.685037069507207"><ele>252.0</ele><time>2026-04-03T13:32:52.829Z</time></trkpt><trkpt lat="45.28376180225022" lon="11.685012349674421"><ele>252.0</ele><time>2026-04-03T13:32:54.829Z</time></trkpt><trkpt lat="45.28368600942236" lon="11.685025599789908"><ele>252.0</ele><time>2026-04-03T13:32:57.829Z</time></trkpt><trkpt lat="45.283614073027074" lon="11.685062458365298"><ele>252.0</ele><time>2026-04-03T13:32:59.828Z</time></trkpt><trkpt lat="45.283530843534486" lon="11.685095491212667"><ele>248.6</ele><time>2026-04-03T13:33:01.829Z</time></trkpt><trkpt lat="45.28342988015506" lon="11.685102903485692"><ele>245.2</ele><time>2026-04-03T13:33:03.829Z</time></trkpt><trkpt lat="45.28334123882266" lon="11.685118990255566"><ele>241.8</ele><time>2026-04-03T13:33:05.828Z</time></trkpt><trkpt lat="45.283239378245455" lon="11.685123159511786"><ele>238.4</ele><time>2026-04-03T13:33:07.828Z</time></trkpt><trkpt lat="45.28314498806706" lon="11.685107397208085"><ele>235.0</ele><time>2026-04-03T13:33:09.828Z</time></trkpt><trkpt lat="45.28306546265912" lon="11.685063923556717"><ele>230.0</ele><time>2026-04-03T13:33:11.828Z</time></trkpt><trkpt lat="45.282980567774345" lon="11.68496889461223"><ele>225.0</ele><time>2026-04-03T13:33:13.828Z</time></trkpt><trkpt lat="45.28293043765477" lon="11.684838502517556"><ele>220.0</ele><time>2026-04-03T13:33:15.828Z</time></trkpt><trkpt lat="45.282882715609034" lon="11.684724113604341"><ele>215.0</ele><time>2026-04-03T13:33:17.828Z</time></trkpt><trkpt lat="45.282833994228874" lon="11.684596567996582"><ele>210.0</ele><time>2026-04-03T13:33:19.828Z</time></trkpt><trkpt lat="45.28282059828494" lon="11.684465002719838"><ele>209.33333333333334</ele><time>2026-04-03T13:33:21.828Z</time></trkpt><trkpt lat="45.28282352781985" lon="11.684344321434809"><ele>208.66666666666669</ele><time>2026-04-03T13:33:23.828Z</time></trkpt><trkpt lat="45.282833281178796" lon="11.68422940600919"><ele>208.0</ele><time>2026-04-03T13:33:25.828Z</time></trkpt><trkpt lat="45.282853390731795" lon="11.684110545445574"><ele>207.33333333333334</ele><time>2026-04-03T13:33:27.828Z</time></trkpt><trkpt lat="45.282879720400445" lon="11.683989587901628"><ele>206.66666666666669</ele><time>2026-04-03T13:33:29.828Z</time></trkpt><trkpt lat="45.2829022230543" lon="11.683883051768802"><ele>206.0</ele><time>2026-04-03T13:33:31.828Z</time></trkpt><trkpt lat="45.282929219378715" lon="11.683785715782093"><ele>206.0</ele><time>2026-04-03T13:33:33.828Z</time></trkpt><trkpt lat="45.282933368052745" lon="11.683658184957887"><ele>206.0</ele><time>2026-04-03T13:33:35.828Z</time></trkpt><trkpt lat="45.28293404692724" lon="11.683534836291312"><ele>206.0</ele><time>2026-04-03T13:33:37.828Z</time></trkpt><trkpt lat="45.28294334854588" lon="11.6834049660304"><ele>206.0</ele><time>2026-04-03T13:33:39.828Z</time></trkpt><trkpt lat="45.28294177458968" lon="11.683271583885231"><ele>206.0</ele><time>2026-04-03T13:33:41.828Z</time></trkpt><trkpt lat="45.28294578489591" lon="11.683137285170956"><ele>205.66666666666669</ele><time>2026-04-03T13:33:43.828Z</time></trkpt><trkpt lat="45.2829415252549" lon="11.68299841171644"><ele>205.33333333333334</ele><time>2026-04-03T13:33:45.828Z</time></trkpt><trkpt lat="45.282925149134776" lon="11.682870872290616"><ele>205.0</ele><time>2026-04-03T13:33:47.828Z</time></trkpt><trkpt lat="45.2829090029886" lon="11.682764288259452"><ele>204.66666666666669</ele><time>2026-04-03T13:33:49.828Z</time></trkpt><trkpt lat="45.282894432674" lon="11.682670308083793"><ele>204.33333333333334</ele><time>2026-04-03T13:33:51.828Z</time></trkpt><trkpt lat="45.282848400704275" lon="11.682541284181358"><ele>204.0</ele><time>2026-04-03T13:33:53.828Z</time></trkpt><trkpt lat="45.28279320346548" lon="11.682477799704367"><ele>204.0</ele><time>2026-04-03T13:33:55.828Z</time></trkpt><trkpt lat="45.28276698024488" lon="11.682374548710825"><ele>204.0</ele><time>2026-04-03T13:33:57.828Z</time></trkpt><trkpt lat="45.282710698018825" lon="11.68228477780103"><ele>204.0</ele><time>2026-04-03T13:33:59.828Z</time></trkpt><trkpt lat="45.28265577335159" lon="11.68219559977199"><ele>204.0</ele><time>2026-04-03T13:34:01.828Z</time></trkpt><trkpt lat="45.28260559528849" lon="11.682099710792551"><ele>204.0</ele><time>2026-04-03T13:34:03.828Z</time></trkpt><trkpt lat="45.28255063826137" lon="11.681999154346496"><ele>204.0</ele><time>2026-04-03T13:34:05.828Z</time></trkpt><trkpt lat="45.282498494886426" lon="11.681906115158785"><ele>203.5</ele><time>2026-04-03T13:34:07.828Z</time></trkpt><trkpt lat="45.28244709327721" lon="11.681845737353683"><ele>203.0</ele><time>2026-04-03T13:34:09.827Z</time></trkpt><trkpt lat="45.28239835467141" lon="11.681778062542222"><ele>202.5</ele><time>2026-04-03T13:34:11.826Z</time></trkpt><trkpt lat="45.28234249209846" lon="11.681702191847583"><ele>202.0</ele><time>2026-04-03T13:34:13.825Z</time></trkpt><trkpt lat="45.28229178386708" lon="11.681633482590643"><ele>201.5</ele><time>2026-04-03T13:34:15.824Z</time></trkpt><trkpt lat="45.282234658455536" lon="11.681549988439047"><ele>201.0</ele><time>2026-04-03T13:34:17.824Z</time></trkpt><trkpt lat="45.28217796850803" lon="11.681454293762847"><ele>201.0</ele><time>2026-04-03T13:34:19.823Z</time></trkpt><trkpt lat="45.28213100468936" lon="11.681366108058057"><ele>201.0</ele><time>2026-04-03T13:34:21.823Z</time></trkpt><trkpt lat="45.282072146485426" lon="11.681268786310573"><ele>201.0</ele><time>2026-04-03T13:34:23.822Z</time></trkpt><trkpt lat="45.282013131333585" lon="11.68118062223971"><ele>201.0</ele><time>2026-04-03T13:34:25.822Z</time></trkpt><trkpt lat="45.281948003507765" lon="11.681119412408487"><ele>201.0</ele><time>2026-04-03T13:34:27.822Z</time></trkpt><trkpt lat="45.281869098480584" lon="11.681070247808238"><ele>201.0</ele><time>2026-04-03T13:34:29.821Z</time></trkpt><trkpt lat="45.281792136703466" lon="11.681027052888235"><ele>202.33333333333334</ele><time>2026-04-03T13:34:31.821Z</time></trkpt><trkpt lat="45.28172636876678" lon="11.681000013633213"><ele>203.66666666666669</ele><time>2026-04-03T13:34:33.821Z</time></trkpt><trkpt lat="45.28166181742092" lon="11.680944721811692"><ele>205.0</ele><time>2026-04-03T13:34:35.821Z</time></trkpt><trkpt lat="45.281581356050864" lon="11.680905618105674"><ele>206.33333333333334</ele><time>2026-04-03T13:34:37.821Z</time></trkpt><trkpt lat="45.28150518157251" lon="11.680858705742434"><ele>207.66666666666669</ele><time>2026-04-03T13:34:39.82Z</time></trkpt><trkpt lat="45.28143458868624" lon="11.680800953123455"><ele>209.0</ele><time>2026-04-03T13:34:41.82Z</time></trkpt><trkpt lat="45.28134929019065" lon="11.680753223748331"><ele>209.00000000000003</ele><time>2026-04-03T13:34:43.82Z</time></trkpt><trkpt lat="45.28126853001396" lon="11.680705448420078"><ele>209.0</ele><time>2026-04-03T13:34:45.82Z</time></trkpt><trkpt lat="45.28119023207094" lon="11.680656476710936"><ele>209.0</ele><time>2026-04-03T13:34:47.82Z</time></trkpt><trkpt lat="45.28110758789311" lon="11.68060462419978"><ele>209.0</ele><time>2026-04-03T13:34:49.82Z</time></trkpt><trkpt lat="45.28103049763987" lon="11.68057060833014"><ele>209.00000000000003</ele><time>2026-04-03T13:34:51.82Z</time></trkpt><trkpt lat="45.28096096211612" lon="11.680522560953344"><ele>209.0</ele><time>2026-04-03T13:34:53.82Z</time></trkpt><trkpt lat="45.28088070889923" lon="11.680423242579952"><ele>209.0</ele><time>2026-04-03T13:34:55.82Z</time></trkpt><trkpt lat="45.280816114899515" lon="11.680334601560716"><ele>209.0</ele><time>2026-04-03T13:34:57.819Z</time></trkpt><trkpt lat="45.28079755333447" lon="11.680206518453222"><ele>209.0</ele><time>2026-04-03T13:34:59.819Z</time></trkpt><trkpt lat="45.28081865967243" lon="11.680044709259338"><ele>209.0</ele><time>2026-04-03T13:35:01.819Z</time></trkpt><trkpt lat="45.280808347641134" lon="11.679874077777056"><ele>209.0</ele><time>2026-04-03T13:35:03.82Z</time></trkpt><trkpt lat="45.280801690581406" lon="11.679783682541345"><ele>209.16666666666669</ele><time>2026-04-03T13:35:04.82Z</time></trkpt><trkpt lat="45.28080105377867" lon="11.6796787503165"><ele>209.33333333333334</ele><time>2026-04-03T13:35:05.82Z</time></trkpt><trkpt lat="45.2807966741932" lon="11.679570182854992"><ele>209.5</ele><time>2026-04-03T13:35:06.819Z</time></trkpt><trkpt lat="45.28079522122215" lon="11.679464944513132"><ele>209.66666666666669</ele><time>2026-04-03T13:35:07.819Z</time></trkpt><trkpt lat="45.28079313505224" lon="11.67935764344079"><ele>209.83333333333334</ele><time>2026-04-03T13:35:08.819Z</time></trkpt><trkpt lat="45.28079406063792" lon="11.679245813621883"><ele>210.0</ele><time>2026-04-03T13:35:09.819Z</time></trkpt><trkpt lat="45.2807942994119" lon="11.679138836998407"><ele>209.14285714285714</ele><time>2026-04-03T13:35:10.819Z</time></trkpt><trkpt lat="45.280801180175196" lon="11.679036038599167"><ele>208.28571428571428</ele><time>2026-04-03T13:35:11.819Z</time></trkpt><trkpt lat="45.28082327880608" lon="11.67893736594322"><ele>207.42857142857144</ele><time>2026-04-03T13:35:12.819Z</time></trkpt><trkpt lat="45.28085477494075" lon="11.678850576363041"><ele>206.57142857142856</ele><time>2026-04-03T13:35:13.819Z</time></trkpt><trkpt lat="45.2808873564634" lon="11.678768626208228"><ele>205.71428571428572</ele><time>2026-04-03T13:35:14.819Z</time></trkpt><trkpt lat="45.28092171365792" lon="11.678686315878714"><ele>204.85714285714286</ele><time>2026-04-03T13:35:15.819Z</time></trkpt><trkpt lat="45.280964729111" lon="11.678600804316844"><ele>204.0</ele><time>2026-04-03T13:35:16.819Z</time></trkpt><trkpt lat="45.28100201668484" lon="11.678511489377431"><ele>202.33333333333334</ele><time>2026-04-03T13:35:17.819Z</time></trkpt><trkpt lat="45.28103999762158" lon="11.67842101192728"><ele>200.66666666666669</ele><time>2026-04-03T13:35:18.819Z</time></trkpt><trkpt lat="45.28107536194767" lon="11.678329129128098"><ele>199.0</ele><time>2026-04-03T13:35:19.819Z</time></trkpt><trkpt lat="45.28111463620719" lon="11.678230880619344"><ele>197.33333333333334</ele><time>2026-04-03T13:35:20.819Z</time></trkpt><trkpt lat="45.28115659756838" lon="11.678132455179618"><ele>195.66666666666669</ele><time>2026-04-03T13:35:21.819Z</time></trkpt><trkpt lat="45.28119768611822" lon="11.678020809202746"><ele>194.0</ele><time>2026-04-03T13:35:22.819Z</time></trkpt><trkpt lat="45.281239765928866" lon="11.677916370315756"><ele>194.00000000000003</ele><time>2026-04-03T13:35:23.819Z</time></trkpt><trkpt lat="45.281281246427916" lon="11.677814154534381"><ele>194.0</ele><time>2026-04-03T13:35:24.819Z</time></trkpt><trkpt lat="45.281327190734594" lon="11.677719832180525"><ele>194.0</ele><time>2026-04-03T13:35:25.819Z</time></trkpt><trkpt lat="45.28137865891512" lon="11.677630044598656"><ele>194.0</ele><time>2026-04-03T13:35:26.819Z</time></trkpt><trkpt lat="45.28142517547963" lon="11.677545595791946"><ele>194.00000000000003</ele><time>2026-04-03T13:35:27.819Z</time></trkpt><trkpt lat="45.28147539472913" lon="11.677462429025965"><ele>194.0</ele><time>2026-04-03T13:35:28.819Z</time></trkpt><trkpt lat="45.281524350513415" lon="11.677379322927584"><ele>193.14285714285714</ele><time>2026-04-03T13:35:29.819Z</time></trkpt><trkpt lat="45.28157627603558" lon="11.677297438350418"><ele>192.2857142857143</ele><time>2026-04-03T13:35:30.819Z</time></trkpt><trkpt lat="45.281626516069885" lon="11.67721122498641"><ele>191.42857142857144</ele><time>2026-04-03T13:35:31.819Z</time></trkpt><trkpt lat="45.2816767778147" lon="11.677131880319923"><ele>190.57142857142856</ele><time>2026-04-03T13:35:32.819Z</time></trkpt><trkpt lat="45.28172290430038" lon="11.677046059728397"><ele>189.71428571428572</ele><time>2026-04-03T13:35:33.819Z</time></trkpt><trkpt lat="45.28175980084576" lon="11.67696176838478"><ele>188.85714285714286</ele><time>2026-04-03T13:35:34.819Z</time></trkpt><trkpt lat="45.281796414278176" lon="11.676876306184498"><ele>188.0</ele><time>2026-04-03T13:35:35.819Z</time></trkpt><trkpt lat="45.28182620788228" lon="11.676785154929027"><ele>188.0</ele><time>2026-04-03T13:35:36.819Z</time></trkpt><trkpt lat="45.281854002553835" lon="11.676700585975526"><ele>188.0</ele><time>2026-04-03T13:35:37.819Z</time></trkpt><trkpt lat="45.28187138706289" lon="11.676612762861868"><ele>188.0</ele><time>2026-04-03T13:35:38.819Z</time></trkpt><trkpt lat="45.28188580486484" lon="11.676506723923305"><ele>188.0</ele><time>2026-04-03T13:35:39.819Z</time></trkpt><trkpt lat="45.281903844000695" lon="11.6763993107896"><ele>188.0</ele><time>2026-04-03T13:35:40.819Z</time></trkpt><trkpt lat="45.281918505792596" lon="11.67629789889012"><ele>188.0</ele><time>2026-04-03T13:35:41.819Z</time></trkpt><trkpt lat="45.28193383577684" lon="11.676190940439511"><ele>188.0</ele><time>2026-04-03T13:35:42.819Z</time></trkpt><trkpt lat="45.281944230609966" lon="11.676076640651706"><ele>186.83333333333331</ele><time>2026-04-03T13:35:43.819Z</time></trkpt><trkpt lat="45.28194714641319" lon="11.675959634424204"><ele>185.66666666666666</ele><time>2026-04-03T13:35:44.819Z</time></trkpt><trkpt lat="45.28195314612584" lon="11.675847688511295"><ele>184.5</ele><time>2026-04-03T13:35:45.819Z</time></trkpt><trkpt lat="45.28195895994263" lon="11.675729723653683"><ele>183.33333333333334</ele><time>2026-04-03T13:35:46.819Z</time></trkpt><trkpt lat="45.28197531250694" lon="11.67562987471787"><ele>182.16666666666669</ele><time>2026-04-03T13:35:47.819Z</time></trkpt><trkpt lat="45.281993348221576" lon="11.67551499303587"><ele>181.0</ele><time>2026-04-03T13:35:48.819Z</time></trkpt><trkpt lat="45.2820035813085" lon="11.67540095393941"><ele>181.0</ele><time>2026-04-03T13:35:49.819Z</time></trkpt><trkpt lat="45.28201353587551" lon="11.675284418403393"><ele>181.0</ele><time>2026-04-03T13:35:50.819Z</time></trkpt><trkpt lat="45.2820208552344" lon="11.675184555929466"><ele>181.0</ele><time>2026-04-03T13:35:51.819Z</time></trkpt><trkpt lat="45.28203396675904" lon="11.675042463558222"><ele>181.0</ele><time>2026-04-03T13:35:53.818Z</time></trkpt><trkpt lat="45.28203978900539" lon="11.674913851399275"><ele>181.0</ele><time>2026-04-03T13:35:55.818Z</time></trkpt><trkpt lat="45.282005259015044" lon="11.674781305622252"><ele>181.0</ele><time>2026-04-03T13:35:57.818Z</time></trkpt><trkpt lat="45.28196024644231" lon="11.674713085668746"><ele>179.16666666666669</ele><time>2026-04-03T13:35:58.818Z</time></trkpt><trkpt lat="45.28185551204063" lon="11.67461012572333"><ele>177.33333333333334</ele><time>2026-04-03T13:36:00.818Z</time></trkpt><trkpt lat="45.28179732373762" lon="11.67455152021431"><ele>175.5</ele><time>2026-04-03T13:36:01.818Z</time></trkpt><trkpt lat="45.28174360975608" lon="11.67449477829452"><ele>173.66666666666666</ele><time>2026-04-03T13:36:02.818Z</time></trkpt><trkpt lat="45.28167629599943" lon="11.674450889528922"><ele>171.83333333333331</ele><time>2026-04-03T13:36:03.818Z</time></trkpt><trkpt lat="45.28160992027091" lon="11.674424227355676"><ele>170.0</ele><time>2026-04-03T13:36:04.818Z</time></trkpt><trkpt lat="45.2814669025778" lon="11.674464232602785"><ele>166.6</ele><time>2026-04-03T13:36:06.818Z</time></trkpt><trkpt lat="45.28139200242269" lon="11.674476375284561"><ele>163.2</ele><time>2026-04-03T13:36:07.818Z</time></trkpt><trkpt lat="45.28132255442343" lon="11.674406415405562"><ele>159.8</ele><time>2026-04-03T13:36:08.818Z</time></trkpt><trkpt lat="45.28121549876746" lon="11.674320679377153"><ele>156.4</ele><time>2026-04-03T13:36:10.818Z</time></trkpt><trkpt lat="45.28117116167211" lon="11.674185837990795"><ele>153.0</ele><time>2026-04-03T13:36:12.818Z</time></trkpt><trkpt lat="45.28116481823121" lon="11.674094310146607"><ele>151.28571428571428</ele><time>2026-04-03T13:36:13.818Z</time></trkpt><trkpt lat="45.281153300288835" lon="11.673989983046782"><ele>149.57142857142858</ele><time>2026-04-03T13:36:14.818Z</time></trkpt><trkpt lat="45.28116227176849" lon="11.673881424700548"><ele>147.85714285714286</ele><time>2026-04-03T13:36:15.818Z</time></trkpt><trkpt lat="45.28115708194318" lon="11.673781820784576"><ele>146.14285714285714</ele><time>2026-04-03T13:36:16.818Z</time></trkpt><trkpt lat="45.281166463982835" lon="11.673674907609461"><ele>144.42857142857142</ele><time>2026-04-03T13:36:17.818Z</time></trkpt><trkpt lat="45.28116046420243" lon="11.673570983154793"><ele>142.71428571428572</ele><time>2026-04-03T13:36:18.818Z</time></trkpt><trkpt lat="45.2811535552204" lon="11.673460953781184"><ele>141.0</ele><time>2026-04-03T13:36:19.818Z</time></trkpt><trkpt lat="45.281142218428016" lon="11.673358544578013"><ele>140.33333333333334</ele><time>2026-04-03T13:36:20.818Z</time></trkpt><trkpt lat="45.281147503092186" lon="11.67326416806045"><ele>139.66666666666666</ele><time>2026-04-03T13:36:21.818Z</time></trkpt><trkpt lat="45.28115754347908" lon="11.673168875730587"><ele>139.0</ele><time>2026-04-03T13:36:22.818Z</time></trkpt><trkpt lat="45.28117497976562" lon="11.673075762200625"><ele>138.33333333333331</ele><time>2026-04-03T13:36:23.818Z</time></trkpt><trkpt lat="45.28120026576474" lon="11.672983498664346"><ele>137.66666666666666</ele><time>2026-04-03T13:36:24.818Z</time></trkpt><trkpt lat="45.281233324728426" lon="11.672805517850689"><ele>137.0</ele><time>2026-04-03T13:36:26.818Z</time></trkpt><trkpt lat="45.28125972754483" lon="11.672722529105428"><ele>137.57142857142858</ele><time>2026-04-03T13:36:27.818Z</time></trkpt><trkpt lat="45.28128792667047" lon="11.67262674723746"><ele>138.14285714285714</ele><time>2026-04-03T13:36:28.818Z</time></trkpt><trkpt lat="45.28132156987971" lon="11.672532417977592"><ele>138.71428571428572</ele><time>2026-04-03T13:36:29.818Z</time></trkpt><trkpt lat="45.28136118540129" lon="11.672461883937956"><ele>139.28571428571428</ele><time>2026-04-03T13:36:30.818Z</time></trkpt><trkpt lat="45.28141209821479" lon="11.672389930111496"><ele>139.85714285714286</ele><time>2026-04-03T13:36:31.818Z</time></trkpt><trkpt lat="45.28147026214647" lon="11.672333414737754"><ele>140.42857142857144</ele><time>2026-04-03T13:36:32.818Z</time></trkpt><trkpt lat="45.28154450450572" lon="11.67229789138422"><ele>141.0</ele><time>2026-04-03T13:36:33.818Z</time></trkpt><trkpt lat="45.28162194218098" lon="11.672285929594167"><ele>141.0</ele><time>2026-04-03T13:36:34.818Z</time></trkpt><trkpt lat="45.28169290674641" lon="11.672281306199835"><ele>141.0</ele><time>2026-04-03T13:36:35.818Z</time></trkpt><trkpt lat="45.28178597861258" lon="11.672298204577116"><ele>141.0</ele><time>2026-04-03T13:36:36.818Z</time></trkpt><trkpt lat="45.28185889615382" lon="11.672289350075523"><ele>141.0</ele><time>2026-04-03T13:36:37.818Z</time></trkpt><trkpt lat="45.281930033962475" lon="11.672263895660965"><ele>141.0</ele><time>2026-04-03T13:36:38.818Z</time></trkpt><trkpt lat="45.282000289506776" lon="11.672220503704958"><ele>141.0</ele><time>2026-04-03T13:36:39.818Z</time></trkpt><trkpt lat="45.28207182953781" lon="11.672177833922696"><ele>141.0</ele><time>2026-04-03T13:36:40.818Z</time></trkpt><trkpt lat="45.28214684891003" lon="11.672123704910385"><ele>141.0</ele><time>2026-04-03T13:36:41.818Z</time></trkpt><trkpt lat="45.282208910371914" lon="11.672061225530767"><ele>141.0</ele><time>2026-04-03T13:36:42.818Z</time></trkpt><trkpt lat="45.282255414874584" lon="11.671989345030795"><ele>141.0</ele><time>2026-04-03T13:36:43.818Z</time></trkpt><trkpt lat="45.2823129872915" lon="11.67193673245927"><ele>141.0</ele><time>2026-04-03T13:36:44.818Z</time></trkpt><trkpt lat="45.28236120133906" lon="11.67187915383815"><ele>141.0</ele><time>2026-04-03T13:36:45.818Z</time></trkpt><trkpt lat="45.282417287613114" lon="11.671812173522111"><ele>141.0</ele><time>2026-04-03T13:36:46.818Z</time></trkpt><trkpt lat="45.28251893479219" lon="11.671706638843023"><ele>139.83333333333334</ele><time>2026-04-03T13:36:48.818Z</time></trkpt><trkpt lat="45.28256583333" lon="11.671632572453351"><ele>138.66666666666666</ele><time>2026-04-03T13:36:49.818Z</time></trkpt><trkpt lat="45.28260110188451" lon="11.671549305622817"><ele>137.5</ele><time>2026-04-03T13:36:50.818Z</time></trkpt><trkpt lat="45.28261941297218" lon="11.671417059497317"><ele>136.33333333333331</ele><time>2026-04-03T13:36:51.818Z</time></trkpt><trkpt lat="45.2826205121509" lon="11.671298217624434"><ele>135.16666666666666</ele><time>2026-04-03T13:36:52.818Z</time></trkpt><trkpt lat="45.282622525677446" lon="11.67119877009876"><ele>134.0</ele><time>2026-04-03T13:36:53.818Z</time></trkpt><trkpt lat="45.28265532308636" lon="11.671015591275301"><ele>133.0</ele><time>2026-04-03T13:36:55.818Z</time></trkpt><trkpt lat="45.28268037369061" lon="11.670919435124166"><ele>132.0</ele><time>2026-04-03T13:36:56.818Z</time></trkpt><trkpt lat="45.28270551701647" lon="11.670825147187786"><ele>131.0</ele><time>2026-04-03T13:36:57.818Z</time></trkpt><trkpt lat="45.28273206350758" lon="11.670725597335819"><ele>130.0</ele><time>2026-04-03T13:36:58.818Z</time></trkpt><trkpt lat="45.28275528465368" lon="11.670616515563925"><ele>129.0</ele><time>2026-04-03T13:36:59.818Z</time></trkpt><trkpt lat="45.28276346108949" lon="11.670498223265437"><ele>128.0</ele><time>2026-04-03T13:37:00.818Z</time></trkpt><trkpt lat="45.28274604030613" lon="11.670370511125563"><ele>126.2</ele><time>2026-04-03T13:37:01.818Z</time></trkpt><trkpt lat="45.28269162815917" lon="11.670240028057709"><ele>124.4</ele><time>2026-04-03T13:37:02.818Z</time></trkpt><trkpt lat="45.282628457200346" lon="11.67012244160457"><ele>122.60000000000001</ele><time>2026-04-03T13:37:03.818Z</time></trkpt><trkpt lat="45.282572117861655" lon="11.670024126738328"><ele>120.80000000000001</ele><time>2026-04-03T13:37:04.818Z</time></trkpt><trkpt lat="45.28252270782333" lon="11.669933163929015"><ele>119.0</ele><time>2026-04-03T13:37:05.818Z</time></trkpt><trkpt lat="45.28247689356411" lon="11.66984292465486"><ele>118.99999999999999</ele><time>2026-04-03T13:37:06.818Z</time></trkpt><trkpt lat="45.28242982707919" lon="11.669743659300662"><ele>119.0</ele><time>2026-04-03T13:37:07.817Z</time></trkpt><trkpt lat="45.2823829392185" lon="11.669640789975526"><ele>119.0</ele><time>2026-04-03T13:37:08.817Z</time></trkpt><trkpt lat="45.282311958983875" lon="11.669561738220617"><ele>119.0</ele><time>2026-04-03T13:37:09.817Z</time></trkpt><trkpt lat="45.28226536957275" lon="11.66946349205825"><ele>118.99999999999999</ele><time>2026-04-03T13:37:10.817Z</time></trkpt><trkpt lat="45.28222462266578" lon="11.669350078182477"><ele>119.0</ele><time>2026-04-03T13:37:11.817Z</time></trkpt><trkpt lat="45.28218060559376" lon="11.669254164412788"><ele>116.83333333333333</ele><time>2026-04-03T13:37:12.818Z</time></trkpt><trkpt lat="45.282153103502964" lon="11.669170741359212"><ele>114.66666666666666</ele><time>2026-04-03T13:37:13.816Z</time></trkpt><trkpt lat="45.28210816079244" lon="11.669097024025033"><ele>112.5</ele><time>2026-04-03T13:37:14.816Z</time></trkpt><trkpt lat="45.28204030319065" lon="11.668954783626809"><ele>110.33333333333334</ele><time>2026-04-03T13:37:16.816Z</time></trkpt><trkpt lat="45.28204209208543" lon="11.668862447676247"><ele>108.16666666666667</ele><time>2026-04-03T13:37:17.816Z</time></trkpt><trkpt lat="45.28206624539495" lon="11.668765326344001"><ele>106.0</ele><time>2026-04-03T13:37:18.818Z</time></trkpt><trkpt lat="45.2821123741928" lon="11.668673723853999"><ele>105.33333333333334</ele><time>2026-04-03T13:37:19.818Z</time></trkpt><trkpt lat="45.28216960274432" lon="11.668597467393157"><ele>104.66666666666667</ele><time>2026-04-03T13:37:20.818Z</time></trkpt><trkpt lat="45.282242172575195" lon="11.668527139272008"><ele>104.0</ele><time>2026-04-03T13:37:21.818Z</time></trkpt><trkpt lat="45.28232586014771" lon="11.668489774550737"><ele>103.33333333333334</ele><time>2026-04-03T13:37:22.818Z</time></trkpt><trkpt lat="45.28241496391197" lon="11.668478601142427"><ele>102.66666666666667</ele><time>2026-04-03T13:37:23.817Z</time></trkpt><trkpt lat="45.2824928845677" lon="11.668434203163542"><ele>102.0</ele><time>2026-04-03T13:37:24.817Z</time></trkpt><trkpt lat="45.28254521331604" lon="11.668348850793967"><ele>102.0</ele><time>2026-04-03T13:37:25.817Z</time></trkpt><trkpt lat="45.28257129589458" lon="11.668233195363925"><ele>102.0</ele><time>2026-04-03T13:37:26.817Z</time></trkpt><trkpt lat="45.28258532361869" lon="11.66811235846066"><ele>102.0</ele><time>2026-04-03T13:37:27.817Z</time></trkpt><trkpt lat="45.28258411522392" lon="11.667972108172204"><ele>102.0</ele><time>2026-04-03T13:37:28.817Z</time></trkpt><trkpt lat="45.28257802856824" lon="11.66783414625718"><ele>102.0</ele><time>2026-04-03T13:37:29.817Z</time></trkpt><trkpt lat="45.28256758544343" lon="11.667705721220226"><ele>101.39999999999999</ele><time>2026-04-03T13:37:30.817Z</time></trkpt><trkpt lat="45.2825715453996" lon="11.667563655979228"><ele>100.8</ele><time>2026-04-03T13:37:31.817Z</time></trkpt><trkpt lat="45.28257090177224" lon="11.66742782921064"><ele>100.2</ele><time>2026-04-03T13:37:32.817Z</time></trkpt><trkpt lat="45.28256329948013" lon="11.667289814761524"><ele>99.6</ele><time>2026-04-03T13:37:33.817Z</time></trkpt><trkpt lat="45.28254651265406" lon="11.667156753278146"><ele>99.0</ele><time>2026-04-03T13:37:34.817Z</time></trkpt><trkpt lat="45.2825209562332" lon="11.667035763838568"><ele>97.6</ele><time>2026-04-03T13:37:35.817Z</time></trkpt><trkpt lat="45.282480476736374" lon="11.66691727691127"><ele>96.2</ele><time>2026-04-03T13:37:36.817Z</time></trkpt><trkpt lat="45.28240788742692" lon="11.666826459284522"><ele>94.8</ele><time>2026-04-03T13:37:37.817Z</time></trkpt><trkpt lat="45.28232957444835" lon="11.66672494766801"><ele>93.39999999999999</ele><time>2026-04-03T13:37:38.817Z</time></trkpt><trkpt lat="45.28224660639015" lon="11.666610158211379"><ele>92.0</ele><time>2026-04-03T13:37:39.817Z</time></trkpt><trkpt lat="45.2821721328819" lon="11.666479407260837"><ele>91.8</ele><time>2026-04-03T13:37:40.817Z</time></trkpt><trkpt lat="45.28210104272495" lon="11.66637527589452"><ele>91.6</ele><time>2026-04-03T13:37:41.817Z</time></trkpt><trkpt lat="45.28203949745167" lon="11.666267487477805"><ele>91.39999999999999</ele><time>2026-04-03T13:37:42.817Z</time></trkpt><trkpt lat="45.281988944653456" lon="11.666161043380152"><ele>91.19999999999999</ele><time>2026-04-03T13:37:43.817Z</time></trkpt><trkpt lat="45.2819543618618" lon="11.666034897049409"><ele>91.0</ele><time>2026-04-03T13:37:44.817Z</time></trkpt><trkpt lat="45.28191407643283" lon="11.665907041251725"><ele>89.8</ele><time>2026-04-03T13:37:45.817Z</time></trkpt><trkpt lat="45.28190747214308" lon="11.665763508306146"><ele>88.6</ele><time>2026-04-03T13:37:46.817Z</time></trkpt><trkpt lat="45.281914195847406" lon="11.665614208748853"><ele>87.4</ele><time>2026-04-03T13:37:47.817Z</time></trkpt><trkpt lat="45.28192844639165" lon="11.66546340304007"><ele>86.2</ele><time>2026-04-03T13:37:48.817Z</time></trkpt><trkpt lat="45.281949418293834" lon="11.665313852947172"><ele>85.0</ele><time>2026-04-03T13:37:49.817Z</time></trkpt><trkpt lat="45.281980324381585" lon="11.665169779976594"><ele>83.8</ele><time>2026-04-03T13:37:50.817Z</time></trkpt><trkpt lat="45.282016553109436" lon="11.665032317891436"><ele>82.6</ele><time>2026-04-03T13:37:51.817Z</time></trkpt><trkpt lat="45.28205444414824" lon="11.664901109557984"><ele>81.4</ele><time>2026-04-03T13:37:52.817Z</time></trkpt><trkpt lat="45.28210503019954" lon="11.664785510460591"><ele>80.2</ele><time>2026-04-03T13:37:53.817Z</time></trkpt><trkpt lat="45.28215225476568" lon="11.664674073078986"><ele>79.0</ele><time>2026-04-03T13:37:54.817Z</time></trkpt><trkpt lat="45.282196241586746" lon="11.664569958137754"><ele>79.0</ele><time>2026-04-03T13:37:55.817Z</time></trkpt><trkpt lat="45.282238119173876" lon="11.664450551644311"><ele>79.0</ele><time>2026-04-03T13:37:56.817Z</time></trkpt><trkpt lat="45.28227835282542" lon="11.664328423991329"><ele>79.0</ele><time>2026-04-03T13:37:57.817Z</time></trkpt><trkpt lat="45.28228263468446" lon="11.664193435990217"><ele>79.0</ele><time>2026-04-03T13:37:58.817Z</time></trkpt><trkpt lat="45.28227740734485" lon="11.664060952280103"><ele>79.0</ele><time>2026-04-03T13:37:59.817Z</time></trkpt><trkpt lat="45.28227206714225" lon="11.663936355181619"><ele>77.66666666666666</ele><time>2026-04-03T13:38:00.817Z</time></trkpt><trkpt lat="45.28226641460894" lon="11.663824990558972"><ele>76.33333333333333</ele><time>2026-04-03T13:38:01.817Z</time></trkpt><trkpt lat="45.28226070092668" lon="11.663727025487567"><ele>75.0</ele><time>2026-04-03T13:38:02.817Z</time></trkpt><trkpt lat="45.28223363570919" lon="11.663571450332375"><ele>73.66666666666667</ele><time>2026-04-03T13:38:04.817Z</time></trkpt><trkpt lat="45.28223710860089" lon="11.66347301163308"><ele>72.33333333333334</ele><time>2026-04-03T13:38:06.817Z</time></trkpt><trkpt lat="45.28225806575836" lon="11.663377273684205"><ele>71.0</ele><time>2026-04-03T13:38:23.817Z</time></trkpt><trkpt lat="45.28232512777739" lon="11.663282843995868"><ele>70.2</ele><time>2026-04-03T13:38:25.817Z</time></trkpt><trkpt lat="45.28245372022308" lon="11.663398023407067"><ele>69.39999999999999</ele><time>2026-04-03T13:38:26.817Z</time></trkpt><trkpt lat="45.282535385581646" lon="11.663391173129403"><ele>68.6</ele><time>2026-04-03T13:38:27.817Z</time></trkpt><trkpt lat="45.28263256313476" lon="11.663356915992262"><ele>67.8</ele><time>2026-04-03T13:38:28.817Z</time></trkpt><trkpt lat="45.2827322153321" lon="11.663360174762163"><ele>67.0</ele><time>2026-04-03T13:38:29.817Z</time></trkpt><trkpt lat="45.2828483387371" lon="11.663326372075272"><ele>67.0</ele><time>2026-04-03T13:38:30.817Z</time></trkpt><trkpt lat="45.28296679309398" lon="11.663272282251604"><ele>67.0</ele><time>2026-04-03T13:38:31.817Z</time></trkpt><trkpt lat="45.28307589796191" lon="11.663202088189307"><ele>67.0</ele><time>2026-04-03T13:38:32.817Z</time></trkpt><trkpt lat="45.28319260926218" lon="11.663149527711132"><ele>67.0</ele><time>2026-04-03T13:38:33.817Z</time></trkpt><trkpt lat="45.28330648005958" lon="11.663090979978117"><ele>64.5</ele><time>2026-04-03T13:38:34.817Z</time></trkpt><trkpt lat="45.28343024846812" lon="11.6630440145947"><ele>62.0</ele><time>2026-04-03T13:38:35.817Z</time></trkpt><trkpt lat="45.28357693050897" lon="11.663011148945756"><ele>59.5</ele><time>2026-04-03T13:38:36.817Z</time></trkpt><trkpt lat="45.28372352883732" lon="11.662991398872286"><ele>57.0</ele><time>2026-04-03T13:38:37.817Z</time></trkpt><trkpt lat="45.283875576332655" lon="11.66297454702348"><ele>55.0</ele><time>2026-04-03T13:38:38.817Z</time></trkpt><trkpt lat="45.28402755287045" lon="11.662958320027364"><ele>53.0</ele><time>2026-04-03T13:38:39.817Z</time></trkpt><trkpt lat="45.284180136883236" lon="11.662946617382763"><ele>51.0</ele><time>2026-04-03T13:38:40.817Z</time></trkpt><trkpt lat="45.2843312083876" lon="11.662944055361892"><ele>51.0</ele><time>2026-04-03T13:38:41.817Z</time></trkpt><trkpt lat="45.28447794157603" lon="11.662937353048488"><ele>51.0</ele><time>2026-04-03T13:38:42.817Z</time></trkpt><trkpt lat="45.284621714978556" lon="11.662914613958991"><ele>51.0</ele><time>2026-04-03T13:38:43.817Z</time></trkpt><trkpt lat="45.28475843571608" lon="11.66287467325224"><ele>51.0</ele><time>2026-04-03T13:38:44.817Z</time></trkpt><trkpt lat="45.28489271429428" lon="11.662816652323292"><ele>49.25</ele><time>2026-04-03T13:38:45.817Z</time></trkpt><trkpt lat="45.28502617183667" lon="11.662735929979076"><ele>47.5</ele><time>2026-04-03T13:38:46.817Z</time></trkpt><trkpt lat="45.2851558905782" lon="11.662645517523385"><ele>45.75</ele><time>2026-04-03T13:38:47.817Z</time></trkpt><trkpt lat="45.28528257999286" lon="11.662542862449396"><ele>44.0</ele><time>2026-04-03T13:38:48.817Z</time></trkpt><trkpt lat="45.28540389830375" lon="11.662431426567244"><ele>44.0</ele><time>2026-04-03T13:38:49.817Z</time></trkpt><trkpt lat="45.28551996169198" lon="11.662316017552888"><ele>44.0</ele><time>2026-04-03T13:38:50.817Z</time></trkpt><trkpt lat="45.28563311224054" lon="11.662193195343152"><ele>44.0</ele><time>2026-04-03T13:38:51.817Z</time></trkpt><trkpt lat="45.28574499207241" lon="11.66207335421344"><ele>44.0</ele><time>2026-04-03T13:38:52.817Z</time></trkpt><trkpt lat="45.2858606109703" lon="11.66195679472378"><ele>43.5</ele><time>2026-04-03T13:38:53.817Z</time></trkpt><trkpt lat="45.28597749558224" lon="11.66183917196794"><ele>43.0</ele><time>2026-04-03T13:38:54.817Z</time></trkpt><trkpt lat="45.286097916206366" lon="11.661724591524413"><ele>42.5</ele><time>2026-04-03T13:38:55.816Z</time></trkpt><trkpt lat="45.28621719572969" lon="11.661615671803945"><ele>42.0</ele><time>2026-04-03T13:38:56.816Z</time></trkpt><trkpt lat="45.28634118959612" lon="11.661508234218696"><ele>43.25</ele><time>2026-04-03T13:38:57.816Z</time></trkpt><trkpt lat="45.28647270754027" lon="11.661419698798213"><ele>44.5</ele><time>2026-04-03T13:38:58.816Z</time></trkpt><trkpt lat="45.28660682134342" lon="11.661346353955725"><ele>45.75</ele><time>2026-04-03T13:38:59.816Z</time></trkpt><trkpt lat="45.28674553379846" lon="11.66128870045623"><ele>47.0</ele><time>2026-04-03T13:39:00.816Z</time></trkpt><trkpt lat="45.286883435583306" lon="11.661242029188204"><ele>47.0</ele><time>2026-04-03T13:39:01.816Z</time></trkpt><trkpt lat="45.28702246172554" lon="11.661202609313388"><ele>47.0</ele><time>2026-04-03T13:39:02.816Z</time></trkpt><trkpt lat="45.287164647384145" lon="11.661165478905984"><ele>47.0</ele><time>2026-04-03T13:39:03.816Z</time></trkpt><trkpt lat="45.28730896167445" lon="11.661139480809373"><ele>47.0</ele><time>2026-04-03T13:39:04.816Z</time></trkpt><trkpt lat="45.287442155233286" lon="11.661114794800836"><ele>44.5</ele><time>2026-04-03T13:39:05.816Z</time></trkpt><trkpt lat="45.28757456785233" lon="11.661091865575935"><ele>42.0</ele><time>2026-04-03T13:39:06.816Z</time></trkpt><trkpt lat="45.28770393418115" lon="11.661075044102091"><ele>39.5</ele><time>2026-04-03T13:39:07.816Z</time></trkpt><trkpt lat="45.28782639082105" lon="11.66107231084698"><ele>37.0</ele><time>2026-04-03T13:39:08.816Z</time></trkpt><trkpt lat="45.28795051390285" lon="11.661085123306703"><ele>36.25</ele><time>2026-04-03T13:39:09.816Z</time></trkpt><trkpt lat="45.2880682198095" lon="11.661122192654712"><ele>35.5</ele><time>2026-04-03T13:39:10.816Z</time></trkpt><trkpt lat="45.28818604569592" lon="11.661169081832785"><ele>34.75</ele><time>2026-04-03T13:39:11.816Z</time></trkpt><trkpt lat="45.28829329539298" lon="11.6612254510523"><ele>34.0</ele><time>2026-04-03T13:39:12.816Z</time></trkpt><trkpt lat="45.288386321383314" lon="11.661275896149704"><ele>34.0</ele><time>2026-04-03T13:39:13.816Z</time></trkpt><trkpt lat="45.28846574513566" lon="11.661307324609483"><ele>34.0</ele><time>2026-04-03T13:39:14.816Z</time></trkpt><trkpt lat="45.28853189025274" lon="11.661335918071522"><ele>34.0</ele><time>2026-04-03T13:39:15.815Z</time></trkpt><trkpt lat="45.288609701015275" lon="11.661374011512445"><ele>34.0</ele><time>2026-04-03T13:39:16.815Z</time></trkpt><trkpt lat="45.2886987284843" lon="11.66141992510529"><ele>34.0</ele><time>2026-04-03T13:39:17.815Z</time></trkpt><trkpt lat="45.28880750471128" lon="11.66146715239717"><ele>34.0</ele><time>2026-04-03T13:39:18.815Z</time></trkpt><trkpt lat="45.288922320134475" lon="11.661514631128036"><ele>34.0</ele><time>2026-04-03T13:39:19.816Z</time></trkpt><trkpt lat="45.2890443139704" lon="11.661559162809494"><ele>34.0</ele><time>2026-04-03T13:39:20.816Z</time></trkpt><trkpt lat="45.28916901186547" lon="11.661591680973883"><ele>34.0</ele><time>2026-04-03T13:39:21.815Z</time></trkpt><trkpt lat="45.28930095045906" lon="11.661621695852794"><ele>34.0</ele><time>2026-04-03T13:39:22.815Z</time></trkpt><trkpt lat="45.28942698781061" lon="11.661650243637688"><ele>34.0</ele><time>2026-04-03T13:39:23.815Z</time></trkpt><trkpt lat="45.289550122270015" lon="11.661680140033644"><ele>34.0</ele><time>2026-04-03T13:39:24.816Z</time></trkpt><trkpt lat="45.289666409364585" lon="11.661700809052888"><ele>34.0</ele><time>2026-04-03T13:39:25.816Z</time></trkpt><trkpt lat="45.28978268241308" lon="11.661721114153515"><ele>34.0</ele><time>2026-04-03T13:39:26.816Z</time></trkpt><trkpt lat="45.28989987134846" lon="11.661728671847928"><ele>34.5</ele><time>2026-04-03T13:39:27.816Z</time></trkpt><trkpt lat="45.290016399594926" lon="11.661724134424025"><ele>35.0</ele><time>2026-04-03T13:39:28.816Z</time></trkpt><trkpt lat="45.29012860574769" lon="11.661718821596745"><ele>35.5</ele><time>2026-04-03T13:39:29.816Z</time></trkpt><trkpt lat="45.29024126393692" lon="11.661723458845909"><ele>36.0</ele><time>2026-04-03T13:39:30.816Z</time></trkpt><trkpt lat="45.29035287652963" lon="11.661753457025979"><ele>36.0</ele><time>2026-04-03T13:39:31.816Z</time></trkpt><trkpt lat="45.290464528056795" lon="11.661790038226055"><ele>36.0</ele><time>2026-04-03T13:39:32.816Z</time></trkpt><trkpt lat="45.29057235459747" lon="11.661832392865806"><ele>36.0</ele><time>2026-04-03T13:39:33.816Z</time></trkpt><trkpt lat="45.290678045175326" lon="11.661878781393195"><ele>36.0</ele><time>2026-04-03T13:39:34.816Z</time></trkpt><trkpt lat="45.29077249723534" lon="11.661934932573695"><ele>36.0</ele><time>2026-04-03T13:39:35.816Z</time></trkpt><trkpt lat="45.29085792993531" lon="11.661985283840279"><ele>36.2</ele><time>2026-04-03T13:39:36.816Z</time></trkpt><trkpt lat="45.290935386638836" lon="11.662028817869766"><ele>36.400000000000006</ele><time>2026-04-03T13:39:37.816Z</time></trkpt><trkpt lat="45.29100948279879" lon="11.662064510349897"><ele>36.6</ele><time>2026-04-03T13:39:38.816Z</time></trkpt><trkpt lat="45.29106892905409" lon="11.662101973596835"><ele>36.800000000000004</ele><time>2026-04-03T13:39:39.816Z</time></trkpt><trkpt lat="45.29115510299889" lon="11.66222546612518"><ele>37.0</ele><time>2026-04-03T13:39:41.816Z</time></trkpt><trkpt lat="45.29118553291127" lon="11.662399496335542"><ele>37.0</ele><time>2026-04-03T13:39:43.815Z</time></trkpt><trkpt lat="45.291169374203186" lon="11.662494609770118"><ele>37.0</ele><time>2026-04-03T13:39:44.815Z</time></trkpt><trkpt lat="45.29113316526788" lon="11.662591915442244"><ele>37.0</ele><time>2026-04-03T13:39:45.815Z</time></trkpt><trkpt lat="45.29108952620807" lon="11.662698899976483"><ele>37.0</ele><time>2026-04-03T13:39:46.815Z</time></trkpt><trkpt lat="45.29104918565395" lon="11.662814736089665"><ele>37.0</ele><time>2026-04-03T13:39:47.815Z</time></trkpt><trkpt lat="45.29100704932734" lon="11.662946997446122"><ele>37.0</ele><time>2026-04-03T13:39:48.815Z</time></trkpt><trkpt lat="45.29094993582927" lon="11.663081255161481"><ele>37.75</ele><time>2026-04-03T13:39:49.815Z</time></trkpt><trkpt lat="45.29089721761026" lon="11.66322070212955"><ele>38.5</ele><time>2026-04-03T13:39:50.815Z</time></trkpt><trkpt lat="45.29085549808006" lon="11.663369784770236"><ele>39.25</ele><time>2026-04-03T13:39:51.815Z</time></trkpt><trkpt lat="45.290804756140474" lon="11.663511931467077"><ele>40.0</ele><time>2026-04-03T13:39:52.815Z</time></trkpt><trkpt lat="45.29078019809575" lon="11.663670220842318"><ele>41.75</ele><time>2026-04-03T13:39:53.815Z</time></trkpt><trkpt lat="45.29076950436006" lon="11.663838096818717"><ele>43.5</ele><time>2026-04-03T13:39:54.815Z</time></trkpt><trkpt lat="45.2907466747554" lon="11.664010661830021"><ele>45.25</ele><time>2026-04-03T13:39:55.815Z</time></trkpt><trkpt lat="45.290719863819064" lon="11.664195908450633"><ele>47.0</ele><time>2026-04-03T13:39:56.815Z</time></trkpt><trkpt lat="45.29068957601123" lon="11.664388207336353"><ele>48.25</ele><time>2026-04-03T13:39:57.815Z</time></trkpt><trkpt lat="45.29066659762961" lon="11.664592953467164"><ele>49.5</ele><time>2026-04-03T13:39:58.815Z</time></trkpt><trkpt lat="45.29062879985386" lon="11.664795055060107"><ele>50.75</ele><time>2026-04-03T13:39:59.815Z</time></trkpt><trkpt lat="45.290596640068145" lon="11.664991457300598"><ele>52.0</ele><time>2026-04-03T13:40:00.815Z</time></trkpt><trkpt lat="45.290569186149185" lon="11.665194900661206"><ele>48.666666666666664</ele><time>2026-04-03T13:40:01.815Z</time></trkpt><trkpt lat="45.290541233047534" lon="11.665405419997807"><ele>45.33333333333333</ele><time>2026-04-03T13:40:02.815Z</time></trkpt><trkpt lat="45.29051450384219" lon="11.665624150132642"><ele>42.0</ele><time>2026-04-03T13:40:03.815Z</time></trkpt><trkpt lat="45.290493367065636" lon="11.665848610609123"><ele>42.0</ele><time>2026-04-03T13:40:04.815Z</time></trkpt><trkpt lat="45.29049125117054" lon="11.666090733234826"><ele>42.0</ele><time>2026-04-03T13:40:05.815Z</time></trkpt><trkpt lat="45.290501500380884" lon="11.666325785149686"><ele>42.0</ele><time>2026-04-03T13:40:06.815Z</time></trkpt><trkpt lat="45.29051413249976" lon="11.666557554748584"><ele>42.333333333333336</ele><time>2026-04-03T13:40:07.815Z</time></trkpt><trkpt lat="45.290526859753136" lon="11.666784580696278"><ele>42.66666666666667</ele><time>2026-04-03T13:40:08.815Z</time></trkpt><trkpt lat="45.29053947777975" lon="11.667009658997452"><ele>43.0</ele><time>2026-04-03T13:40:09.815Z</time></trkpt><trkpt lat="45.290551982538645" lon="11.667232716467762"><ele>43.0</ele><time>2026-04-03T13:40:10.815Z</time></trkpt><trkpt lat="45.29058021269829" lon="11.667460759569032"><ele>43.0</ele><time>2026-04-03T13:40:11.815Z</time></trkpt><trkpt lat="45.29059111683897" lon="11.667686626216543"><ele>43.0</ele><time>2026-04-03T13:40:12.815Z</time></trkpt><trkpt lat="45.290604945287754" lon="11.667915716312319"><ele>44.66666666666667</ele><time>2026-04-03T13:40:13.815Z</time></trkpt><trkpt lat="45.290618472903866" lon="11.66814273381486"><ele>46.333333333333336</ele><time>2026-04-03T13:40:14.815Z</time></trkpt><trkpt lat="45.29063314030177" lon="11.668364060866121"><ele>48.0</ele><time>2026-04-03T13:40:15.815Z</time></trkpt><trkpt lat="45.29064349606142" lon="11.668579321810492"><ele>48.25</ele><time>2026-04-03T13:40:16.815Z</time></trkpt><trkpt lat="45.29065479523903" lon="11.66879115604508"><ele>48.5</ele><time>2026-04-03T13:40:17.815Z</time></trkpt><trkpt lat="45.29064839704842" lon="11.669003809260202"><ele>48.75</ele><time>2026-04-03T13:40:18.815Z</time></trkpt><trkpt lat="45.29065710968551" lon="11.669206032279945"><ele>49.0</ele><time>2026-04-03T13:40:19.815Z</time></trkpt><trkpt lat="45.290673160773686" lon="11.669407394470575"><ele>49.0</ele><time>2026-04-03T13:40:20.815Z</time></trkpt><trkpt lat="45.29069649639888" lon="11.669606694861045"><ele>49.0</ele><time>2026-04-03T13:40:21.815Z</time></trkpt><trkpt lat="45.29072595999371" lon="11.669803905171214"><ele>49.0</ele><time>2026-04-03T13:40:22.815Z</time></trkpt><trkpt lat="45.29076096888641" lon="11.669991614623587"><ele>49.0</ele><time>2026-04-03T13:40:23.815Z</time></trkpt><trkpt lat="45.29080217916714" lon="11.67017778192682"><ele>49.5</ele><time>2026-04-03T13:40:24.815Z</time></trkpt><trkpt lat="45.29084444413801" lon="11.670364486671543"><ele>50.0</ele><time>2026-04-03T13:40:25.815Z</time></trkpt><trkpt lat="45.29088503779428" lon="11.670554937273183"><ele>50.5</ele><time>2026-04-03T13:40:26.815Z</time></trkpt><trkpt lat="45.29092705807029" lon="11.670746885817811"><ele>51.0</ele><time>2026-04-03T13:40:27.815Z</time></trkpt><trkpt lat="45.2909724242827" lon="11.670940136785596"><ele>51.25</ele><time>2026-04-03T13:40:28.815Z</time></trkpt><trkpt lat="45.29101485186677" lon="11.671135653704651"><ele>51.5</ele><time>2026-04-03T13:40:29.815Z</time></trkpt><trkpt lat="45.29105702798677" lon="11.671331336529178"><ele>51.75</ele><time>2026-04-03T13:40:30.815Z</time></trkpt><trkpt lat="45.291098788323175" lon="11.671527258929682"><ele>52.0</ele><time>2026-04-03T13:40:31.815Z</time></trkpt><trkpt lat="45.29113389769733" lon="11.671720995767888"><ele>52.0</ele><time>2026-04-03T13:40:32.815Z</time></trkpt><trkpt lat="45.29116142124427" lon="11.671911601307233"><ele>52.0</ele><time>2026-04-03T13:40:33.815Z</time></trkpt><trkpt lat="45.29118386713696" lon="11.672099195635539"><ele>52.0</ele><time>2026-04-03T13:40:34.815Z</time></trkpt><trkpt lat="45.291196980325" lon="11.672284364115413"><ele>52.0</ele><time>2026-04-03T13:40:35.815Z</time></trkpt><trkpt lat="45.29120854643269" lon="11.672467534964687"><ele>52.5</ele><time>2026-04-03T13:40:36.815Z</time></trkpt><trkpt lat="45.29121867310578" lon="11.672652002928317"><ele>53.0</ele><time>2026-04-03T13:40:37.815Z</time></trkpt><trkpt lat="45.29122927676458" lon="11.672837051599872"><ele>53.5</ele><time>2026-04-03T13:40:38.815Z</time></trkpt><trkpt lat="45.291236373033264" lon="11.673028208504002"><ele>54.0</ele><time>2026-04-03T13:40:39.815Z</time></trkpt><trkpt lat="45.29123908212279" lon="11.673221567313929"><ele>54.75</ele><time>2026-04-03T13:40:40.815Z</time></trkpt><trkpt lat="45.2912397777386" lon="11.67341627072125"><ele>55.5</ele><time>2026-04-03T13:40:41.815Z</time></trkpt><trkpt lat="45.29123384247017" lon="11.67361392832463"><ele>56.25</ele><time>2026-04-03T13:40:42.815Z</time></trkpt><trkpt lat="45.29122422455704" lon="11.673811809885919"><ele>57.0</ele><time>2026-04-03T13:40:43.815Z</time></trkpt><trkpt lat="45.29122353469878" lon="11.67401053910053"><ele>58.25</ele><time>2026-04-03T13:40:44.815Z</time></trkpt><trkpt lat="45.29121187381428" lon="11.674214002751528"><ele>59.5</ele><time>2026-04-03T13:40:45.815Z</time></trkpt><trkpt lat="45.29119338099017" lon="11.674417159700157"><ele>60.75</ele><time>2026-04-03T13:40:46.815Z</time></trkpt><trkpt lat="45.29116611834098" lon="11.674621689219354"><ele>62.0</ele><time>2026-04-03T13:40:47.815Z</time></trkpt><trkpt lat="45.29113495311133" lon="11.674823045854573"><ele>64.0</ele><time>2026-04-03T13:40:48.815Z</time></trkpt><trkpt lat="45.29110609894139" lon="11.67502214905224"><ele>66.0</ele><time>2026-04-03T13:40:49.815Z</time></trkpt><trkpt lat="45.291089407508544" lon="11.675220279816896"><ele>68.0</ele><time>2026-04-03T13:40:50.815Z</time></trkpt><trkpt lat="45.291091890714675" lon="11.675419492742499"><ele>70.0</ele><time>2026-04-03T13:40:51.815Z</time></trkpt><trkpt lat="45.29111048976801" lon="11.67562072920332"><ele>71.5</ele><time>2026-04-03T13:40:52.815Z</time></trkpt><trkpt lat="45.29114112768303" lon="11.675821443338402"><ele>73.0</ele><time>2026-04-03T13:40:53.815Z</time></trkpt><trkpt lat="45.29118004036635" lon="11.676023039578261"><ele>74.5</ele><time>2026-04-03T13:40:54.815Z</time></trkpt><trkpt lat="45.291202856098636" lon="11.676230805239319"><ele>76.0</ele><time>2026-04-03T13:40:55.815Z</time></trkpt><trkpt lat="45.291241954993936" lon="11.676434815450454"><ele>77.0</ele><time>2026-04-03T13:40:56.815Z</time></trkpt><trkpt lat="45.29128164474556" lon="11.676638610936797"><ele>78.0</ele><time>2026-04-03T13:40:57.815Z</time></trkpt><trkpt lat="45.291326364522185" lon="11.676841927814774"><ele>79.0</ele><time>2026-04-03T13:40:58.815Z</time></trkpt><trkpt lat="45.291376679746996" lon="11.677043032745152"><ele>80.0</ele><time>2026-04-03T13:40:59.815Z</time></trkpt><trkpt lat="45.291427384633664" lon="11.677242543804004"><ele>78.66666666666667</ele><time>2026-04-03T13:41:00.815Z</time></trkpt><trkpt lat="45.29147095289613" lon="11.677441507347105"><ele>77.33333333333333</ele><time>2026-04-03T13:41:01.815Z</time></trkpt><trkpt lat="45.29152244930942" lon="11.677650115304584"><ele>76.0</ele><time>2026-04-03T13:41:02.815Z</time></trkpt><trkpt lat="45.29158837571779" lon="11.677851558654094"><ele>76.0</ele><time>2026-04-03T13:41:03.815Z</time></trkpt><trkpt lat="45.29165809325042" lon="11.67804864831475"><ele>76.0</ele><time>2026-04-03T13:41:04.815Z</time></trkpt><trkpt lat="45.29173286892173" lon="11.678248280208269"><ele>76.0</ele><time>2026-04-03T13:41:05.815Z</time></trkpt><trkpt lat="45.29180602349078" lon="11.678443187408089"><ele>79.33333333333333</ele><time>2026-04-03T13:41:06.815Z</time></trkpt><trkpt lat="45.29187638326452" lon="11.678637770316774"><ele>82.66666666666667</ele><time>2026-04-03T13:41:07.815Z</time></trkpt><trkpt lat="45.291953353034295" lon="11.67883165274683"><ele>86.0</ele><time>2026-04-03T13:41:08.815Z</time></trkpt><trkpt lat="45.2920397135711" lon="11.679012846041099"><ele>86.0</ele><time>2026-04-03T13:41:09.815Z</time></trkpt><trkpt lat="45.292134583617354" lon="11.679180390318557"><ele>86.0</ele><time>2026-04-03T13:41:10.815Z</time></trkpt><trkpt lat="45.29224260117824" lon="11.679316580317172"><ele>86.0</ele><time>2026-04-03T13:41:11.815Z</time></trkpt><trkpt lat="45.29234383922951" lon="11.67946260774728"><ele>86.0</ele><time>2026-04-03T13:41:12.815Z</time></trkpt><trkpt lat="45.29244755747561" lon="11.67961073207971"><ele>86.0</ele><time>2026-04-03T13:41:13.815Z</time></trkpt><trkpt lat="45.29254170754102" lon="11.679772656050908"><ele>86.0</ele><time>2026-04-03T13:41:14.815Z</time></trkpt><trkpt lat="45.29261846287857" lon="11.679953693363855"><ele>86.0</ele><time>2026-04-03T13:41:15.814Z</time></trkpt><trkpt lat="45.29268120996624" lon="11.680145398072806"><ele>86.0</ele><time>2026-04-03T13:41:16.814Z</time></trkpt><trkpt lat="45.29271756762428" lon="11.680346390057878"><ele>86.0</ele><time>2026-04-03T13:41:17.814Z</time></trkpt><trkpt lat="45.292778136515054" lon="11.68053123915233"><ele>86.0</ele><time>2026-04-03T13:41:18.814Z</time></trkpt><trkpt lat="45.29284214976698" lon="11.680713945261585"><ele>86.0</ele><time>2026-04-03T13:41:19.813Z</time></trkpt><trkpt lat="45.29291235055448" lon="11.680894884307728"><ele>86.0</ele><time>2026-04-03T13:41:20.813Z</time></trkpt><trkpt lat="45.29299329105528" lon="11.68106471319799"><ele>84.25</ele><time>2026-04-03T13:41:21.814Z</time></trkpt><trkpt lat="45.293049160883214" lon="11.681252719341257"><ele>82.5</ele><time>2026-04-03T13:41:22.814Z</time></trkpt><trkpt lat="45.29310125938548" lon="11.681429161084068"><ele>80.75</ele><time>2026-04-03T13:41:23.814Z</time></trkpt><trkpt lat="45.2931462775664" lon="11.681596472613542"><ele>79.0</ele><time>2026-04-03T13:41:24.813Z</time></trkpt><trkpt lat="45.293159045863646" lon="11.681762705466728"><ele>79.0</ele><time>2026-04-03T13:41:25.814Z</time></trkpt><trkpt lat="45.293168625596195" lon="11.68191625307091"><ele>79.0</ele><time>2026-04-03T13:41:26.814Z</time></trkpt><trkpt lat="45.29317106085018" lon="11.68206036664215"><ele>79.0</ele><time>2026-04-03T13:41:27.814Z</time></trkpt><trkpt lat="45.293172417388796" lon="11.68219743973495"><ele>79.0</ele><time>2026-04-03T13:41:28.814Z</time></trkpt><trkpt lat="45.29317641455071" lon="11.682327019789206"><ele>79.0</ele><time>2026-04-03T13:41:29.814Z</time></trkpt><trkpt lat="45.29318634195827" lon="11.682449186477292"><ele>79.16666666666666</ele><time>2026-04-03T13:41:30.813Z</time></trkpt><trkpt lat="45.29321314322837" lon="11.682573973818112"><ele>79.33333333333333</ele><time>2026-04-03T13:41:31.813Z</time></trkpt><trkpt lat="45.29325908570631" lon="11.682663811171999"><ele>79.5</ele><time>2026-04-03T13:41:32.813Z</time></trkpt><trkpt lat="45.293337334869754" lon="11.682738661052774"><ele>79.66666666666667</ele><time>2026-04-03T13:41:33.813Z</time></trkpt><trkpt lat="45.293418926030064" lon="11.68278539379257"><ele>79.83333333333334</ele><time>2026-04-03T13:41:34.813Z</time></trkpt><trkpt lat="45.29350591164843" lon="11.682841537799714"><ele>80.0</ele><time>2026-04-03T13:41:35.813Z</time></trkpt><trkpt lat="45.29359825418659" lon="11.682904909598145"><ele>80.83333333333334</ele><time>2026-04-03T13:41:36.813Z</time></trkpt><trkpt lat="45.293673152118245" lon="11.682966817565315"><ele>81.66666666666667</ele><time>2026-04-03T13:41:37.813Z</time></trkpt><trkpt lat="45.293728949452834" lon="11.683025853578236"><ele>82.5</ele><time>2026-04-03T13:41:38.813Z</time></trkpt><trkpt lat="45.29376218102199" lon="11.683110920818512"><ele>83.33333333333333</ele><time>2026-04-03T13:41:39.813Z</time></trkpt><trkpt lat="45.293788021571885" lon="11.68321742543763"><ele>84.16666666666666</ele><time>2026-04-03T13:41:40.813Z</time></trkpt><trkpt lat="45.29379504610264" lon="11.683339560940595"><ele>85.0</ele><time>2026-04-03T13:41:41.813Z</time></trkpt><trkpt lat="45.29379780409153" lon="11.683489309413206"><ele>86.6</ele><time>2026-04-03T13:41:42.813Z</time></trkpt><trkpt lat="45.293794535831076" lon="11.683642721720988"><ele>88.2</ele><time>2026-04-03T13:41:43.813Z</time></trkpt><trkpt lat="45.293796079689805" lon="11.68379723461606"><ele>89.80000000000001</ele><time>2026-04-03T13:41:44.813Z</time></trkpt><trkpt lat="45.29380807331902" lon="11.683944577482297"><ele>91.4</ele><time>2026-04-03T13:41:45.813Z</time></trkpt><trkpt lat="45.29383993624043" lon="11.68408894870504"><ele>93.0</ele><time>2026-04-03T13:41:46.813Z</time></trkpt><trkpt lat="45.293843264244636" lon="11.684241159600404"><ele>93.0</ele><time>2026-04-03T13:41:47.813Z</time></trkpt><trkpt lat="45.29386334639311" lon="11.68438542537969"><ele>93.0</ele><time>2026-04-03T13:41:48.813Z</time></trkpt><trkpt lat="45.29388493055763" lon="11.68453186548751"><ele>93.0</ele><time>2026-04-03T13:41:49.813Z</time></trkpt><trkpt lat="45.29390838112215" lon="11.684675745028057"><ele>93.0</ele><time>2026-04-03T13:41:50.813Z</time></trkpt><trkpt lat="45.29393041740738" lon="11.684824830710548"><ele>93.0</ele><time>2026-04-03T13:41:51.813Z</time></trkpt><trkpt lat="45.2939532980154" lon="11.68497744829419"><ele>92.4</ele><time>2026-04-03T13:41:52.813Z</time></trkpt><trkpt lat="45.29397970692075" lon="11.68513522442847"><ele>91.80000000000001</ele><time>2026-04-03T13:41:53.813Z</time></trkpt><trkpt lat="45.294005689569076" lon="11.685286905953276"><ele>91.2</ele><time>2026-04-03T13:41:54.813Z</time></trkpt><trkpt lat="45.29403016980554" lon="11.685441409005966"><ele>90.6</ele><time>2026-04-03T13:41:55.813Z</time></trkpt><trkpt lat="45.29405445442746" lon="11.685596247567057"><ele>90.0</ele><time>2026-04-03T13:41:56.813Z</time></trkpt><trkpt lat="45.294073944385104" lon="11.685741994381502"><ele>90.0</ele><time>2026-04-03T13:41:57.813Z</time></trkpt><trkpt lat="45.294106292716876" lon="11.685855035022623"><ele>90.0</ele><time>2026-04-03T13:41:58.813Z</time></trkpt><trkpt lat="45.29414040973709" lon="11.685963112047448"><ele>90.0</ele><time>2026-04-03T13:41:59.813Z</time></trkpt><trkpt lat="45.29418702905734" lon="11.686133419339148"><ele>90.0</ele><time>2026-04-03T13:42:00.813Z</time></trkpt><trkpt lat="45.294299934194804" lon="11.686296050023902"><ele>90.0</ele><time>2026-04-03T13:42:03.813Z</time></trkpt><trkpt lat="45.294359424722906" lon="11.686438850895724"><ele>90.0</ele><time>2026-04-03T13:42:05.813Z</time></trkpt><trkpt lat="45.29442656263526" lon="11.686608048757144"><ele>90.0</ele><time>2026-04-03T13:42:07.813Z</time></trkpt><trkpt lat="45.294463545617695" lon="11.686715722191524"><ele>90.0</ele><time>2026-04-03T13:42:08.813Z</time></trkpt><trkpt lat="45.29450176459514" lon="11.686847251297811"><ele>90.0</ele><time>2026-04-03T13:42:09.813Z</time></trkpt><trkpt lat="45.29453665905341" lon="11.686975513228598"><ele>96.0</ele><time>2026-04-03T13:42:10.813Z</time></trkpt><trkpt lat="45.29504447772675" lon="11.686746867598679"><ele>96.0</ele><time>2026-04-03T13:42:11.813Z</time></trkpt><trkpt lat="45.295119256992095" lon="11.686872218720023"><ele>96.0</ele><time>2026-04-03T13:42:12.813Z</time></trkpt><trkpt lat="45.295176037947336" lon="11.686961268201243"><ele>96.0</ele><time>2026-04-03T13:42:13.813Z</time></trkpt><trkpt lat="45.29522530318814" lon="11.687038305094159"><ele>96.0</ele><time>2026-04-03T13:42:14.813Z</time></trkpt><trkpt lat="45.29527247547024" lon="11.68711206596201"><ele>96.0</ele><time>2026-04-03T13:42:15.813Z</time></trkpt><trkpt lat="45.295316334444564" lon="11.68719348594287"><ele>96.0</ele><time>2026-04-03T13:42:16.813Z</time></trkpt><trkpt lat="45.295354200498934" lon="11.687279416898557"><ele>96.5</ele><time>2026-04-03T13:42:17.813Z</time></trkpt><trkpt lat="45.29537516763972" lon="11.687384767974788"><ele>97.0</ele><time>2026-04-03T13:42:18.813Z</time></trkpt><trkpt lat="45.29538782596487" lon="11.687486499537961"><ele>97.5</ele><time>2026-04-03T13:42:19.813Z</time></trkpt><trkpt lat="45.29540759559653" lon="11.687575016619368"><ele>98.0</ele><time>2026-04-03T13:42:20.813Z</time></trkpt><trkpt lat="45.29536012159911" lon="11.68768539196025"><ele>98.5</ele><time>2026-04-03T13:42:21.813Z</time></trkpt><trkpt lat="45.29534173592141" lon="11.687792632879027"><ele>99.0</ele><time>2026-04-03T13:42:22.813Z</time></trkpt><trkpt lat="45.29529526038882" lon="11.687898039132085"><ele>99.0</ele><time>2026-04-03T13:42:23.813Z</time></trkpt><trkpt lat="45.29525696098553" lon="11.688030048102334"><ele>99.0</ele><time>2026-04-03T13:42:24.813Z</time></trkpt><trkpt lat="45.29522675019587" lon="11.688158159272634"><ele>99.0</ele><time>2026-04-03T13:42:25.813Z</time></trkpt><trkpt lat="45.295201687444326" lon="11.688306301052291"><ele>99.0</ele><time>2026-04-03T13:42:26.813Z</time></trkpt><trkpt lat="45.295188673952595" lon="11.688461448482501"><ele>99.0</ele><time>2026-04-03T13:42:27.813Z</time></trkpt><trkpt lat="45.29519195656449" lon="11.688613451179904"><ele>98.6</ele><time>2026-04-03T13:42:28.813Z</time></trkpt><trkpt lat="45.29522346515593" lon="11.688745524132205"><ele>98.2</ele><time>2026-04-03T13:42:29.813Z</time></trkpt><trkpt lat="45.29524966037886" lon="11.688870576002559"><ele>97.8</ele><time>2026-04-03T13:42:30.813Z</time></trkpt><trkpt lat="45.295296751044475" lon="11.688986602052356"><ele>97.39999999999999</ele><time>2026-04-03T13:42:31.813Z</time></trkpt><trkpt lat="45.29535614279547" lon="11.689111664867683"><ele>97.0</ele><time>2026-04-03T13:42:32.813Z</time></trkpt><trkpt lat="45.29541567327588" lon="11.689231639421237"><ele>97.00000000000001</ele><time>2026-04-03T13:42:33.813Z</time></trkpt><trkpt lat="45.295467076287785" lon="11.689338662335661"><ele>97.0</ele><time>2026-04-03T13:42:34.813Z</time></trkpt><trkpt lat="45.29551173378058" lon="11.689436150653615"><ele>97.0</ele><time>2026-04-03T13:42:35.813Z</time></trkpt><trkpt lat="45.29555430772482" lon="11.689518258029688"><ele>97.0</ele><time>2026-04-03T13:42:36.813Z</time></trkpt><trkpt lat="45.29559700911236" lon="11.689599823424025"><ele>97.00000000000001</ele><time>2026-04-03T13:42:37.813Z</time></trkpt><trkpt lat="45.2956372275976" lon="11.689685292921997"><ele>97.0</ele><time>2026-04-03T13:42:38.813Z</time></trkpt><trkpt lat="45.29567053894279" lon="11.6897957865788"><ele>98.66666666666667</ele><time>2026-04-03T13:42:39.813Z</time></trkpt><trkpt lat="45.29574130668721" lon="11.689870582563158"><ele>100.33333333333334</ele><time>2026-04-03T13:42:40.813Z</time></trkpt><trkpt lat="45.29580321713548" lon="11.68995333466361"><ele>102.0</ele><time>2026-04-03T13:42:41.813Z</time></trkpt><trkpt lat="45.29586439693314" lon="11.690021478969548"><ele>103.66666666666666</ele><time>2026-04-03T13:42:42.813Z</time></trkpt><trkpt lat="45.295921429656055" lon="11.690087751546502"><ele>105.33333333333333</ele><time>2026-04-03T13:42:43.813Z</time></trkpt><trkpt lat="45.296019023976605" lon="11.690165326237297"><ele>107.0</ele><time>2026-04-03T13:42:45.813Z</time></trkpt><trkpt lat="45.296117410644314" lon="11.690090102308101"><ele>106.99999999999999</ele><time>2026-04-03T13:42:47.813Z</time></trkpt><trkpt lat="45.29612962577992" lon="11.689995688720728"><ele>107.0</ele><time>2026-04-03T13:42:48.813Z</time></trkpt><trkpt lat="45.29610393829472" lon="11.689877926753821"><ele>107.0</ele><time>2026-04-03T13:42:49.813Z</time></trkpt><trkpt lat="45.29610256471256" lon="11.68975031438256"><ele>107.0</ele><time>2026-04-03T13:42:50.812Z</time></trkpt><trkpt lat="45.29608431281567" lon="11.68961122502281"><ele>106.99999999999999</ele><time>2026-04-03T13:42:51.812Z</time></trkpt><trkpt lat="45.29605537607956" lon="11.689488825456504"><ele>107.0</ele><time>2026-04-03T13:42:52.812Z</time></trkpt><trkpt lat="45.29604376615286" lon="11.689356777899544"><ele>107.66666666666666</ele><time>2026-04-03T13:42:53.812Z</time></trkpt><trkpt lat="45.29603050429218" lon="11.689243848467562"><ele>108.33333333333333</ele><time>2026-04-03T13:42:54.812Z</time></trkpt><trkpt lat="45.29601792225529" lon="11.689134790952917"><ele>109.0</ele><time>2026-04-03T13:42:55.812Z</time></trkpt><trkpt lat="45.29601750278854" lon="11.689020493375233"><ele>109.66666666666666</ele><time>2026-04-03T13:42:56.812Z</time></trkpt><trkpt lat="45.29603859678395" lon="11.688896189040168"><ele>110.33333333333333</ele><time>2026-04-03T13:42:57.812Z</time></trkpt><trkpt lat="45.29607058261031" lon="11.688772092617196"><ele>111.0</ele><time>2026-04-03T13:42:58.812Z</time></trkpt><trkpt lat="45.2961204538599" lon="11.688654243400498"><ele>111.6</ele><time>2026-04-03T13:42:59.812Z</time></trkpt><trkpt lat="45.296179888741335" lon="11.68854203361642"><ele>112.19999999999999</ele><time>2026-04-03T13:43:00.812Z</time></trkpt><trkpt lat="45.29624742707942" lon="11.688443634113876"><ele>112.80000000000001</ele><time>2026-04-03T13:43:01.812Z</time></trkpt><trkpt lat="45.296323659544655" lon="11.688376590630492"><ele>113.4</ele><time>2026-04-03T13:43:02.812Z</time></trkpt><trkpt lat="45.29640383596614" lon="11.68832840307807"><ele>114.0</ele><time>2026-04-03T13:43:03.812Z</time></trkpt><trkpt lat="45.29649251985872" lon="11.688311022100788"><ele>116.2</ele><time>2026-04-03T13:43:04.812Z</time></trkpt><trkpt lat="45.29658327933292" lon="11.688304984322219"><ele>118.4</ele><time>2026-04-03T13:43:05.812Z</time></trkpt><trkpt lat="45.2966774745122" lon="11.688301782058396"><ele>120.6</ele><time>2026-04-03T13:43:06.812Z</time></trkpt><trkpt lat="45.296773850943666" lon="11.688296478992697"><ele>122.8</ele><time>2026-04-03T13:43:07.812Z</time></trkpt><trkpt lat="45.296860778556955" lon="11.688296121619402"><ele>125.0</ele><time>2026-04-03T13:43:08.812Z</time></trkpt><trkpt lat="45.296953278047255" lon="11.688276993629888"><ele>125.0</ele><time>2026-04-03T13:43:09.812Z</time></trkpt><trkpt lat="45.29704518239352" lon="11.688260560194886"><ele>125.0</ele><time>2026-04-03T13:43:10.812Z</time></trkpt><trkpt lat="45.297142033637925" lon="11.688246310670097"><ele>125.0</ele><time>2026-04-03T13:43:11.812Z</time></trkpt><trkpt lat="45.29723419524324" lon="11.688226478146644"><ele>125.0</ele><time>2026-04-03T13:43:12.812Z</time></trkpt><trkpt lat="45.297326746650526" lon="11.688215284948447"><ele>125.0</ele><time>2026-04-03T13:43:13.812Z</time></trkpt><trkpt lat="45.29741612994305" lon="11.688205979582989"><ele>126.49999999999999</ele><time>2026-04-03T13:43:14.812Z</time></trkpt><trkpt lat="45.297506168793326" lon="11.688206467616064"><ele>128.0</ele><time>2026-04-03T13:43:15.812Z</time></trkpt><trkpt lat="45.297598455426986" lon="11.688225027558477"><ele>129.5</ele><time>2026-04-03T13:43:16.812Z</time></trkpt><trkpt lat="45.29768214101229" lon="11.68824481888499"><ele>131.0</ele><time>2026-04-03T13:43:17.812Z</time></trkpt><trkpt lat="45.29776547430841" lon="11.688267916816711"><ele>132.5</ele><time>2026-04-03T13:43:18.812Z</time></trkpt><trkpt lat="45.2978396719729" lon="11.688292527426679"><ele>134.0</ele><time>2026-04-03T13:43:19.812Z</time></trkpt><trkpt lat="45.297914090359065" lon="11.688329132917719"><ele>134.0</ele><time>2026-04-03T13:43:20.812Z</time></trkpt><trkpt lat="45.29796874936295" lon="11.688403197424035"><ele>134.0</ele><time>2026-04-03T13:43:21.812Z</time></trkpt><trkpt lat="45.29801344510434" lon="11.688492893553445"><ele>134.0</ele><time>2026-04-03T13:43:22.812Z</time></trkpt><trkpt lat="45.29804488397248" lon="11.688600746269758"><ele>134.0</ele><time>2026-04-03T13:43:23.812Z</time></trkpt><trkpt lat="45.29806793232989" lon="11.68871503083246"><ele>134.0</ele><time>2026-04-03T13:43:24.812Z</time></trkpt><trkpt lat="45.29809225944074" lon="11.688824046942667"><ele>134.0</ele><time>2026-04-03T13:43:25.812Z</time></trkpt><trkpt lat="45.29811278529204" lon="11.688936273973313"><ele>137.66666666666666</ele><time>2026-04-03T13:43:26.812Z</time></trkpt><trkpt lat="45.29813294993556" lon="11.689045060705554"><ele>141.33333333333331</ele><time>2026-04-03T13:43:27.812Z</time></trkpt><trkpt lat="45.298143397378" lon="11.689150820966123"><ele>145.0</ele><time>2026-04-03T13:43:28.812Z</time></trkpt><trkpt lat="45.29814536634692" lon="11.689252540340412"><ele>148.66666666666666</ele><time>2026-04-03T13:43:29.812Z</time></trkpt><trkpt lat="45.29813900740935" lon="11.689357426275754"><ele>152.33333333333334</ele><time>2026-04-03T13:43:30.812Z</time></trkpt><trkpt lat="45.29812335510506" lon="11.689466241205091"><ele>156.0</ele><time>2026-04-03T13:43:31.812Z</time></trkpt><trkpt lat="45.298111118420316" lon="11.689577971240276"><ele>157.0</ele><time>2026-04-03T13:43:32.812Z</time></trkpt><trkpt lat="45.29810715443735" lon="11.689693466564554"><ele>158.0</ele><time>2026-04-03T13:43:33.812Z</time></trkpt><trkpt lat="45.29809528182817" lon="11.68981370686707"><ele>159.0</ele><time>2026-04-03T13:43:34.812Z</time></trkpt><trkpt lat="45.29808644169033" lon="11.689930990264584"><ele>160.0</ele><time>2026-04-03T13:43:35.812Z</time></trkpt><trkpt lat="45.29806909772084" lon="11.690042904022386"><ele>161.0</ele><time>2026-04-03T13:43:36.811Z</time></trkpt><trkpt lat="45.298049309077435" lon="11.690143997839131"><ele>162.0</ele><time>2026-04-03T13:43:37.812Z</time></trkpt><trkpt lat="45.29802910814758" lon="11.69024155249609"><ele>162.2</ele><time>2026-04-03T13:43:38.812Z</time></trkpt><trkpt lat="45.29800915647898" lon="11.690335973572793"><ele>162.39999999999998</ele><time>2026-04-03T13:43:39.812Z</time></trkpt><trkpt lat="45.298013860528194" lon="11.690501261459518"><ele>162.60000000000002</ele><time>2026-04-03T13:43:41.812Z</time></trkpt><trkpt lat="45.298126547991" lon="11.690530722545857"><ele>162.8</ele><time>2026-04-03T13:43:43.812Z</time></trkpt><trkpt lat="45.29818704860886" lon="11.690475426467396"><ele>163.0</ele><time>2026-04-03T13:43:44.812Z</time></trkpt><trkpt lat="45.2982375500895" lon="11.690375538026856"><ele>163.0</ele><time>2026-04-03T13:43:45.812Z</time></trkpt><trkpt lat="45.298296996033145" lon="11.690274778519983"><ele>163.0</ele><time>2026-04-03T13:43:46.812Z</time></trkpt><trkpt lat="45.298364467299685" lon="11.690169232273936"><ele>163.0</ele><time>2026-04-03T13:43:47.812Z</time></trkpt><trkpt lat="45.29842392605106" lon="11.690069817212997"><ele>163.0</ele><time>2026-04-03T13:43:48.812Z</time></trkpt><trkpt lat="45.298483318617" lon="11.689971936792581"><ele>163.0</ele><time>2026-04-03T13:43:49.812Z</time></trkpt><trkpt lat="45.298541037760685" lon="11.689880926723294"><ele>162.8</ele><time>2026-04-03T13:43:50.812Z</time></trkpt><trkpt lat="45.29860785166083" lon="11.689807666131232"><ele>162.60000000000002</ele><time>2026-04-03T13:43:51.812Z</time></trkpt><trkpt lat="45.29869286161793" lon="11.689754966935357"><ele>162.39999999999998</ele><time>2026-04-03T13:43:52.812Z</time></trkpt><trkpt lat="45.29878238170236" lon="11.689712894566531"><ele>162.2</ele><time>2026-04-03T13:43:53.812Z</time></trkpt><trkpt lat="45.29886989749894" lon="11.689675485363306"><ele>162.0</ele><time>2026-04-03T13:43:54.812Z</time></trkpt><trkpt lat="45.29895823865204" lon="11.689632922562712"><ele>163.8</ele><time>2026-04-03T13:43:55.812Z</time></trkpt><trkpt lat="45.299034152437066" lon="11.689548989650527"><ele>165.6</ele><time>2026-04-03T13:43:56.812Z</time></trkpt><trkpt lat="45.29908279794971" lon="11.689432194057051"><ele>167.4</ele><time>2026-04-03T13:43:57.812Z</time></trkpt><trkpt lat="45.29912743270361" lon="11.689306343407132"><ele>169.20000000000002</ele><time>2026-04-03T13:43:58.812Z</time></trkpt><trkpt lat="45.29917222703495" lon="11.68917587523548"><ele>171.0</ele><time>2026-04-03T13:43:59.812Z</time></trkpt><trkpt lat="45.299224488680196" lon="11.689052369367023"><ele>171.0</ele><time>2026-04-03T13:44:00.812Z</time></trkpt><trkpt lat="45.29928680363026" lon="11.688938660700147"><ele>171.0</ele><time>2026-04-03T13:44:01.812Z</time></trkpt><trkpt lat="45.29935292553669" lon="11.688840027829427"><ele>171.0</ele><time>2026-04-03T13:44:02.812Z</time></trkpt><trkpt lat="45.29942049824608" lon="11.688757837268978"><ele>171.0</ele><time>2026-04-03T13:44:03.812Z</time></trkpt><trkpt lat="45.29947764931336" lon="11.688687051422095"><ele>171.0</ele><time>2026-04-03T13:44:04.812Z</time></trkpt><trkpt lat="45.299539037826364" lon="11.688629165402796"><ele>171.0</ele><time>2026-04-03T13:44:05.812Z</time></trkpt><trkpt lat="45.299610776546785" lon="11.688602030807058"><ele>171.0</ele><time>2026-04-03T13:44:06.812Z</time></trkpt><trkpt lat="45.29967967093589" lon="11.688593584173816"><ele>171.0</ele><time>2026-04-03T13:44:07.812Z</time></trkpt><trkpt lat="45.29975045900645" lon="11.688612249516527"><ele>171.0</ele><time>2026-04-03T13:44:08.812Z</time></trkpt><trkpt lat="45.29982192551071" lon="11.688659023171875"><ele>171.0</ele><time>2026-04-03T13:44:09.812Z</time></trkpt><trkpt lat="45.29988539018792" lon="11.68872322443937"><ele>171.0</ele><time>2026-04-03T13:44:10.812Z</time></trkpt><trkpt lat="45.299938677676714" lon="11.688807093593198"><ele>171.0</ele><time>2026-04-03T13:44:11.812Z</time></trkpt><trkpt lat="45.29999218386397" lon="11.688901447875686"><ele>172.0</ele><time>2026-04-03T13:44:12.812Z</time></trkpt><trkpt lat="45.30004083944379" lon="11.68900755222113"><ele>173.0</ele><time>2026-04-03T13:44:13.812Z</time></trkpt><trkpt lat="45.300092227444395" lon="11.689113527383391"><ele>174.0</ele><time>2026-04-03T13:44:14.812Z</time></trkpt><trkpt lat="45.3001429644447" lon="11.68922338723268"><ele>175.0</ele><time>2026-04-03T13:44:15.812Z</time></trkpt><trkpt lat="45.300194694987105" lon="11.689329338748884"><ele>176.0</ele><time>2026-04-03T13:44:16.812Z</time></trkpt><trkpt lat="45.30024953332267" lon="11.689434851477863"><ele>177.20000000000002</ele><time>2026-04-03T13:44:17.812Z</time></trkpt><trkpt lat="45.30031043860703" lon="11.689548762886284"><ele>178.4</ele><time>2026-04-03T13:44:18.812Z</time></trkpt><trkpt lat="45.30037855340359" lon="11.689677562094166"><ele>179.6</ele><time>2026-04-03T13:44:19.812Z</time></trkpt><trkpt lat="45.30044006900366" lon="11.689795741357996"><ele>180.8</ele><time>2026-04-03T13:44:20.812Z</time></trkpt><trkpt lat="45.300500681162646" lon="11.689921298755142"><ele>182.0</ele><time>2026-04-03T13:44:21.812Z</time></trkpt><trkpt lat="45.30056128757128" lon="11.690039568361513"><ele>182.6</ele><time>2026-04-03T13:44:22.812Z</time></trkpt><trkpt lat="45.300625525928346" lon="11.690152029465686"><ele>183.2</ele><time>2026-04-03T13:44:23.812Z</time></trkpt><trkpt lat="45.300690533738724" lon="11.690270514300206"><ele>183.8</ele><time>2026-04-03T13:44:24.812Z</time></trkpt><trkpt lat="45.30075062919272" lon="11.690399485351016"><ele>184.4</ele><time>2026-04-03T13:44:25.812Z</time></trkpt><trkpt lat="45.3008152310078" lon="11.690537156568391"><ele>185.0</ele><time>2026-04-03T13:44:26.812Z</time></trkpt><trkpt lat="45.30087012219328" lon="11.690674939931935"><ele>184.6</ele><time>2026-04-03T13:44:27.812Z</time></trkpt><trkpt lat="45.30092551083566" lon="11.690812363215887"><ele>184.2</ele><time>2026-04-03T13:44:28.812Z</time></trkpt><trkpt lat="45.30098659366203" lon="11.690942931892836"><ele>183.8</ele><time>2026-04-03T13:44:29.812Z</time></trkpt><trkpt lat="45.30104487489326" lon="11.691069207186628"><ele>183.4</ele><time>2026-04-03T13:44:30.812Z</time></trkpt><trkpt lat="45.30110213645045" lon="11.69118422812877"><ele>183.0</ele><time>2026-04-03T13:44:31.812Z</time></trkpt><trkpt lat="45.301157460718656" lon="11.691309432871208"><ele>183.0</ele><time>2026-04-03T13:44:32.812Z</time></trkpt><trkpt lat="45.301241977859945" lon="11.691403260637845"><ele>183.0</ele><time>2026-04-03T13:44:33.812Z</time></trkpt><trkpt lat="45.30134263462825" lon="11.691461893712116"><ele>183.0</ele><time>2026-04-03T13:44:34.812Z</time></trkpt><trkpt lat="45.30145630743571" lon="11.69149075107053"><ele>183.0</ele><time>2026-04-03T13:44:35.812Z</time></trkpt><trkpt lat="45.301576525181346" lon="11.691475901307962"><ele>185.5</ele><time>2026-04-03T13:44:36.812Z</time></trkpt><trkpt lat="45.30168660414977" lon="11.691483230792134"><ele>188.0</ele><time>2026-04-03T13:44:37.812Z</time></trkpt><trkpt lat="45.30180547121701" lon="11.691480115024422"><ele>190.5</ele><time>2026-04-03T13:44:38.811Z</time></trkpt><trkpt lat="45.301928379897724" lon="11.691479869189735"><ele>193.0</ele><time>2026-04-03T13:44:39.811Z</time></trkpt><trkpt lat="45.30204527055735" lon="11.691474799553196"><ele>193.0</ele><time>2026-04-03T13:44:40.811Z</time></trkpt><trkpt lat="45.30216225321182" lon="11.691472035340686"><ele>193.0</ele><time>2026-04-03T13:44:41.811Z</time></trkpt><trkpt lat="45.3022759546019" lon="11.691488703729402"><ele>193.0</ele><time>2026-04-03T13:44:42.811Z</time></trkpt><trkpt lat="45.3023799754717" lon="11.691514808486986"><ele>193.0</ele><time>2026-04-03T13:44:43.811Z</time></trkpt><trkpt lat="45.30248060749251" lon="11.691536853552082"><ele>193.0</ele><time>2026-04-03T13:44:44.811Z</time></trkpt><trkpt lat="45.30257907013046" lon="11.691557763562276"><ele>194.99999999999997</ele><time>2026-04-03T13:44:45.811Z</time></trkpt><trkpt lat="45.30267859069343" lon="11.691578159968133"><ele>197.0</ele><time>2026-04-03T13:44:46.811Z</time></trkpt><trkpt lat="45.3027706874206" lon="11.691596587877322"><ele>199.0</ele><time>2026-04-03T13:44:47.811Z</time></trkpt><trkpt lat="45.30285572131351" lon="11.691624909675095"><ele>201.0</ele><time>2026-04-03T13:44:48.811Z</time></trkpt><trkpt lat="45.30293826608781" lon="11.691661747522117"><ele>202.99999999999997</ele><time>2026-04-03T13:44:49.811Z</time></trkpt><trkpt lat="45.303012396698186" lon="11.6917107467636"><ele>205.0</ele><time>2026-04-03T13:44:50.811Z</time></trkpt><trkpt lat="45.30308678813308" lon="11.69177263833527"><ele>205.6</ele><time>2026-04-03T13:44:51.811Z</time></trkpt><trkpt lat="45.30316290071153" lon="11.691847295187358"><ele>206.2</ele><time>2026-04-03T13:44:52.811Z</time></trkpt><trkpt lat="45.303243610764945" lon="11.691924420078204"><ele>206.8</ele><time>2026-04-03T13:44:53.811Z</time></trkpt><trkpt lat="45.303323017634725" lon="11.692003188835761"><ele>207.4</ele><time>2026-04-03T13:44:54.811Z</time></trkpt><trkpt lat="45.30340223291628" lon="11.692081331103845"><ele>208.0</ele><time>2026-04-03T13:44:55.811Z</time></trkpt><trkpt lat="45.30347830714012" lon="11.692154115252574"><ele>208.49999999999997</ele><time>2026-04-03T13:44:56.811Z</time></trkpt><trkpt lat="45.303540800913865" lon="11.692214720822689"><ele>209.0</ele><time>2026-04-03T13:44:57.811Z</time></trkpt><trkpt lat="45.303601528584714" lon="11.692272254168842"><ele>209.5</ele><time>2026-04-03T13:44:58.811Z</time></trkpt><trkpt lat="45.30366390435093" lon="11.692326279591807"><ele>210.0</ele><time>2026-04-03T13:44:59.811Z</time></trkpt><trkpt lat="45.30372648312042" lon="11.692383438201187"><ele>210.49999999999997</ele><time>2026-04-03T13:45:00.811Z</time></trkpt><trkpt lat="45.30379005159036" lon="11.692447514806421"><ele>211.0</ele><time>2026-04-03T13:45:01.811Z</time></trkpt><trkpt lat="45.30385806229608" lon="11.692513431324283"><ele>211.83333333333331</ele><time>2026-04-03T13:45:02.811Z</time></trkpt><trkpt lat="45.303928140390994" lon="11.692576243439909"><ele>212.66666666666666</ele><time>2026-04-03T13:45:03.811Z</time></trkpt><trkpt lat="45.30399539567914" lon="11.692630250151792"><ele>213.5</ele><time>2026-04-03T13:45:04.811Z</time></trkpt><trkpt lat="45.304062174106846" lon="11.69268507178834"><ele>214.33333333333331</ele><time>2026-04-03T13:45:05.811Z</time></trkpt><trkpt lat="45.30412751325698" lon="11.692729436022896"><ele>215.16666666666666</ele><time>2026-04-03T13:45:06.811Z</time></trkpt><trkpt lat="45.30419259857479" lon="11.69276577148337"><ele>216.0</ele><time>2026-04-03T13:45:07.811Z</time></trkpt><trkpt lat="45.30426317596859" lon="11.692802030643712"><ele>216.0</ele><time>2026-04-03T13:45:08.811Z</time></trkpt><trkpt lat="45.304336956357865" lon="11.692842598762642"><ele>216.00000000000003</ele><time>2026-04-03T13:45:09.811Z</time></trkpt><trkpt lat="45.30441408473329" lon="11.692897033364119"><ele>216.00000000000003</ele><time>2026-04-03T13:45:10.811Z</time></trkpt><trkpt lat="45.30448906460017" lon="11.692984790911725"><ele>216.0</ele><time>2026-04-03T13:45:11.811Z</time></trkpt><trkpt lat="45.30456819348584" lon="11.693089874371031"><ele>216.0</ele><time>2026-04-03T13:45:12.811Z</time></trkpt><trkpt lat="45.30464106680057" lon="11.693215163754763"><ele>216.0</ele><time>2026-04-03T13:45:13.811Z</time></trkpt><trkpt lat="45.30470567823443" lon="11.69334831560118"><ele>216.0</ele><time>2026-04-03T13:45:14.811Z</time></trkpt><trkpt lat="45.304774558941666" lon="11.69347970114548"><ele>216.0</ele><time>2026-04-03T13:45:15.811Z</time></trkpt><trkpt lat="45.30483067510552" lon="11.693623848962561"><ele>216.0</ele><time>2026-04-03T13:45:16.811Z</time></trkpt><trkpt lat="45.30487476344587" lon="11.693774902187634"><ele>219.0</ele><time>2026-04-03T13:45:17.811Z</time></trkpt><trkpt lat="45.30489533834895" lon="11.69393045836069"><ele>222.00000000000003</ele><time>2026-04-03T13:45:18.811Z</time></trkpt><trkpt lat="45.30491452408418" lon="11.694075378701587"><ele>225.00000000000003</ele><time>2026-04-03T13:45:19.811Z</time></trkpt><trkpt lat="45.304962015517184" lon="11.69420667049509"><ele>228.0</ele><time>2026-04-03T13:45:20.811Z</time></trkpt><trkpt lat="45.30502873709658" lon="11.694316808964217"><ele>231.0</ele><time>2026-04-03T13:45:21.811Z</time></trkpt><trkpt lat="45.305028404414095" lon="11.694471794482176"><ele>231.5</ele><time>2026-04-03T13:45:22.811Z</time></trkpt><trkpt lat="45.3052001987853" lon="11.694550756643078"><ele>232.0</ele><time>2026-04-03T13:45:23.811Z</time></trkpt><trkpt lat="45.30526989006454" lon="11.694697454766986"><ele>232.5</ele><time>2026-04-03T13:45:24.811Z</time></trkpt><trkpt lat="45.30532973104093" lon="11.69483882895705"><ele>233.0</ele><time>2026-04-03T13:45:25.811Z</time></trkpt><trkpt lat="45.30536418447087" lon="11.695062564847877"><ele>234.25</ele><time>2026-04-03T13:45:26.811Z</time></trkpt><trkpt lat="45.30541317290619" lon="11.695296825524954"><ele>235.5</ele><time>2026-04-03T13:45:27.811Z</time></trkpt><trkpt lat="45.30546259182869" lon="11.695468166161925"><ele>236.75</ele><time>2026-04-03T13:45:28.811Z</time></trkpt><trkpt lat="45.305517472856046" lon="11.695623074330085"><ele>238.0</ele><time>2026-04-03T13:45:29.811Z</time></trkpt><trkpt lat="45.30556776082893" lon="11.69576148795039"><ele>241.4</ele><time>2026-04-03T13:45:30.81Z</time></trkpt><trkpt lat="45.305614671297256" lon="11.695906949362426"><ele>244.8</ele><time>2026-04-03T13:45:31.81Z</time></trkpt><trkpt lat="45.305682999221524" lon="11.696036677602486"><ele>248.2</ele><time>2026-04-03T13:45:32.81Z</time></trkpt><trkpt lat="45.30573547305233" lon="11.696165169438043"><ele>251.6</ele><time>2026-04-03T13:45:33.81Z</time></trkpt><trkpt lat="45.30578776915357" lon="11.696302521020318"><ele>255.0</ele><time>2026-04-03T13:45:34.81Z</time></trkpt><trkpt lat="45.3058197954627" lon="11.696455715600388"><ele>255.75</ele><time>2026-04-03T13:45:35.81Z</time></trkpt><trkpt lat="45.30585300468832" lon="11.696615686135459"><ele>256.5</ele><time>2026-04-03T13:45:36.811Z</time></trkpt><trkpt lat="45.30588206511364" lon="11.696782485643013"><ele>257.25</ele><time>2026-04-03T13:45:37.81Z</time></trkpt><trkpt lat="45.30591711226096" lon="11.696950858938534"><ele>258.0</ele><time>2026-04-03T13:45:38.81Z</time></trkpt><trkpt lat="45.30595473199425" lon="11.697121337067177"><ele>258.5</ele><time>2026-04-03T13:45:39.81Z</time></trkpt><trkpt lat="45.30600164842914" lon="11.697280297187751"><ele>259.0</ele><time>2026-04-03T13:45:40.81Z</time></trkpt><trkpt lat="45.30605181212183" lon="11.697433789768114"><ele>259.5</ele><time>2026-04-03T13:45:41.81Z</time></trkpt><trkpt lat="45.306109815903426" lon="11.697575247104654"><ele>260.0</ele><time>2026-04-03T13:45:42.811Z</time></trkpt><trkpt lat="45.30617208537125" lon="11.697713815649402"><ele>262.2</ele><time>2026-04-03T13:45:43.81Z</time></trkpt><trkpt lat="45.30622977158066" lon="11.697849282173326"><ele>264.4</ele><time>2026-04-03T13:45:44.81Z</time></trkpt><trkpt lat="45.30627607363063" lon="11.69798804518122"><ele>266.6</ele><time>2026-04-03T13:45:45.81Z</time></trkpt><trkpt lat="45.306327161596734" lon="11.698114080595463"><ele>268.8</ele><time>2026-04-03T13:45:46.81Z</time></trkpt><trkpt lat="45.30637656289633" lon="11.698235956855461"><ele>271.0</ele><time>2026-04-03T13:45:47.81Z</time></trkpt><trkpt lat="45.306423546859584" lon="11.698355500881796"><ele>271.0</ele><time>2026-04-03T13:45:48.81Z</time></trkpt><trkpt lat="45.30646794001777" lon="11.698467254143905"><ele>271.0</ele><time>2026-04-03T13:45:49.81Z</time></trkpt><trkpt lat="45.30650197465248" lon="11.698583362362053"><ele>271.0</ele><time>2026-04-03T13:45:50.81Z</time></trkpt><trkpt lat="45.30655121999485" lon="11.698646898817051"><ele>271.0</ele><time>2026-04-03T13:45:51.81Z</time></trkpt><trkpt lat="45.3066115938166" lon="11.698694207036871"><ele>271.0</ele><time>2026-04-03T13:45:52.81Z</time></trkpt><trkpt lat="45.306659702428206" lon="11.698786861881757"><ele>271.0</ele><time>2026-04-03T13:45:53.81Z</time></trkpt><trkpt lat="45.3067232999688" lon="11.698868914821526"><ele>270.0</ele><time>2026-04-03T13:45:54.81Z</time></trkpt><trkpt lat="45.30679856226872" lon="11.698967273617413"><ele>269.0</ele><time>2026-04-03T13:45:55.81Z</time></trkpt><trkpt lat="45.30685978763206" lon="11.699043085436319"><ele>268.0</ele><time>2026-04-03T13:45:56.81Z</time></trkpt><trkpt lat="45.3069333225775" lon="11.699128822123843"><ele>267.0</ele><time>2026-04-03T13:45:57.81Z</time></trkpt><trkpt lat="45.3070049099281" lon="11.699215710288348"><ele>266.0</ele><time>2026-04-03T13:45:58.81Z</time></trkpt><trkpt lat="45.30707953799981" lon="11.699310451807024"><ele>266.0</ele><time>2026-04-03T13:45:59.81Z</time></trkpt><trkpt lat="45.30715334057627" lon="11.699409354289243"><ele>266.0</ele><time>2026-04-03T13:46:00.81Z</time></trkpt><trkpt lat="45.30722690998345" lon="11.699507778109307"><ele>266.0</ele><time>2026-04-03T13:46:01.81Z</time></trkpt><trkpt lat="45.30730016547776" lon="11.699603436780691"><ele>266.0</ele><time>2026-04-03T13:46:02.81Z</time></trkpt><trkpt lat="45.3073711741744" lon="11.699678154066365"><ele>266.0</ele><time>2026-04-03T13:46:03.81Z</time></trkpt><trkpt lat="45.307456485754244" lon="11.699746488016308"><ele>263.6</ele><time>2026-04-03T13:46:04.81Z</time></trkpt><trkpt lat="45.307555121617376" lon="11.699802436895965"><ele>261.20000000000005</ele><time>2026-04-03T13:46:05.81Z</time></trkpt><trkpt lat="45.307655945457306" lon="11.699860445043456"><ele>258.79999999999995</ele><time>2026-04-03T13:46:06.81Z</time></trkpt><trkpt lat="45.30775436579028" lon="11.699934306713349"><ele>256.4</ele><time>2026-04-03T13:46:07.81Z</time></trkpt><trkpt lat="45.307863066157914" lon="11.700012441427189"><ele>254.0</ele><time>2026-04-03T13:46:08.81Z</time></trkpt><trkpt lat="45.30797604439243" lon="11.700072486342412"><ele>256.4</ele><time>2026-04-03T13:46:09.81Z</time></trkpt><trkpt lat="45.3080829369046" lon="11.700115207285894"><ele>258.79999999999995</ele><time>2026-04-03T13:46:10.81Z</time></trkpt><trkpt lat="45.30818829930862" lon="11.700159480495444"><ele>261.20000000000005</ele><time>2026-04-03T13:46:11.81Z</time></trkpt><trkpt lat="45.308285877005375" lon="11.700203737800036"><ele>263.6</ele><time>2026-04-03T13:46:12.81Z</time></trkpt><trkpt lat="45.30838800631123" lon="11.700254105694267"><ele>266.0</ele><time>2026-04-03T13:46:13.81Z</time></trkpt><trkpt lat="45.30849343417877" lon="11.700299921070727"><ele>261.2</ele><time>2026-04-03T13:46:14.81Z</time></trkpt><trkpt lat="45.30861049438263" lon="11.700320863491505"><ele>256.40000000000003</ele><time>2026-04-03T13:46:15.81Z</time></trkpt><trkpt lat="45.308715393700304" lon="11.700332247597734"><ele>251.6</ele><time>2026-04-03T13:46:16.81Z</time></trkpt><trkpt lat="45.30882157830439" lon="11.700340770959697"><ele>246.8</ele><time>2026-04-03T13:46:17.81Z</time></trkpt><trkpt lat="45.30892162114754" lon="11.70035889236112"><ele>242.0</ele><time>2026-04-03T13:46:18.81Z</time></trkpt><trkpt lat="45.3090341876286" lon="11.700366508224285"><ele>242.0</ele><time>2026-04-03T13:46:19.81Z</time></trkpt><trkpt lat="45.30912380455841" lon="11.700338839340802"><ele>242.0</ele><time>2026-04-03T13:46:20.81Z</time></trkpt><trkpt lat="45.309220817764555" lon="11.700273691843766"><ele>242.0</ele><time>2026-04-03T13:46:21.81Z</time></trkpt><trkpt lat="45.309297785804645" lon="11.70021212261125"><ele>242.0</ele><time>2026-04-03T13:46:22.81Z</time></trkpt><trkpt lat="45.309385500708046" lon="11.70013946240316"><ele>242.0</ele><time>2026-04-03T13:46:23.81Z</time></trkpt><trkpt lat="45.30947423918558" lon="11.700052433773466"><ele>245.6</ele><time>2026-04-03T13:46:24.81Z</time></trkpt><trkpt lat="45.309563675677175" lon="11.699984266615669"><ele>249.2</ele><time>2026-04-03T13:46:25.81Z</time></trkpt><trkpt lat="45.30966466854738" lon="11.699935979491373"><ele>252.8</ele><time>2026-04-03T13:46:26.81Z</time></trkpt><trkpt lat="45.309761900708594" lon="11.699896617408603"><ele>256.4</ele><time>2026-04-03T13:46:27.81Z</time></trkpt><trkpt lat="45.30985318985763" lon="11.699848277662701"><ele>260.0</ele><time>2026-04-03T13:46:28.81Z</time></trkpt><trkpt lat="45.30993203819919" lon="11.699771078531368"><ele>260.0</ele><time>2026-04-03T13:46:29.81Z</time></trkpt><trkpt lat="45.309995262839124" lon="11.699667246000617"><ele>260.0</ele><time>2026-04-03T13:46:30.81Z</time></trkpt><trkpt lat="45.31004958840306" lon="11.699549783117538"><ele>260.0</ele><time>2026-04-03T13:46:31.81Z</time></trkpt><trkpt lat="45.31010271500087" lon="11.69943125301936"><ele>260.0</ele><time>2026-04-03T13:46:32.81Z</time></trkpt><trkpt lat="45.31013518908724" lon="11.699302673283249"><ele>260.0</ele><time>2026-04-03T13:46:33.81Z</time></trkpt><trkpt lat="45.310159533460244" lon="11.699185987533342"><ele>261.5</ele><time>2026-04-03T13:46:34.809Z</time></trkpt><trkpt lat="45.31019713922483" lon="11.699096374904512"><ele>263.0</ele><time>2026-04-03T13:46:35.809Z</time></trkpt><trkpt lat="45.310249948364316" lon="11.699026760379438"><ele>264.5</ele><time>2026-04-03T13:46:36.809Z</time></trkpt><trkpt lat="45.310315055651394" lon="11.698974185528053"><ele>266.0</ele><time>2026-04-03T13:46:37.809Z</time></trkpt><trkpt lat="45.3103914746799" lon="11.698936191283023"><ele>267.5</ele><time>2026-04-03T13:46:38.809Z</time></trkpt><trkpt lat="45.31048431750254" lon="11.698970169755064"><ele>269.0</ele><time>2026-04-03T13:46:39.809Z</time></trkpt><trkpt lat="45.31059869551404" lon="11.698991261560234"><ele>271.5</ele><time>2026-04-03T13:46:40.809Z</time></trkpt><trkpt lat="45.31071946029567" lon="11.699042738165996"><ele>274.0</ele><time>2026-04-03T13:46:41.809Z</time></trkpt><trkpt lat="45.3108388532508" lon="11.699112406950613"><ele>276.5</ele><time>2026-04-03T13:46:42.809Z</time></trkpt><trkpt lat="45.310963184549564" lon="11.69922559540638"><ele>279.0</ele><time>2026-04-03T13:46:43.809Z</time></trkpt><trkpt lat="45.311065491556775" lon="11.699358471494905"><ele>278.4</ele><time>2026-04-03T13:46:44.809Z</time></trkpt><trkpt lat="45.31115351232256" lon="11.699490176879713"><ele>277.79999999999995</ele><time>2026-04-03T13:46:45.809Z</time></trkpt><trkpt lat="45.31123207272001" lon="11.699615245791295"><ele>277.20000000000005</ele><time>2026-04-03T13:46:46.809Z</time></trkpt><trkpt lat="45.3112666111234" lon="11.699696074447692"><ele>276.6</ele><time>2026-04-03T13:46:47.809Z</time></trkpt><trkpt lat="45.31131714960031" lon="11.699797974584486"><ele>276.0</ele><time>2026-04-03T13:46:48.809Z</time></trkpt><trkpt lat="45.311363212346954" lon="11.6998666190946"><ele>277.5</ele><time>2026-04-03T13:46:49.809Z</time></trkpt><trkpt lat="45.31142246174189" lon="11.699907609589767"><ele>279.0</ele><time>2026-04-03T13:46:50.809Z</time></trkpt><trkpt lat="45.31148996010286" lon="11.699919180723175"><ele>280.5</ele><time>2026-04-03T13:46:51.809Z</time></trkpt><trkpt lat="45.3115798228644" lon="11.699900934225475"><ele>282.0</ele><time>2026-04-03T13:46:52.809Z</time></trkpt><trkpt lat="45.31167700581795" lon="11.699885320480929"><ele>283.5</ele><time>2026-04-03T13:46:53.809Z</time></trkpt><trkpt lat="45.31178377737894" lon="11.699906685764601"><ele>285.0</ele><time>2026-04-03T13:46:54.809Z</time></trkpt><trkpt lat="45.31189356829053" lon="11.699948129536963"><ele>285.0</ele><time>2026-04-03T13:46:55.809Z</time></trkpt><trkpt lat="45.31200200379565" lon="11.699977975102378"><ele>285.0</ele><time>2026-04-03T13:46:56.809Z</time></trkpt><trkpt lat="45.31210759213092" lon="11.70004079076743"><ele>285.0</ele><time>2026-04-03T13:46:57.809Z</time></trkpt><trkpt lat="45.31220594615386" lon="11.700083056374217"><ele>285.0</ele><time>2026-04-03T13:46:58.809Z</time></trkpt><trkpt lat="45.31231353760343" lon="11.70007101125125"><ele>285.0</ele><time>2026-04-03T13:46:59.809Z</time></trkpt><trkpt lat="45.31243628137409" lon="11.700048090966654"><ele>285.25</ele><time>2026-04-03T13:47:00.809Z</time></trkpt><trkpt lat="45.31255431412471" lon="11.700033543916526"><ele>285.5</ele><time>2026-04-03T13:47:01.809Z</time></trkpt><trkpt lat="45.31266625613087" lon="11.700103821266806"><ele>285.75</ele><time>2026-04-03T13:47:02.809Z</time></trkpt><trkpt lat="45.312777938879044" lon="11.70016242333855"><ele>286.0</ele><time>2026-04-03T13:47:03.809Z</time></trkpt><trkpt lat="45.31288978560175" lon="11.700237025950464"><ele>288.5</ele><time>2026-04-03T13:47:04.809Z</time></trkpt><trkpt lat="45.31298214640805" lon="11.700328070637825"><ele>291.0</ele><time>2026-04-03T13:47:05.809Z</time></trkpt><trkpt lat="45.31307713565586" lon="11.700440639243373"><ele>293.5</ele><time>2026-04-03T13:47:06.809Z</time></trkpt><trkpt lat="45.313160474694854" lon="11.700565117681524"><ele>296.0</ele><time>2026-04-03T13:47:07.809Z</time></trkpt><trkpt lat="45.313237653832246" lon="11.700701697716733"><ele>296.0</ele><time>2026-04-03T13:47:08.809Z</time></trkpt><trkpt lat="45.31330206756833" lon="11.700830823911247"><ele>296.0</ele><time>2026-04-03T13:47:09.809Z</time></trkpt><trkpt lat="45.313357684686856" lon="11.700953392227337"><ele>296.0</ele><time>2026-04-03T13:47:10.809Z</time></trkpt><trkpt lat="45.313403542442124" lon="11.701072715178158"><ele>296.0</ele><time>2026-04-03T13:47:11.809Z</time></trkpt><trkpt lat="45.3134394033663" lon="11.70118860644618"><ele>296.0</ele><time>2026-04-03T13:47:12.809Z</time></trkpt><trkpt lat="45.31344926663612" lon="11.701303820461808"><ele>295.83333333333337</ele><time>2026-04-03T13:47:13.809Z</time></trkpt><trkpt lat="45.31346998729956" lon="11.701413519138674"><ele>295.6666666666667</ele><time>2026-04-03T13:47:14.809Z</time></trkpt><trkpt lat="45.313488516834155" lon="11.701525754247506"><ele>295.5</ele><time>2026-04-03T13:47:15.809Z</time></trkpt><trkpt lat="45.31350494278634" lon="11.70164150630143"><ele>295.3333333333333</ele><time>2026-04-03T13:47:16.809Z</time></trkpt><trkpt lat="45.31352149274691" lon="11.701753804672725"><ele>295.16666666666663</ele><time>2026-04-03T13:47:17.809Z</time></trkpt><trkpt lat="45.3135420423257" lon="11.701865843857023"><ele>295.0</ele><time>2026-04-03T13:47:18.809Z</time></trkpt><trkpt lat="45.313572206785906" lon="11.701969320228185"><ele>296.3333333333333</ele><time>2026-04-03T13:47:19.809Z</time></trkpt><trkpt lat="45.31363357001585" lon="11.70202208007641"><ele>297.66666666666663</ele><time>2026-04-03T13:47:20.809Z</time></trkpt><trkpt lat="45.31369915677642" lon="11.702051541975779"><ele>299.0</ele><time>2026-04-03T13:47:21.809Z</time></trkpt><trkpt lat="45.31377694696571" lon="11.702040568965812"><ele>300.3333333333333</ele><time>2026-04-03T13:47:22.809Z</time></trkpt><trkpt lat="45.31385440060018" lon="11.701987046363818"><ele>301.6666666666667</ele><time>2026-04-03T13:47:23.809Z</time></trkpt><trkpt lat="45.31393856403108" lon="11.701913600324762"><ele>303.0</ele><time>2026-04-03T13:47:24.809Z</time></trkpt><trkpt lat="45.314035736641365" lon="11.701820016885994"><ele>304.0</ele><time>2026-04-03T13:47:25.809Z</time></trkpt><trkpt lat="45.314120684234595" lon="11.701725354820042"><ele>305.0</ele><time>2026-04-03T13:47:26.809Z</time></trkpt><trkpt lat="45.31422940664609" lon="11.701656126878811"><ele>306.0</ele><time>2026-04-03T13:47:27.809Z</time></trkpt><trkpt lat="45.314332986454126" lon="11.701577131758453"><ele>307.0</ele><time>2026-04-03T13:47:28.809Z</time></trkpt><trkpt lat="45.31444998015162" lon="11.701518374468591"><ele>307.0</ele><time>2026-04-03T13:47:29.809Z</time></trkpt><trkpt lat="45.31457301797165" lon="11.701472786056783"><ele>307.0</ele><time>2026-04-03T13:47:30.809Z</time></trkpt><trkpt lat="45.314707328596675" lon="11.701420763915163"><ele>307.0</ele><time>2026-04-03T13:47:31.809Z</time></trkpt><trkpt lat="45.314839774422744" lon="11.701369463981269"><ele>307.0</ele><time>2026-04-03T13:47:32.809Z</time></trkpt><trkpt lat="45.31498375963438" lon="11.701313373606727"><ele>305.0</ele><time>2026-04-03T13:47:33.809Z</time></trkpt><trkpt lat="45.315123644112994" lon="11.701258575830105"><ele>303.0</ele><time>2026-04-03T13:47:34.809Z</time></trkpt><trkpt lat="45.315261609490456" lon="11.701207005933698"><ele>301.0</ele><time>2026-04-03T13:47:35.809Z</time></trkpt><trkpt lat="45.31539698041382" lon="11.701163184836439"><ele>299.0</ele><time>2026-04-03T13:47:36.809Z</time></trkpt><trkpt lat="45.31552473369146" lon="11.701136596451146"><ele>300.25</ele><time>2026-04-03T13:47:37.808Z</time></trkpt><trkpt lat="45.31566239665873" lon="11.701134240697362"><ele>301.5</ele><time>2026-04-03T13:47:38.808Z</time></trkpt><trkpt lat="45.31581491476284" lon="11.701136014864721"><ele>302.75</ele><time>2026-04-03T13:47:39.808Z</time></trkpt><trkpt lat="45.315967579235654" lon="11.70113946089809"><ele>304.0</ele><time>2026-04-03T13:47:40.808Z</time></trkpt><trkpt lat="45.31612036309213" lon="11.701142816759049"><ele>304.0</ele><time>2026-04-03T13:47:41.808Z</time></trkpt><trkpt lat="45.316283205361124" lon="11.701148716767245"><ele>304.0</ele><time>2026-04-03T13:47:42.808Z</time></trkpt><trkpt lat="45.31643344531629" lon="11.701154160178708"><ele>304.0</ele><time>2026-04-03T13:47:43.809Z</time></trkpt><trkpt lat="45.31657776902689" lon="11.70112907663392"><ele>309.3333333333333</ele><time>2026-04-03T13:47:44.809Z</time></trkpt><trkpt lat="45.316726449072775" lon="11.701106608118168"><ele>314.6666666666667</ele><time>2026-04-03T13:47:45.808Z</time></trkpt><trkpt lat="45.31688380179973" lon="11.701053759086276"><ele>320.0</ele><time>2026-04-03T13:47:46.808Z</time></trkpt><trkpt lat="45.317055129460904" lon="11.701033875281553"><ele>325.5</ele><time>2026-04-03T13:47:47.808Z</time></trkpt><trkpt lat="45.31720810507663" lon="11.700979204954201"><ele>331.0</ele><time>2026-04-03T13:47:48.808Z</time></trkpt><trkpt lat="45.31735584462531" lon="11.700942544064553"><ele>336.5</ele><time>2026-04-03T13:47:49.808Z</time></trkpt><trkpt lat="45.317486019739334" lon="11.700935537523273"><ele>342.0</ele><time>2026-04-03T13:47:50.808Z</time></trkpt><trkpt lat="45.317609800058534" lon="11.7008895720358"><ele>343.0</ele><time>2026-04-03T13:47:51.808Z</time></trkpt><trkpt lat="45.31772040080672" lon="11.700810492470618"><ele>344.0</ele><time>2026-04-03T13:47:52.808Z</time></trkpt><trkpt lat="45.31782088109535" lon="11.700723778113105"><ele>345.0</ele><time>2026-04-03T13:47:53.808Z</time></trkpt><trkpt lat="45.31791778500626" lon="11.700640121171503"><ele>346.0</ele><time>2026-04-03T13:47:54.808Z</time></trkpt><trkpt lat="45.31799164206805" lon="11.700558317073199"><ele>347.0</ele><time>2026-04-03T13:47:55.808Z</time></trkpt><trkpt lat="45.3180847971385" lon="11.700533618107357"><ele>348.1666666666667</ele><time>2026-04-03T13:47:56.808Z</time></trkpt><trkpt lat="45.31817050968102" lon="11.700582464028262"><ele>349.33333333333337</ele><time>2026-04-03T13:47:57.808Z</time></trkpt><trkpt lat="45.318244143132944" lon="11.70064838277656"><ele>350.5</ele><time>2026-04-03T13:47:58.808Z</time></trkpt><trkpt lat="45.318309322867684" lon="11.700728651260638"><ele>351.6666666666667</ele><time>2026-04-03T13:47:59.808Z</time></trkpt><trkpt lat="45.318370246958864" lon="11.700835262573829"><ele>352.8333333333333</ele><time>2026-04-03T13:48:00.808Z</time></trkpt><trkpt lat="45.318420524411785" lon="11.70093000583917"><ele>354.0</ele><time>2026-04-03T13:48:01.808Z</time></trkpt><trkpt lat="45.318464129380956" lon="11.701014646151057"><ele>354.6666666666667</ele><time>2026-04-03T13:48:02.808Z</time></trkpt><trkpt lat="45.31848978284316" lon="11.70111387800604"><ele>355.3333333333333</ele><time>2026-04-03T13:48:03.808Z</time></trkpt><trkpt lat="45.31850454878308" lon="11.701207867061536"><ele>356.0</ele><time>2026-04-03T13:48:04.808Z</time></trkpt><trkpt lat="45.31846920362821" lon="11.701337010117934"><ele>356.66666666666663</ele><time>2026-04-03T13:48:05.808Z</time></trkpt><trkpt lat="45.31844869564609" lon="11.701461362030631"><ele>357.3333333333333</ele><time>2026-04-03T13:48:06.808Z</time></trkpt><trkpt lat="45.31841070894915" lon="11.70157387765357"><ele>358.0</ele><time>2026-04-03T13:48:07.808Z</time></trkpt><trkpt lat="45.318389731871825" lon="11.701687066200263"><ele>358.0</ele><time>2026-04-03T13:48:08.808Z</time></trkpt><trkpt lat="45.318373369772196" lon="11.70177808653975"><ele>358.0</ele><time>2026-04-03T13:48:09.808Z</time></trkpt><trkpt lat="45.3183509415161" lon="11.701889450589919"><ele>358.0</ele><time>2026-04-03T13:48:10.808Z</time></trkpt><trkpt lat="45.318354915869584" lon="11.702009518751234"><ele>358.0</ele><time>2026-04-03T13:48:11.808Z</time></trkpt><trkpt lat="45.31837944825813" lon="11.70209556379168"><ele>358.0</ele><time>2026-04-03T13:48:12.808Z</time></trkpt><trkpt lat="45.318466864716356" lon="11.702222777090952"><ele>358.0</ele><time>2026-04-03T13:48:14.808Z</time></trkpt><trkpt lat="45.31853876305637" lon="11.702283716973326"><ele>358.59999999999997</ele><time>2026-04-03T13:48:15.808Z</time></trkpt><trkpt lat="45.31861073263682" lon="11.702311004491248"><ele>359.2</ele><time>2026-04-03T13:48:16.808Z</time></trkpt><trkpt lat="45.31868596104053" lon="11.702265893712106"><ele>359.8</ele><time>2026-04-03T13:48:17.808Z</time></trkpt><trkpt lat="45.318791785957956" lon="11.702168796285171"><ele>360.4</ele><time>2026-04-03T13:48:19.808Z</time></trkpt><trkpt lat="45.318836270849715" lon="11.702054573999565"><ele>361.0</ele><time>2026-04-03T13:48:20.808Z</time></trkpt><trkpt lat="45.31888721290269" lon="11.70193641845171"><ele>357.4</ele><time>2026-04-03T13:48:21.808Z</time></trkpt><trkpt lat="45.318951418021506" lon="11.701830544718142"><ele>353.8</ele><time>2026-04-03T13:48:22.808Z</time></trkpt><trkpt lat="45.31902984660011" lon="11.701718591611286"><ele>350.2</ele><time>2026-04-03T13:48:23.808Z</time></trkpt><trkpt lat="45.31911811201259" lon="11.701613377705387"><ele>346.59999999999997</ele><time>2026-04-03T13:48:24.808Z</time></trkpt><trkpt lat="45.31918519897459" lon="11.701481865508363"><ele>343.0</ele><time>2026-04-03T13:48:25.808Z</time></trkpt><trkpt lat="45.31926045262261" lon="11.70136497123077"><ele>343.0</ele><time>2026-04-03T13:48:26.808Z</time></trkpt><trkpt lat="45.31933479178876" lon="11.701258257834882"><ele>343.0</ele><time>2026-04-03T13:48:27.808Z</time></trkpt><trkpt lat="45.31940959509674" lon="11.701221580909635"><ele>343.0</ele><time>2026-04-03T13:48:29.808Z</time></trkpt><trkpt lat="45.31947032508077" lon="11.701320650298973"><ele>343.0</ele><time>2026-04-03T13:48:31.808Z</time></trkpt><trkpt lat="45.31939960935061" lon="11.7013788844491"><ele>343.0</ele><time>2026-04-03T13:48:32.808Z</time></trkpt><trkpt lat="45.31932694115783" lon="11.701553299728802"><ele>343.0</ele><time>2026-04-03T13:48:34.808Z</time></trkpt><trkpt lat="45.31930744328714" lon="11.701734563879533"><ele>343.0</ele><time>2026-04-03T13:48:35.808Z</time></trkpt><trkpt lat="45.319259239152075" lon="11.701886362302753"><ele>343.0</ele><time>2026-04-03T13:48:36.808Z</time></trkpt><trkpt lat="45.31923259370621" lon="11.702056346072897"><ele>343.0</ele><time>2026-04-03T13:48:37.808Z</time></trkpt><trkpt lat="45.31920735248187" lon="11.702234889510711"><ele>339.75</ele><time>2026-04-03T13:48:38.808Z</time></trkpt><trkpt lat="45.31914213372777" lon="11.702403262082258"><ele>336.5</ele><time>2026-04-03T13:48:39.808Z</time></trkpt><trkpt lat="45.31907184611131" lon="11.702556606668445"><ele>333.25</ele><time>2026-04-03T13:48:40.808Z</time></trkpt><trkpt lat="45.31901638348633" lon="11.702711899942729"><ele>330.0</ele><time>2026-04-03T13:48:41.808Z</time></trkpt><trkpt lat="45.31896986935479" lon="11.702859631534775"><ele>333.4</ele><time>2026-04-03T13:48:42.808Z</time></trkpt><trkpt lat="45.31893796336922" lon="11.703025443464682"><ele>336.8</ele><time>2026-04-03T13:48:43.808Z</time></trkpt><trkpt lat="45.31887586964297" lon="11.703172215926003"><ele>340.20000000000005</ele><time>2026-04-03T13:48:44.808Z</time></trkpt><trkpt lat="45.318837627959766" lon="11.703252080812186"><ele>343.6</ele><time>2026-04-03T13:48:45.808Z</time></trkpt><trkpt lat="45.31880061307838" lon="11.703339810456258"><ele>347.0</ele><time>2026-04-03T13:48:46.808Z</time></trkpt><trkpt lat="45.3187858427176" lon="11.703439463852167"><ele>347.0</ele><time>2026-04-03T13:48:48.808Z</time></trkpt><trkpt lat="45.31885290549106" lon="11.70349052922511"><ele>347.0</ele><time>2026-04-03T13:48:51.808Z</time></trkpt><trkpt lat="45.318962794334944" lon="11.703394863662119"><ele>347.0</ele><time>2026-04-03T13:48:52.808Z</time></trkpt><trkpt lat="45.31904686785139" lon="11.703246807724087"><ele>347.0</ele><time>2026-04-03T13:48:53.808Z</time></trkpt><trkpt lat="45.31912102166396" lon="11.703082071959475"><ele>343.6</ele><time>2026-04-03T13:48:54.808Z</time></trkpt><trkpt lat="45.319188541997406" lon="11.702932111130371"><ele>340.20000000000005</ele><time>2026-04-03T13:48:55.808Z</time></trkpt><trkpt lat="45.319245171983205" lon="11.70280767074039"><ele>336.8</ele><time>2026-04-03T13:48:56.808Z</time></trkpt><trkpt lat="45.31929533341604" lon="11.702724546164"><ele>333.4</ele><time>2026-04-03T13:48:57.808Z</time></trkpt><trkpt lat="45.31938401461973" lon="11.702623606497005"><ele>330.0</ele><time>2026-04-03T13:48:59.808Z</time></trkpt><trkpt lat="45.31946595691308" lon="11.7025694573198"><ele>330.0</ele><time>2026-04-03T13:49:01.808Z</time></trkpt><trkpt lat="45.31953363757851" lon="11.70266912317861"><ele>330.0</ele><time>2026-04-03T13:49:02.808Z</time></trkpt><trkpt lat="45.3194461610795" lon="11.702796098718009"><ele>330.0</ele><time>2026-04-03T13:49:03.808Z</time></trkpt><trkpt lat="45.31939979444064" lon="11.702920278162287"><ele>330.0</ele><time>2026-04-03T13:49:04.808Z</time></trkpt><trkpt lat="45.31935504632614" lon="11.703062171621665"><ele>330.0</ele><time>2026-04-03T13:49:05.808Z</time></trkpt><trkpt lat="45.31930759857752" lon="11.703230567867072"><ele>325.0</ele><time>2026-04-03T13:49:06.808Z</time></trkpt><trkpt lat="45.31925713062669" lon="11.703418545441929"><ele>320.0</ele><time>2026-04-03T13:49:07.808Z</time></trkpt><trkpt lat="45.319187937427735" lon="11.703602124966034"><ele>315.0</ele><time>2026-04-03T13:49:08.808Z</time></trkpt><trkpt lat="45.31911859174407" lon="11.703784523260143"><ele>310.0</ele><time>2026-04-03T13:49:09.808Z</time></trkpt><trkpt lat="45.31903715768013" lon="11.70394453937848"><ele>305.0</ele><time>2026-04-03T13:49:10.808Z</time></trkpt><trkpt lat="45.31896913986163" lon="11.704105841855649"><ele>300.0</ele><time>2026-04-03T13:49:11.808Z</time></trkpt><trkpt lat="45.31893552539168" lon="11.704272905669805"><ele>295.0</ele><time>2026-04-03T13:49:12.808Z</time></trkpt><trkpt lat="45.318925323786644" lon="11.704460285448285"><ele>290.0</ele><time>2026-04-03T13:49:13.808Z</time></trkpt><trkpt lat="45.318941549289654" lon="11.704621522874028"><ele>289.0</ele><time>2026-04-03T13:49:14.807Z</time></trkpt><trkpt lat="45.31898309043571" lon="11.704789163516596"><ele>288.0</ele><time>2026-04-03T13:49:15.807Z</time></trkpt><trkpt lat="45.31902571109884" lon="11.704944238645876"><ele>287.0</ele><time>2026-04-03T13:49:16.807Z</time></trkpt><trkpt lat="45.31905968435449" lon="11.705099016419906"><ele>286.0</ele><time>2026-04-03T13:49:17.807Z</time></trkpt><trkpt lat="45.31905435064915" lon="11.705243172508384"><ele>284.25</ele><time>2026-04-03T13:49:18.807Z</time></trkpt><trkpt lat="45.31902526911815" lon="11.70536723323654"><ele>282.5</ele><time>2026-04-03T13:49:19.807Z</time></trkpt><trkpt lat="45.31897602844556" lon="11.705469704459842"><ele>280.75</ele><time>2026-04-03T13:49:20.807Z</time></trkpt><trkpt lat="45.31891233489853" lon="11.705654582517786"><ele>279.0</ele><time>2026-04-03T13:49:21.807Z</time></trkpt><trkpt lat="45.31890834869894" lon="11.705842817969968"><ele>279.0</ele><time>2026-04-03T13:49:22.809Z</time></trkpt><trkpt lat="45.31893586448956" lon="11.70600559271612"><ele>279.0</ele><time>2026-04-03T13:49:23.811Z</time></trkpt><trkpt lat="45.31899481438856" lon="11.706162381819286"><ele>279.0</ele><time>2026-04-03T13:49:24.813Z</time></trkpt><trkpt lat="45.31908744284068" lon="11.70627785137561"><ele>279.0</ele><time>2026-04-03T13:49:25.815Z</time></trkpt><trkpt lat="45.31917239410769" lon="11.706319945920892"><ele>279.0</ele><time>2026-04-03T13:49:26.817Z</time></trkpt><trkpt lat="45.3192852205076" lon="11.70631621296403"><ele>279.0</ele><time>2026-04-03T13:49:27.818Z</time></trkpt><trkpt lat="45.3193761538479" lon="11.706270452754"><ele>279.0</ele><time>2026-04-03T13:49:28.82Z</time></trkpt><trkpt lat="45.31942549184273" lon="11.70617324216154"><ele>279.0</ele><time>2026-04-03T13:49:29.821Z</time></trkpt><trkpt lat="45.319491035979055" lon="11.706074822469095"><ele>279.0</ele><time>2026-04-03T13:49:30.823Z</time></trkpt><trkpt lat="45.31956173149346" lon="11.705970193526614"><ele>279.0</ele><time>2026-04-03T13:49:31.824Z</time></trkpt><trkpt lat="45.319625210933765" lon="11.705892597783006"><ele>279.0</ele><time>2026-04-03T13:49:32.825Z</time></trkpt><trkpt lat="45.319694205783485" lon="11.705826770768962"><ele>279.0</ele><time>2026-04-03T13:49:33.826Z</time></trkpt><trkpt lat="45.319790232911075" lon="11.705796602513399"><ele>279.0</ele><time>2026-04-03T13:49:34.827Z</time></trkpt><trkpt lat="45.319865228245035" lon="11.70582876180414"><ele>279.0</ele><time>2026-04-03T13:49:35.828Z</time></trkpt><trkpt lat="45.31993670979202" lon="11.70589356222925"><ele>279.0</ele><time>2026-04-03T13:49:36.829Z</time></trkpt><trkpt lat="45.31991402693175" lon="11.706088083361918"><ele>272.5</ele><time>2026-04-03T13:49:38.831Z</time></trkpt><trkpt lat="45.3198935839795" lon="11.706220090595624"><ele>266.0</ele><time>2026-04-03T13:49:39.832Z</time></trkpt><trkpt lat="45.31986695431995" lon="11.706390566905485"><ele>259.5</ele><time>2026-04-03T13:49:40.832Z</time></trkpt><trkpt lat="45.3198673188928" lon="11.706606389976494"><ele>253.0</ele><time>2026-04-03T13:49:41.833Z</time></trkpt><trkpt lat="45.3198909980384" lon="11.706796367402557"><ele>254.5</ele><time>2026-04-03T13:49:42.834Z</time></trkpt><trkpt lat="45.31991539218822" lon="11.706981643479029"><ele>256.0</ele><time>2026-04-03T13:49:43.834Z</time></trkpt><trkpt lat="45.31993934807318" lon="11.70715089686042"><ele>257.5</ele><time>2026-04-03T13:49:44.834Z</time></trkpt><trkpt lat="45.31997307883044" lon="11.707320740490719"><ele>259.0</ele><time>2026-04-03T13:49:45.835Z</time></trkpt><trkpt lat="45.320041314203756" lon="11.70747063340452"><ele>259.0</ele><time>2026-04-03T13:49:46.836Z</time></trkpt><trkpt lat="45.32014024838715" lon="11.70759550882492"><ele>259.0</ele><time>2026-04-03T13:49:47.836Z</time></trkpt><trkpt lat="45.32024225697811" lon="11.707735327489742"><ele>259.0</ele><time>2026-04-03T13:49:48.837Z</time></trkpt><trkpt lat="45.32033452788281" lon="11.707857545954157"><ele>259.0</ele><time>2026-04-03T13:49:49.837Z</time></trkpt><trkpt lat="45.32042475413479" lon="11.70797405599345"><ele>256.8</ele><time>2026-04-03T13:49:50.837Z</time></trkpt><trkpt lat="45.32051359152733" lon="11.708080430019857"><ele>254.59999999999997</ele><time>2026-04-03T13:49:51.838Z</time></trkpt><trkpt lat="45.3206027884228" lon="11.708175075968903"><ele>252.4</ele><time>2026-04-03T13:49:52.838Z</time></trkpt><trkpt lat="45.3206966885802" lon="11.708245155653243"><ele>250.2</ele><time>2026-04-03T13:49:53.839Z</time></trkpt><trkpt lat="45.32076892416106" lon="11.708282956626391"><ele>248.0</ele><time>2026-04-03T13:49:54.839Z</time></trkpt><trkpt lat="45.32083334319007" lon="11.708278317750759"><ele>248.0</ele><time>2026-04-03T13:49:55.839Z</time></trkpt><trkpt lat="45.32088819474771" lon="11.708211722491528"><ele>248.0</ele><time>2026-04-03T13:49:56.839Z</time></trkpt><trkpt lat="45.32094377281151" lon="11.708093415410822"><ele>248.0</ele><time>2026-04-03T13:49:57.839Z</time></trkpt><trkpt lat="45.320986052862104" lon="11.707940938545116"><ele>248.0</ele><time>2026-04-03T13:49:58.839Z</time></trkpt><trkpt lat="45.32102606571665" lon="11.707781720451125"><ele>248.0</ele><time>2026-04-03T13:49:59.84Z</time></trkpt><trkpt lat="45.32106111548464" lon="11.707629299888191"><ele>246.0</ele><time>2026-04-03T13:50:00.84Z</time></trkpt><trkpt lat="45.321117110552045" lon="11.707485769019623"><ele>244.0</ele><time>2026-04-03T13:50:01.84Z</time></trkpt><trkpt lat="45.32119705559029" lon="11.707364466740337"><ele>242.0</ele><time>2026-04-03T13:50:02.84Z</time></trkpt><trkpt lat="45.321301642668054" lon="11.707262347874678"><ele>240.0</ele><time>2026-04-03T13:50:03.84Z</time></trkpt><trkpt lat="45.32143662035993" lon="11.707193281894957"><ele>236.66666666666669</ele><time>2026-04-03T13:50:04.84Z</time></trkpt><trkpt lat="45.321602924704386" lon="11.707138330164518"><ele>233.33333333333334</ele><time>2026-04-03T13:50:05.841Z</time></trkpt><trkpt lat="45.32179555714228" lon="11.707075769363126"><ele>230.0</ele><time>2026-04-03T13:50:06.841Z</time></trkpt><trkpt lat="45.32196717788159" lon="11.707013190083638"><ele>230.0</ele><time>2026-04-03T13:50:07.841Z</time></trkpt><trkpt lat="45.3221373655413" lon="11.70695170952465"><ele>230.0</ele><time>2026-04-03T13:50:08.841Z</time></trkpt><trkpt lat="45.322299050935214" lon="11.706889512613108"><ele>230.0</ele><time>2026-04-03T13:50:09.841Z</time></trkpt><trkpt lat="45.32243743237709" lon="11.706803298789657"><ele>225.66666666666669</ele><time>2026-04-03T13:50:10.841Z</time></trkpt><trkpt lat="45.32255955266987" lon="11.706671285457034"><ele>221.33333333333331</ele><time>2026-04-03T13:50:11.841Z</time></trkpt><trkpt lat="45.322656150702365" lon="11.706511362256563"><ele>217.0</ele><time>2026-04-03T13:50:12.841Z</time></trkpt><trkpt lat="45.32273659922038" lon="11.706325099419722"><ele>217.0</ele><time>2026-04-03T13:50:13.841Z</time></trkpt><trkpt lat="45.322823155315184" lon="11.706155044603973"><ele>217.0</ele><time>2026-04-03T13:50:14.841Z</time></trkpt><trkpt lat="45.32291238910075" lon="11.706020523486194"><ele>217.0</ele><time>2026-04-03T13:50:15.841Z</time></trkpt><trkpt lat="45.322998194465995" lon="11.705891607737229"><ele>217.0</ele><time>2026-04-03T13:50:16.842Z</time></trkpt><trkpt lat="45.323089738643894" lon="11.70580241622258"><ele>215.0</ele><time>2026-04-03T13:50:17.842Z</time></trkpt><trkpt lat="45.32318598737645" lon="11.705764277217707"><ele>213.0</ele><time>2026-04-03T13:50:18.842Z</time></trkpt><trkpt lat="45.32329057035532" lon="11.705758716867276"><ele>211.0</ele><time>2026-04-03T13:50:19.842Z</time></trkpt><trkpt lat="45.32340338734753" lon="11.705785464108818"><ele>209.0</ele><time>2026-04-03T13:50:20.842Z</time></trkpt><trkpt lat="45.323526534391775" lon="11.705829304654523"><ele>207.0</ele><time>2026-04-03T13:50:21.842Z</time></trkpt><trkpt lat="45.32365133121232" lon="11.705874993687427"><ele>207.0</ele><time>2026-04-03T13:50:22.842Z</time></trkpt><trkpt lat="45.323766372793926" lon="11.705902013290828"><ele>207.0</ele><time>2026-04-03T13:50:23.842Z</time></trkpt><trkpt lat="45.323878135495235" lon="11.705918151987799"><ele>207.0</ele><time>2026-04-03T13:50:24.842Z</time></trkpt><trkpt lat="45.32397828718077" lon="11.705917091592044"><ele>207.0</ele><time>2026-04-03T13:50:25.842Z</time></trkpt><trkpt lat="45.324065970258566" lon="11.7058981300467"><ele>207.0</ele><time>2026-04-03T13:50:26.842Z</time></trkpt><trkpt lat="45.32413843980993" lon="11.705855758273586"><ele>206.0</ele><time>2026-04-03T13:50:27.842Z</time></trkpt><trkpt lat="45.32419800321782" lon="11.705803371735476"><ele>205.0</ele><time>2026-04-03T13:50:28.842Z</time></trkpt><trkpt lat="45.32426970448859" lon="11.70571414540076"><ele>204.0</ele><time>2026-04-03T13:50:30.842Z</time></trkpt><trkpt lat="45.32431995111039" lon="11.705637549050943"><ele>203.0</ele><time>2026-04-03T13:50:36.842Z</time></trkpt><trkpt lat="45.32422548398312" lon="11.70551795491692"><ele>202.0</ele><time>2026-04-03T13:50:37.842Z</time></trkpt><trkpt lat="45.32417793083565" lon="11.705420577373463"><ele>201.0</ele><time>2026-04-03T13:50:38.842Z</time></trkpt><trkpt lat="45.32410734564675" lon="11.705334249994445"><ele>199.25</ele><time>2026-04-03T13:50:39.842Z</time></trkpt><trkpt lat="45.324058410854825" lon="11.705192979268176"><ele>197.5</ele><time>2026-04-03T13:50:40.842Z</time></trkpt><trkpt lat="45.32402450512981" lon="11.70503735278406"><ele>195.75</ele><time>2026-04-03T13:50:41.842Z</time></trkpt><trkpt lat="45.324002785308906" lon="11.704864511005797"><ele>194.0</ele><time>2026-04-03T13:50:42.842Z</time></trkpt><trkpt lat="45.324005498807814" lon="11.704696569117749"><ele>194.0</ele><time>2026-04-03T13:50:43.842Z</time></trkpt><trkpt lat="45.324021088287736" lon="11.704536836757379"><ele>194.0</ele><time>2026-04-03T13:50:44.842Z</time></trkpt><trkpt lat="45.32405626270567" lon="11.704389904424616"><ele>194.0</ele><time>2026-04-03T13:50:45.842Z</time></trkpt><trkpt lat="45.324127560949954" lon="11.704249240886105"><ele>194.0</ele><time>2026-04-03T13:50:46.842Z</time></trkpt><trkpt lat="45.32423319150971" lon="11.70411911380505"><ele>193.33333333333334</ele><time>2026-04-03T13:50:47.842Z</time></trkpt><trkpt lat="45.32436318624167" lon="11.703990257722687"><ele>192.66666666666669</ele><time>2026-04-03T13:50:48.842Z</time></trkpt><trkpt lat="45.32450783378185" lon="11.703864790463628"><ele>192.0</ele><time>2026-04-03T13:50:49.842Z</time></trkpt><trkpt lat="45.32465254332806" lon="11.703734995547752"><ele>190.33333333333334</ele><time>2026-04-03T13:50:50.842Z</time></trkpt><trkpt lat="45.324806614084" lon="11.70361249501471"><ele>188.66666666666669</ele><time>2026-04-03T13:50:51.842Z</time></trkpt><trkpt lat="45.324967513015494" lon="11.703492577016627"><ele>187.0</ele><time>2026-04-03T13:50:52.842Z</time></trkpt><trkpt lat="45.32514073719679" lon="11.703400622957405"><ele>187.0</ele><time>2026-04-03T13:50:53.842Z</time></trkpt><trkpt lat="45.32531415070406" lon="11.703313071976732"><ele>187.0</ele><time>2026-04-03T13:50:54.842Z</time></trkpt><trkpt lat="45.32548945015307" lon="11.703228450523326"><ele>187.0</ele><time>2026-04-03T13:50:55.842Z</time></trkpt><trkpt lat="45.32565315805201" lon="11.703158658737244"><ele>186.75</ele><time>2026-04-03T13:50:56.842Z</time></trkpt><trkpt lat="45.32579957043573" lon="11.70308444307784"><ele>186.5</ele><time>2026-04-03T13:50:57.842Z</time></trkpt><trkpt lat="45.325921913890774" lon="11.703016169259877"><ele>186.25</ele><time>2026-04-03T13:50:58.842Z</time></trkpt><trkpt lat="45.32603973415164" lon="11.702944591694635"><ele>186.0</ele><time>2026-04-03T13:50:59.842Z</time></trkpt><trkpt lat="45.32613364386102" lon="11.70282763580181"><ele>188.5</ele><time>2026-04-03T13:51:00.842Z</time></trkpt><trkpt lat="45.32620863584684" lon="11.702662274059916"><ele>191.0</ele><time>2026-04-03T13:51:01.842Z</time></trkpt><trkpt lat="45.326264533573806" lon="11.702506550080289"><ele>193.5</ele><time>2026-04-03T13:51:02.842Z</time></trkpt><trkpt lat="45.32632194077902" lon="11.702347294146474"><ele>196.0</ele><time>2026-04-03T13:51:03.842Z</time></trkpt><trkpt lat="45.32639127414605" lon="11.70220100244031"><ele>195.20000000000002</ele><time>2026-04-03T13:51:04.842Z</time></trkpt><trkpt lat="45.32648170500421" lon="11.702108080902372"><ele>194.4</ele><time>2026-04-03T13:51:05.842Z</time></trkpt><trkpt lat="45.32658209773388" lon="11.702053360370426"><ele>193.6</ele><time>2026-04-03T13:51:06.842Z</time></trkpt><trkpt lat="45.326685330235925" lon="11.701987150949138"><ele>192.8</ele><time>2026-04-03T13:51:07.842Z</time></trkpt><trkpt lat="45.32675477291906" lon="11.70185643241888"><ele>192.0</ele><time>2026-04-03T13:51:08.842Z</time></trkpt><trkpt lat="45.326795707499365" lon="11.701699867579709"><ele>195.75</ele><time>2026-04-03T13:51:09.842Z</time></trkpt><trkpt lat="45.32682304649743" lon="11.701542555315433"><ele>199.5</ele><time>2026-04-03T13:51:10.842Z</time></trkpt><trkpt lat="45.32685163407103" lon="11.701364143879518"><ele>203.25</ele><time>2026-04-03T13:51:11.842Z</time></trkpt><trkpt lat="45.32687750106724" lon="11.701194855764811"><ele>207.0</ele><time>2026-04-03T13:51:12.842Z</time></trkpt><trkpt lat="45.32690068799445" lon="11.7010402621745"><ele>208.0</ele><time>2026-04-03T13:51:13.842Z</time></trkpt><trkpt lat="45.32692803094984" lon="11.700897918684454"><ele>209.0</ele><time>2026-04-03T13:51:14.842Z</time></trkpt><trkpt lat="45.326975492235626" lon="11.70078626402895"><ele>210.0</ele><time>2026-04-03T13:51:15.842Z</time></trkpt><trkpt lat="45.32704951679236" lon="11.700729672009196"><ele>211.0</ele><time>2026-04-03T13:51:16.842Z</time></trkpt><trkpt lat="45.327140908379455" lon="11.700697970235801"><ele>212.0</ele><time>2026-04-03T13:51:17.842Z</time></trkpt><trkpt lat="45.32724494280992" lon="11.700748512823587"><ele>212.0</ele><time>2026-04-03T13:51:18.842Z</time></trkpt><trkpt lat="45.32735279879489" lon="11.700827397065677"><ele>212.0</ele><time>2026-04-03T13:51:19.842Z</time></trkpt><trkpt lat="45.32746980503318" lon="11.700914522482005"><ele>212.0</ele><time>2026-04-03T13:51:20.842Z</time></trkpt><trkpt lat="45.327569956115845" lon="11.701034463928426"><ele>212.0</ele><time>2026-04-03T13:51:21.842Z</time></trkpt><trkpt lat="45.32767408084545" lon="11.701112377601778"><ele>210.39999999999998</ele><time>2026-04-03T13:51:22.842Z</time></trkpt><trkpt lat="45.327769850122316" lon="11.70117839439771"><ele>208.79999999999998</ele><time>2026-04-03T13:51:23.842Z</time></trkpt><trkpt lat="45.32785314572486" lon="11.701248673266228"><ele>207.2</ele><time>2026-04-03T13:51:24.842Z</time></trkpt><trkpt lat="45.32795144741752" lon="11.701275597366937"><ele>205.6</ele><time>2026-04-03T13:51:25.842Z</time></trkpt><trkpt lat="45.3280474922607" lon="11.701235932353708"><ele>204.0</ele><time>2026-04-03T13:51:26.842Z</time></trkpt><trkpt lat="45.32812074230898" lon="11.701145671158702"><ele>206.39999999999998</ele><time>2026-04-03T13:51:27.842Z</time></trkpt><trkpt lat="45.32816443728456" lon="11.700988017593524"><ele>208.8</ele><time>2026-04-03T13:51:28.842Z</time></trkpt><trkpt lat="45.32819293275477" lon="11.700836630892574"><ele>211.20000000000002</ele><time>2026-04-03T13:51:29.842Z</time></trkpt><trkpt lat="45.32822055973478" lon="11.700680159597603"><ele>213.60000000000002</ele><time>2026-04-03T13:51:30.842Z</time></trkpt><trkpt lat="45.32824858547556" lon="11.70054097568859"><ele>216.0</ele><time>2026-04-03T13:51:31.842Z</time></trkpt><trkpt lat="45.328277522927664" lon="11.700416740016442"><ele>216.0</ele><time>2026-04-03T13:51:32.842Z</time></trkpt><trkpt lat="45.32833257776683" lon="11.70030493001016"><ele>216.00000000000003</ele><time>2026-04-03T13:51:33.842Z</time></trkpt><trkpt lat="45.32841022903501" lon="11.700212234148685"><ele>216.00000000000003</ele><time>2026-04-03T13:51:34.842Z</time></trkpt><trkpt lat="45.32852254060867" lon="11.70015526480509"><ele>216.0</ele><time>2026-04-03T13:51:35.842Z</time></trkpt><trkpt lat="45.328637257430515" lon="11.70010484740353"><ele>216.0</ele><time>2026-04-03T13:51:36.842Z</time></trkpt><trkpt lat="45.32874552127455" lon="11.700068146112137"><ele>217.75</ele><time>2026-04-03T13:51:37.842Z</time></trkpt><trkpt lat="45.328875092345235" lon="11.7000777636674"><ele>219.5</ele><time>2026-04-03T13:51:38.842Z</time></trkpt><trkpt lat="45.328996446721725" lon="11.700118355992743"><ele>221.25</ele><time>2026-04-03T13:51:39.842Z</time></trkpt><trkpt lat="45.329109774708385" lon="11.70012659208871"><ele>223.0</ele><time>2026-04-03T13:51:40.842Z</time></trkpt><trkpt lat="45.329242700384576" lon="11.700136133240411"><ele>224.25</ele><time>2026-04-03T13:51:41.842Z</time></trkpt><trkpt lat="45.32937374995069" lon="11.70011013588205"><ele>225.5</ele><time>2026-04-03T13:51:42.842Z</time></trkpt><trkpt lat="45.329493983201914" lon="11.700052110467844"><ele>226.75</ele><time>2026-04-03T13:51:43.842Z</time></trkpt><trkpt lat="45.329620178040436" lon="11.699996885566003"><ele>228.0</ele><time>2026-04-03T13:51:44.842Z</time></trkpt><trkpt lat="45.32974793475972" lon="11.699942896052448"><ele>228.0</ele><time>2026-04-03T13:51:45.842Z</time></trkpt><trkpt lat="45.32985571333608" lon="11.699901023854945"><ele>228.0</ele><time>2026-04-03T13:51:46.842Z</time></trkpt><trkpt lat="45.329940197504136" lon="11.699868201506497"><ele>228.0</ele><time>2026-04-03T13:51:47.842Z</time></trkpt><trkpt lat="45.330003282768224" lon="11.699838120592169"><ele>228.0</ele><time>2026-04-03T13:51:48.842Z</time></trkpt><trkpt lat="45.33009504179464" lon="11.699756644530645"><ele>228.0</ele><time>2026-04-03T13:51:50.842Z</time></trkpt><trkpt lat="45.330109870230594" lon="11.699577940085334"><ele>228.0</ele><time>2026-04-03T13:51:52.842Z</time></trkpt><trkpt lat="45.330017987373246" lon="11.699457628807666"><ele>228.0</ele><time>2026-04-03T13:51:53.842Z</time></trkpt><trkpt lat="45.329869153426856" lon="11.699492914274227"><ele>228.0</ele><time>2026-04-03T13:51:54.843Z</time></trkpt><trkpt lat="45.32977811661111" lon="11.699559286362131"><ele>228.0</ele><time>2026-04-03T13:51:55.843Z</time></trkpt><trkpt lat="45.32969687995319" lon="11.69961482481206"><ele>228.0</ele><time>2026-04-03T13:51:56.843Z</time></trkpt><trkpt lat="45.329629560236384" lon="11.699647301658167"><ele>228.0</ele><time>2026-04-03T13:51:57.842Z</time></trkpt><trkpt lat="45.32955866580836" lon="11.699645942064933"><ele>228.0</ele><time>2026-04-03T13:52:00.842Z</time></trkpt><trkpt lat="45.329580470462396" lon="11.699531776502274"><ele>228.0</ele><time>2026-04-03T13:52:01.842Z</time></trkpt><trkpt lat="45.329659636083456" lon="11.69946391892792"><ele>228.0</ele><time>2026-04-03T13:52:02.842Z</time></trkpt><trkpt lat="45.32974991481517" lon="11.699408761092426"><ele>228.0</ele><time>2026-04-03T13:52:03.842Z</time></trkpt><trkpt lat="45.32985228640518" lon="11.699347706000388"><ele>234.0</ele><time>2026-04-03T13:52:04.842Z</time></trkpt><trkpt lat="45.32996501463722" lon="11.699291702617735"><ele>240.0</ele><time>2026-04-03T13:52:05.842Z</time></trkpt><trkpt lat="45.330086698058814" lon="11.699261075718713"><ele>246.0</ele><time>2026-04-03T13:52:06.842Z</time></trkpt><trkpt lat="45.330222812061464" lon="11.69925773920928"><ele>252.0</ele><time>2026-04-03T13:52:07.842Z</time></trkpt><trkpt lat="45.33032766273243" lon="11.699283516994388"><ele>247.25</ele><time>2026-04-03T13:52:08.842Z</time></trkpt><trkpt lat="45.330441967405584" lon="11.699431908920518"><ele>242.5</ele><time>2026-04-03T13:52:09.842Z</time></trkpt><trkpt lat="45.330567306508215" lon="11.699541678586257"><ele>237.75</ele><time>2026-04-03T13:52:10.842Z</time></trkpt><trkpt lat="45.33067255168486" lon="11.69967448939852"><ele>233.0</ele><time>2026-04-03T13:52:11.842Z</time></trkpt><trkpt lat="45.330742786354236" lon="11.699787898297311"><ele>233.0</ele><time>2026-04-03T13:52:12.842Z</time></trkpt><trkpt lat="45.33068553216536" lon="11.700015739950858"><ele>233.0</ele><time>2026-04-03T13:52:13.842Z</time></trkpt><trkpt lat="45.33077400412426" lon="11.699763675852871"><ele>233.0</ele><time>2026-04-03T13:52:14.842Z</time></trkpt><trkpt lat="45.33089947871509" lon="11.699175137699523"><ele>237.75</ele><time>2026-04-03T13:52:18.842Z</time></trkpt><trkpt lat="45.33081528759942" lon="11.699099450719425"><ele>242.5</ele><time>2026-04-03T13:52:19.842Z</time></trkpt><trkpt lat="45.330702876741896" lon="11.699068414839429"><ele>247.25</ele><time>2026-04-03T13:52:20.842Z</time></trkpt><trkpt lat="45.33058271580813" lon="11.699025037295376"><ele>252.0</ele><time>2026-04-03T13:52:21.842Z</time></trkpt><trkpt lat="45.33044076214179" lon="11.69896923638634"><ele>252.0</ele><time>2026-04-03T13:52:22.842Z</time></trkpt><trkpt lat="45.33030168724415" lon="11.698897951926053"><ele>252.0</ele><time>2026-04-03T13:52:23.842Z</time></trkpt><trkpt lat="45.33016114800439" lon="11.698846345207961"><ele>252.0</ele><time>2026-04-03T13:52:24.842Z</time></trkpt><trkpt lat="45.33000208226845" lon="11.698819602387054"><ele>252.0</ele><time>2026-04-03T13:52:25.842Z</time></trkpt><trkpt lat="45.32983296271306" lon="11.698830580519504"><ele>252.0</ele><time>2026-04-03T13:52:26.842Z</time></trkpt><trkpt lat="45.32969330107922" lon="11.698867705297593"><ele>252.0</ele><time>2026-04-03T13:52:27.842Z</time></trkpt><trkpt lat="45.32958212082189" lon="11.698918789854003"><ele>252.0</ele><time>2026-04-03T13:52:28.842Z</time></trkpt><trkpt lat="45.32949023555057" lon="11.698970593128424"><ele>251.6</ele><time>2026-04-03T13:52:29.842Z</time></trkpt><trkpt lat="45.329425376390546" lon="11.698997787120202"><ele>251.2</ele><time>2026-04-03T13:52:30.842Z</time></trkpt><trkpt lat="45.329327283080744" lon="11.698913052316424"><ele>250.8</ele><time>2026-04-03T13:52:32.842Z</time></trkpt><trkpt lat="45.3293357406579" lon="11.698777410732015"><ele>250.4</ele><time>2026-04-03T13:52:33.842Z</time></trkpt><trkpt lat="45.32939224089227" lon="11.698654390404764"><ele>250.0</ele><time>2026-04-03T13:52:34.842Z</time></trkpt><trkpt lat="45.329466974389646" lon="11.698532704810427"><ele>250.0</ele><time>2026-04-03T13:52:35.842Z</time></trkpt><trkpt lat="45.329542646729045" lon="11.698387312034114"><ele>250.0</ele><time>2026-04-03T13:52:36.842Z</time></trkpt><trkpt lat="45.329615084771184" lon="11.698248650358012"><ele>250.0</ele><time>2026-04-03T13:52:37.842Z</time></trkpt><trkpt lat="45.32974028073204" lon="11.698104368567366"><ele>250.0</ele><time>2026-04-03T13:52:38.842Z</time></trkpt><trkpt lat="45.32981374713506" lon="11.697971461961696"><ele>254.0</ele><time>2026-04-03T13:52:39.842Z</time></trkpt><trkpt lat="45.32988309403072" lon="11.697829820235654"><ele>258.0</ele><time>2026-04-03T13:52:40.842Z</time></trkpt><trkpt lat="45.32992378703189" lon="11.69764832262193"><ele>262.0</ele><time>2026-04-03T13:52:41.842Z</time></trkpt><trkpt lat="45.32993641978398" lon="11.69744573004068"><ele>266.0</ele><time>2026-04-03T13:52:42.842Z</time></trkpt><trkpt lat="45.32994237802587" lon="11.697249568527669"><ele>266.0</ele><time>2026-04-03T13:52:43.842Z</time></trkpt><trkpt lat="45.32994729864905" lon="11.697054931889127"><ele>266.0</ele><time>2026-04-03T13:52:44.842Z</time></trkpt><trkpt lat="45.329947420151065" lon="11.696858960019577"><ele>266.0</ele><time>2026-04-03T13:52:45.842Z</time></trkpt><trkpt lat="45.32995215940219" lon="11.696669165903314"><ele>266.0</ele><time>2026-04-03T13:52:46.842Z</time></trkpt><trkpt lat="45.329950116981635" lon="11.6964907433764"><ele>266.0</ele><time>2026-04-03T13:52:47.842Z</time></trkpt><trkpt lat="45.32995117068878" lon="11.696340426880777"><ele>266.0</ele><time>2026-04-03T13:52:48.842Z</time></trkpt><trkpt lat="45.329945212507745" lon="11.69621050022829"><ele>266.0</ele><time>2026-04-03T13:52:49.842Z</time></trkpt><trkpt lat="45.32991599380338" lon="11.696103123667505"><ele>266.0</ele><time>2026-04-03T13:52:50.842Z</time></trkpt><trkpt lat="45.32985529821147" lon="11.696006689545674"><ele>266.0</ele><time>2026-04-03T13:52:51.842Z</time></trkpt><trkpt lat="45.32977482116905" lon="11.69594730905141"><ele>268.6</ele><time>2026-04-03T13:52:52.842Z</time></trkpt><trkpt lat="45.329674301404985" lon="11.695922951552784"><ele>271.20000000000005</ele><time>2026-04-03T13:52:53.842Z</time></trkpt><trkpt lat="45.329551595515326" lon="11.695972568987331"><ele>273.79999999999995</ele><time>2026-04-03T13:52:54.842Z</time></trkpt><trkpt lat="45.329444511967075" lon="11.695988355374075"><ele>276.4</ele><time>2026-04-03T13:52:55.842Z</time></trkpt><trkpt lat="45.32935257621315" lon="11.695997628196665"><ele>279.0</ele><time>2026-04-03T13:52:56.842Z</time></trkpt><trkpt lat="45.32928218128889" lon="11.696008827906525"><ele>279.0</ele><time>2026-04-03T13:52:57.842Z</time></trkpt><trkpt lat="45.329194499967976" lon="11.695944126965824"><ele>279.0</ele><time>2026-04-03T13:52:59.842Z</time></trkpt><trkpt lat="45.32920120794662" lon="11.695805683411981"><ele>279.0</ele><time>2026-04-03T13:53:00.842Z</time></trkpt><trkpt lat="45.32923289072568" lon="11.695669045517212"><ele>279.0</ele><time>2026-04-03T13:53:01.842Z</time></trkpt><trkpt lat="45.3292751085912" lon="11.69551385918536"><ele>279.0</ele><time>2026-04-03T13:53:02.842Z</time></trkpt><trkpt lat="45.32931343708349" lon="11.695339195920193"><ele>282.75</ele><time>2026-04-03T13:53:03.842Z</time></trkpt><trkpt lat="45.32937058561648" lon="11.695174877095035"><ele>286.5</ele><time>2026-04-03T13:53:04.842Z</time></trkpt><trkpt lat="45.329411723819966" lon="11.69500074223078"><ele>290.25</ele><time>2026-04-03T13:53:05.842Z</time></trkpt><trkpt lat="45.32943531733681" lon="11.694827237248326"><ele>294.0</ele><time>2026-04-03T13:53:06.842Z</time></trkpt><trkpt lat="45.32946709829773" lon="11.694676843909791"><ele>294.0</ele><time>2026-04-03T13:53:07.842Z</time></trkpt><trkpt lat="45.3294957445597" lon="11.694535705558883"><ele>294.0</ele><time>2026-04-03T13:53:08.842Z</time></trkpt><trkpt lat="45.3294955451352" lon="11.694400220018181"><ele>294.0</ele><time>2026-04-03T13:53:09.842Z</time></trkpt><trkpt lat="45.32949393914158" lon="11.6942780727333"><ele>294.0</ele><time>2026-04-03T13:53:10.842Z</time></trkpt><trkpt lat="45.32947204032036" lon="11.694146386588779"><ele>294.0</ele><time>2026-04-03T13:53:11.842Z</time></trkpt><trkpt lat="45.32940384234954" lon="11.694000116497566"><ele>294.5</ele><time>2026-04-03T13:53:12.842Z</time></trkpt><trkpt lat="45.329320392350276" lon="11.693853496416327"><ele>295.0</ele><time>2026-04-03T13:53:13.842Z</time></trkpt><trkpt lat="45.32922656467262" lon="11.693700907236181"><ele>295.5</ele><time>2026-04-03T13:53:14.842Z</time></trkpt><trkpt lat="45.32913275230106" lon="11.693528000991934"><ele>296.0</ele><time>2026-04-03T13:53:15.842Z</time></trkpt><trkpt lat="45.32903473522356" lon="11.693344519109527"><ele>294.33333333333337</ele><time>2026-04-03T13:53:16.842Z</time></trkpt><trkpt lat="45.32894156766051" lon="11.693153717492182"><ele>292.6666666666667</ele><time>2026-04-03T13:53:17.842Z</time></trkpt><trkpt lat="45.32885530711395" lon="11.692923774126694"><ele>291.0</ele><time>2026-04-03T13:53:18.842Z</time></trkpt><trkpt lat="45.328765271898476" lon="11.692722178575405"><ele>291.0</ele><time>2026-04-03T13:53:19.842Z</time></trkpt><trkpt lat="45.328687696448995" lon="11.692550655374028"><ele>291.0</ele><time>2026-04-03T13:53:20.842Z</time></trkpt><trkpt lat="45.32862419603215" lon="11.69239685350644"><ele>291.0</ele><time>2026-04-03T13:53:21.842Z</time></trkpt><trkpt lat="45.3285836323518" lon="11.692243052360695"><ele>291.0</ele><time>2026-04-03T13:53:22.842Z</time></trkpt><trkpt lat="45.3285804288743" lon="11.692082995471733"><ele>291.0</ele><time>2026-04-03T13:53:23.842Z</time></trkpt><trkpt lat="45.32861243880104" lon="11.691930530550193"><ele>291.0</ele><time>2026-04-03T13:53:24.842Z</time></trkpt><trkpt lat="45.32866073012118" lon="11.691783219206256"><ele>291.0</ele><time>2026-04-03T13:53:25.842Z</time></trkpt><trkpt lat="45.32874492749106" lon="11.69163487827943"><ele>291.0</ele><time>2026-04-03T13:53:26.842Z</time></trkpt><trkpt lat="45.328837444503954" lon="11.691478686773292"><ele>291.3333333333333</ele><time>2026-04-03T13:53:27.842Z</time></trkpt><trkpt lat="45.328936224643556" lon="11.691315135593637"><ele>291.66666666666663</ele><time>2026-04-03T13:53:28.842Z</time></trkpt><trkpt lat="45.32904137835707" lon="11.691131532191156"><ele>292.0</ele><time>2026-04-03T13:53:29.842Z</time></trkpt><trkpt lat="45.32913886289758" lon="11.69094563493237"><ele>292.0</ele><time>2026-04-03T13:53:30.842Z</time></trkpt><trkpt lat="45.32925579348626" lon="11.690756593980721"><ele>292.0</ele><time>2026-04-03T13:53:31.842Z</time></trkpt><trkpt lat="45.32935351040465" lon="11.690573253917746"><ele>292.0</ele><time>2026-04-03T13:53:32.842Z</time></trkpt><trkpt lat="45.3294481029047" lon="11.690395593520993"><ele>293.0</ele><time>2026-04-03T13:53:33.842Z</time></trkpt><trkpt lat="45.32953335637263" lon="11.690216631226091"><ele>294.0</ele><time>2026-04-03T13:53:34.842Z</time></trkpt><trkpt lat="45.32959727134516" lon="11.690009138930359"><ele>295.0</ele><time>2026-04-03T13:53:35.842Z</time></trkpt><trkpt lat="45.32965213621853" lon="11.689776748805809"><ele>295.0</ele><time>2026-04-03T13:53:36.842Z</time></trkpt><trkpt lat="45.329706050121125" lon="11.689531043144134"><ele>295.0</ele><time>2026-04-03T13:53:37.842Z</time></trkpt><trkpt lat="45.329766348887354" lon="11.6892957695044"><ele>295.0</ele><time>2026-04-03T13:53:38.842Z</time></trkpt><trkpt lat="45.32982091628738" lon="11.689056732424714"><ele>290.66666666666663</ele><time>2026-04-03T13:53:39.842Z</time></trkpt><trkpt lat="45.32987692765151" lon="11.688822344094598"><ele>286.3333333333333</ele><time>2026-04-03T13:53:40.842Z</time></trkpt><trkpt lat="45.32994887740358" lon="11.688614970835811"><ele>282.0</ele><time>2026-04-03T13:53:41.842Z</time></trkpt><trkpt lat="45.33002115071174" lon="11.6884211928606"><ele>282.0</ele><time>2026-04-03T13:53:42.842Z</time></trkpt><trkpt lat="45.330094129653745" lon="11.688257322295346"><ele>282.0</ele><time>2026-04-03T13:53:43.842Z</time></trkpt><trkpt lat="45.33017390590111" lon="11.688130163591955"><ele>282.0</ele><time>2026-04-03T13:53:44.842Z</time></trkpt><trkpt lat="45.33026435913948" lon="11.6880365954753"><ele>282.0</ele><time>2026-04-03T13:53:45.842Z</time></trkpt><trkpt lat="45.33036321820627" lon="11.687969810244583"><ele>282.0</ele><time>2026-04-03T13:53:46.842Z</time></trkpt><trkpt lat="45.330448026387316" lon="11.687873947314204"><ele>282.0</ele><time>2026-04-03T13:53:47.842Z</time></trkpt><trkpt lat="45.330565728422705" lon="11.687798417293171"><ele>282.0</ele><time>2026-04-03T13:53:48.842Z</time></trkpt><trkpt lat="45.330718807260354" lon="11.687894815333069"><ele>282.0</ele><time>2026-04-03T13:53:49.842Z</time></trkpt><trkpt lat="45.33083829800493" lon="11.687881588395378"><ele>282.25</ele><time>2026-04-03T13:53:50.842Z</time></trkpt><trkpt lat="45.33097030279356" lon="11.687854192676161"><ele>282.5</ele><time>2026-04-03T13:53:51.842Z</time></trkpt><trkpt lat="45.33108870019914" lon="11.687822665201091"><ele>282.75</ele><time>2026-04-03T13:53:52.842Z</time></trkpt><trkpt lat="45.331202725753336" lon="11.687761783009726"><ele>283.0</ele><time>2026-04-03T13:53:53.842Z</time></trkpt><trkpt lat="45.33131360341654" lon="11.687691870762373"><ele>278.6</ele><time>2026-04-03T13:53:54.842Z</time></trkpt><trkpt lat="45.33140029814315" lon="11.687632204115275"><ele>274.20000000000005</ele><time>2026-04-03T13:53:55.842Z</time></trkpt><trkpt lat="45.33146435404044" lon="11.687575246970136"><ele>269.8</ele><time>2026-04-03T13:53:56.842Z</time></trkpt><trkpt lat="45.33152553837657" lon="11.687495274384215"><ele>265.40000000000003</ele><time>2026-04-03T13:53:57.842Z</time></trkpt><trkpt lat="45.33156800094925" lon="11.68737898466111"><ele>261.0</ele><time>2026-04-03T13:53:58.842Z</time></trkpt><trkpt lat="45.33157831237631" lon="11.687228059136281"><ele>261.0</ele><time>2026-04-03T13:53:59.842Z</time></trkpt><trkpt lat="45.331571872473845" lon="11.68706658776538"><ele>261.0</ele><time>2026-04-03T13:54:00.842Z</time></trkpt><trkpt lat="45.33154836595288" lon="11.686904659141451"><ele>261.0</ele><time>2026-04-03T13:54:01.842Z</time></trkpt><trkpt lat="45.33152187078399" lon="11.686760511686956"><ele>261.0</ele><time>2026-04-03T13:54:02.842Z</time></trkpt><trkpt lat="45.331479591018194" lon="11.68663037714644"><ele>261.0</ele><time>2026-04-03T13:54:03.842Z</time></trkpt><trkpt lat="45.33142845548839" lon="11.686506067292093"><ele>262.2</ele><time>2026-04-03T13:54:04.842Z</time></trkpt><trkpt lat="45.33136218951094" lon="11.686394490327089"><ele>263.40000000000003</ele><time>2026-04-03T13:54:05.842Z</time></trkpt><trkpt lat="45.33128887703124" lon="11.686302327346553"><ele>264.6</ele><time>2026-04-03T13:54:06.842Z</time></trkpt><trkpt lat="45.33120247116052" lon="11.686197353360678"><ele>265.8</ele><time>2026-04-03T13:54:07.842Z</time></trkpt><trkpt lat="45.33110796121886" lon="11.68609293642319"><ele>267.0</ele><time>2026-04-03T13:54:08.842Z</time></trkpt><trkpt lat="45.331009735153806" lon="11.68600930304252"><ele>267.0</ele><time>2026-04-03T13:54:09.842Z</time></trkpt><trkpt lat="45.33091806193503" lon="11.685912854010384"><ele>267.0</ele><time>2026-04-03T13:54:10.842Z</time></trkpt><trkpt lat="45.33082404851024" lon="11.685828158770006"><ele>267.0</ele><time>2026-04-03T13:54:11.842Z</time></trkpt><trkpt lat="45.33075313836066" lon="11.68571714737882"><ele>267.0</ele><time>2026-04-03T13:54:12.842Z</time></trkpt><trkpt lat="45.33070932282541" lon="11.685616483770783"><ele>267.0</ele><time>2026-04-03T13:54:13.842Z</time></trkpt><trkpt lat="45.33067841753752" lon="11.685482858408749"><ele>267.0</ele><time>2026-04-03T13:54:14.842Z</time></trkpt><trkpt lat="45.3306470415042" lon="11.68535503541588"><ele>267.0</ele><time>2026-04-03T13:54:15.842Z</time></trkpt><trkpt lat="45.33066602013122" lon="11.685256786405011"><ele>267.0</ele><time>2026-04-03T13:54:16.842Z</time></trkpt><trkpt lat="45.33080692923475" lon="11.685164277332882"><ele>267.0</ele><time>2026-04-03T13:54:18.842Z</time></trkpt><trkpt lat="45.33090720281473" lon="11.685163039775833"><ele>267.0</ele><time>2026-04-03T13:54:19.842Z</time></trkpt><trkpt lat="45.33100416739699" lon="11.685193118429961"><ele>264.25</ele><time>2026-04-03T13:54:20.842Z</time></trkpt><trkpt lat="45.33109954523543" lon="11.685205151255829"><ele>261.5</ele><time>2026-04-03T13:54:21.842Z</time></trkpt><trkpt lat="45.33121344675444" lon="11.68520715116228"><ele>258.75</ele><time>2026-04-03T13:54:22.842Z</time></trkpt><trkpt lat="45.33133568176018" lon="11.685176181158198"><ele>256.0</ele><time>2026-04-03T13:54:23.842Z</time></trkpt><trkpt lat="45.33146313289494" lon="11.685134408804894"><ele>256.0</ele><time>2026-04-03T13:54:24.842Z</time></trkpt><trkpt lat="45.331586371141725" lon="11.685068326164357"><ele>256.0</ele><time>2026-04-03T13:54:25.842Z</time></trkpt><trkpt lat="45.33171526004168" lon="11.684982326390703"><ele>256.0</ele><time>2026-04-03T13:54:26.842Z</time></trkpt><trkpt lat="45.33184718776692" lon="11.68487474418246"><ele>256.0</ele><time>2026-04-03T13:54:27.842Z</time></trkpt><trkpt lat="45.33197953046511" lon="11.684759427082323"><ele>256.0</ele><time>2026-04-03T13:54:28.842Z</time></trkpt><trkpt lat="45.33210553468824" lon="11.684654641656147"><ele>256.0</ele><time>2026-04-03T13:54:29.842Z</time></trkpt><trkpt lat="45.33222888994701" lon="11.684541915218922"><ele>256.0</ele><time>2026-04-03T13:54:30.842Z</time></trkpt><trkpt lat="45.33234966451904" lon="11.684426585875979"><ele>256.0</ele><time>2026-04-03T13:54:31.842Z</time></trkpt><trkpt lat="45.33246398560406" lon="11.684294555746735"><ele>252.0</ele><time>2026-04-03T13:54:32.842Z</time></trkpt><trkpt lat="45.332574262556996" lon="11.684148148767704"><ele>248.0</ele><time>2026-04-03T13:54:33.842Z</time></trkpt><trkpt lat="45.332687602850434" lon="11.68402031649695"><ele>244.0</ele><time>2026-04-03T13:54:34.842Z</time></trkpt><trkpt lat="45.33281709322187" lon="11.683933710775698"><ele>240.0</ele><time>2026-04-03T13:54:35.842Z</time></trkpt><trkpt lat="45.332945404814055" lon="11.683836072489681"><ele>242.0</ele><time>2026-04-03T13:54:36.842Z</time></trkpt><trkpt lat="45.33306886518219" lon="11.683718291459186"><ele>244.0</ele><time>2026-04-03T13:54:37.842Z</time></trkpt><trkpt lat="45.33319997412778" lon="11.683630126426767"><ele>246.0</ele><time>2026-04-03T13:54:38.842Z</time></trkpt><trkpt lat="45.33332708248407" lon="11.683533060389253"><ele>248.0</ele><time>2026-04-03T13:54:39.842Z</time></trkpt><trkpt lat="45.33346606893298" lon="11.683454850571932"><ele>241.0</ele><time>2026-04-03T13:54:40.842Z</time></trkpt><trkpt lat="45.333614382216574" lon="11.683409947115882"><ele>234.0</ele><time>2026-04-03T13:54:41.842Z</time></trkpt><trkpt lat="45.333766458469874" lon="11.683369640578135"><ele>227.0</ele><time>2026-04-03T13:54:42.842Z</time></trkpt><trkpt lat="45.33392379903977" lon="11.683329910069457"><ele>227.0</ele><time>2026-04-03T13:54:43.842Z</time></trkpt><trkpt lat="45.33407274039652" lon="11.683260879741018"><ele>227.0</ele><time>2026-04-03T13:54:44.842Z</time></trkpt><trkpt lat="45.33421788979223" lon="11.68319653157174"><ele>227.0</ele><time>2026-04-03T13:54:45.842Z</time></trkpt><trkpt lat="45.33435770965665" lon="11.683106837567033"><ele>227.0</ele><time>2026-04-03T13:54:46.842Z</time></trkpt><trkpt lat="45.33449622866194" lon="11.68299055460717"><ele>227.0</ele><time>2026-04-03T13:54:47.842Z</time></trkpt><trkpt lat="45.33463624574243" lon="11.68286069619974"><ele>227.0</ele><time>2026-04-03T13:54:48.842Z</time></trkpt><trkpt lat="45.33476544547602" lon="11.68271128285147"><ele>221.33333333333334</ele><time>2026-04-03T13:54:49.842Z</time></trkpt><trkpt lat="45.334895062855594" lon="11.682557113143055"><ele>215.66666666666669</ele><time>2026-04-03T13:54:50.842Z</time></trkpt><trkpt lat="45.335030272227854" lon="11.682397279379996"><ele>210.0</ele><time>2026-04-03T13:54:51.842Z</time></trkpt><trkpt lat="45.3351666510129" lon="11.682236646618756"><ele>210.0</ele><time>2026-04-03T13:54:52.842Z</time></trkpt><trkpt lat="45.33530633157465" lon="11.68207264410159"><ele>210.0</ele><time>2026-04-03T13:54:53.842Z</time></trkpt><trkpt lat="45.335445652245035" lon="11.681909064146655"><ele>210.0</ele><time>2026-04-03T13:54:54.842Z</time></trkpt><trkpt lat="45.3355853635205" lon="11.681745644578685"><ele>209.0</ele><time>2026-04-03T13:54:55.842Z</time></trkpt><trkpt lat="45.33572181956289" lon="11.681586293465356"><ele>208.0</ele><time>2026-04-03T13:54:56.842Z</time></trkpt><trkpt lat="45.33584947477778" lon="11.68143721979997"><ele>207.0</ele><time>2026-04-03T13:54:57.842Z</time></trkpt><trkpt lat="45.33595646932984" lon="11.68129040896416"><ele>207.0</ele><time>2026-04-03T13:54:58.842Z</time></trkpt><trkpt lat="45.336064359086116" lon="11.681170026384976"><ele>207.0</ele><time>2026-04-03T13:54:59.842Z</time></trkpt><trkpt lat="45.33616066975019" lon="11.68106757381123"><ele>207.0</ele><time>2026-04-03T13:55:00.842Z</time></trkpt><trkpt lat="45.336243764786936" lon="11.680975659363"><ele>207.0</ele><time>2026-04-03T13:55:01.842Z</time></trkpt><trkpt lat="45.33631708134311" lon="11.680881534733823"><ele>206.33333333333334</ele><time>2026-04-03T13:55:02.842Z</time></trkpt><trkpt lat="45.3363615131404" lon="11.680762250154809"><ele>205.66666666666669</ele><time>2026-04-03T13:55:03.842Z</time></trkpt><trkpt lat="45.33638004152749" lon="11.680623625422713"><ele>205.0</ele><time>2026-04-03T13:55:04.842Z</time></trkpt><trkpt lat="45.3363854931368" lon="11.68050223467165"><ele>204.33333333333334</ele><time>2026-04-03T13:55:05.842Z</time></trkpt><trkpt lat="45.33640760571651" lon="11.680409606945773"><ele>203.66666666666669</ele><time>2026-04-03T13:55:06.842Z</time></trkpt><trkpt lat="45.33645477899837" lon="11.680341017650647"><ele>203.0</ele><time>2026-04-03T13:55:07.842Z</time></trkpt><trkpt lat="45.336527083181764" lon="11.680311149041046"><ele>203.00000000000003</ele><time>2026-04-03T13:55:08.842Z</time></trkpt><trkpt lat="45.33660070465423" lon="11.680347479460682"><ele>203.0</ele><time>2026-04-03T13:55:09.842Z</time></trkpt><trkpt lat="45.33666946547131" lon="11.680410426359224"><ele>203.0</ele><time>2026-04-03T13:55:10.842Z</time></trkpt><trkpt lat="45.33673804254924" lon="11.680482340640786"><ele>203.0</ele><time>2026-04-03T13:55:11.842Z</time></trkpt><trkpt lat="45.336817309817285" lon="11.680518834346248"><ele>203.00000000000003</ele><time>2026-04-03T13:55:12.842Z</time></trkpt><trkpt lat="45.33690070528001" lon="11.680511145602813"><ele>203.0</ele><time>2026-04-03T13:55:13.842Z</time></trkpt><trkpt lat="45.33698001070571" lon="11.680450190165288"><ele>203.00000000000003</ele><time>2026-04-03T13:55:14.842Z</time></trkpt><trkpt lat="45.337051728015076" lon="11.680340978058059"><ele>203.0</ele><time>2026-04-03T13:55:15.842Z</time></trkpt><trkpt lat="45.337114817701504" lon="11.680226719177059"><ele>203.0</ele><time>2026-04-03T13:55:16.842Z</time></trkpt><trkpt lat="45.337171452313285" lon="11.680118380436998"><ele>203.0</ele><time>2026-04-03T13:55:17.842Z</time></trkpt><trkpt lat="45.33722291611515" lon="11.680030838916341"><ele>203.00000000000003</ele><time>2026-04-03T13:55:18.842Z</time></trkpt><trkpt lat="45.33724822475835" lon="11.679942542293505"><ele>203.0</ele><time>2026-04-03T13:55:19.842Z</time></trkpt><trkpt lat="45.337220667644296" lon="11.679780179976493"><ele>202.50000000000003</ele><time>2026-04-03T13:55:21.842Z</time></trkpt><trkpt lat="45.337145455046986" lon="11.679754956848171"><ele>202.0</ele><time>2026-04-03T13:55:22.842Z</time></trkpt><trkpt lat="45.33706888501896" lon="11.679812533742755"><ele>201.5</ele><time>2026-04-03T13:55:23.842Z</time></trkpt><trkpt lat="45.3369815977129" lon="11.679899258459331"><ele>201.0</ele><time>2026-04-03T13:55:25.842Z</time></trkpt><trkpt lat="45.336943774567075" lon="11.67979710070797"><ele>200.50000000000003</ele><time>2026-04-03T13:55:28.842Z</time></trkpt><trkpt lat="45.33701397484113" lon="11.679719357589217"><ele>200.0</ele><time>2026-04-03T13:55:29.842Z</time></trkpt><trkpt lat="45.33708769410208" lon="11.679642737672678"><ele>200.00000000000003</ele><time>2026-04-03T13:55:30.842Z</time></trkpt><trkpt lat="45.33716994415694" lon="11.679581560399322"><ele>200.0</ele><time>2026-04-03T13:55:31.842Z</time></trkpt><trkpt lat="45.33725645045818" lon="11.67954690529838"><ele>200.0</ele><time>2026-04-03T13:55:32.842Z</time></trkpt><trkpt lat="45.33732854808283" lon="11.679537999721408"><ele>200.0</ele><time>2026-04-03T13:55:33.842Z</time></trkpt><trkpt lat="45.33739029217103" lon="11.679556631509103"><ele>200.00000000000003</ele><time>2026-04-03T13:55:34.842Z</time></trkpt><trkpt lat="45.337451993541606" lon="11.679586842044818"><ele>200.0</ele><time>2026-04-03T13:55:35.842Z</time></trkpt><trkpt lat="45.33755562701213" lon="11.679586103612348"><ele>199.50000000000003</ele><time>2026-04-03T13:55:37.842Z</time></trkpt><trkpt lat="45.33759215236474" lon="11.679472539284346"><ele>199.0</ele><time>2026-04-03T13:55:38.842Z</time></trkpt><trkpt lat="45.337596695061976" lon="11.679377063551053"><ele>198.5</ele><time>2026-04-03T13:55:39.842Z</time></trkpt><trkpt lat="45.33756453616898" lon="11.67927707678402"><ele>198.0</ele><time>2026-04-03T13:55:40.842Z</time></trkpt><trkpt lat="45.33747572511673" lon="11.679219993956046"><ele>197.50000000000003</ele><time>2026-04-03T13:55:41.842Z</time></trkpt><trkpt lat="45.337388662125186" lon="11.679178148995192"><ele>197.0</ele><time>2026-04-03T13:55:42.842Z</time></trkpt><trkpt lat="45.3373052491009" lon="11.679164628562408"><ele>196.2</ele><time>2026-04-03T13:55:43.842Z</time></trkpt><trkpt lat="45.33723211454278" lon="11.679197495828767"><ele>195.39999999999998</ele><time>2026-04-03T13:55:44.842Z</time></trkpt><trkpt lat="45.3371718794523" lon="11.679128006427648"><ele>194.60000000000002</ele><time>2026-04-03T13:55:45.842Z</time></trkpt><trkpt lat="45.33712075264148" lon="11.679015961076974"><ele>193.8</ele><time>2026-04-03T13:55:46.842Z</time></trkpt><trkpt lat="45.33721087831075" lon="11.67888767452974"><ele>193.0</ele><time>2026-04-03T13:55:47.842Z</time></trkpt><trkpt lat="45.33727759330998" lon="11.67883469300697"><ele>189.8</ele><time>2026-04-03T13:55:48.842Z</time></trkpt><trkpt lat="45.33735181813165" lon="11.678932814201028"><ele>186.60000000000002</ele><time>2026-04-03T13:55:49.842Z</time></trkpt><trkpt lat="45.33746410144943" lon="11.679014787558634"><ele>183.39999999999998</ele><time>2026-04-03T13:55:52.842Z</time></trkpt><trkpt lat="45.337549482473364" lon="11.679070322838848"><ele>180.2</ele><time>2026-04-03T13:55:53.842Z</time></trkpt><trkpt lat="45.33762448456488" lon="11.679137174154931"><ele>177.0</ele><time>2026-04-03T13:55:54.842Z</time></trkpt><trkpt lat="45.33769271672562" lon="11.679214218904564"><ele>177.0</ele><time>2026-04-03T13:55:55.842Z</time></trkpt><trkpt lat="45.33778629199248" lon="11.679266251423458"><ele>177.0</ele><time>2026-04-03T13:55:56.842Z</time></trkpt><trkpt lat="45.337876430699275" lon="11.679226431261279"><ele>177.0</ele><time>2026-04-03T13:55:57.842Z</time></trkpt><trkpt lat="45.33791344227134" lon="11.679134124847735"><ele>177.0</ele><time>2026-04-03T13:55:58.842Z</time></trkpt><trkpt lat="45.33788339023369" lon="11.679005441280335"><ele>177.0</ele><time>2026-04-03T13:55:59.842Z</time></trkpt><trkpt lat="45.337804600562386" lon="11.678959302140404"><ele>177.0</ele><time>2026-04-03T13:56:00.842Z</time></trkpt><trkpt lat="45.33772421561179" lon="11.678895387956672"><ele>177.0</ele><time>2026-04-03T13:56:01.842Z</time></trkpt><trkpt lat="45.337643209254274" lon="11.678872305385536"><ele>177.0</ele><time>2026-04-03T13:56:02.842Z</time></trkpt><trkpt lat="45.337566080247264" lon="11.678862502779564"><ele>177.0</ele><time>2026-04-03T13:56:03.842Z</time></trkpt><trkpt lat="45.33749259668386" lon="11.678809671832038"><ele>177.0</ele><time>2026-04-03T13:56:05.842Z</time></trkpt><trkpt lat="45.33754870273964" lon="11.678719920294437"><ele>177.0</ele><time>2026-04-03T13:56:07.842Z</time></trkpt><trkpt lat="45.33763756840161" lon="11.678762129653649"><ele>177.0</ele><time>2026-04-03T13:56:08.842Z</time></trkpt><trkpt lat="45.33771122217995" lon="11.678868228143767"><ele>177.0</ele><time>2026-04-03T13:56:09.842Z</time></trkpt><trkpt lat="45.33779716466307" lon="11.678915596088"><ele>177.0</ele><time>2026-04-03T13:56:10.841Z</time></trkpt><trkpt lat="45.337899827986625" lon="11.678946436979945"><ele>177.0</ele><time>2026-04-03T13:56:11.841Z</time></trkpt><trkpt lat="45.338014586297774" lon="11.678934365901382"><ele>177.0</ele><time>2026-04-03T13:56:12.842Z</time></trkpt><trkpt lat="45.33812418708002" lon="11.678880429266725"><ele>176.8</ele><time>2026-04-03T13:56:13.841Z</time></trkpt><trkpt lat="45.33823096498376" lon="11.678811175653854"><ele>176.6</ele><time>2026-04-03T13:56:14.841Z</time></trkpt><trkpt lat="45.33833500522282" lon="11.678744698647561"><ele>176.4</ele><time>2026-04-03T13:56:15.841Z</time></trkpt><trkpt lat="45.33843268702378" lon="11.678686284812802"><ele>176.20000000000002</ele><time>2026-04-03T13:56:16.841Z</time></trkpt><trkpt lat="45.338536233956965" lon="11.6786661390538"><ele>176.0</ele><time>2026-04-03T13:56:17.841Z</time></trkpt><trkpt lat="45.33865028665821" lon="11.678678631218506"><ele>176.0</ele><time>2026-04-03T13:56:18.841Z</time></trkpt><trkpt lat="45.33875500624861" lon="11.678743648886039"><ele>176.0</ele><time>2026-04-03T13:56:19.841Z</time></trkpt><trkpt lat="45.338877362187226" lon="11.678803558339345"><ele>176.0</ele><time>2026-04-03T13:56:20.841Z</time></trkpt><trkpt lat="45.339026821153944" lon="11.678838033362629"><ele>176.0</ele><time>2026-04-03T13:56:21.841Z</time></trkpt><trkpt lat="45.339176060578296" lon="11.678847224981714"><ele>173.0</ele><time>2026-04-03T13:56:22.841Z</time></trkpt><trkpt lat="45.33933440943414" lon="11.678854950995575"><ele>170.0</ele><time>2026-04-03T13:56:23.841Z</time></trkpt><trkpt lat="45.339501932224" lon="11.678846191392285"><ele>167.0</ele><time>2026-04-03T13:56:24.841Z</time></trkpt><trkpt lat="45.33965053349993" lon="11.678870972539663"><ele>163.25</ele><time>2026-04-03T13:56:25.841Z</time></trkpt><trkpt lat="45.33978723062747" lon="11.678896074292235"><ele>159.5</ele><time>2026-04-03T13:56:26.841Z</time></trkpt><trkpt lat="45.339901965568245" lon="11.678885146973593"><ele>155.75</ele><time>2026-04-03T13:56:27.841Z</time></trkpt><trkpt lat="45.33999951954102" lon="11.678841976301864"><ele>152.0</ele><time>2026-04-03T13:56:28.841Z</time></trkpt><trkpt lat="45.340144303297734" lon="11.678775601081313"><ele>150.25</ele><time>2026-04-03T13:56:29.841Z</time></trkpt><trkpt lat="45.34025324282696" lon="11.678585030100622"><ele>148.5</ele><time>2026-04-03T13:56:30.841Z</time></trkpt><trkpt lat="45.34033035059697" lon="11.678348871074832"><ele>146.75</ele><time>2026-04-03T13:56:31.841Z</time></trkpt><trkpt lat="45.34034266623642" lon="11.678473442408771"><ele>145.0</ele><time>2026-04-03T13:56:32.841Z</time></trkpt><trkpt lat="45.340383941648376" lon="11.67828789991564"><ele>145.0</ele><time>2026-04-03T13:56:33.841Z</time></trkpt><trkpt lat="45.34043019362669" lon="11.678104891798124"><ele>145.0</ele><time>2026-04-03T13:56:34.841Z</time></trkpt><trkpt lat="45.34048044569695" lon="11.677923642164235"><ele>145.0</ele><time>2026-04-03T13:56:35.841Z</time></trkpt><trkpt lat="45.340527819900075" lon="11.677751228280973"><ele>145.0</ele><time>2026-04-03T13:56:36.841Z</time></trkpt><trkpt lat="45.340575665659564" lon="11.677587311449306"><ele>143.5</ele><time>2026-04-03T13:56:37.841Z</time></trkpt><trkpt lat="45.3406221241522" lon="11.677438959675067"><ele>142.0</ele><time>2026-04-03T13:56:38.841Z</time></trkpt><trkpt lat="45.34068664979549" lon="11.677317020003647"><ele>140.5</ele><time>2026-04-03T13:56:39.841Z</time></trkpt><trkpt lat="45.34077387517856" lon="11.677198955625363"><ele>139.0</ele><time>2026-04-03T13:56:40.841Z</time></trkpt><trkpt lat="45.34087992937576" lon="11.67710289790414"><ele>139.0</ele><time>2026-04-03T13:56:41.841Z</time></trkpt><trkpt lat="45.341002946567805" lon="11.677059652525907"><ele>139.0</ele><time>2026-04-03T13:56:42.841Z</time></trkpt><trkpt lat="45.34112795500978" lon="11.67701993877914"><ele>139.0</ele><time>2026-04-03T13:56:43.841Z</time></trkpt><trkpt lat="45.34124595124223" lon="11.676998832181843"><ele>139.0</ele><time>2026-04-03T13:56:44.841Z</time></trkpt><trkpt lat="45.34135838427956" lon="11.676985057703098"><ele>139.0</ele><time>2026-04-03T13:56:45.841Z</time></trkpt><trkpt lat="45.34146388472603" lon="11.676974802493968"><ele>139.0</ele><time>2026-04-03T13:56:46.841Z</time></trkpt><trkpt lat="45.34157324664951" lon="11.676965496659577"><ele>139.0</ele><time>2026-04-03T13:56:47.841Z</time></trkpt><trkpt lat="45.34169961536583" lon="11.676949698654926"><ele>139.0</ele><time>2026-04-03T13:56:48.841Z</time></trkpt><trkpt lat="45.341816935786895" lon="11.676893511627005"><ele>139.0</ele><time>2026-04-03T13:56:49.841Z</time></trkpt><trkpt lat="45.34193815007553" lon="11.676835466834863"><ele>139.0</ele><time>2026-04-03T13:56:50.841Z</time></trkpt><trkpt lat="45.34205890418366" lon="11.676747915192601"><ele>139.0</ele><time>2026-04-03T13:56:51.841Z</time></trkpt><trkpt lat="45.34217863476436" lon="11.676647233721994"><ele>139.0</ele><time>2026-04-03T13:56:52.841Z</time></trkpt><trkpt lat="45.342308750025985" lon="11.67653199319173"><ele>141.33333333333334</ele><time>2026-04-03T13:56:53.841Z</time></trkpt><trkpt lat="45.342445726444375" lon="11.676426058715064"><ele>143.66666666666666</ele><time>2026-04-03T13:56:54.841Z</time></trkpt><trkpt lat="45.34259104558996" lon="11.676318287218804"><ele>146.0</ele><time>2026-04-03T13:56:55.841Z</time></trkpt><trkpt lat="45.34273376451795" lon="11.676214357217443"><ele>146.0</ele><time>2026-04-03T13:56:56.841Z</time></trkpt><trkpt lat="45.34286069102542" lon="11.676111378027192"><ele>146.0</ele><time>2026-04-03T13:56:57.841Z</time></trkpt><trkpt lat="45.343000966447356" lon="11.676026243505882"><ele>146.0</ele><time>2026-04-03T13:56:58.841Z</time></trkpt><trkpt lat="45.34311829417635" lon="11.675950782036479"><ele>146.0</ele><time>2026-04-03T13:56:59.841Z</time></trkpt><trkpt lat="45.34323008448426" lon="11.675901128168132"><ele>147.0</ele><time>2026-04-03T13:57:00.841Z</time></trkpt><trkpt lat="45.34335048612326" lon="11.675870521270781"><ele>148.0</ele><time>2026-04-03T13:57:01.841Z</time></trkpt><trkpt lat="45.343468280287226" lon="11.675859166442695"><ele>149.0</ele><time>2026-04-03T13:57:02.841Z</time></trkpt><trkpt lat="45.34357582886192" lon="11.675837987245762"><ele>150.0</ele><time>2026-04-03T13:57:03.841Z</time></trkpt><trkpt lat="45.343690259461845" lon="11.675799579221033"><ele>150.0</ele><time>2026-04-03T13:57:04.841Z</time></trkpt><trkpt lat="45.34380191735334" lon="11.675746847866131"><ele>150.0</ele><time>2026-04-03T13:57:05.841Z</time></trkpt><trkpt lat="45.34391570176003" lon="11.675689205641463"><ele>150.0</ele><time>2026-04-03T13:57:06.841Z</time></trkpt><trkpt lat="45.34402176650258" lon="11.675620229274207"><ele>150.0</ele><time>2026-04-03T13:57:07.841Z</time></trkpt><trkpt lat="45.34413061058855" lon="11.675557084786563"><ele>149.2</ele><time>2026-04-03T13:57:08.841Z</time></trkpt><trkpt lat="45.34423712313161" lon="11.675500088098387"><ele>148.4</ele><time>2026-04-03T13:57:09.841Z</time></trkpt><trkpt lat="45.344340636227464" lon="11.675447843978478"><ele>147.6</ele><time>2026-04-03T13:57:10.841Z</time></trkpt><trkpt lat="45.344444139415984" lon="11.67539087875007"><ele>146.8</ele><time>2026-04-03T13:57:11.841Z</time></trkpt><trkpt lat="45.344543669097824" lon="11.675335175819813"><ele>146.0</ele><time>2026-04-03T13:57:12.841Z</time></trkpt><trkpt lat="45.34465623940954" lon="11.675270244568809"><ele>148.25</ele><time>2026-04-03T13:57:13.841Z</time></trkpt><trkpt lat="45.34477026715102" lon="11.675210927753007"><ele>150.5</ele><time>2026-04-03T13:57:14.841Z</time></trkpt><trkpt lat="45.344886529808626" lon="11.675145188377217"><ele>152.75</ele><time>2026-04-03T13:57:15.841Z</time></trkpt><trkpt lat="45.34500546227412" lon="11.675081369585756"><ele>155.0</ele><time>2026-04-03T13:57:16.841Z</time></trkpt><trkpt lat="45.34512227547753" lon="11.675019337513184"><ele>155.0</ele><time>2026-04-03T13:57:17.841Z</time></trkpt><trkpt lat="45.345234571024044" lon="11.674960419147101"><ele>155.0</ele><time>2026-04-03T13:57:18.841Z</time></trkpt><trkpt lat="45.34534922524681" lon="11.674905016673616"><ele>155.0</ele><time>2026-04-03T13:57:19.841Z</time></trkpt><trkpt lat="45.34545569559606" lon="11.674848929792038"><ele>155.0</ele><time>2026-04-03T13:57:20.841Z</time></trkpt><trkpt lat="45.34556812225492" lon="11.674792152456277"><ele>153.5</ele><time>2026-04-03T13:57:21.841Z</time></trkpt><trkpt lat="45.345674349890245" lon="11.674732145504999"><ele>152.0</ele><time>2026-04-03T13:57:22.841Z</time></trkpt><trkpt lat="45.34577406127234" lon="11.674666248615235"><ele>150.5</ele><time>2026-04-03T13:57:23.841Z</time></trkpt><trkpt lat="45.345870554756054" lon="11.674586469020067"><ele>149.0</ele><time>2026-04-03T13:57:24.841Z</time></trkpt><trkpt lat="45.34597347279219" lon="11.674501043568672"><ele>148.25</ele><time>2026-04-03T13:57:25.841Z</time></trkpt><trkpt lat="45.346077442008635" lon="11.674411446396524"><ele>147.5</ele><time>2026-04-03T13:57:26.841Z</time></trkpt><trkpt lat="45.34618247588417" lon="11.674320050007227"><ele>146.75</ele><time>2026-04-03T13:57:27.841Z</time></trkpt><trkpt lat="45.34628213801505" lon="11.674231672086236"><ele>146.0</ele><time>2026-04-03T13:57:28.841Z</time></trkpt><trkpt lat="45.34638312760844" lon="11.674148213774046"><ele>146.0</ele><time>2026-04-03T13:57:29.841Z</time></trkpt><trkpt lat="45.34647984881656" lon="11.674055271160661"><ele>146.0</ele><time>2026-04-03T13:57:30.841Z</time></trkpt><trkpt lat="45.346573911968115" lon="11.673983065029406"><ele>146.0</ele><time>2026-04-03T13:57:31.841Z</time></trkpt><trkpt lat="45.34666711049493" lon="11.673895639184002"><ele>146.0</ele><time>2026-04-03T13:57:32.841Z</time></trkpt><trkpt lat="45.346760458596194" lon="11.6738199826929"><ele>146.0</ele><time>2026-04-03T13:57:33.841Z</time></trkpt><trkpt lat="45.34685936767983" lon="11.673751246863565"><ele>146.0</ele><time>2026-04-03T13:57:34.841Z</time></trkpt><trkpt lat="45.34695236952224" lon="11.673679480813625"><ele>146.0</ele><time>2026-04-03T13:57:35.841Z</time></trkpt><trkpt lat="45.347037213652904" lon="11.67360592704336"><ele>146.0</ele><time>2026-04-03T13:57:36.841Z</time></trkpt><trkpt lat="45.34712106150895" lon="11.673521980071676"><ele>146.0</ele><time>2026-04-03T13:57:37.841Z</time></trkpt><trkpt lat="45.34721415563664" lon="11.673453460300436"><ele>146.0</ele><time>2026-04-03T13:57:38.841Z</time></trkpt><trkpt lat="45.34730443040242" lon="11.673382045509017"><ele>147.2</ele><time>2026-04-03T13:57:39.841Z</time></trkpt><trkpt lat="45.34739874769108" lon="11.673319451068943"><ele>148.39999999999998</ele><time>2026-04-03T13:57:40.841Z</time></trkpt><trkpt lat="45.34749331428132" lon="11.673252139362978"><ele>149.6</ele><time>2026-04-03T13:57:41.841Z</time></trkpt><trkpt lat="45.34759002532239" lon="11.673189869097602"><ele>150.79999999999998</ele><time>2026-04-03T13:57:42.841Z</time></trkpt><trkpt lat="45.347682543090535" lon="11.673124653236979"><ele>152.0</ele><time>2026-04-03T13:57:43.841Z</time></trkpt><trkpt lat="45.34777130115691" lon="11.67305875218658"><ele>152.0</ele><time>2026-04-03T13:57:44.841Z</time></trkpt><trkpt lat="45.34786204249382" lon="11.673000306481956"><ele>152.0</ele><time>2026-04-03T13:57:45.841Z</time></trkpt><trkpt lat="45.34794699015345" lon="11.672937420017833"><ele>152.0</ele><time>2026-04-03T13:57:46.841Z</time></trkpt><trkpt lat="45.34802623475864" lon="11.672883443422053"><ele>152.0</ele><time>2026-04-03T13:57:47.841Z</time></trkpt><trkpt lat="45.34810236193404" lon="11.672846824306903"><ele>152.0</ele><time>2026-04-03T13:57:48.841Z</time></trkpt><trkpt lat="45.34816978253784" lon="11.672788858111263"><ele>152.0</ele><time>2026-04-03T13:57:49.841Z</time></trkpt><trkpt lat="45.34823039199735" lon="11.672732092558286"><ele>153.0</ele><time>2026-04-03T13:57:50.841Z</time></trkpt><trkpt lat="45.348294429216274" lon="11.672679432208222"><ele>154.0</ele><time>2026-04-03T13:57:51.841Z</time></trkpt><trkpt lat="45.34836124633139" lon="11.672654864592845"><ele>155.0</ele><time>2026-04-03T13:57:52.841Z</time></trkpt><trkpt lat="45.34842742050184" lon="11.672635533660346"><ele>156.0</ele><time>2026-04-03T13:57:53.841Z</time></trkpt><trkpt lat="45.34855534256338" lon="11.67261030057652"><ele>157.0</ele><time>2026-04-03T13:57:55.841Z</time></trkpt><trkpt lat="45.34865760412258" lon="11.67257430515903"><ele>158.0</ele><time>2026-04-03T13:57:57.841Z</time></trkpt><trkpt lat="45.34872402034833" lon="11.672582181238935"><ele>158.0</ele><time>2026-04-03T13:57:59.841Z</time></trkpt><trkpt lat="45.34879086385211" lon="11.672557071819547"><ele>158.0</ele><time>2026-04-03T13:58:04.841Z</time></trkpt><trkpt lat="45.3488562967588" lon="11.67260279269127"><ele>158.0</ele><time>2026-04-03T13:58:08.842Z</time></trkpt><trkpt lat="45.34889466702915" lon="11.672689861036567"><ele>165.0</ele><time>2026-04-03T13:58:29.841Z</time></trkpt><trkpt lat="45.348966973954965" lon="11.672679033215895"><ele>165.0</ele><time>2026-04-03T13:59:34.841Z</time></trkpt><trkpt lat="45.34890532224777" lon="11.672741236710799"><ele>165.0</ele><time>2026-04-03T14:00:38.84Z</time></trkpt></trkseg></trk></gpx>